<?xml version="1.0" encoding="UTF-8" standalone="no" ?>
<gpx xmlns="http://www.topografix.com/GPX/1/1" xmlns:xsi="http://www.w3.org/2001/XMLSchema-instance" xsi:schemaLocation="http://www.topografix.com/GPX/1/1 http://www.topografix.com/GPX/1/1/gpx.xsd" version="1.1" creator="VisuGPX - https://www.visugpx.com">
  <metadata>
    <name>Pornichet 30/06/2022</name>
    <desc><![CDATA[Sortie jeudi 30 juin 2022]]></desc>
  </metadata>
  <trk>
    <name><![CDATA[Pornichet Cyclisme]]></name>
    <trkseg>
      <trkpt lat="47.26347" lon="-2.31533">
        <ele>8.3</ele>
        <time>2022-06-30T06:49:19.000Z</time>
      </trkpt>
      <trkpt lat="47.26348" lon="-2.31545">
        <ele>7.9</ele>
        <time>2022-06-30T06:49:22.000Z</time>
      </trkpt>
      <trkpt lat="47.26348" lon="-2.31549">
        <ele>7.8</ele>
        <time>2022-06-30T06:49:23.000Z</time>
      </trkpt>
      <trkpt lat="47.26348" lon="-2.31555">
        <ele>7.5</ele>
        <time>2022-06-30T06:49:24.000Z</time>
      </trkpt>
      <trkpt lat="47.26351" lon="-2.31601">
        <ele>7.6</ele>
        <time>2022-06-30T06:49:31.000Z</time>
      </trkpt>
      <trkpt lat="47.26348" lon="-2.31615">
        <ele>7.5</ele>
        <time>2022-06-30T06:49:34.000Z</time>
      </trkpt>
      <trkpt lat="47.26345" lon="-2.31618">
        <ele>7.4</ele>
        <time>2022-06-30T06:49:35.000Z</time>
      </trkpt>
      <trkpt lat="47.26332" lon="-2.31625">
        <ele>7</ele>
        <time>2022-06-30T06:49:38.000Z</time>
      </trkpt>
      <trkpt lat="47.26329" lon="-2.31628">
        <ele>6.8</ele>
        <time>2022-06-30T06:49:39.000Z</time>
      </trkpt>
      <trkpt lat="47.2631" lon="-2.31639">
        <ele>-0.40000000596046</ele>
        <time>2022-06-30T06:49:43.000Z</time>
      </trkpt>
      <trkpt lat="47.26305" lon="-2.31641">
        <ele>-1.2000000476837</ele>
        <time>2022-06-30T06:49:44.000Z</time>
      </trkpt>
      <trkpt lat="47.26301" lon="-2.31643">
        <ele>-1.6000000238419</ele>
        <time>2022-06-30T06:49:45.000Z</time>
      </trkpt>
      <trkpt lat="47.26295" lon="-2.31646">
        <ele>-2</ele>
        <time>2022-06-30T06:49:46.000Z</time>
      </trkpt>
      <trkpt lat="47.26274" lon="-2.31654">
        <ele>-2</ele>
        <time>2022-06-30T06:49:50.000Z</time>
      </trkpt>
      <trkpt lat="47.26256" lon="-2.3166">
        <ele>-2.4000000953674</ele>
        <time>2022-06-30T06:49:53.000Z</time>
      </trkpt>
      <trkpt lat="47.26251" lon="-2.31663">
        <ele>-2.7999999523163</ele>
        <time>2022-06-30T06:49:54.000Z</time>
      </trkpt>
      <trkpt lat="47.26248" lon="-2.31667">
        <ele>-3.2000000476837</ele>
        <time>2022-06-30T06:49:55.000Z</time>
      </trkpt>
      <trkpt lat="47.26245" lon="-2.31673">
        <ele>-3.7999999523163</ele>
        <time>2022-06-30T06:49:56.000Z</time>
      </trkpt>
      <trkpt lat="47.26243" lon="-2.31679">
        <ele>-4.1999998092651</ele>
        <time>2022-06-30T06:49:57.000Z</time>
      </trkpt>
      <trkpt lat="47.26241" lon="-2.31689">
        <ele>-4.1999998092651</ele>
        <time>2022-06-30T06:49:59.000Z</time>
      </trkpt>
      <trkpt lat="47.26243" lon="-2.31708">
        <ele>-4.1999998092651</ele>
        <time>2022-06-30T06:50:02.000Z</time>
      </trkpt>
      <trkpt lat="47.26246" lon="-2.31721">
        <ele>-4.1999998092651</ele>
        <time>2022-06-30T06:50:04.000Z</time>
      </trkpt>
      <trkpt lat="47.2625" lon="-2.31746">
        <ele>-4.1999998092651</ele>
        <time>2022-06-30T06:50:08.000Z</time>
      </trkpt>
      <trkpt lat="47.26251" lon="-2.31774">
        <ele>-4.1999998092651</ele>
        <time>2022-06-30T06:50:12.000Z</time>
      </trkpt>
      <trkpt lat="47.26252" lon="-2.31816">
        <ele>-4.1999998092651</ele>
        <time>2022-06-30T06:50:18.000Z</time>
      </trkpt>
      <trkpt lat="47.2625" lon="-2.31821">
        <ele>-4.1999998092651</ele>
        <time>2022-06-30T06:50:19.000Z</time>
      </trkpt>
      <trkpt lat="47.26238" lon="-2.31836">
        <ele>-4.1999998092651</ele>
        <time>2022-06-30T06:50:23.000Z</time>
      </trkpt>
      <trkpt lat="47.26234" lon="-2.31839">
        <ele>-4.1999998092651</ele>
        <time>2022-06-30T06:50:24.000Z</time>
      </trkpt>
      <trkpt lat="47.26223" lon="-2.31857">
        <ele>-4.1999998092651</ele>
        <time>2022-06-30T06:50:28.000Z</time>
      </trkpt>
      <trkpt lat="47.26205" lon="-2.31891">
        <ele>-4.5999999046326</ele>
        <time>2022-06-30T06:50:36.000Z</time>
      </trkpt>
      <trkpt lat="47.26204" lon="-2.31894">
        <ele>-5</ele>
        <time>2022-06-30T06:50:37.000Z</time>
      </trkpt>
      <trkpt lat="47.26201" lon="-2.31896">
        <ele>-5.4000000953674</ele>
        <time>2022-06-30T06:50:38.000Z</time>
      </trkpt>
      <trkpt lat="47.26198" lon="-2.31895">
        <ele>-5.8000001907349</ele>
        <time>2022-06-30T06:50:39.000Z</time>
      </trkpt>
      <trkpt lat="47.26195" lon="-2.31895">
        <ele>-6.1999998092651</ele>
        <time>2022-06-30T06:50:40.000Z</time>
      </trkpt>
      <trkpt lat="47.26191" lon="-2.31898">
        <ele>-6.1999998092651</ele>
        <time>2022-06-30T06:50:42.000Z</time>
      </trkpt>
      <trkpt lat="47.26187" lon="-2.31902">
        <ele>-6.1999998092651</ele>
        <time>2022-06-30T06:50:44.000Z</time>
      </trkpt>
      <trkpt lat="47.26182" lon="-2.31906">
        <ele>-6.1999998092651</ele>
        <time>2022-06-30T06:50:46.000Z</time>
      </trkpt>
      <trkpt lat="47.2617" lon="-2.31914">
        <ele>-6.1999998092651</ele>
        <time>2022-06-30T06:50:50.000Z</time>
      </trkpt>
      <trkpt lat="47.26165" lon="-2.31925">
        <ele>-6.1999998092651</ele>
        <time>2022-06-30T06:50:54.000Z</time>
      </trkpt>
      <trkpt lat="47.26162" lon="-2.3193">
        <ele>-6.1999998092651</ele>
        <time>2022-06-30T06:50:56.000Z</time>
      </trkpt>
      <trkpt lat="47.26155" lon="-2.31931">
        <ele>-6.1999998092651</ele>
        <time>2022-06-30T06:50:59.000Z</time>
      </trkpt>
      <trkpt lat="47.26153" lon="-2.3193">
        <ele>-6.1999998092651</ele>
        <time>2022-06-30T06:51:00.000Z</time>
      </trkpt>
      <trkpt lat="47.26141" lon="-2.31932">
        <ele>-6.1999998092651</ele>
        <time>2022-06-30T06:51:04.000Z</time>
      </trkpt>
      <trkpt lat="47.26134" lon="-2.31937">
        <ele>-6.1999998092651</ele>
        <time>2022-06-30T06:51:06.000Z</time>
      </trkpt>
      <trkpt lat="47.26126" lon="-2.31944">
        <ele>-6.1999998092651</ele>
        <time>2022-06-30T06:51:08.000Z</time>
      </trkpt>
      <trkpt lat="47.26122" lon="-2.31949">
        <ele>-6.1999998092651</ele>
        <time>2022-06-30T06:51:09.000Z</time>
      </trkpt>
      <trkpt lat="47.2611" lon="-2.3197">
        <ele>-6.1999998092651</ele>
        <time>2022-06-30T06:51:12.000Z</time>
      </trkpt>
      <trkpt lat="47.26107" lon="-2.31977">
        <ele>-6.1999998092651</ele>
        <time>2022-06-30T06:51:13.000Z</time>
      </trkpt>
      <trkpt lat="47.26096" lon="-2.32013">
        <ele>-6.1999998092651</ele>
        <time>2022-06-30T06:51:18.000Z</time>
      </trkpt>
      <trkpt lat="47.26083" lon="-2.32054">
        <ele>-6.1999998092651</ele>
        <time>2022-06-30T06:51:24.000Z</time>
      </trkpt>
      <trkpt lat="47.2607" lon="-2.32093">
        <ele>-6.1999998092651</ele>
        <time>2022-06-30T06:51:30.000Z</time>
      </trkpt>
      <trkpt lat="47.2605" lon="-2.32133">
        <ele>-6.1999998092651</ele>
        <time>2022-06-30T06:51:36.000Z</time>
      </trkpt>
      <trkpt lat="47.26022" lon="-2.32175">
        <ele>-6.1999998092651</ele>
        <time>2022-06-30T06:51:43.000Z</time>
      </trkpt>
      <trkpt lat="47.25992" lon="-2.32211">
        <ele>-6.1999998092651</ele>
        <time>2022-06-30T06:51:50.000Z</time>
      </trkpt>
      <trkpt lat="47.25968" lon="-2.32241">
        <ele>-6.1999998092651</ele>
        <time>2022-06-30T06:51:56.000Z</time>
      </trkpt>
      <trkpt lat="47.25934" lon="-2.32287">
        <ele>-6.1999998092651</ele>
        <time>2022-06-30T06:52:04.000Z</time>
      </trkpt>
      <trkpt lat="47.25917" lon="-2.3231">
        <ele>-6.1999998092651</ele>
        <time>2022-06-30T06:52:08.000Z</time>
      </trkpt>
      <trkpt lat="47.25902" lon="-2.32331">
        <ele>-6.1999998092651</ele>
        <time>2022-06-30T06:52:12.000Z</time>
      </trkpt>
      <trkpt lat="47.25893" lon="-2.32342">
        <ele>-6.1999998092651</ele>
        <time>2022-06-30T06:52:14.000Z</time>
      </trkpt>
      <trkpt lat="47.25878" lon="-2.32363">
        <ele>-6.1999998092651</ele>
        <time>2022-06-30T06:52:18.000Z</time>
      </trkpt>
      <trkpt lat="47.25851" lon="-2.32403">
        <ele>-6.1999998092651</ele>
        <time>2022-06-30T06:52:26.000Z</time>
      </trkpt>
      <trkpt lat="47.2585" lon="-2.32408">
        <ele>-6.1999998092651</ele>
        <time>2022-06-30T06:52:27.000Z</time>
      </trkpt>
      <trkpt lat="47.25856" lon="-2.32418">
        <ele>-6.1999998092651</ele>
        <time>2022-06-30T06:52:30.000Z</time>
      </trkpt>
      <trkpt lat="47.25863" lon="-2.32421">
        <ele>-6.1999998092651</ele>
        <time>2022-06-30T06:52:32.000Z</time>
      </trkpt>
      <trkpt lat="47.2587" lon="-2.32431">
        <ele>-6.1999998092651</ele>
        <time>2022-06-30T06:52:34.000Z</time>
      </trkpt>
      <trkpt lat="47.25878" lon="-2.32458">
        <ele>-6.1999998092651</ele>
        <time>2022-06-30T06:52:38.000Z</time>
      </trkpt>
      <trkpt lat="47.25892" lon="-2.32504">
        <ele>-6.1999998092651</ele>
        <time>2022-06-30T06:52:45.000Z</time>
      </trkpt>
      <trkpt lat="47.25909" lon="-2.32568">
        <ele>-6.1999998092651</ele>
        <time>2022-06-30T06:52:54.000Z</time>
      </trkpt>
      <trkpt lat="47.25912" lon="-2.32582">
        <ele>-6.1999998092651</ele>
        <time>2022-06-30T06:52:56.000Z</time>
      </trkpt>
      <trkpt lat="47.25913" lon="-2.32604">
        <ele>-6.1999998092651</ele>
        <time>2022-06-30T06:52:59.000Z</time>
      </trkpt>
      <trkpt lat="47.25922" lon="-2.32607">
        <ele>-6.1999998092651</ele>
        <time>2022-06-30T06:53:02.000Z</time>
      </trkpt>
      <trkpt lat="47.25926" lon="-2.32607">
        <ele>-6.1999998092651</ele>
        <time>2022-06-30T06:53:03.000Z</time>
      </trkpt>
      <trkpt lat="47.25948" lon="-2.32607">
        <ele>-6.1999998092651</ele>
        <time>2022-06-30T06:53:08.000Z</time>
      </trkpt>
      <trkpt lat="47.25985" lon="-2.326">
        <ele>-6.1999998092651</ele>
        <time>2022-06-30T06:53:16.000Z</time>
      </trkpt>
      <trkpt lat="47.26026" lon="-2.32601">
        <ele>-6.1999998092651</ele>
        <time>2022-06-30T06:53:24.000Z</time>
      </trkpt>
      <trkpt lat="47.26075" lon="-2.32613">
        <ele>-6.1999998092651</ele>
        <time>2022-06-30T06:53:31.000Z</time>
      </trkpt>
      <trkpt lat="47.26111" lon="-2.32621">
        <ele>-6.1999998092651</ele>
        <time>2022-06-30T06:53:37.000Z</time>
      </trkpt>
      <trkpt lat="47.26122" lon="-2.32625">
        <ele>-6.1999998092651</ele>
        <time>2022-06-30T06:53:39.000Z</time>
      </trkpt>
      <trkpt lat="47.26131" lon="-2.3263">
        <ele>-6.1999998092651</ele>
        <time>2022-06-30T06:53:41.000Z</time>
      </trkpt>
      <trkpt lat="47.26136" lon="-2.32632">
        <ele>-6.1999998092651</ele>
        <time>2022-06-30T06:53:42.000Z</time>
      </trkpt>
      <trkpt lat="47.2617" lon="-2.32654">
        <ele>-6.1999998092651</ele>
        <time>2022-06-30T06:53:49.000Z</time>
      </trkpt>
      <trkpt lat="47.262" lon="-2.32686">
        <ele>-6.1999998092651</ele>
        <time>2022-06-30T06:53:56.000Z</time>
      </trkpt>
      <trkpt lat="47.26221" lon="-2.32714">
        <ele>-6.1999998092651</ele>
        <time>2022-06-30T06:54:01.000Z</time>
      </trkpt>
      <trkpt lat="47.26234" lon="-2.32733">
        <ele>-6.1999998092651</ele>
        <time>2022-06-30T06:54:04.000Z</time>
      </trkpt>
      <trkpt lat="47.26265" lon="-2.3278">
        <ele>-6.1999998092651</ele>
        <time>2022-06-30T06:54:10.000Z</time>
      </trkpt>
      <trkpt lat="47.26269" lon="-2.32789">
        <ele>-6.1999998092651</ele>
        <time>2022-06-30T06:54:11.000Z</time>
      </trkpt>
      <trkpt lat="47.2628" lon="-2.32832">
        <ele>-6.1999998092651</ele>
        <time>2022-06-30T06:54:16.000Z</time>
      </trkpt>
      <trkpt lat="47.26282" lon="-2.32841">
        <ele>-6.5999999046326</ele>
        <time>2022-06-30T06:54:17.000Z</time>
      </trkpt>
      <trkpt lat="47.26285" lon="-2.32849">
        <ele>-7</ele>
        <time>2022-06-30T06:54:18.000Z</time>
      </trkpt>
      <trkpt lat="47.26289" lon="-2.32856">
        <ele>-7.4000000953674</ele>
        <time>2022-06-30T06:54:19.000Z</time>
      </trkpt>
      <trkpt lat="47.26294" lon="-2.3286">
        <ele>-7.8000001907349</ele>
        <time>2022-06-30T06:54:20.000Z</time>
      </trkpt>
      <trkpt lat="47.263" lon="-2.32862">
        <ele>-8.1999998092651</ele>
        <time>2022-06-30T06:54:21.000Z</time>
      </trkpt>
      <trkpt lat="47.26311" lon="-2.32868">
        <ele>-8.1999998092651</ele>
        <time>2022-06-30T06:54:23.000Z</time>
      </trkpt>
      <trkpt lat="47.26314" lon="-2.32875">
        <ele>-8.1999998092651</ele>
        <time>2022-06-30T06:54:24.000Z</time>
      </trkpt>
      <trkpt lat="47.26319" lon="-2.32891">
        <ele>-8.1999998092651</ele>
        <time>2022-06-30T06:54:26.000Z</time>
      </trkpt>
      <trkpt lat="47.26328" lon="-2.32924">
        <ele>-8.1999998092651</ele>
        <time>2022-06-30T06:54:30.000Z</time>
      </trkpt>
      <trkpt lat="47.26331" lon="-2.32931">
        <ele>-8.1999998092651</ele>
        <time>2022-06-30T06:54:31.000Z</time>
      </trkpt>
      <trkpt lat="47.26346" lon="-2.32968">
        <ele>-8.1999998092651</ele>
        <time>2022-06-30T06:54:36.000Z</time>
      </trkpt>
      <trkpt lat="47.26349" lon="-2.32975">
        <ele>-8.1999998092651</ele>
        <time>2022-06-30T06:54:37.000Z</time>
      </trkpt>
      <trkpt lat="47.26361" lon="-2.32993">
        <ele>-8.1999998092651</ele>
        <time>2022-06-30T06:54:40.000Z</time>
      </trkpt>
      <trkpt lat="47.26363" lon="-2.33001">
        <ele>-8.1999998092651</ele>
        <time>2022-06-30T06:54:41.000Z</time>
      </trkpt>
      <trkpt lat="47.26365" lon="-2.33024">
        <ele>-8.1999998092651</ele>
        <time>2022-06-30T06:54:44.000Z</time>
      </trkpt>
      <trkpt lat="47.26369" lon="-2.33108">
        <ele>-8.1999998092651</ele>
        <time>2022-06-30T06:54:54.000Z</time>
      </trkpt>
      <trkpt lat="47.26374" lon="-2.3319">
        <ele>-8.1999998092651</ele>
        <time>2022-06-30T06:55:04.000Z</time>
      </trkpt>
      <trkpt lat="47.26381" lon="-2.33254">
        <ele>-8.1999998092651</ele>
        <time>2022-06-30T06:55:12.000Z</time>
      </trkpt>
      <trkpt lat="47.26393" lon="-2.33268">
        <ele>-8.1999998092651</ele>
        <time>2022-06-30T06:55:15.000Z</time>
      </trkpt>
      <trkpt lat="47.26404" lon="-2.3327">
        <ele>-8.1999998092651</ele>
        <time>2022-06-30T06:55:17.000Z</time>
      </trkpt>
      <trkpt lat="47.2642" lon="-2.33272">
        <ele>-8.1999998092651</ele>
        <time>2022-06-30T06:55:20.000Z</time>
      </trkpt>
      <trkpt lat="47.26456" lon="-2.33276">
        <ele>-8.1999998092651</ele>
        <time>2022-06-30T06:55:27.000Z</time>
      </trkpt>
      <trkpt lat="47.26461" lon="-2.33278">
        <ele>-8.1999998092651</ele>
        <time>2022-06-30T06:55:28.000Z</time>
      </trkpt>
      <trkpt lat="47.26466" lon="-2.3328">
        <ele>-8.1999998092651</ele>
        <time>2022-06-30T06:55:29.000Z</time>
      </trkpt>
      <trkpt lat="47.26485" lon="-2.33281">
        <ele>-8.1999998092651</ele>
        <time>2022-06-30T06:55:33.000Z</time>
      </trkpt>
      <trkpt lat="47.26498" lon="-2.33283">
        <ele>-8.1999998092651</ele>
        <time>2022-06-30T06:55:36.000Z</time>
      </trkpt>
      <trkpt lat="47.26507" lon="-2.33289">
        <ele>-8.1999998092651</ele>
        <time>2022-06-30T06:55:38.000Z</time>
      </trkpt>
      <trkpt lat="47.26522" lon="-2.33312">
        <ele>-8.1999998092651</ele>
        <time>2022-06-30T06:55:42.000Z</time>
      </trkpt>
      <trkpt lat="47.26524" lon="-2.33336">
        <ele>-8.1999998092651</ele>
        <time>2022-06-30T06:55:45.000Z</time>
      </trkpt>
      <trkpt lat="47.26529" lon="-2.3337">
        <ele>-8.1999998092651</ele>
        <time>2022-06-30T06:55:49.000Z</time>
      </trkpt>
      <trkpt lat="47.26543" lon="-2.33428">
        <ele>-8.1999998092651</ele>
        <time>2022-06-30T06:55:56.000Z</time>
      </trkpt>
      <trkpt lat="47.26554" lon="-2.33496">
        <ele>-8.1999998092651</ele>
        <time>2022-06-30T06:56:04.000Z</time>
      </trkpt>
      <trkpt lat="47.26556" lon="-2.33503">
        <ele>-8.1999998092651</ele>
        <time>2022-06-30T06:56:05.000Z</time>
      </trkpt>
      <trkpt lat="47.26564" lon="-2.33532">
        <ele>-8.1999998092651</ele>
        <time>2022-06-30T06:56:09.000Z</time>
      </trkpt>
      <trkpt lat="47.26564" lon="-2.3354">
        <ele>-8.1999998092651</ele>
        <time>2022-06-30T06:56:10.000Z</time>
      </trkpt>
      <trkpt lat="47.26569" lon="-2.3358">
        <ele>-8.1999998092651</ele>
        <time>2022-06-30T06:56:15.000Z</time>
      </trkpt>
      <trkpt lat="47.26573" lon="-2.33625">
        <ele>-8.1999998092651</ele>
        <time>2022-06-30T06:56:21.000Z</time>
      </trkpt>
      <trkpt lat="47.26576" lon="-2.33658">
        <ele>-7.8000001907349</ele>
        <time>2022-06-30T06:56:26.000Z</time>
      </trkpt>
      <trkpt lat="47.26577" lon="-2.33664">
        <ele>-7.4000000953674</ele>
        <time>2022-06-30T06:56:27.000Z</time>
      </trkpt>
      <trkpt lat="47.26578" lon="-2.33671">
        <ele>-7</ele>
        <time>2022-06-30T06:56:28.000Z</time>
      </trkpt>
      <trkpt lat="47.26581" lon="-2.33676">
        <ele>-6.5999999046326</ele>
        <time>2022-06-30T06:56:29.000Z</time>
      </trkpt>
      <trkpt lat="47.26583" lon="-2.33681">
        <ele>-6.1999998092651</ele>
        <time>2022-06-30T06:56:30.000Z</time>
      </trkpt>
      <trkpt lat="47.26591" lon="-2.33695">
        <ele>-6.1999998092651</ele>
        <time>2022-06-30T06:56:33.000Z</time>
      </trkpt>
      <trkpt lat="47.26604" lon="-2.33714">
        <ele>-6.1999998092651</ele>
        <time>2022-06-30T06:56:37.000Z</time>
      </trkpt>
      <trkpt lat="47.26611" lon="-2.33721">
        <ele>-6.1999998092651</ele>
        <time>2022-06-30T06:56:39.000Z</time>
      </trkpt>
      <trkpt lat="47.26616" lon="-2.33729">
        <ele>-6.1999998092651</ele>
        <time>2022-06-30T06:56:41.000Z</time>
      </trkpt>
      <trkpt lat="47.26622" lon="-2.33739">
        <ele>-5.8000001907349</ele>
        <time>2022-06-30T06:56:43.000Z</time>
      </trkpt>
      <trkpt lat="47.26625" lon="-2.33744">
        <ele>-5.4000000953674</ele>
        <time>2022-06-30T06:56:44.000Z</time>
      </trkpt>
      <trkpt lat="47.26629" lon="-2.33749">
        <ele>-5</ele>
        <time>2022-06-30T06:56:45.000Z</time>
      </trkpt>
      <trkpt lat="47.26632" lon="-2.33754">
        <ele>-4.5999999046326</ele>
        <time>2022-06-30T06:56:46.000Z</time>
      </trkpt>
      <trkpt lat="47.26636" lon="-2.3376">
        <ele>-4.1999998092651</ele>
        <time>2022-06-30T06:56:47.000Z</time>
      </trkpt>
      <trkpt lat="47.2665" lon="-2.33782">
        <ele>-4.1999998092651</ele>
        <time>2022-06-30T06:56:51.000Z</time>
      </trkpt>
      <trkpt lat="47.26673" lon="-2.3381">
        <ele>-4.1999998092651</ele>
        <time>2022-06-30T06:56:57.000Z</time>
      </trkpt>
      <trkpt lat="47.26681" lon="-2.3382">
        <ele>-4.1999998092651</ele>
        <time>2022-06-30T06:56:59.000Z</time>
      </trkpt>
      <trkpt lat="47.26684" lon="-2.33826">
        <ele>-4.1999998092651</ele>
        <time>2022-06-30T06:57:00.000Z</time>
      </trkpt>
      <trkpt lat="47.26697" lon="-2.33848">
        <ele>-4.1999998092651</ele>
        <time>2022-06-30T06:57:04.000Z</time>
      </trkpt>
      <trkpt lat="47.26713" lon="-2.33875">
        <ele>-4.1999998092651</ele>
        <time>2022-06-30T06:57:09.000Z</time>
      </trkpt>
      <trkpt lat="47.26721" lon="-2.33886">
        <ele>-4.1999998092651</ele>
        <time>2022-06-30T06:57:11.000Z</time>
      </trkpt>
      <trkpt lat="47.26749" lon="-2.33931">
        <ele>-4.1999998092651</ele>
        <time>2022-06-30T06:57:19.000Z</time>
      </trkpt>
      <trkpt lat="47.26765" lon="-2.33961">
        <ele>-4.1999998092651</ele>
        <time>2022-06-30T06:57:24.000Z</time>
      </trkpt>
      <trkpt lat="47.26773" lon="-2.33971">
        <ele>-4.1999998092651</ele>
        <time>2022-06-30T06:57:26.000Z</time>
      </trkpt>
      <trkpt lat="47.26784" lon="-2.33987">
        <ele>-4.1999998092651</ele>
        <time>2022-06-30T06:57:29.000Z</time>
      </trkpt>
      <trkpt lat="47.26788" lon="-2.33992">
        <ele>-3.7999999523163</ele>
        <time>2022-06-30T06:57:30.000Z</time>
      </trkpt>
      <trkpt lat="47.26791" lon="-2.33998">
        <ele>-3.4000000953674</ele>
        <time>2022-06-30T06:57:31.000Z</time>
      </trkpt>
      <trkpt lat="47.26795" lon="-2.34004">
        <ele>-2.5999999046326</ele>
        <time>2022-06-30T06:57:32.000Z</time>
      </trkpt>
      <trkpt lat="47.26798" lon="-2.3401">
        <ele>-2.2000000476837</ele>
        <time>2022-06-30T06:57:33.000Z</time>
      </trkpt>
      <trkpt lat="47.26823" lon="-2.34048">
        <ele>-2.2000000476837</ele>
        <time>2022-06-30T06:57:40.000Z</time>
      </trkpt>
      <trkpt lat="47.26852" lon="-2.34092">
        <ele>-2.2000000476837</ele>
        <time>2022-06-30T06:57:48.000Z</time>
      </trkpt>
      <trkpt lat="47.26863" lon="-2.34111">
        <ele>-2.2000000476837</ele>
        <time>2022-06-30T06:57:51.000Z</time>
      </trkpt>
      <trkpt lat="47.26876" lon="-2.34136">
        <ele>-2.2000000476837</ele>
        <time>2022-06-30T06:57:55.000Z</time>
      </trkpt>
      <trkpt lat="47.26907" lon="-2.34182">
        <ele>-2.2000000476837</ele>
        <time>2022-06-30T06:58:03.000Z</time>
      </trkpt>
      <trkpt lat="47.26934" lon="-2.34222">
        <ele>-2.2000000476837</ele>
        <time>2022-06-30T06:58:10.000Z</time>
      </trkpt>
      <trkpt lat="47.26968" lon="-2.34276">
        <ele>-2.2000000476837</ele>
        <time>2022-06-30T06:58:19.000Z</time>
      </trkpt>
      <trkpt lat="47.26989" lon="-2.34311">
        <ele>-2.2000000476837</ele>
        <time>2022-06-30T06:58:25.000Z</time>
      </trkpt>
      <trkpt lat="47.26991" lon="-2.34315">
        <ele>-2.2000000476837</ele>
        <time>2022-06-30T06:58:26.000Z</time>
      </trkpt>
      <trkpt lat="47.27003" lon="-2.3432">
        <ele>-2.2000000476837</ele>
        <time>2022-06-30T06:58:29.000Z</time>
      </trkpt>
      <trkpt lat="47.27022" lon="-2.34326">
        <ele>-2.2000000476837</ele>
        <time>2022-06-30T06:58:34.000Z</time>
      </trkpt>
      <trkpt lat="47.27034" lon="-2.3433">
        <ele>-1.7999999523163</ele>
        <time>2022-06-30T06:58:37.000Z</time>
      </trkpt>
      <trkpt lat="47.27038" lon="-2.34334">
        <ele>-1.3999999761581</ele>
        <time>2022-06-30T06:58:38.000Z</time>
      </trkpt>
      <trkpt lat="47.2704" lon="-2.34339">
        <ele>-1</ele>
        <time>2022-06-30T06:58:39.000Z</time>
      </trkpt>
      <trkpt lat="47.27042" lon="-2.34345">
        <ele>-0.60000002384186</ele>
        <time>2022-06-30T06:58:40.000Z</time>
      </trkpt>
      <trkpt lat="47.27043" lon="-2.34352">
        <ele>-0.20000000298023</ele>
        <time>2022-06-30T06:58:41.000Z</time>
      </trkpt>
      <trkpt lat="47.27047" lon="-2.34373">
        <ele>-0.20000000298023</ele>
        <time>2022-06-30T06:58:44.000Z</time>
      </trkpt>
      <trkpt lat="47.27049" lon="-2.34379">
        <ele>-0.20000000298023</ele>
        <time>2022-06-30T06:58:45.000Z</time>
      </trkpt>
      <trkpt lat="47.27058" lon="-2.34414">
        <ele>-0.20000000298023</ele>
        <time>2022-06-30T06:58:50.000Z</time>
      </trkpt>
      <trkpt lat="47.27069" lon="-2.34467">
        <ele>-0.20000000298023</ele>
        <time>2022-06-30T06:58:57.000Z</time>
      </trkpt>
      <trkpt lat="47.27082" lon="-2.34528">
        <ele>-0.20000000298023</ele>
        <time>2022-06-30T06:59:05.000Z</time>
      </trkpt>
      <trkpt lat="47.27093" lon="-2.3458">
        <ele>-0.20000000298023</ele>
        <time>2022-06-30T06:59:12.000Z</time>
      </trkpt>
      <trkpt lat="47.27106" lon="-2.34636">
        <ele>-0.20000000298023</ele>
        <time>2022-06-30T06:59:19.000Z</time>
      </trkpt>
      <trkpt lat="47.27118" lon="-2.34685">
        <ele>-0.20000000298023</ele>
        <time>2022-06-30T06:59:25.000Z</time>
      </trkpt>
      <trkpt lat="47.27132" lon="-2.34746">
        <ele>-0.20000000298023</ele>
        <time>2022-06-30T06:59:33.000Z</time>
      </trkpt>
      <trkpt lat="47.27139" lon="-2.3479">
        <ele>-0.20000000298023</ele>
        <time>2022-06-30T06:59:39.000Z</time>
      </trkpt>
      <trkpt lat="47.27151" lon="-2.34842">
        <ele>-0.20000000298023</ele>
        <time>2022-06-30T06:59:46.000Z</time>
      </trkpt>
      <trkpt lat="47.27166" lon="-2.349">
        <ele>-0.20000000298023</ele>
        <time>2022-06-30T06:59:54.000Z</time>
      </trkpt>
      <trkpt lat="47.27173" lon="-2.34922">
        <ele>0.20000000298023</ele>
        <time>2022-06-30T06:59:57.000Z</time>
      </trkpt>
      <trkpt lat="47.27175" lon="-2.34929">
        <ele>0.60000002384186</ele>
        <time>2022-06-30T06:59:58.000Z</time>
      </trkpt>
      <trkpt lat="47.27177" lon="-2.34937">
        <ele>1</ele>
        <time>2022-06-30T06:59:59.000Z</time>
      </trkpt>
      <trkpt lat="47.27179" lon="-2.34944">
        <ele>1.7999999523163</ele>
        <time>2022-06-30T07:00:00.000Z</time>
      </trkpt>
      <trkpt lat="47.27196" lon="-2.34993">
        <ele>1.7999999523163</ele>
        <time>2022-06-30T07:00:07.000Z</time>
      </trkpt>
      <trkpt lat="47.27214" lon="-2.3504">
        <ele>1.7999999523163</ele>
        <time>2022-06-30T07:00:14.000Z</time>
      </trkpt>
      <trkpt lat="47.27241" lon="-2.35104">
        <ele>1.7999999523163</ele>
        <time>2022-06-30T07:00:23.000Z</time>
      </trkpt>
      <trkpt lat="47.27247" lon="-2.35117">
        <ele>1.7999999523163</ele>
        <time>2022-06-30T07:00:25.000Z</time>
      </trkpt>
      <trkpt lat="47.27255" lon="-2.35123">
        <ele>1.7999999523163</ele>
        <time>2022-06-30T07:00:27.000Z</time>
      </trkpt>
      <trkpt lat="47.27267" lon="-2.35119">
        <ele>1.7999999523163</ele>
        <time>2022-06-30T07:00:30.000Z</time>
      </trkpt>
      <trkpt lat="47.27271" lon="-2.35117">
        <ele>1.7999999523163</ele>
        <time>2022-06-30T07:00:31.000Z</time>
      </trkpt>
      <trkpt lat="47.27279" lon="-2.35114">
        <ele>2.4000000953674</ele>
        <time>2022-06-30T07:00:33.000Z</time>
      </trkpt>
      <trkpt lat="47.27283" lon="-2.35112">
        <ele>2.7999999523163</ele>
        <time>2022-06-30T07:00:34.000Z</time>
      </trkpt>
      <trkpt lat="47.27286" lon="-2.35111">
        <ele>3.2000000476837</ele>
        <time>2022-06-30T07:00:35.000Z</time>
      </trkpt>
      <trkpt lat="47.27289" lon="-2.35109">
        <ele>3.5999999046326</ele>
        <time>2022-06-30T07:00:36.000Z</time>
      </trkpt>
      <trkpt lat="47.27292" lon="-2.35108">
        <ele>4</ele>
        <time>2022-06-30T07:00:37.000Z</time>
      </trkpt>
      <trkpt lat="47.27296" lon="-2.35106">
        <ele>4</ele>
        <time>2022-06-30T07:00:39.000Z</time>
      </trkpt>
      <trkpt lat="47.27298" lon="-2.35107">
        <ele>4</ele>
        <time>2022-06-30T07:00:41.000Z</time>
      </trkpt>
      <trkpt lat="47.27302" lon="-2.35107">
        <ele>4</ele>
        <time>2022-06-30T07:00:43.000Z</time>
      </trkpt>
      <trkpt lat="47.2731" lon="-2.351">
        <ele>4</ele>
        <time>2022-06-30T07:00:46.000Z</time>
      </trkpt>
      <trkpt lat="47.27313" lon="-2.35097">
        <ele>4</ele>
        <time>2022-06-30T07:00:47.000Z</time>
      </trkpt>
      <trkpt lat="47.27319" lon="-2.35094">
        <ele>4.8000001907349</ele>
        <time>2022-06-30T07:00:49.000Z</time>
      </trkpt>
      <trkpt lat="47.27322" lon="-2.35093">
        <ele>5.1999998092651</ele>
        <time>2022-06-30T07:00:50.000Z</time>
      </trkpt>
      <trkpt lat="47.27326" lon="-2.35092">
        <ele>5.5999999046326</ele>
        <time>2022-06-30T07:00:51.000Z</time>
      </trkpt>
      <trkpt lat="47.27329" lon="-2.35091">
        <ele>6</ele>
        <time>2022-06-30T07:00:52.000Z</time>
      </trkpt>
      <trkpt lat="47.27336" lon="-2.35089">
        <ele>6</ele>
        <time>2022-06-30T07:00:54.000Z</time>
      </trkpt>
      <trkpt lat="47.27342" lon="-2.35087">
        <ele>6.5999999046326</ele>
        <time>2022-06-30T07:00:56.000Z</time>
      </trkpt>
      <trkpt lat="47.27346" lon="-2.35084">
        <ele>7</ele>
        <time>2022-06-30T07:00:57.000Z</time>
      </trkpt>
      <trkpt lat="47.27349" lon="-2.35082">
        <ele>7.4000000953674</ele>
        <time>2022-06-30T07:00:58.000Z</time>
      </trkpt>
      <trkpt lat="47.27352" lon="-2.35081">
        <ele>7.8000001907349</ele>
        <time>2022-06-30T07:00:59.000Z</time>
      </trkpt>
      <trkpt lat="47.27355" lon="-2.35079">
        <ele>8.1999998092651</ele>
        <time>2022-06-30T07:01:00.000Z</time>
      </trkpt>
      <trkpt lat="47.27371" lon="-2.35068">
        <ele>8.6000003814697</ele>
        <time>2022-06-30T07:01:05.000Z</time>
      </trkpt>
      <trkpt lat="47.27374" lon="-2.35066">
        <ele>9</ele>
        <time>2022-06-30T07:01:06.000Z</time>
      </trkpt>
      <trkpt lat="47.27377" lon="-2.35064">
        <ele>9.3999996185303</ele>
        <time>2022-06-30T07:01:07.000Z</time>
      </trkpt>
      <trkpt lat="47.2738" lon="-2.35063">
        <ele>9.8000001907349</ele>
        <time>2022-06-30T07:01:08.000Z</time>
      </trkpt>
      <trkpt lat="47.27384" lon="-2.35062">
        <ele>10.199999809265</ele>
        <time>2022-06-30T07:01:09.000Z</time>
      </trkpt>
      <trkpt lat="47.27393" lon="-2.3506">
        <ele>10.199999809265</ele>
        <time>2022-06-30T07:01:12.000Z</time>
      </trkpt>
      <trkpt lat="47.27395" lon="-2.35062">
        <ele>10.199999809265</ele>
        <time>2022-06-30T07:01:13.000Z</time>
      </trkpt>
      <trkpt lat="47.27402" lon="-2.35074">
        <ele>10.199999809265</ele>
        <time>2022-06-30T07:01:16.000Z</time>
      </trkpt>
      <trkpt lat="47.27405" lon="-2.35089">
        <ele>10.199999809265</ele>
        <time>2022-06-30T07:01:19.000Z</time>
      </trkpt>
      <trkpt lat="47.27409" lon="-2.35105">
        <ele>10.199999809265</ele>
        <time>2022-06-30T07:01:22.000Z</time>
      </trkpt>
      <trkpt lat="47.27413" lon="-2.35122">
        <ele>10.60000038147</ele>
        <time>2022-06-30T07:01:25.000Z</time>
      </trkpt>
      <trkpt lat="47.27414" lon="-2.35128">
        <ele>11</ele>
        <time>2022-06-30T07:01:26.000Z</time>
      </trkpt>
      <trkpt lat="47.27415" lon="-2.35134">
        <ele>11.39999961853</ele>
        <time>2022-06-30T07:01:27.000Z</time>
      </trkpt>
      <trkpt lat="47.27417" lon="-2.35139">
        <ele>11.800000190735</ele>
        <time>2022-06-30T07:01:28.000Z</time>
      </trkpt>
      <trkpt lat="47.27418" lon="-2.35145">
        <ele>12.199999809265</ele>
        <time>2022-06-30T07:01:29.000Z</time>
      </trkpt>
      <trkpt lat="47.27431" lon="-2.35172">
        <ele>12.199999809265</ele>
        <time>2022-06-30T07:01:35.000Z</time>
      </trkpt>
      <trkpt lat="47.27445" lon="-2.35166">
        <ele>12.199999809265</ele>
        <time>2022-06-30T07:01:39.000Z</time>
      </trkpt>
      <trkpt lat="47.27473" lon="-2.35152">
        <ele>12.199999809265</ele>
        <time>2022-06-30T07:01:47.000Z</time>
      </trkpt>
      <trkpt lat="47.27476" lon="-2.3515">
        <ele>12.60000038147</ele>
        <time>2022-06-30T07:01:48.000Z</time>
      </trkpt>
      <trkpt lat="47.2748" lon="-2.35149">
        <ele>13</ele>
        <time>2022-06-30T07:01:49.000Z</time>
      </trkpt>
      <trkpt lat="47.27483" lon="-2.35148">
        <ele>13.39999961853</ele>
        <time>2022-06-30T07:01:50.000Z</time>
      </trkpt>
      <trkpt lat="47.27487" lon="-2.35146">
        <ele>14</ele>
        <time>2022-06-30T07:01:51.000Z</time>
      </trkpt>
      <trkpt lat="47.27491" lon="-2.35145">
        <ele>14.39999961853</ele>
        <time>2022-06-30T07:01:52.000Z</time>
      </trkpt>
      <trkpt lat="47.275" lon="-2.35136">
        <ele>14.39999961853</ele>
        <time>2022-06-30T07:01:55.000Z</time>
      </trkpt>
      <trkpt lat="47.2751" lon="-2.3513">
        <ele>14.39999961853</ele>
        <time>2022-06-30T07:01:58.000Z</time>
      </trkpt>
      <trkpt lat="47.27529" lon="-2.35138">
        <ele>14.39999961853</ele>
        <time>2022-06-30T07:02:03.000Z</time>
      </trkpt>
      <trkpt lat="47.27548" lon="-2.35141">
        <ele>14.39999961853</ele>
        <time>2022-06-30T07:02:08.000Z</time>
      </trkpt>
      <trkpt lat="47.27577" lon="-2.35136">
        <ele>14.39999961853</ele>
        <time>2022-06-30T07:02:15.000Z</time>
      </trkpt>
      <trkpt lat="47.27596" lon="-2.35135">
        <ele>14.39999961853</ele>
        <time>2022-06-30T07:02:19.000Z</time>
      </trkpt>
      <trkpt lat="47.276" lon="-2.35137">
        <ele>14.39999961853</ele>
        <time>2022-06-30T07:02:20.000Z</time>
      </trkpt>
      <trkpt lat="47.27609" lon="-2.35153">
        <ele>14.39999961853</ele>
        <time>2022-06-30T07:02:23.000Z</time>
      </trkpt>
      <trkpt lat="47.27612" lon="-2.35159">
        <ele>14.39999961853</ele>
        <time>2022-06-30T07:02:24.000Z</time>
      </trkpt>
      <trkpt lat="47.27615" lon="-2.35165">
        <ele>14.39999961853</ele>
        <time>2022-06-30T07:02:25.000Z</time>
      </trkpt>
      <trkpt lat="47.27621" lon="-2.35176">
        <ele>14.39999961853</ele>
        <time>2022-06-30T07:02:27.000Z</time>
      </trkpt>
      <trkpt lat="47.27643" lon="-2.35183">
        <ele>14.39999961853</ele>
        <time>2022-06-30T07:02:32.000Z</time>
      </trkpt>
      <trkpt lat="47.27649" lon="-2.35182">
        <ele>14.39999961853</ele>
        <time>2022-06-30T07:02:33.000Z</time>
      </trkpt>
      <trkpt lat="47.27666" lon="-2.35183">
        <ele>14.39999961853</ele>
        <time>2022-06-30T07:02:36.000Z</time>
      </trkpt>
      <trkpt lat="47.27669" lon="-2.35186">
        <ele>14.39999961853</ele>
        <time>2022-06-30T07:02:37.000Z</time>
      </trkpt>
      <trkpt lat="47.27674" lon="-2.35205">
        <ele>14.39999961853</ele>
        <time>2022-06-30T07:02:40.000Z</time>
      </trkpt>
      <trkpt lat="47.27675" lon="-2.35212">
        <ele>14.39999961853</ele>
        <time>2022-06-30T07:02:41.000Z</time>
      </trkpt>
      <trkpt lat="47.27677" lon="-2.35223">
        <ele>13.800000190735</ele>
        <time>2022-06-30T07:02:43.000Z</time>
      </trkpt>
      <trkpt lat="47.27679" lon="-2.35226">
        <ele>13.39999961853</ele>
        <time>2022-06-30T07:02:44.000Z</time>
      </trkpt>
      <trkpt lat="47.27683" lon="-2.35226">
        <ele>13</ele>
        <time>2022-06-30T07:02:45.000Z</time>
      </trkpt>
      <trkpt lat="47.27687" lon="-2.35225">
        <ele>12.60000038147</ele>
        <time>2022-06-30T07:02:46.000Z</time>
      </trkpt>
      <trkpt lat="47.27692" lon="-2.35223">
        <ele>12</ele>
        <time>2022-06-30T07:02:47.000Z</time>
      </trkpt>
      <trkpt lat="47.27697" lon="-2.35221">
        <ele>12</ele>
        <time>2022-06-30T07:02:48.000Z</time>
      </trkpt>
      <trkpt lat="47.27718" lon="-2.35214">
        <ele>12</ele>
        <time>2022-06-30T07:02:52.000Z</time>
      </trkpt>
      <trkpt lat="47.27759" lon="-2.35204">
        <ele>12</ele>
        <time>2022-06-30T07:02:59.000Z</time>
      </trkpt>
      <trkpt lat="47.27764" lon="-2.35202">
        <ele>11.60000038147</ele>
        <time>2022-06-30T07:03:00.000Z</time>
      </trkpt>
      <trkpt lat="47.27768" lon="-2.35202">
        <ele>11.199999809265</ele>
        <time>2022-06-30T07:03:01.000Z</time>
      </trkpt>
      <trkpt lat="47.27771" lon="-2.35204">
        <ele>10.800000190735</ele>
        <time>2022-06-30T07:03:02.000Z</time>
      </trkpt>
      <trkpt lat="47.27773" lon="-2.35208">
        <ele>10.39999961853</ele>
        <time>2022-06-30T07:03:03.000Z</time>
      </trkpt>
      <trkpt lat="47.27774" lon="-2.35213">
        <ele>10</ele>
        <time>2022-06-30T07:03:04.000Z</time>
      </trkpt>
      <trkpt lat="47.27778" lon="-2.35224">
        <ele>10</ele>
        <time>2022-06-30T07:03:06.000Z</time>
      </trkpt>
      <trkpt lat="47.27779" lon="-2.3523">
        <ele>10</ele>
        <time>2022-06-30T07:03:07.000Z</time>
      </trkpt>
      <trkpt lat="47.2778" lon="-2.35237">
        <ele>10</ele>
        <time>2022-06-30T07:03:08.000Z</time>
      </trkpt>
      <trkpt lat="47.27784" lon="-2.35259">
        <ele>10</ele>
        <time>2022-06-30T07:03:11.000Z</time>
      </trkpt>
      <trkpt lat="47.27791" lon="-2.35289">
        <ele>10</ele>
        <time>2022-06-30T07:03:15.000Z</time>
      </trkpt>
      <trkpt lat="47.27794" lon="-2.35304">
        <ele>10</ele>
        <time>2022-06-30T07:03:17.000Z</time>
      </trkpt>
      <trkpt lat="47.27805" lon="-2.35349">
        <ele>10</ele>
        <time>2022-06-30T07:03:23.000Z</time>
      </trkpt>
      <trkpt lat="47.27816" lon="-2.35362">
        <ele>10</ele>
        <time>2022-06-30T07:03:26.000Z</time>
      </trkpt>
      <trkpt lat="47.27831" lon="-2.35363">
        <ele>10</ele>
        <time>2022-06-30T07:03:29.000Z</time>
      </trkpt>
      <trkpt lat="47.27836" lon="-2.35362">
        <ele>10</ele>
        <time>2022-06-30T07:03:30.000Z</time>
      </trkpt>
      <trkpt lat="47.27869" lon="-2.35363">
        <ele>10</ele>
        <time>2022-06-30T07:03:37.000Z</time>
      </trkpt>
      <trkpt lat="47.27884" lon="-2.35375">
        <ele>10</ele>
        <time>2022-06-30T07:03:41.000Z</time>
      </trkpt>
      <trkpt lat="47.27887" lon="-2.3538">
        <ele>10</ele>
        <time>2022-06-30T07:03:42.000Z</time>
      </trkpt>
      <trkpt lat="47.27898" lon="-2.35393">
        <ele>10.39999961853</ele>
        <time>2022-06-30T07:03:45.000Z</time>
      </trkpt>
      <trkpt lat="47.27901" lon="-2.35398">
        <ele>10.800000190735</ele>
        <time>2022-06-30T07:03:46.000Z</time>
      </trkpt>
      <trkpt lat="47.27905" lon="-2.35403">
        <ele>11.199999809265</ele>
        <time>2022-06-30T07:03:47.000Z</time>
      </trkpt>
      <trkpt lat="47.27908" lon="-2.35408">
        <ele>11.60000038147</ele>
        <time>2022-06-30T07:03:48.000Z</time>
      </trkpt>
      <trkpt lat="47.27912" lon="-2.35413">
        <ele>12</ele>
        <time>2022-06-30T07:03:49.000Z</time>
      </trkpt>
      <trkpt lat="47.27947" lon="-2.35445">
        <ele>12</ele>
        <time>2022-06-30T07:03:57.000Z</time>
      </trkpt>
      <trkpt lat="47.27975" lon="-2.35466">
        <ele>12</ele>
        <time>2022-06-30T07:04:03.000Z</time>
      </trkpt>
      <trkpt lat="47.27989" lon="-2.35488">
        <ele>12</ele>
        <time>2022-06-30T07:04:07.000Z</time>
      </trkpt>
      <trkpt lat="47.28002" lon="-2.35521">
        <ele>12</ele>
        <time>2022-06-30T07:04:13.000Z</time>
      </trkpt>
      <trkpt lat="47.28007" lon="-2.35543">
        <ele>12</ele>
        <time>2022-06-30T07:04:18.000Z</time>
      </trkpt>
      <trkpt lat="47.28008" lon="-2.35547">
        <ele>12</ele>
        <time>2022-06-30T07:04:20.000Z</time>
      </trkpt>
      <trkpt lat="47.28011" lon="-2.35547">
        <ele>12</ele>
        <time>2022-06-30T07:04:22.000Z</time>
      </trkpt>
      <trkpt lat="47.28016" lon="-2.35547">
        <ele>12</ele>
        <time>2022-06-30T07:04:24.000Z</time>
      </trkpt>
      <trkpt lat="47.28028" lon="-2.35548">
        <ele>12.39999961853</ele>
        <time>2022-06-30T07:04:28.000Z</time>
      </trkpt>
      <trkpt lat="47.28032" lon="-2.35548">
        <ele>12.800000190735</ele>
        <time>2022-06-30T07:04:29.000Z</time>
      </trkpt>
      <trkpt lat="47.28036" lon="-2.35548">
        <ele>13.39999961853</ele>
        <time>2022-06-30T07:04:30.000Z</time>
      </trkpt>
      <trkpt lat="47.28039" lon="-2.35548">
        <ele>13.800000190735</ele>
        <time>2022-06-30T07:04:31.000Z</time>
      </trkpt>
      <trkpt lat="47.28043" lon="-2.35548">
        <ele>14.199999809265</ele>
        <time>2022-06-30T07:04:32.000Z</time>
      </trkpt>
      <trkpt lat="47.28053" lon="-2.35551">
        <ele>14.199999809265</ele>
        <time>2022-06-30T07:04:35.000Z</time>
      </trkpt>
      <trkpt lat="47.28053" lon="-2.35561">
        <ele>14.199999809265</ele>
        <time>2022-06-30T07:04:38.000Z</time>
      </trkpt>
      <trkpt lat="47.28054" lon="-2.35576">
        <ele>14.199999809265</ele>
        <time>2022-06-30T07:04:42.000Z</time>
      </trkpt>
      <trkpt lat="47.28062" lon="-2.35582">
        <ele>14.60000038147</ele>
        <time>2022-06-30T07:04:45.000Z</time>
      </trkpt>
      <trkpt lat="47.28064" lon="-2.35582">
        <ele>15</ele>
        <time>2022-06-30T07:04:46.000Z</time>
      </trkpt>
      <trkpt lat="47.28067" lon="-2.35584">
        <ele>15.39999961853</ele>
        <time>2022-06-30T07:04:47.000Z</time>
      </trkpt>
      <trkpt lat="47.28068" lon="-2.35586">
        <ele>15.800000190735</ele>
        <time>2022-06-30T07:04:48.000Z</time>
      </trkpt>
      <trkpt lat="47.2807" lon="-2.35589">
        <ele>16.200000762939</ele>
        <time>2022-06-30T07:04:49.000Z</time>
      </trkpt>
      <trkpt lat="47.28071" lon="-2.35592">
        <ele>16.200000762939</ele>
        <time>2022-06-30T07:04:50.000Z</time>
      </trkpt>
      <trkpt lat="47.28081" lon="-2.35612">
        <ele>16.200000762939</ele>
        <time>2022-06-30T07:04:56.000Z</time>
      </trkpt>
      <trkpt lat="47.28084" lon="-2.3562">
        <ele>16.200000762939</ele>
        <time>2022-06-30T07:05:01.000Z</time>
      </trkpt>
      <trkpt lat="47.28084" lon="-2.3562">
        <ele>16.200000762939</ele>
        <time>2022-06-30T07:05:02.000Z</time>
      </trkpt>
      <trkpt lat="47.28082" lon="-2.35624">
        <ele>20.200000762939</ele>
        <time>2022-06-30T07:09:40.000Z</time>
      </trkpt>
      <trkpt lat="47.28081" lon="-2.35628">
        <ele>20.200000762939</ele>
        <time>2022-06-30T07:09:42.000Z</time>
      </trkpt>
      <trkpt lat="47.28082" lon="-2.35637">
        <ele>20.799999237061</ele>
        <time>2022-06-30T07:09:45.000Z</time>
      </trkpt>
      <trkpt lat="47.28083" lon="-2.35641">
        <ele>21.200000762939</ele>
        <time>2022-06-30T07:09:46.000Z</time>
      </trkpt>
      <trkpt lat="47.28083" lon="-2.35645">
        <ele>21.60000038147</ele>
        <time>2022-06-30T07:09:47.000Z</time>
      </trkpt>
      <trkpt lat="47.28084" lon="-2.35648">
        <ele>22</ele>
        <time>2022-06-30T07:09:48.000Z</time>
      </trkpt>
      <trkpt lat="47.28084" lon="-2.35651">
        <ele>22.39999961853</ele>
        <time>2022-06-30T07:09:49.000Z</time>
      </trkpt>
      <trkpt lat="47.28085" lon="-2.35654">
        <ele>22.39999961853</ele>
        <time>2022-06-30T07:09:50.000Z</time>
      </trkpt>
      <trkpt lat="47.28086" lon="-2.35658">
        <ele>22.799999237061</ele>
        <time>2022-06-30T07:09:51.000Z</time>
      </trkpt>
      <trkpt lat="47.28086" lon="-2.35662">
        <ele>23.200000762939</ele>
        <time>2022-06-30T07:09:52.000Z</time>
      </trkpt>
      <trkpt lat="47.28087" lon="-2.35667">
        <ele>24</ele>
        <time>2022-06-30T07:09:53.000Z</time>
      </trkpt>
      <trkpt lat="47.28088" lon="-2.35672">
        <ele>24.39999961853</ele>
        <time>2022-06-30T07:09:54.000Z</time>
      </trkpt>
      <trkpt lat="47.2809" lon="-2.3568">
        <ele>24.39999961853</ele>
        <time>2022-06-30T07:09:56.000Z</time>
      </trkpt>
      <trkpt lat="47.28092" lon="-2.35693">
        <ele>25</ele>
        <time>2022-06-30T07:10:00.000Z</time>
      </trkpt>
      <trkpt lat="47.28093" lon="-2.35695">
        <ele>25.39999961853</ele>
        <time>2022-06-30T07:10:01.000Z</time>
      </trkpt>
      <trkpt lat="47.28093" lon="-2.35699">
        <ele>25.799999237061</ele>
        <time>2022-06-30T07:10:02.000Z</time>
      </trkpt>
      <trkpt lat="47.28094" lon="-2.35702">
        <ele>26.200000762939</ele>
        <time>2022-06-30T07:10:03.000Z</time>
      </trkpt>
      <trkpt lat="47.28094" lon="-2.35705">
        <ele>26.60000038147</ele>
        <time>2022-06-30T07:10:04.000Z</time>
      </trkpt>
      <trkpt lat="47.28092" lon="-2.35716">
        <ele>26.60000038147</ele>
        <time>2022-06-30T07:10:07.000Z</time>
      </trkpt>
      <trkpt lat="47.28087" lon="-2.35739">
        <ele>26.60000038147</ele>
        <time>2022-06-30T07:10:11.000Z</time>
      </trkpt>
      <trkpt lat="47.28079" lon="-2.35778">
        <ele>26.200000762939</ele>
        <time>2022-06-30T07:10:17.000Z</time>
      </trkpt>
      <trkpt lat="47.28078" lon="-2.35784">
        <ele>25.60000038147</ele>
        <time>2022-06-30T07:10:18.000Z</time>
      </trkpt>
      <trkpt lat="47.28077" lon="-2.35789">
        <ele>25.200000762939</ele>
        <time>2022-06-30T07:10:19.000Z</time>
      </trkpt>
      <trkpt lat="47.28077" lon="-2.35793">
        <ele>24.799999237061</ele>
        <time>2022-06-30T07:10:20.000Z</time>
      </trkpt>
      <trkpt lat="47.28077" lon="-2.35796">
        <ele>24.200000762939</ele>
        <time>2022-06-30T07:10:21.000Z</time>
      </trkpt>
      <trkpt lat="47.28078" lon="-2.35802">
        <ele>23.799999237061</ele>
        <time>2022-06-30T07:10:23.000Z</time>
      </trkpt>
      <trkpt lat="47.28079" lon="-2.35802">
        <ele>23.39999961853</ele>
        <time>2022-06-30T07:10:24.000Z</time>
      </trkpt>
      <trkpt lat="47.28081" lon="-2.358">
        <ele>23</ele>
        <time>2022-06-30T07:10:25.000Z</time>
      </trkpt>
      <trkpt lat="47.28082" lon="-2.35798">
        <ele>22.60000038147</ele>
        <time>2022-06-30T07:10:26.000Z</time>
      </trkpt>
      <trkpt lat="47.28084" lon="-2.35796">
        <ele>22.200000762939</ele>
        <time>2022-06-30T07:10:27.000Z</time>
      </trkpt>
      <trkpt lat="47.2809" lon="-2.35788">
        <ele>22.200000762939</ele>
        <time>2022-06-30T07:10:30.000Z</time>
      </trkpt>
      <trkpt lat="47.28092" lon="-2.35784">
        <ele>22.200000762939</ele>
        <time>2022-06-30T07:10:31.000Z</time>
      </trkpt>
      <trkpt lat="47.28103" lon="-2.3576">
        <ele>22.200000762939</ele>
        <time>2022-06-30T07:10:37.000Z</time>
      </trkpt>
      <trkpt lat="47.28108" lon="-2.35755">
        <ele>22.200000762939</ele>
        <time>2022-06-30T07:10:39.000Z</time>
      </trkpt>
      <trkpt lat="47.28116" lon="-2.35751">
        <ele>22.200000762939</ele>
        <time>2022-06-30T07:10:42.000Z</time>
      </trkpt>
      <trkpt lat="47.28126" lon="-2.35748">
        <ele>22.200000762939</ele>
        <time>2022-06-30T07:10:46.000Z</time>
      </trkpt>
      <trkpt lat="47.28132" lon="-2.35747">
        <ele>22.200000762939</ele>
        <time>2022-06-30T07:10:48.000Z</time>
      </trkpt>
      <trkpt lat="47.28136" lon="-2.35747">
        <ele>22.200000762939</ele>
        <time>2022-06-30T07:10:50.000Z</time>
      </trkpt>
      <trkpt lat="47.28142" lon="-2.35753">
        <ele>22.200000762939</ele>
        <time>2022-06-30T07:10:53.000Z</time>
      </trkpt>
      <trkpt lat="47.28153" lon="-2.35761">
        <ele>22.200000762939</ele>
        <time>2022-06-30T07:10:59.000Z</time>
      </trkpt>
      <trkpt lat="47.28156" lon="-2.35767">
        <ele>22.60000038147</ele>
        <time>2022-06-30T07:11:02.000Z</time>
      </trkpt>
      <trkpt lat="47.28156" lon="-2.35769">
        <ele>23</ele>
        <time>2022-06-30T07:11:03.000Z</time>
      </trkpt>
      <trkpt lat="47.28157" lon="-2.35771">
        <ele>23.39999961853</ele>
        <time>2022-06-30T07:11:04.000Z</time>
      </trkpt>
      <trkpt lat="47.28157" lon="-2.35772">
        <ele>23.799999237061</ele>
        <time>2022-06-30T07:11:05.000Z</time>
      </trkpt>
      <trkpt lat="47.28158" lon="-2.35775">
        <ele>24.39999961853</ele>
        <time>2022-06-30T07:11:06.000Z</time>
      </trkpt>
      <trkpt lat="47.28162" lon="-2.35785">
        <ele>24.39999961853</ele>
        <time>2022-06-30T07:11:10.000Z</time>
      </trkpt>
      <trkpt lat="47.28165" lon="-2.35791">
        <ele>24.39999961853</ele>
        <time>2022-06-30T07:11:12.000Z</time>
      </trkpt>
      <trkpt lat="47.28177" lon="-2.3582">
        <ele>24.39999961853</ele>
        <time>2022-06-30T07:11:18.000Z</time>
      </trkpt>
      <trkpt lat="47.28188" lon="-2.35845">
        <ele>24.39999961853</ele>
        <time>2022-06-30T07:11:23.000Z</time>
      </trkpt>
      <trkpt lat="47.28197" lon="-2.35872">
        <ele>24.39999961853</ele>
        <time>2022-06-30T07:11:29.000Z</time>
      </trkpt>
      <trkpt lat="47.28199" lon="-2.35888">
        <ele>24.39999961853</ele>
        <time>2022-06-30T07:11:34.000Z</time>
      </trkpt>
      <trkpt lat="47.28198" lon="-2.35892">
        <ele>24.39999961853</ele>
        <time>2022-06-30T07:11:35.000Z</time>
      </trkpt>
      <trkpt lat="47.28194" lon="-2.35913">
        <ele>24.39999961853</ele>
        <time>2022-06-30T07:11:41.000Z</time>
      </trkpt>
      <trkpt lat="47.28184" lon="-2.35929">
        <ele>24.39999961853</ele>
        <time>2022-06-30T07:11:46.000Z</time>
      </trkpt>
      <trkpt lat="47.28181" lon="-2.35932">
        <ele>24.39999961853</ele>
        <time>2022-06-30T07:11:47.000Z</time>
      </trkpt>
      <trkpt lat="47.28174" lon="-2.35946">
        <ele>23.799999237061</ele>
        <time>2022-06-30T07:11:50.000Z</time>
      </trkpt>
      <trkpt lat="47.28174" lon="-2.35951">
        <ele>23.39999961853</ele>
        <time>2022-06-30T07:11:51.000Z</time>
      </trkpt>
      <trkpt lat="47.28176" lon="-2.35959">
        <ele>23</ele>
        <time>2022-06-30T07:11:52.000Z</time>
      </trkpt>
      <trkpt lat="47.28178" lon="-2.35965">
        <ele>22.60000038147</ele>
        <time>2022-06-30T07:11:53.000Z</time>
      </trkpt>
      <trkpt lat="47.28179" lon="-2.35972">
        <ele>22.200000762939</ele>
        <time>2022-06-30T07:11:54.000Z</time>
      </trkpt>
      <trkpt lat="47.28182" lon="-2.35978">
        <ele>22.200000762939</ele>
        <time>2022-06-30T07:11:55.000Z</time>
      </trkpt>
      <trkpt lat="47.28193" lon="-2.36013">
        <ele>22.200000762939</ele>
        <time>2022-06-30T07:12:01.000Z</time>
      </trkpt>
      <trkpt lat="47.28198" lon="-2.36036">
        <ele>22.200000762939</ele>
        <time>2022-06-30T07:12:06.000Z</time>
      </trkpt>
      <trkpt lat="47.28207" lon="-2.36057">
        <ele>22.200000762939</ele>
        <time>2022-06-30T07:12:10.000Z</time>
      </trkpt>
      <trkpt lat="47.28217" lon="-2.36086">
        <ele>22.200000762939</ele>
        <time>2022-06-30T07:12:16.000Z</time>
      </trkpt>
      <trkpt lat="47.28225" lon="-2.36103">
        <ele>22.200000762939</ele>
        <time>2022-06-30T07:12:21.000Z</time>
      </trkpt>
      <trkpt lat="47.28235" lon="-2.36128">
        <ele>22.200000762939</ele>
        <time>2022-06-30T07:12:27.000Z</time>
      </trkpt>
      <trkpt lat="47.28238" lon="-2.36135">
        <ele>22.200000762939</ele>
        <time>2022-06-30T07:12:28.000Z</time>
      </trkpt>
      <trkpt lat="47.28245" lon="-2.3616">
        <ele>22.200000762939</ele>
        <time>2022-06-30T07:12:31.000Z</time>
      </trkpt>
      <trkpt lat="47.28255" lon="-2.36187">
        <ele>22.200000762939</ele>
        <time>2022-06-30T07:12:35.000Z</time>
      </trkpt>
      <trkpt lat="47.28267" lon="-2.36214">
        <ele>22.200000762939</ele>
        <time>2022-06-30T07:12:40.000Z</time>
      </trkpt>
      <trkpt lat="47.28275" lon="-2.36226">
        <ele>22.200000762939</ele>
        <time>2022-06-30T07:12:42.000Z</time>
      </trkpt>
      <trkpt lat="47.28287" lon="-2.36237">
        <ele>22.200000762939</ele>
        <time>2022-06-30T07:12:45.000Z</time>
      </trkpt>
      <trkpt lat="47.28296" lon="-2.36239">
        <ele>22.200000762939</ele>
        <time>2022-06-30T07:12:47.000Z</time>
      </trkpt>
      <trkpt lat="47.28307" lon="-2.36243">
        <ele>22.200000762939</ele>
        <time>2022-06-30T07:12:50.000Z</time>
      </trkpt>
      <trkpt lat="47.28326" lon="-2.3625">
        <ele>22.200000762939</ele>
        <time>2022-06-30T07:12:56.000Z</time>
      </trkpt>
      <trkpt lat="47.28345" lon="-2.36256">
        <ele>22.60000038147</ele>
        <time>2022-06-30T07:13:03.000Z</time>
      </trkpt>
      <trkpt lat="47.28347" lon="-2.36258">
        <ele>23</ele>
        <time>2022-06-30T07:13:04.000Z</time>
      </trkpt>
      <trkpt lat="47.28348" lon="-2.3626">
        <ele>23.39999961853</ele>
        <time>2022-06-30T07:13:05.000Z</time>
      </trkpt>
      <trkpt lat="47.2835" lon="-2.36262">
        <ele>23.799999237061</ele>
        <time>2022-06-30T07:13:06.000Z</time>
      </trkpt>
      <trkpt lat="47.28351" lon="-2.36265">
        <ele>24.200000762939</ele>
        <time>2022-06-30T07:13:07.000Z</time>
      </trkpt>
      <trkpt lat="47.28351" lon="-2.36269">
        <ele>24.200000762939</ele>
        <time>2022-06-30T07:13:08.000Z</time>
      </trkpt>
      <trkpt lat="47.28354" lon="-2.36284">
        <ele>24.200000762939</ele>
        <time>2022-06-30T07:13:13.000Z</time>
      </trkpt>
      <trkpt lat="47.28357" lon="-2.36289">
        <ele>24.60000038147</ele>
        <time>2022-06-30T07:13:16.000Z</time>
      </trkpt>
      <trkpt lat="47.28359" lon="-2.3629">
        <ele>25</ele>
        <time>2022-06-30T07:13:17.000Z</time>
      </trkpt>
      <trkpt lat="47.2836" lon="-2.3629">
        <ele>25.39999961853</ele>
        <time>2022-06-30T07:13:18.000Z</time>
      </trkpt>
      <trkpt lat="47.28362" lon="-2.36291">
        <ele>25.799999237061</ele>
        <time>2022-06-30T07:13:19.000Z</time>
      </trkpt>
      <trkpt lat="47.28363" lon="-2.36291">
        <ele>26.200000762939</ele>
        <time>2022-06-30T07:13:20.000Z</time>
      </trkpt>
      <trkpt lat="47.28365" lon="-2.36293">
        <ele>26.200000762939</ele>
        <time>2022-06-30T07:13:21.000Z</time>
      </trkpt>
      <trkpt lat="47.28373" lon="-2.36301">
        <ele>26.200000762939</ele>
        <time>2022-06-30T07:13:25.000Z</time>
      </trkpt>
      <trkpt lat="47.2839" lon="-2.36318">
        <ele>26.200000762939</ele>
        <time>2022-06-30T07:13:31.000Z</time>
      </trkpt>
      <trkpt lat="47.28396" lon="-2.36328">
        <ele>26.60000038147</ele>
        <time>2022-06-30T07:13:33.000Z</time>
      </trkpt>
      <trkpt lat="47.28398" lon="-2.36332">
        <ele>27</ele>
        <time>2022-06-30T07:13:34.000Z</time>
      </trkpt>
      <trkpt lat="47.28399" lon="-2.36335">
        <ele>27.799999237061</ele>
        <time>2022-06-30T07:13:35.000Z</time>
      </trkpt>
      <trkpt lat="47.28401" lon="-2.36338">
        <ele>28.200000762939</ele>
        <time>2022-06-30T07:13:36.000Z</time>
      </trkpt>
      <trkpt lat="47.2842" lon="-2.36355">
        <ele>28.200000762939</ele>
        <time>2022-06-30T07:13:41.000Z</time>
      </trkpt>
      <trkpt lat="47.28442" lon="-2.36377">
        <ele>28.200000762939</ele>
        <time>2022-06-30T07:13:46.000Z</time>
      </trkpt>
      <trkpt lat="47.28461" lon="-2.36397">
        <ele>28.799999237061</ele>
        <time>2022-06-30T07:13:52.000Z</time>
      </trkpt>
      <trkpt lat="47.28462" lon="-2.36396">
        <ele>29.200000762939</ele>
        <time>2022-06-30T07:13:53.000Z</time>
      </trkpt>
      <trkpt lat="47.28463" lon="-2.36395">
        <ele>29.799999237061</ele>
        <time>2022-06-30T07:13:54.000Z</time>
      </trkpt>
      <trkpt lat="47.28463" lon="-2.36392">
        <ele>30.200000762939</ele>
        <time>2022-06-30T07:13:55.000Z</time>
      </trkpt>
      <trkpt lat="47.28463" lon="-2.36388">
        <ele>30.799999237061</ele>
        <time>2022-06-30T07:13:56.000Z</time>
      </trkpt>
      <trkpt lat="47.28464" lon="-2.36358">
        <ele>30.799999237061</ele>
        <time>2022-06-30T07:14:03.000Z</time>
      </trkpt>
      <trkpt lat="47.28465" lon="-2.36335">
        <ele>30.799999237061</ele>
        <time>2022-06-30T07:14:08.000Z</time>
      </trkpt>
      <trkpt lat="47.28466" lon="-2.36306">
        <ele>30.799999237061</ele>
        <time>2022-06-30T07:14:13.000Z</time>
      </trkpt>
      <trkpt lat="47.28463" lon="-2.36269">
        <ele>30.799999237061</ele>
        <time>2022-06-30T07:14:20.000Z</time>
      </trkpt>
      <trkpt lat="47.28457" lon="-2.3623">
        <ele>30.799999237061</ele>
        <time>2022-06-30T07:14:28.000Z</time>
      </trkpt>
      <trkpt lat="47.28453" lon="-2.36203">
        <ele>30.799999237061</ele>
        <time>2022-06-30T07:14:35.000Z</time>
      </trkpt>
      <trkpt lat="47.28449" lon="-2.36193">
        <ele>30.799999237061</ele>
        <time>2022-06-30T07:14:40.000Z</time>
      </trkpt>
      <trkpt lat="47.28448" lon="-2.36192">
        <ele>31.200000762939</ele>
        <time>2022-06-30T07:14:41.000Z</time>
      </trkpt>
      <trkpt lat="47.28447" lon="-2.36189">
        <ele>31.60000038147</ele>
        <time>2022-06-30T07:14:42.000Z</time>
      </trkpt>
      <trkpt lat="47.28447" lon="-2.36186">
        <ele>32</ele>
        <time>2022-06-30T07:14:43.000Z</time>
      </trkpt>
      <trkpt lat="47.28447" lon="-2.36183">
        <ele>32.400001525879</ele>
        <time>2022-06-30T07:14:44.000Z</time>
      </trkpt>
      <trkpt lat="47.28447" lon="-2.3618">
        <ele>32.799999237061</ele>
        <time>2022-06-30T07:14:45.000Z</time>
      </trkpt>
      <trkpt lat="47.28449" lon="-2.36165">
        <ele>33.400001525879</ele>
        <time>2022-06-30T07:14:50.000Z</time>
      </trkpt>
      <trkpt lat="47.28448" lon="-2.36162">
        <ele>33.799999237061</ele>
        <time>2022-06-30T07:14:51.000Z</time>
      </trkpt>
      <trkpt lat="47.28447" lon="-2.3616">
        <ele>34.200000762939</ele>
        <time>2022-06-30T07:14:52.000Z</time>
      </trkpt>
      <trkpt lat="47.28446" lon="-2.36158">
        <ele>34.599998474121</ele>
        <time>2022-06-30T07:14:53.000Z</time>
      </trkpt>
      <trkpt lat="47.28445" lon="-2.36156">
        <ele>35</ele>
        <time>2022-06-30T07:14:54.000Z</time>
      </trkpt>
      <trkpt lat="47.28443" lon="-2.36152">
        <ele>35</ele>
        <time>2022-06-30T07:14:56.000Z</time>
      </trkpt>
      <trkpt lat="47.28443" lon="-2.36145">
        <ele>35</ele>
        <time>2022-06-30T07:14:58.000Z</time>
      </trkpt>
      <trkpt lat="47.28443" lon="-2.36138">
        <ele>35</ele>
        <time>2022-06-30T07:15:00.000Z</time>
      </trkpt>
      <trkpt lat="47.2844" lon="-2.36127">
        <ele>35.400001525879</ele>
        <time>2022-06-30T07:15:03.000Z</time>
      </trkpt>
      <trkpt lat="47.28439" lon="-2.36123">
        <ele>35.799999237061</ele>
        <time>2022-06-30T07:15:04.000Z</time>
      </trkpt>
      <trkpt lat="47.28439" lon="-2.36121">
        <ele>36.400001525879</ele>
        <time>2022-06-30T07:15:05.000Z</time>
      </trkpt>
      <trkpt lat="47.28438" lon="-2.36117">
        <ele>36.799999237061</ele>
        <time>2022-06-30T07:15:06.000Z</time>
      </trkpt>
      <trkpt lat="47.28438" lon="-2.36113">
        <ele>37.200000762939</ele>
        <time>2022-06-30T07:15:07.000Z</time>
      </trkpt>
      <trkpt lat="47.28438" lon="-2.36094">
        <ele>37.599998474121</ele>
        <time>2022-06-30T07:15:12.000Z</time>
      </trkpt>
      <trkpt lat="47.28437" lon="-2.36091">
        <ele>38</ele>
        <time>2022-06-30T07:15:13.000Z</time>
      </trkpt>
      <trkpt lat="47.28436" lon="-2.36087">
        <ele>38.799999237061</ele>
        <time>2022-06-30T07:15:14.000Z</time>
      </trkpt>
      <trkpt lat="47.28437" lon="-2.36083">
        <ele>39.200000762939</ele>
        <time>2022-06-30T07:15:15.000Z</time>
      </trkpt>
      <trkpt lat="47.28436" lon="-2.36068">
        <ele>39.200000762939</ele>
        <time>2022-06-30T07:15:19.000Z</time>
      </trkpt>
      <trkpt lat="47.28436" lon="-2.36047">
        <ele>39.599998474121</ele>
        <time>2022-06-30T07:15:25.000Z</time>
      </trkpt>
      <trkpt lat="47.28436" lon="-2.36044">
        <ele>40</ele>
        <time>2022-06-30T07:15:26.000Z</time>
      </trkpt>
      <trkpt lat="47.28437" lon="-2.3604">
        <ele>40.400001525879</ele>
        <time>2022-06-30T07:15:27.000Z</time>
      </trkpt>
      <trkpt lat="47.28437" lon="-2.36036">
        <ele>40.799999237061</ele>
        <time>2022-06-30T07:15:28.000Z</time>
      </trkpt>
      <trkpt lat="47.28437" lon="-2.36034">
        <ele>41.400001525879</ele>
        <time>2022-06-30T07:15:29.000Z</time>
      </trkpt>
      <trkpt lat="47.28437" lon="-2.36027">
        <ele>41.400001525879</ele>
        <time>2022-06-30T07:15:32.000Z</time>
      </trkpt>
      <trkpt lat="47.28438" lon="-2.36023">
        <ele>41.400001525879</ele>
        <time>2022-06-30T07:15:36.000Z</time>
      </trkpt>
      <trkpt lat="47.28442" lon="-2.36015">
        <ele>41.400001525879</ele>
        <time>2022-06-30T07:15:45.000Z</time>
      </trkpt>
      <trkpt lat="47.28443" lon="-2.36013">
        <ele>41.400001525879</ele>
        <time>2022-06-30T07:15:46.000Z</time>
      </trkpt>
      <trkpt lat="47.28449" lon="-2.35996">
        <ele>41.400001525879</ele>
        <time>2022-06-30T07:15:51.000Z</time>
      </trkpt>
      <trkpt lat="47.28451" lon="-2.35991">
        <ele>41.400001525879</ele>
        <time>2022-06-30T07:15:54.000Z</time>
      </trkpt>
      <trkpt lat="47.28456" lon="-2.35983">
        <ele>41.400001525879</ele>
        <time>2022-06-30T07:16:40.000Z</time>
      </trkpt>
      <trkpt lat="47.28459" lon="-2.35982">
        <ele>41.400001525879</ele>
        <time>2022-06-30T07:16:41.000Z</time>
      </trkpt>
      <trkpt lat="47.28475" lon="-2.35969">
        <ele>41.400001525879</ele>
        <time>2022-06-30T07:16:46.000Z</time>
      </trkpt>
      <trkpt lat="47.28478" lon="-2.35964">
        <ele>41.400001525879</ele>
        <time>2022-06-30T07:16:47.000Z</time>
      </trkpt>
      <trkpt lat="47.28485" lon="-2.35955">
        <ele>41.400001525879</ele>
        <time>2022-06-30T07:16:49.000Z</time>
      </trkpt>
      <trkpt lat="47.28494" lon="-2.35948">
        <ele>41.400001525879</ele>
        <time>2022-06-30T07:16:51.000Z</time>
      </trkpt>
      <trkpt lat="47.28498" lon="-2.35946">
        <ele>41.400001525879</ele>
        <time>2022-06-30T07:16:52.000Z</time>
      </trkpt>
      <trkpt lat="47.28516" lon="-2.35941">
        <ele>41.400001525879</ele>
        <time>2022-06-30T07:16:57.000Z</time>
      </trkpt>
      <trkpt lat="47.28537" lon="-2.35935">
        <ele>41.400001525879</ele>
        <time>2022-06-30T07:17:03.000Z</time>
      </trkpt>
      <trkpt lat="47.28546" lon="-2.35912">
        <ele>41.400001525879</ele>
        <time>2022-06-30T07:17:07.000Z</time>
      </trkpt>
      <trkpt lat="47.28548" lon="-2.35907">
        <ele>40.799999237061</ele>
        <time>2022-06-30T07:17:08.000Z</time>
      </trkpt>
      <trkpt lat="47.28549" lon="-2.35902">
        <ele>40.200000762939</ele>
        <time>2022-06-30T07:17:09.000Z</time>
      </trkpt>
      <trkpt lat="47.28553" lon="-2.35898">
        <ele>39.799999237061</ele>
        <time>2022-06-30T07:17:10.000Z</time>
      </trkpt>
      <trkpt lat="47.28557" lon="-2.35896">
        <ele>39.200000762939</ele>
        <time>2022-06-30T07:17:11.000Z</time>
      </trkpt>
      <trkpt lat="47.28561" lon="-2.35896">
        <ele>38.599998474121</ele>
        <time>2022-06-30T07:17:12.000Z</time>
      </trkpt>
      <trkpt lat="47.28564" lon="-2.35897">
        <ele>37.799999237061</ele>
        <time>2022-06-30T07:17:13.000Z</time>
      </trkpt>
      <trkpt lat="47.28568" lon="-2.359">
        <ele>37.200000762939</ele>
        <time>2022-06-30T07:17:14.000Z</time>
      </trkpt>
      <trkpt lat="47.28571" lon="-2.35904">
        <ele>36.599998474121</ele>
        <time>2022-06-30T07:17:15.000Z</time>
      </trkpt>
      <trkpt lat="47.28573" lon="-2.35909">
        <ele>36.599998474121</ele>
        <time>2022-06-30T07:17:16.000Z</time>
      </trkpt>
      <trkpt lat="47.28575" lon="-2.35918">
        <ele>36.599998474121</ele>
        <time>2022-06-30T07:17:18.000Z</time>
      </trkpt>
      <trkpt lat="47.28577" lon="-2.35927">
        <ele>36.200000762939</ele>
        <time>2022-06-30T07:17:20.000Z</time>
      </trkpt>
      <trkpt lat="47.2858" lon="-2.35931">
        <ele>35.799999237061</ele>
        <time>2022-06-30T07:17:21.000Z</time>
      </trkpt>
      <trkpt lat="47.28584" lon="-2.35936">
        <ele>35.400001525879</ele>
        <time>2022-06-30T07:17:22.000Z</time>
      </trkpt>
      <trkpt lat="47.28588" lon="-2.3594">
        <ele>35</ele>
        <time>2022-06-30T07:17:23.000Z</time>
      </trkpt>
      <trkpt lat="47.28592" lon="-2.35945">
        <ele>34.599998474121</ele>
        <time>2022-06-30T07:17:24.000Z</time>
      </trkpt>
      <trkpt lat="47.28609" lon="-2.35971">
        <ele>34.599998474121</ele>
        <time>2022-06-30T07:17:29.000Z</time>
      </trkpt>
      <trkpt lat="47.2862" lon="-2.36004">
        <ele>34.599998474121</ele>
        <time>2022-06-30T07:17:34.000Z</time>
      </trkpt>
      <trkpt lat="47.28635" lon="-2.36039">
        <ele>34.599998474121</ele>
        <time>2022-06-30T07:17:40.000Z</time>
      </trkpt>
      <trkpt lat="47.2864" lon="-2.36053">
        <ele>34.599998474121</ele>
        <time>2022-06-30T07:17:42.000Z</time>
      </trkpt>
      <trkpt lat="47.28643" lon="-2.36067">
        <ele>34.599998474121</ele>
        <time>2022-06-30T07:17:44.000Z</time>
      </trkpt>
      <trkpt lat="47.28645" lon="-2.36072">
        <ele>34.599998474121</ele>
        <time>2022-06-30T07:17:45.000Z</time>
      </trkpt>
      <trkpt lat="47.28652" lon="-2.36086">
        <ele>34.599998474121</ele>
        <time>2022-06-30T07:17:48.000Z</time>
      </trkpt>
      <trkpt lat="47.28655" lon="-2.36091">
        <ele>35</ele>
        <time>2022-06-30T07:17:49.000Z</time>
      </trkpt>
      <trkpt lat="47.28657" lon="-2.36096">
        <ele>35.400001525879</ele>
        <time>2022-06-30T07:17:50.000Z</time>
      </trkpt>
      <trkpt lat="47.28659" lon="-2.36102">
        <ele>35.799999237061</ele>
        <time>2022-06-30T07:17:51.000Z</time>
      </trkpt>
      <trkpt lat="47.28661" lon="-2.36107">
        <ele>36.200000762939</ele>
        <time>2022-06-30T07:17:52.000Z</time>
      </trkpt>
      <trkpt lat="47.28663" lon="-2.36113">
        <ele>36.599998474121</ele>
        <time>2022-06-30T07:17:53.000Z</time>
      </trkpt>
      <trkpt lat="47.28673" lon="-2.36152">
        <ele>36.599998474121</ele>
        <time>2022-06-30T07:18:00.000Z</time>
      </trkpt>
      <trkpt lat="47.28677" lon="-2.36159">
        <ele>36.599998474121</ele>
        <time>2022-06-30T07:18:05.000Z</time>
      </trkpt>
      <trkpt lat="47.28679" lon="-2.36165">
        <ele>36.599998474121</ele>
        <time>2022-06-30T07:18:08.000Z</time>
      </trkpt>
      <trkpt lat="47.28681" lon="-2.36169">
        <ele>36.599998474121</ele>
        <time>2022-06-30T07:18:12.000Z</time>
      </trkpt>
      <trkpt lat="47.28684" lon="-2.36173">
        <ele>36.599998474121</ele>
        <time>2022-06-30T07:18:14.000Z</time>
      </trkpt>
      <trkpt lat="47.28688" lon="-2.36181">
        <ele>36.599998474121</ele>
        <time>2022-06-30T07:18:17.000Z</time>
      </trkpt>
      <trkpt lat="47.28693" lon="-2.36204">
        <ele>36.599998474121</ele>
        <time>2022-06-30T07:18:22.000Z</time>
      </trkpt>
      <trkpt lat="47.287" lon="-2.36232">
        <ele>36.599998474121</ele>
        <time>2022-06-30T07:18:28.000Z</time>
      </trkpt>
      <trkpt lat="47.28703" lon="-2.36248">
        <ele>36.599998474121</ele>
        <time>2022-06-30T07:18:34.000Z</time>
      </trkpt>
      <trkpt lat="47.28705" lon="-2.3627">
        <ele>36.599998474121</ele>
        <time>2022-06-30T07:19:09.000Z</time>
      </trkpt>
      <trkpt lat="47.28706" lon="-2.3628">
        <ele>36.599998474121</ele>
        <time>2022-06-30T07:19:12.000Z</time>
      </trkpt>
      <trkpt lat="47.28706" lon="-2.36288">
        <ele>37</ele>
        <time>2022-06-30T07:19:14.000Z</time>
      </trkpt>
      <trkpt lat="47.28706" lon="-2.36293">
        <ele>37.400001525879</ele>
        <time>2022-06-30T07:19:15.000Z</time>
      </trkpt>
      <trkpt lat="47.28706" lon="-2.36297">
        <ele>37.799999237061</ele>
        <time>2022-06-30T07:19:16.000Z</time>
      </trkpt>
      <trkpt lat="47.28706" lon="-2.36301">
        <ele>38.200000762939</ele>
        <time>2022-06-30T07:19:17.000Z</time>
      </trkpt>
      <trkpt lat="47.28705" lon="-2.36305">
        <ele>38.599998474121</ele>
        <time>2022-06-30T07:19:18.000Z</time>
      </trkpt>
      <trkpt lat="47.28705" lon="-2.3631">
        <ele>38.599998474121</ele>
        <time>2022-06-30T07:19:19.000Z</time>
      </trkpt>
      <trkpt lat="47.28704" lon="-2.36322">
        <ele>39</ele>
        <time>2022-06-30T07:19:22.000Z</time>
      </trkpt>
      <trkpt lat="47.28704" lon="-2.36326">
        <ele>39.400001525879</ele>
        <time>2022-06-30T07:19:23.000Z</time>
      </trkpt>
      <trkpt lat="47.28703" lon="-2.3633">
        <ele>39.799999237061</ele>
        <time>2022-06-30T07:19:24.000Z</time>
      </trkpt>
      <trkpt lat="47.28703" lon="-2.36334">
        <ele>40.200000762939</ele>
        <time>2022-06-30T07:19:25.000Z</time>
      </trkpt>
      <trkpt lat="47.28702" lon="-2.36338">
        <ele>40.599998474121</ele>
        <time>2022-06-30T07:19:26.000Z</time>
      </trkpt>
      <trkpt lat="47.28702" lon="-2.36342">
        <ele>40.599998474121</ele>
        <time>2022-06-30T07:19:27.000Z</time>
      </trkpt>
      <trkpt lat="47.28697" lon="-2.36367">
        <ele>41</ele>
        <time>2022-06-30T07:19:33.000Z</time>
      </trkpt>
      <trkpt lat="47.28696" lon="-2.3637">
        <ele>41.400001525879</ele>
        <time>2022-06-30T07:19:34.000Z</time>
      </trkpt>
      <trkpt lat="47.28695" lon="-2.36374">
        <ele>42</ele>
        <time>2022-06-30T07:19:35.000Z</time>
      </trkpt>
      <trkpt lat="47.28695" lon="-2.36378">
        <ele>42.400001525879</ele>
        <time>2022-06-30T07:19:36.000Z</time>
      </trkpt>
      <trkpt lat="47.28695" lon="-2.36381">
        <ele>42.799999237061</ele>
        <time>2022-06-30T07:19:37.000Z</time>
      </trkpt>
      <trkpt lat="47.28695" lon="-2.36384">
        <ele>42.799999237061</ele>
        <time>2022-06-30T07:19:38.000Z</time>
      </trkpt>
      <trkpt lat="47.28695" lon="-2.36394">
        <ele>42.799999237061</ele>
        <time>2022-06-30T07:19:41.000Z</time>
      </trkpt>
      <trkpt lat="47.2869" lon="-2.36425">
        <ele>42.799999237061</ele>
        <time>2022-06-30T07:19:47.000Z</time>
      </trkpt>
      <trkpt lat="47.2869" lon="-2.36435">
        <ele>43.200000762939</ele>
        <time>2022-06-30T07:19:49.000Z</time>
      </trkpt>
      <trkpt lat="47.2869" lon="-2.36439">
        <ele>43.599998474121</ele>
        <time>2022-06-30T07:19:50.000Z</time>
      </trkpt>
      <trkpt lat="47.2869" lon="-2.36443">
        <ele>44</ele>
        <time>2022-06-30T07:19:51.000Z</time>
      </trkpt>
      <trkpt lat="47.2869" lon="-2.36447">
        <ele>44.400001525879</ele>
        <time>2022-06-30T07:19:52.000Z</time>
      </trkpt>
      <trkpt lat="47.28689" lon="-2.36451">
        <ele>44.799999237061</ele>
        <time>2022-06-30T07:19:53.000Z</time>
      </trkpt>
      <trkpt lat="47.2869" lon="-2.36483">
        <ele>44.799999237061</ele>
        <time>2022-06-30T07:19:59.000Z</time>
      </trkpt>
      <trkpt lat="47.28693" lon="-2.36513">
        <ele>44.799999237061</ele>
        <time>2022-06-30T07:20:04.000Z</time>
      </trkpt>
      <trkpt lat="47.28695" lon="-2.36538">
        <ele>44.400001525879</ele>
        <time>2022-06-30T07:20:07.000Z</time>
      </trkpt>
      <trkpt lat="47.28696" lon="-2.36545">
        <ele>44</ele>
        <time>2022-06-30T07:20:08.000Z</time>
      </trkpt>
      <trkpt lat="47.28697" lon="-2.36552">
        <ele>43.599998474121</ele>
        <time>2022-06-30T07:20:09.000Z</time>
      </trkpt>
      <trkpt lat="47.28696" lon="-2.36558">
        <ele>42.400001525879</ele>
        <time>2022-06-30T07:20:10.000Z</time>
      </trkpt>
      <trkpt lat="47.28695" lon="-2.36562">
        <ele>41.799999237061</ele>
        <time>2022-06-30T07:20:11.000Z</time>
      </trkpt>
      <trkpt lat="47.28693" lon="-2.36567">
        <ele>41.200000762939</ele>
        <time>2022-06-30T07:20:12.000Z</time>
      </trkpt>
      <trkpt lat="47.28692" lon="-2.36571">
        <ele>40.400001525879</ele>
        <time>2022-06-30T07:20:13.000Z</time>
      </trkpt>
      <trkpt lat="47.28691" lon="-2.36577">
        <ele>39.799999237061</ele>
        <time>2022-06-30T07:20:14.000Z</time>
      </trkpt>
      <trkpt lat="47.28688" lon="-2.36583">
        <ele>39.200000762939</ele>
        <time>2022-06-30T07:20:15.000Z</time>
      </trkpt>
      <trkpt lat="47.28684" lon="-2.36589">
        <ele>38.599998474121</ele>
        <time>2022-06-30T07:20:16.000Z</time>
      </trkpt>
      <trkpt lat="47.2868" lon="-2.36594">
        <ele>38</ele>
        <time>2022-06-30T07:20:17.000Z</time>
      </trkpt>
      <trkpt lat="47.28674" lon="-2.36596">
        <ele>37.400001525879</ele>
        <time>2022-06-30T07:20:18.000Z</time>
      </trkpt>
      <trkpt lat="47.28668" lon="-2.36598">
        <ele>36.599998474121</ele>
        <time>2022-06-30T07:20:19.000Z</time>
      </trkpt>
      <trkpt lat="47.28664" lon="-2.36599">
        <ele>36</ele>
        <time>2022-06-30T07:20:20.000Z</time>
      </trkpt>
      <trkpt lat="47.2865" lon="-2.36606">
        <ele>36</ele>
        <time>2022-06-30T07:20:23.000Z</time>
      </trkpt>
      <trkpt lat="47.28643" lon="-2.3661">
        <ele>36</ele>
        <time>2022-06-30T07:20:25.000Z</time>
      </trkpt>
      <trkpt lat="47.28638" lon="-2.36612">
        <ele>35.599998474121</ele>
        <time>2022-06-30T07:20:26.000Z</time>
      </trkpt>
      <trkpt lat="47.28633" lon="-2.36614">
        <ele>35.200000762939</ele>
        <time>2022-06-30T07:20:27.000Z</time>
      </trkpt>
      <trkpt lat="47.28628" lon="-2.36618">
        <ele>34.799999237061</ele>
        <time>2022-06-30T07:20:28.000Z</time>
      </trkpt>
      <trkpt lat="47.28625" lon="-2.3662">
        <ele>34.200000762939</ele>
        <time>2022-06-30T07:20:29.000Z</time>
      </trkpt>
      <trkpt lat="47.28621" lon="-2.36622">
        <ele>33.599998474121</ele>
        <time>2022-06-30T07:20:30.000Z</time>
      </trkpt>
      <trkpt lat="47.28617" lon="-2.36624">
        <ele>33</ele>
        <time>2022-06-30T07:20:31.000Z</time>
      </trkpt>
      <trkpt lat="47.28614" lon="-2.36627">
        <ele>32.400001525879</ele>
        <time>2022-06-30T07:20:32.000Z</time>
      </trkpt>
      <trkpt lat="47.28611" lon="-2.3663">
        <ele>31.799999237061</ele>
        <time>2022-06-30T07:20:33.000Z</time>
      </trkpt>
      <trkpt lat="47.2861" lon="-2.36631">
        <ele>31.200000762939</ele>
        <time>2022-06-30T07:20:34.000Z</time>
      </trkpt>
      <trkpt lat="47.28609" lon="-2.36632">
        <ele>30</ele>
        <time>2022-06-30T07:20:35.000Z</time>
      </trkpt>
      <trkpt lat="47.28608" lon="-2.36633">
        <ele>29.39999961853</ele>
        <time>2022-06-30T07:20:36.000Z</time>
      </trkpt>
      <trkpt lat="47.28606" lon="-2.36633">
        <ele>28.799999237061</ele>
        <time>2022-06-30T07:20:37.000Z</time>
      </trkpt>
      <trkpt lat="47.28599" lon="-2.36639">
        <ele>28.39999961853</ele>
        <time>2022-06-30T07:20:40.000Z</time>
      </trkpt>
      <trkpt lat="47.28596" lon="-2.3664">
        <ele>28</ele>
        <time>2022-06-30T07:20:41.000Z</time>
      </trkpt>
      <trkpt lat="47.28591" lon="-2.36644">
        <ele>27.60000038147</ele>
        <time>2022-06-30T07:20:42.000Z</time>
      </trkpt>
      <trkpt lat="47.28586" lon="-2.36647">
        <ele>27.200000762939</ele>
        <time>2022-06-30T07:20:43.000Z</time>
      </trkpt>
      <trkpt lat="47.28581" lon="-2.36648">
        <ele>26.799999237061</ele>
        <time>2022-06-30T07:20:44.000Z</time>
      </trkpt>
      <trkpt lat="47.28551" lon="-2.36654">
        <ele>26.799999237061</ele>
        <time>2022-06-30T07:20:50.000Z</time>
      </trkpt>
      <trkpt lat="47.28539" lon="-2.36659">
        <ele>26.39999961853</ele>
        <time>2022-06-30T07:20:53.000Z</time>
      </trkpt>
      <trkpt lat="47.28534" lon="-2.36663">
        <ele>26</ele>
        <time>2022-06-30T07:20:54.000Z</time>
      </trkpt>
      <trkpt lat="47.28529" lon="-2.36668">
        <ele>25.60000038147</ele>
        <time>2022-06-30T07:20:55.000Z</time>
      </trkpt>
      <trkpt lat="47.28527" lon="-2.36675">
        <ele>25.200000762939</ele>
        <time>2022-06-30T07:20:56.000Z</time>
      </trkpt>
      <trkpt lat="47.28526" lon="-2.36683">
        <ele>24.799999237061</ele>
        <time>2022-06-30T07:20:57.000Z</time>
      </trkpt>
      <trkpt lat="47.28528" lon="-2.36692">
        <ele>24.799999237061</ele>
        <time>2022-06-30T07:20:58.000Z</time>
      </trkpt>
      <trkpt lat="47.28537" lon="-2.36717">
        <ele>24.799999237061</ele>
        <time>2022-06-30T07:21:01.000Z</time>
      </trkpt>
      <trkpt lat="47.28542" lon="-2.36725">
        <ele>24.39999961853</ele>
        <time>2022-06-30T07:21:02.000Z</time>
      </trkpt>
      <trkpt lat="47.28546" lon="-2.36734">
        <ele>24</ele>
        <time>2022-06-30T07:21:03.000Z</time>
      </trkpt>
      <trkpt lat="47.2855" lon="-2.36742">
        <ele>23.60000038147</ele>
        <time>2022-06-30T07:21:04.000Z</time>
      </trkpt>
      <trkpt lat="47.28555" lon="-2.36751">
        <ele>23.200000762939</ele>
        <time>2022-06-30T07:21:05.000Z</time>
      </trkpt>
      <trkpt lat="47.28559" lon="-2.3676">
        <ele>22.60000038147</ele>
        <time>2022-06-30T07:21:06.000Z</time>
      </trkpt>
      <trkpt lat="47.28568" lon="-2.36779">
        <ele>22.200000762939</ele>
        <time>2022-06-30T07:21:08.000Z</time>
      </trkpt>
      <trkpt lat="47.28573" lon="-2.36788">
        <ele>21.799999237061</ele>
        <time>2022-06-30T07:21:09.000Z</time>
      </trkpt>
      <trkpt lat="47.28578" lon="-2.36797">
        <ele>21.39999961853</ele>
        <time>2022-06-30T07:21:10.000Z</time>
      </trkpt>
      <trkpt lat="47.28582" lon="-2.36805">
        <ele>21</ele>
        <time>2022-06-30T07:21:11.000Z</time>
      </trkpt>
      <trkpt lat="47.28586" lon="-2.36813">
        <ele>20.60000038147</ele>
        <time>2022-06-30T07:21:12.000Z</time>
      </trkpt>
      <trkpt lat="47.28603" lon="-2.36842">
        <ele>20.200000762939</ele>
        <time>2022-06-30T07:21:16.000Z</time>
      </trkpt>
      <trkpt lat="47.28608" lon="-2.36845">
        <ele>19.799999237061</ele>
        <time>2022-06-30T07:21:17.000Z</time>
      </trkpt>
      <trkpt lat="47.28613" lon="-2.36845">
        <ele>19.39999961853</ele>
        <time>2022-06-30T07:21:18.000Z</time>
      </trkpt>
      <trkpt lat="47.28618" lon="-2.36842">
        <ele>19</ele>
        <time>2022-06-30T07:21:19.000Z</time>
      </trkpt>
      <trkpt lat="47.28622" lon="-2.36839">
        <ele>18.60000038147</ele>
        <time>2022-06-30T07:21:20.000Z</time>
      </trkpt>
      <trkpt lat="47.28634" lon="-2.36826">
        <ele>18.60000038147</ele>
        <time>2022-06-30T07:21:23.000Z</time>
      </trkpt>
      <trkpt lat="47.28652" lon="-2.36803">
        <ele>19</ele>
        <time>2022-06-30T07:21:28.000Z</time>
      </trkpt>
      <trkpt lat="47.28656" lon="-2.36799">
        <ele>19.39999961853</ele>
        <time>2022-06-30T07:21:29.000Z</time>
      </trkpt>
      <trkpt lat="47.28659" lon="-2.36795">
        <ele>19.799999237061</ele>
        <time>2022-06-30T07:21:30.000Z</time>
      </trkpt>
      <trkpt lat="47.28662" lon="-2.36793">
        <ele>20.39999961853</ele>
        <time>2022-06-30T07:21:31.000Z</time>
      </trkpt>
      <trkpt lat="47.28666" lon="-2.36793">
        <ele>20.799999237061</ele>
        <time>2022-06-30T07:21:32.000Z</time>
      </trkpt>
      <trkpt lat="47.28668" lon="-2.36796">
        <ele>20.799999237061</ele>
        <time>2022-06-30T07:21:33.000Z</time>
      </trkpt>
      <trkpt lat="47.28676" lon="-2.3681">
        <ele>20.799999237061</ele>
        <time>2022-06-30T07:21:37.000Z</time>
      </trkpt>
      <trkpt lat="47.28689" lon="-2.36838">
        <ele>20.799999237061</ele>
        <time>2022-06-30T07:21:42.000Z</time>
      </trkpt>
      <trkpt lat="47.28706" lon="-2.36877">
        <ele>20.799999237061</ele>
        <time>2022-06-30T07:21:48.000Z</time>
      </trkpt>
      <trkpt lat="47.28709" lon="-2.36884">
        <ele>20</ele>
        <time>2022-06-30T07:21:49.000Z</time>
      </trkpt>
      <trkpt lat="47.28711" lon="-2.36889">
        <ele>19.39999961853</ele>
        <time>2022-06-30T07:21:50.000Z</time>
      </trkpt>
      <trkpt lat="47.28716" lon="-2.36896">
        <ele>19</ele>
        <time>2022-06-30T07:21:51.000Z</time>
      </trkpt>
      <trkpt lat="47.28721" lon="-2.369">
        <ele>18.60000038147</ele>
        <time>2022-06-30T07:21:52.000Z</time>
      </trkpt>
      <trkpt lat="47.28726" lon="-2.36904">
        <ele>18.200000762939</ele>
        <time>2022-06-30T07:21:53.000Z</time>
      </trkpt>
      <trkpt lat="47.28732" lon="-2.3691">
        <ele>17.60000038147</ele>
        <time>2022-06-30T07:21:54.000Z</time>
      </trkpt>
      <trkpt lat="47.28735" lon="-2.36914">
        <ele>17</ele>
        <time>2022-06-30T07:21:55.000Z</time>
      </trkpt>
      <trkpt lat="47.28738" lon="-2.3692">
        <ele>16.60000038147</ele>
        <time>2022-06-30T07:21:56.000Z</time>
      </trkpt>
      <trkpt lat="47.28741" lon="-2.36925">
        <ele>16</ele>
        <time>2022-06-30T07:21:57.000Z</time>
      </trkpt>
      <trkpt lat="47.2875" lon="-2.36943">
        <ele>16.39999961853</ele>
        <time>2022-06-30T07:22:01.000Z</time>
      </trkpt>
      <trkpt lat="47.28751" lon="-2.36946">
        <ele>16.799999237061</ele>
        <time>2022-06-30T07:22:02.000Z</time>
      </trkpt>
      <trkpt lat="47.28751" lon="-2.36949">
        <ele>17.200000762939</ele>
        <time>2022-06-30T07:22:03.000Z</time>
      </trkpt>
      <trkpt lat="47.28751" lon="-2.3695">
        <ele>17.799999237061</ele>
        <time>2022-06-30T07:22:04.000Z</time>
      </trkpt>
      <trkpt lat="47.28751" lon="-2.36951">
        <ele>18.200000762939</ele>
        <time>2022-06-30T07:22:05.000Z</time>
      </trkpt>
      <trkpt lat="47.28751" lon="-2.36954">
        <ele>18.60000038147</ele>
        <time>2022-06-30T07:22:06.000Z</time>
      </trkpt>
      <trkpt lat="47.28752" lon="-2.36956">
        <ele>19</ele>
        <time>2022-06-30T07:22:07.000Z</time>
      </trkpt>
      <trkpt lat="47.28753" lon="-2.36958">
        <ele>19.39999961853</ele>
        <time>2022-06-30T07:22:08.000Z</time>
      </trkpt>
      <trkpt lat="47.28753" lon="-2.36961">
        <ele>20</ele>
        <time>2022-06-30T07:22:09.000Z</time>
      </trkpt>
      <trkpt lat="47.28754" lon="-2.36965">
        <ele>20.39999961853</ele>
        <time>2022-06-30T07:22:10.000Z</time>
      </trkpt>
      <trkpt lat="47.28756" lon="-2.36968">
        <ele>20.39999961853</ele>
        <time>2022-06-30T07:22:11.000Z</time>
      </trkpt>
      <trkpt lat="47.28768" lon="-2.36985">
        <ele>20.39999961853</ele>
        <time>2022-06-30T07:22:16.000Z</time>
      </trkpt>
      <trkpt lat="47.28776" lon="-2.37003">
        <ele>20.39999961853</ele>
        <time>2022-06-30T07:22:20.000Z</time>
      </trkpt>
      <trkpt lat="47.28787" lon="-2.37044">
        <ele>20.39999961853</ele>
        <time>2022-06-30T07:22:27.000Z</time>
      </trkpt>
      <trkpt lat="47.2879" lon="-2.37057">
        <ele>19.799999237061</ele>
        <time>2022-06-30T07:22:29.000Z</time>
      </trkpt>
      <trkpt lat="47.28791" lon="-2.37066">
        <ele>19.39999961853</ele>
        <time>2022-06-30T07:22:30.000Z</time>
      </trkpt>
      <trkpt lat="47.28792" lon="-2.37075">
        <ele>18.799999237061</ele>
        <time>2022-06-30T07:22:31.000Z</time>
      </trkpt>
      <trkpt lat="47.28794" lon="-2.37082">
        <ele>18.39999961853</ele>
        <time>2022-06-30T07:22:32.000Z</time>
      </trkpt>
      <trkpt lat="47.28796" lon="-2.37088">
        <ele>18</ele>
        <time>2022-06-30T07:22:33.000Z</time>
      </trkpt>
      <trkpt lat="47.28799" lon="-2.37094">
        <ele>17.60000038147</ele>
        <time>2022-06-30T07:22:34.000Z</time>
      </trkpt>
      <trkpt lat="47.28803" lon="-2.37098">
        <ele>17</ele>
        <time>2022-06-30T07:22:35.000Z</time>
      </trkpt>
      <trkpt lat="47.28806" lon="-2.371">
        <ele>16.60000038147</ele>
        <time>2022-06-30T07:22:36.000Z</time>
      </trkpt>
      <trkpt lat="47.2881" lon="-2.37102">
        <ele>16.200000762939</ele>
        <time>2022-06-30T07:22:37.000Z</time>
      </trkpt>
      <trkpt lat="47.28813" lon="-2.37102">
        <ele>15.800000190735</ele>
        <time>2022-06-30T07:22:38.000Z</time>
      </trkpt>
      <trkpt lat="47.28816" lon="-2.371">
        <ele>14.800000190735</ele>
        <time>2022-06-30T07:22:39.000Z</time>
      </trkpt>
      <trkpt lat="47.28818" lon="-2.37099">
        <ele>14.199999809265</ele>
        <time>2022-06-30T07:22:40.000Z</time>
      </trkpt>
      <trkpt lat="47.2882" lon="-2.37098">
        <ele>13.60000038147</ele>
        <time>2022-06-30T07:22:41.000Z</time>
      </trkpt>
      <trkpt lat="47.28822" lon="-2.371">
        <ele>13</ele>
        <time>2022-06-30T07:22:42.000Z</time>
      </trkpt>
      <trkpt lat="47.28823" lon="-2.37102">
        <ele>12.39999961853</ele>
        <time>2022-06-30T07:22:43.000Z</time>
      </trkpt>
      <trkpt lat="47.28823" lon="-2.37105">
        <ele>11.800000190735</ele>
        <time>2022-06-30T07:22:44.000Z</time>
      </trkpt>
      <trkpt lat="47.28824" lon="-2.37111">
        <ele>11.800000190735</ele>
        <time>2022-06-30T07:22:46.000Z</time>
      </trkpt>
      <trkpt lat="47.28824" lon="-2.37119">
        <ele>11.800000190735</ele>
        <time>2022-06-30T07:22:48.000Z</time>
      </trkpt>
      <trkpt lat="47.2883" lon="-2.37139">
        <ele>11.800000190735</ele>
        <time>2022-06-30T07:22:53.000Z</time>
      </trkpt>
      <trkpt lat="47.28833" lon="-2.37165">
        <ele>11.800000190735</ele>
        <time>2022-06-30T07:22:59.000Z</time>
      </trkpt>
      <trkpt lat="47.28834" lon="-2.37169">
        <ele>11.199999809265</ele>
        <time>2022-06-30T07:23:00.000Z</time>
      </trkpt>
      <trkpt lat="47.28834" lon="-2.37174">
        <ele>10.800000190735</ele>
        <time>2022-06-30T07:23:01.000Z</time>
      </trkpt>
      <trkpt lat="47.28834" lon="-2.37179">
        <ele>10.39999961853</ele>
        <time>2022-06-30T07:23:02.000Z</time>
      </trkpt>
      <trkpt lat="47.28835" lon="-2.37184">
        <ele>9.6000003814697</ele>
        <time>2022-06-30T07:23:03.000Z</time>
      </trkpt>
      <trkpt lat="47.28836" lon="-2.37193">
        <ele>9.6000003814697</ele>
        <time>2022-06-30T07:23:05.000Z</time>
      </trkpt>
      <trkpt lat="47.28841" lon="-2.3722">
        <ele>9.6000003814697</ele>
        <time>2022-06-30T07:23:11.000Z</time>
      </trkpt>
      <trkpt lat="47.28848" lon="-2.3723">
        <ele>9.6000003814697</ele>
        <time>2022-06-30T07:23:14.000Z</time>
      </trkpt>
      <trkpt lat="47.28852" lon="-2.37231">
        <ele>9.6000003814697</ele>
        <time>2022-06-30T07:23:15.000Z</time>
      </trkpt>
      <trkpt lat="47.28865" lon="-2.3723">
        <ele>9.6000003814697</ele>
        <time>2022-06-30T07:23:18.000Z</time>
      </trkpt>
      <trkpt lat="47.2887" lon="-2.37229">
        <ele>9.6000003814697</ele>
        <time>2022-06-30T07:23:19.000Z</time>
      </trkpt>
      <trkpt lat="47.28897" lon="-2.37217">
        <ele>9.6000003814697</ele>
        <time>2022-06-30T07:23:25.000Z</time>
      </trkpt>
      <trkpt lat="47.28931" lon="-2.37205">
        <ele>9.6000003814697</ele>
        <time>2022-06-30T07:23:33.000Z</time>
      </trkpt>
      <trkpt lat="47.28944" lon="-2.37203">
        <ele>10</ele>
        <time>2022-06-30T07:23:37.000Z</time>
      </trkpt>
      <trkpt lat="47.28946" lon="-2.37202">
        <ele>10.39999961853</ele>
        <time>2022-06-30T07:23:38.000Z</time>
      </trkpt>
      <trkpt lat="47.28948" lon="-2.37202">
        <ele>11</ele>
        <time>2022-06-30T07:23:39.000Z</time>
      </trkpt>
      <trkpt lat="47.28949" lon="-2.37201">
        <ele>11.39999961853</ele>
        <time>2022-06-30T07:23:40.000Z</time>
      </trkpt>
      <trkpt lat="47.2895" lon="-2.37201">
        <ele>11.800000190735</ele>
        <time>2022-06-30T07:23:41.000Z</time>
      </trkpt>
      <trkpt lat="47.28952" lon="-2.372">
        <ele>11.800000190735</ele>
        <time>2022-06-30T07:23:44.000Z</time>
      </trkpt>
      <trkpt lat="47.28955" lon="-2.37201">
        <ele>11.800000190735</ele>
        <time>2022-06-30T07:24:41.000Z</time>
      </trkpt>
      <trkpt lat="47.2896" lon="-2.37198">
        <ele>12.199999809265</ele>
        <time>2022-06-30T07:24:44.000Z</time>
      </trkpt>
      <trkpt lat="47.28962" lon="-2.37196">
        <ele>12.60000038147</ele>
        <time>2022-06-30T07:24:45.000Z</time>
      </trkpt>
      <trkpt lat="47.28964" lon="-2.37194">
        <ele>13</ele>
        <time>2022-06-30T07:24:46.000Z</time>
      </trkpt>
      <trkpt lat="47.28966" lon="-2.37192">
        <ele>13.39999961853</ele>
        <time>2022-06-30T07:24:47.000Z</time>
      </trkpt>
      <trkpt lat="47.28968" lon="-2.3719">
        <ele>13.800000190735</ele>
        <time>2022-06-30T07:24:48.000Z</time>
      </trkpt>
      <trkpt lat="47.28978" lon="-2.37185">
        <ele>13.800000190735</ele>
        <time>2022-06-30T07:24:51.000Z</time>
      </trkpt>
      <trkpt lat="47.28992" lon="-2.37175">
        <ele>14.199999809265</ele>
        <time>2022-06-30T07:24:55.000Z</time>
      </trkpt>
      <trkpt lat="47.28996" lon="-2.37173">
        <ele>14.60000038147</ele>
        <time>2022-06-30T07:24:56.000Z</time>
      </trkpt>
      <trkpt lat="47.29" lon="-2.37171">
        <ele>15</ele>
        <time>2022-06-30T07:24:57.000Z</time>
      </trkpt>
      <trkpt lat="47.29003" lon="-2.3717">
        <ele>15.39999961853</ele>
        <time>2022-06-30T07:24:58.000Z</time>
      </trkpt>
      <trkpt lat="47.29006" lon="-2.37171">
        <ele>16</ele>
        <time>2022-06-30T07:24:59.000Z</time>
      </trkpt>
      <trkpt lat="47.29008" lon="-2.37173">
        <ele>16</ele>
        <time>2022-06-30T07:25:00.000Z</time>
      </trkpt>
      <trkpt lat="47.29017" lon="-2.37184">
        <ele>16.39999961853</ele>
        <time>2022-06-30T07:25:03.000Z</time>
      </trkpt>
      <trkpt lat="47.29021" lon="-2.37186">
        <ele>16.799999237061</ele>
        <time>2022-06-30T07:25:04.000Z</time>
      </trkpt>
      <trkpt lat="47.29024" lon="-2.37189">
        <ele>17.200000762939</ele>
        <time>2022-06-30T07:25:05.000Z</time>
      </trkpt>
      <trkpt lat="47.29027" lon="-2.37193">
        <ele>17.60000038147</ele>
        <time>2022-06-30T07:25:06.000Z</time>
      </trkpt>
      <trkpt lat="47.29031" lon="-2.37196">
        <ele>18.200000762939</ele>
        <time>2022-06-30T07:25:07.000Z</time>
      </trkpt>
      <trkpt lat="47.29035" lon="-2.372">
        <ele>18.200000762939</ele>
        <time>2022-06-30T07:25:08.000Z</time>
      </trkpt>
      <trkpt lat="47.29052" lon="-2.37218">
        <ele>18.60000038147</ele>
        <time>2022-06-30T07:25:13.000Z</time>
      </trkpt>
      <trkpt lat="47.29056" lon="-2.37222">
        <ele>19</ele>
        <time>2022-06-30T07:25:14.000Z</time>
      </trkpt>
      <trkpt lat="47.29059" lon="-2.37225">
        <ele>19.39999961853</ele>
        <time>2022-06-30T07:25:15.000Z</time>
      </trkpt>
      <trkpt lat="47.29063" lon="-2.37229">
        <ele>19.799999237061</ele>
        <time>2022-06-30T07:25:16.000Z</time>
      </trkpt>
      <trkpt lat="47.29066" lon="-2.37233">
        <ele>20.39999961853</ele>
        <time>2022-06-30T07:25:17.000Z</time>
      </trkpt>
      <trkpt lat="47.29076" lon="-2.37243">
        <ele>20.39999961853</ele>
        <time>2022-06-30T07:25:20.000Z</time>
      </trkpt>
      <trkpt lat="47.29084" lon="-2.3725">
        <ele>20.39999961853</ele>
        <time>2022-06-30T07:25:22.000Z</time>
      </trkpt>
      <trkpt lat="47.2911" lon="-2.37279">
        <ele>20.39999961853</ele>
        <time>2022-06-30T07:25:29.000Z</time>
      </trkpt>
      <trkpt lat="47.29114" lon="-2.37282">
        <ele>20.799999237061</ele>
        <time>2022-06-30T07:25:30.000Z</time>
      </trkpt>
      <trkpt lat="47.29118" lon="-2.37286">
        <ele>21.200000762939</ele>
        <time>2022-06-30T07:25:31.000Z</time>
      </trkpt>
      <trkpt lat="47.29121" lon="-2.37289">
        <ele>22</ele>
        <time>2022-06-30T07:25:32.000Z</time>
      </trkpt>
      <trkpt lat="47.29125" lon="-2.37292">
        <ele>22.39999961853</ele>
        <time>2022-06-30T07:25:33.000Z</time>
      </trkpt>
      <trkpt lat="47.29132" lon="-2.37299">
        <ele>22.39999961853</ele>
        <time>2022-06-30T07:25:35.000Z</time>
      </trkpt>
      <trkpt lat="47.29152" lon="-2.37323">
        <ele>22.39999961853</ele>
        <time>2022-06-30T07:25:41.000Z</time>
      </trkpt>
      <trkpt lat="47.29157" lon="-2.37323">
        <ele>22.39999961853</ele>
        <time>2022-06-30T07:25:42.000Z</time>
      </trkpt>
      <trkpt lat="47.29167" lon="-2.37314">
        <ele>22.39999961853</ele>
        <time>2022-06-30T07:25:45.000Z</time>
      </trkpt>
      <trkpt lat="47.29173" lon="-2.37305">
        <ele>22.39999961853</ele>
        <time>2022-06-30T07:25:47.000Z</time>
      </trkpt>
      <trkpt lat="47.29182" lon="-2.37294">
        <ele>22.799999237061</ele>
        <time>2022-06-30T07:25:50.000Z</time>
      </trkpt>
      <trkpt lat="47.29185" lon="-2.37291">
        <ele>23.200000762939</ele>
        <time>2022-06-30T07:25:51.000Z</time>
      </trkpt>
      <trkpt lat="47.29188" lon="-2.37287">
        <ele>23.60000038147</ele>
        <time>2022-06-30T07:25:52.000Z</time>
      </trkpt>
      <trkpt lat="47.29191" lon="-2.37283">
        <ele>24</ele>
        <time>2022-06-30T07:25:53.000Z</time>
      </trkpt>
      <trkpt lat="47.29195" lon="-2.37279">
        <ele>24.60000038147</ele>
        <time>2022-06-30T07:25:54.000Z</time>
      </trkpt>
      <trkpt lat="47.292" lon="-2.37272">
        <ele>25</ele>
        <time>2022-06-30T07:25:56.000Z</time>
      </trkpt>
      <trkpt lat="47.29203" lon="-2.37268">
        <ele>25.39999961853</ele>
        <time>2022-06-30T07:25:57.000Z</time>
      </trkpt>
      <trkpt lat="47.29206" lon="-2.37265">
        <ele>25.799999237061</ele>
        <time>2022-06-30T07:25:58.000Z</time>
      </trkpt>
      <trkpt lat="47.29209" lon="-2.37261">
        <ele>26.200000762939</ele>
        <time>2022-06-30T07:25:59.000Z</time>
      </trkpt>
      <trkpt lat="47.29211" lon="-2.37257">
        <ele>26.60000038147</ele>
        <time>2022-06-30T07:26:00.000Z</time>
      </trkpt>
      <trkpt lat="47.29221" lon="-2.3724">
        <ele>27</ele>
        <time>2022-06-30T07:26:04.000Z</time>
      </trkpt>
      <trkpt lat="47.29223" lon="-2.37237">
        <ele>27.39999961853</ele>
        <time>2022-06-30T07:26:05.000Z</time>
      </trkpt>
      <trkpt lat="47.29226" lon="-2.37234">
        <ele>27.799999237061</ele>
        <time>2022-06-30T07:26:06.000Z</time>
      </trkpt>
      <trkpt lat="47.29229" lon="-2.3723">
        <ele>28.200000762939</ele>
        <time>2022-06-30T07:26:07.000Z</time>
      </trkpt>
      <trkpt lat="47.29231" lon="-2.37226">
        <ele>28.60000038147</ele>
        <time>2022-06-30T07:26:08.000Z</time>
      </trkpt>
      <trkpt lat="47.29246" lon="-2.37207">
        <ele>29</ele>
        <time>2022-06-30T07:26:13.000Z</time>
      </trkpt>
      <trkpt lat="47.29248" lon="-2.37203">
        <ele>29.39999961853</ele>
        <time>2022-06-30T07:26:14.000Z</time>
      </trkpt>
      <trkpt lat="47.29251" lon="-2.37199">
        <ele>29.799999237061</ele>
        <time>2022-06-30T07:26:15.000Z</time>
      </trkpt>
      <trkpt lat="47.29254" lon="-2.37195">
        <ele>30.200000762939</ele>
        <time>2022-06-30T07:26:16.000Z</time>
      </trkpt>
      <trkpt lat="47.29257" lon="-2.37191">
        <ele>30.799999237061</ele>
        <time>2022-06-30T07:26:17.000Z</time>
      </trkpt>
      <trkpt lat="47.29265" lon="-2.3718">
        <ele>30.799999237061</ele>
        <time>2022-06-30T07:26:20.000Z</time>
      </trkpt>
      <trkpt lat="47.2927" lon="-2.37172">
        <ele>31.200000762939</ele>
        <time>2022-06-30T07:26:22.000Z</time>
      </trkpt>
      <trkpt lat="47.29273" lon="-2.37168">
        <ele>31.60000038147</ele>
        <time>2022-06-30T07:26:23.000Z</time>
      </trkpt>
      <trkpt lat="47.29276" lon="-2.37163">
        <ele>32</ele>
        <time>2022-06-30T07:26:24.000Z</time>
      </trkpt>
      <trkpt lat="47.29278" lon="-2.37159">
        <ele>32.400001525879</ele>
        <time>2022-06-30T07:26:25.000Z</time>
      </trkpt>
      <trkpt lat="47.29281" lon="-2.37155">
        <ele>32.799999237061</ele>
        <time>2022-06-30T07:26:26.000Z</time>
      </trkpt>
      <trkpt lat="47.29284" lon="-2.37152">
        <ele>32.799999237061</ele>
        <time>2022-06-30T07:26:27.000Z</time>
      </trkpt>
      <trkpt lat="47.2929" lon="-2.3715">
        <ele>32.799999237061</ele>
        <time>2022-06-30T07:26:29.000Z</time>
      </trkpt>
      <trkpt lat="47.29297" lon="-2.37154">
        <ele>32.799999237061</ele>
        <time>2022-06-30T07:26:31.000Z</time>
      </trkpt>
      <trkpt lat="47.29304" lon="-2.37162">
        <ele>32.799999237061</ele>
        <time>2022-06-30T07:26:33.000Z</time>
      </trkpt>
      <trkpt lat="47.29308" lon="-2.37165">
        <ele>32.799999237061</ele>
        <time>2022-06-30T07:26:34.000Z</time>
      </trkpt>
      <trkpt lat="47.29311" lon="-2.37169">
        <ele>32.799999237061</ele>
        <time>2022-06-30T07:26:35.000Z</time>
      </trkpt>
      <trkpt lat="47.29327" lon="-2.37185">
        <ele>32.799999237061</ele>
        <time>2022-06-30T07:26:39.000Z</time>
      </trkpt>
      <trkpt lat="47.29335" lon="-2.37192">
        <ele>32.799999237061</ele>
        <time>2022-06-30T07:26:41.000Z</time>
      </trkpt>
      <trkpt lat="47.2938" lon="-2.37217">
        <ele>32.799999237061</ele>
        <time>2022-06-30T07:26:50.000Z</time>
      </trkpt>
      <trkpt lat="47.2941" lon="-2.37229">
        <ele>32.799999237061</ele>
        <time>2022-06-30T07:26:56.000Z</time>
      </trkpt>
      <trkpt lat="47.2942" lon="-2.37238">
        <ele>32.799999237061</ele>
        <time>2022-06-30T07:26:58.000Z</time>
      </trkpt>
      <trkpt lat="47.29444" lon="-2.37263">
        <ele>32.799999237061</ele>
        <time>2022-06-30T07:27:04.000Z</time>
      </trkpt>
      <trkpt lat="47.29478" lon="-2.37298">
        <ele>32.799999237061</ele>
        <time>2022-06-30T07:27:13.000Z</time>
      </trkpt>
      <trkpt lat="47.29484" lon="-2.37306">
        <ele>33.200000762939</ele>
        <time>2022-06-30T07:27:15.000Z</time>
      </trkpt>
      <trkpt lat="47.29488" lon="-2.37309">
        <ele>33.599998474121</ele>
        <time>2022-06-30T07:27:16.000Z</time>
      </trkpt>
      <trkpt lat="47.29492" lon="-2.37313">
        <ele>34</ele>
        <time>2022-06-30T07:27:17.000Z</time>
      </trkpt>
      <trkpt lat="47.29496" lon="-2.37317">
        <ele>34.400001525879</ele>
        <time>2022-06-30T07:27:18.000Z</time>
      </trkpt>
      <trkpt lat="47.295" lon="-2.37321">
        <ele>34.799999237061</ele>
        <time>2022-06-30T07:27:19.000Z</time>
      </trkpt>
      <trkpt lat="47.29503" lon="-2.37326">
        <ele>34.799999237061</ele>
        <time>2022-06-30T07:27:20.000Z</time>
      </trkpt>
      <trkpt lat="47.29534" lon="-2.37364">
        <ele>34.799999237061</ele>
        <time>2022-06-30T07:27:29.000Z</time>
      </trkpt>
      <trkpt lat="47.29548" lon="-2.37381">
        <ele>34.799999237061</ele>
        <time>2022-06-30T07:27:33.000Z</time>
      </trkpt>
      <trkpt lat="47.2955" lon="-2.37385">
        <ele>35.799999237061</ele>
        <time>2022-06-30T07:27:34.000Z</time>
      </trkpt>
      <trkpt lat="47.29553" lon="-2.3739">
        <ele>36.200000762939</ele>
        <time>2022-06-30T07:27:35.000Z</time>
      </trkpt>
      <trkpt lat="47.29557" lon="-2.37394">
        <ele>36.599998474121</ele>
        <time>2022-06-30T07:27:36.000Z</time>
      </trkpt>
      <trkpt lat="47.2956" lon="-2.37399">
        <ele>37</ele>
        <time>2022-06-30T07:27:37.000Z</time>
      </trkpt>
      <trkpt lat="47.29585" lon="-2.37441">
        <ele>37</ele>
        <time>2022-06-30T07:27:45.000Z</time>
      </trkpt>
      <trkpt lat="47.29604" lon="-2.37474">
        <ele>37</ele>
        <time>2022-06-30T07:27:51.000Z</time>
      </trkpt>
      <trkpt lat="47.29612" lon="-2.37484">
        <ele>37</ele>
        <time>2022-06-30T07:27:53.000Z</time>
      </trkpt>
      <trkpt lat="47.29627" lon="-2.37498">
        <ele>37</ele>
        <time>2022-06-30T07:27:56.000Z</time>
      </trkpt>
      <trkpt lat="47.29644" lon="-2.3751">
        <ele>36</ele>
        <time>2022-06-30T07:27:59.000Z</time>
      </trkpt>
      <trkpt lat="47.2965" lon="-2.37515">
        <ele>35.599998474121</ele>
        <time>2022-06-30T07:28:00.000Z</time>
      </trkpt>
      <trkpt lat="47.29656" lon="-2.37519">
        <ele>35.200000762939</ele>
        <time>2022-06-30T07:28:01.000Z</time>
      </trkpt>
      <trkpt lat="47.29663" lon="-2.37524">
        <ele>34.799999237061</ele>
        <time>2022-06-30T07:28:02.000Z</time>
      </trkpt>
      <trkpt lat="47.29702" lon="-2.37556">
        <ele>34.799999237061</ele>
        <time>2022-06-30T07:28:05.000Z</time>
      </trkpt>
      <trkpt lat="47.29726" lon="-2.37585">
        <ele>34.799999237061</ele>
        <time>2022-06-30T07:28:12.000Z</time>
      </trkpt>
      <trkpt lat="47.29746" lon="-2.37612">
        <ele>35.200000762939</ele>
        <time>2022-06-30T07:28:17.000Z</time>
      </trkpt>
      <trkpt lat="47.29749" lon="-2.37617">
        <ele>35.599998474121</ele>
        <time>2022-06-30T07:28:18.000Z</time>
      </trkpt>
      <trkpt lat="47.29753" lon="-2.37622">
        <ele>36</ele>
        <time>2022-06-30T07:28:19.000Z</time>
      </trkpt>
      <trkpt lat="47.29756" lon="-2.37626">
        <ele>36.400001525879</ele>
        <time>2022-06-30T07:28:20.000Z</time>
      </trkpt>
      <trkpt lat="47.29759" lon="-2.37631">
        <ele>36.799999237061</ele>
        <time>2022-06-30T07:28:21.000Z</time>
      </trkpt>
      <trkpt lat="47.29779" lon="-2.37658">
        <ele>36.799999237061</ele>
        <time>2022-06-30T07:28:27.000Z</time>
      </trkpt>
      <trkpt lat="47.29804" lon="-2.37698">
        <ele>36.799999237061</ele>
        <time>2022-06-30T07:28:35.000Z</time>
      </trkpt>
      <trkpt lat="47.29831" lon="-2.37743">
        <ele>36.799999237061</ele>
        <time>2022-06-30T07:28:43.000Z</time>
      </trkpt>
      <trkpt lat="47.29858" lon="-2.37786">
        <ele>36.799999237061</ele>
        <time>2022-06-30T07:28:50.000Z</time>
      </trkpt>
      <trkpt lat="47.29866" lon="-2.37796">
        <ele>36.799999237061</ele>
        <time>2022-06-30T07:28:52.000Z</time>
      </trkpt>
      <trkpt lat="47.2987" lon="-2.37808">
        <ele>36.799999237061</ele>
        <time>2022-06-30T07:28:54.000Z</time>
      </trkpt>
      <trkpt lat="47.29866" lon="-2.37826">
        <ele>36.799999237061</ele>
        <time>2022-06-30T07:28:57.000Z</time>
      </trkpt>
      <trkpt lat="47.29855" lon="-2.37851">
        <ele>36.799999237061</ele>
        <time>2022-06-30T07:29:01.000Z</time>
      </trkpt>
      <trkpt lat="47.29849" lon="-2.37864">
        <ele>36.799999237061</ele>
        <time>2022-06-30T07:29:03.000Z</time>
      </trkpt>
      <trkpt lat="47.29845" lon="-2.3787">
        <ele>36.799999237061</ele>
        <time>2022-06-30T07:29:04.000Z</time>
      </trkpt>
      <trkpt lat="47.29831" lon="-2.37882">
        <ele>36.799999237061</ele>
        <time>2022-06-30T07:29:07.000Z</time>
      </trkpt>
      <trkpt lat="47.29822" lon="-2.37889">
        <ele>36.799999237061</ele>
        <time>2022-06-30T07:29:09.000Z</time>
      </trkpt>
      <trkpt lat="47.29804" lon="-2.37901">
        <ele>36.799999237061</ele>
        <time>2022-06-30T07:29:13.000Z</time>
      </trkpt>
      <trkpt lat="47.29771" lon="-2.37925">
        <ele>36.799999237061</ele>
        <time>2022-06-30T07:29:20.000Z</time>
      </trkpt>
      <trkpt lat="47.29756" lon="-2.3794">
        <ele>36.799999237061</ele>
        <time>2022-06-30T07:29:23.000Z</time>
      </trkpt>
      <trkpt lat="47.29743" lon="-2.37958">
        <ele>36.400001525879</ele>
        <time>2022-06-30T07:29:26.000Z</time>
      </trkpt>
      <trkpt lat="47.2974" lon="-2.37965">
        <ele>35.799999237061</ele>
        <time>2022-06-30T07:29:27.000Z</time>
      </trkpt>
      <trkpt lat="47.29738" lon="-2.37972">
        <ele>35.400001525879</ele>
        <time>2022-06-30T07:29:28.000Z</time>
      </trkpt>
      <trkpt lat="47.29735" lon="-2.37979">
        <ele>35</ele>
        <time>2022-06-30T07:29:29.000Z</time>
      </trkpt>
      <trkpt lat="47.29733" lon="-2.37986">
        <ele>34.400001525879</ele>
        <time>2022-06-30T07:29:30.000Z</time>
      </trkpt>
      <trkpt lat="47.29732" lon="-2.37992">
        <ele>33.799999237061</ele>
        <time>2022-06-30T07:29:31.000Z</time>
      </trkpt>
      <trkpt lat="47.29731" lon="-2.37998">
        <ele>33.200000762939</ele>
        <time>2022-06-30T07:29:32.000Z</time>
      </trkpt>
      <trkpt lat="47.2973" lon="-2.38003">
        <ele>32.400001525879</ele>
        <time>2022-06-30T07:29:33.000Z</time>
      </trkpt>
      <trkpt lat="47.2973" lon="-2.38008">
        <ele>31.799999237061</ele>
        <time>2022-06-30T07:29:34.000Z</time>
      </trkpt>
      <trkpt lat="47.2973" lon="-2.38012">
        <ele>31</ele>
        <time>2022-06-30T07:29:35.000Z</time>
      </trkpt>
      <trkpt lat="47.29731" lon="-2.38016">
        <ele>30.200000762939</ele>
        <time>2022-06-30T07:29:36.000Z</time>
      </trkpt>
      <trkpt lat="47.29732" lon="-2.38019">
        <ele>28.799999237061</ele>
        <time>2022-06-30T07:29:37.000Z</time>
      </trkpt>
      <trkpt lat="47.29732" lon="-2.38023">
        <ele>28</ele>
        <time>2022-06-30T07:29:38.000Z</time>
      </trkpt>
      <trkpt lat="47.29733" lon="-2.38026">
        <ele>27.60000038147</ele>
        <time>2022-06-30T07:29:39.000Z</time>
      </trkpt>
      <trkpt lat="47.29732" lon="-2.3803">
        <ele>27</ele>
        <time>2022-06-30T07:29:40.000Z</time>
      </trkpt>
      <trkpt lat="47.2973" lon="-2.38034">
        <ele>26.39999961853</ele>
        <time>2022-06-30T07:29:41.000Z</time>
      </trkpt>
      <trkpt lat="47.29728" lon="-2.38036">
        <ele>25.799999237061</ele>
        <time>2022-06-30T07:29:42.000Z</time>
      </trkpt>
      <trkpt lat="47.29724" lon="-2.38038">
        <ele>25.200000762939</ele>
        <time>2022-06-30T07:29:43.000Z</time>
      </trkpt>
      <trkpt lat="47.2972" lon="-2.38041">
        <ele>24.799999237061</ele>
        <time>2022-06-30T07:29:44.000Z</time>
      </trkpt>
      <trkpt lat="47.29716" lon="-2.38045">
        <ele>24.39999961853</ele>
        <time>2022-06-30T07:29:45.000Z</time>
      </trkpt>
      <trkpt lat="47.29712" lon="-2.38049">
        <ele>24</ele>
        <time>2022-06-30T07:29:46.000Z</time>
      </trkpt>
      <trkpt lat="47.29707" lon="-2.38053">
        <ele>23.60000038147</ele>
        <time>2022-06-30T07:29:47.000Z</time>
      </trkpt>
      <trkpt lat="47.29702" lon="-2.38057">
        <ele>23</ele>
        <time>2022-06-30T07:29:48.000Z</time>
      </trkpt>
      <trkpt lat="47.29696" lon="-2.38062">
        <ele>22.39999961853</ele>
        <time>2022-06-30T07:29:49.000Z</time>
      </trkpt>
      <trkpt lat="47.29691" lon="-2.38067">
        <ele>21.799999237061</ele>
        <time>2022-06-30T07:29:50.000Z</time>
      </trkpt>
      <trkpt lat="47.29685" lon="-2.38072">
        <ele>21.200000762939</ele>
        <time>2022-06-30T07:29:51.000Z</time>
      </trkpt>
      <trkpt lat="47.29679" lon="-2.38076">
        <ele>20.60000038147</ele>
        <time>2022-06-30T07:29:52.000Z</time>
      </trkpt>
      <trkpt lat="47.29673" lon="-2.3808">
        <ele>20</ele>
        <time>2022-06-30T07:29:53.000Z</time>
      </trkpt>
      <trkpt lat="47.29666" lon="-2.38084">
        <ele>19.200000762939</ele>
        <time>2022-06-30T07:29:54.000Z</time>
      </trkpt>
      <trkpt lat="47.29659" lon="-2.38088">
        <ele>18.60000038147</ele>
        <time>2022-06-30T07:29:55.000Z</time>
      </trkpt>
      <trkpt lat="47.29652" lon="-2.38091">
        <ele>17.799999237061</ele>
        <time>2022-06-30T07:29:56.000Z</time>
      </trkpt>
      <trkpt lat="47.29646" lon="-2.38095">
        <ele>17.200000762939</ele>
        <time>2022-06-30T07:29:57.000Z</time>
      </trkpt>
      <trkpt lat="47.29639" lon="-2.38099">
        <ele>16.39999961853</ele>
        <time>2022-06-30T07:29:58.000Z</time>
      </trkpt>
      <trkpt lat="47.29632" lon="-2.38102">
        <ele>16</ele>
        <time>2022-06-30T07:29:59.000Z</time>
      </trkpt>
      <trkpt lat="47.29626" lon="-2.38105">
        <ele>15.60000038147</ele>
        <time>2022-06-30T07:30:00.000Z</time>
      </trkpt>
      <trkpt lat="47.29619" lon="-2.38108">
        <ele>14.800000190735</ele>
        <time>2022-06-30T07:30:01.000Z</time>
      </trkpt>
      <trkpt lat="47.29612" lon="-2.38111">
        <ele>14.199999809265</ele>
        <time>2022-06-30T07:30:02.000Z</time>
      </trkpt>
      <trkpt lat="47.29585" lon="-2.38118">
        <ele>13.800000190735</ele>
        <time>2022-06-30T07:30:06.000Z</time>
      </trkpt>
      <trkpt lat="47.29578" lon="-2.3812">
        <ele>13.39999961853</ele>
        <time>2022-06-30T07:30:07.000Z</time>
      </trkpt>
      <trkpt lat="47.29571" lon="-2.38121">
        <ele>13</ele>
        <time>2022-06-30T07:30:08.000Z</time>
      </trkpt>
      <trkpt lat="47.29564" lon="-2.38123">
        <ele>12.39999961853</ele>
        <time>2022-06-30T07:30:09.000Z</time>
      </trkpt>
      <trkpt lat="47.29557" lon="-2.38124">
        <ele>12</ele>
        <time>2022-06-30T07:30:10.000Z</time>
      </trkpt>
      <trkpt lat="47.29536" lon="-2.38126">
        <ele>11.60000038147</ele>
        <time>2022-06-30T07:30:13.000Z</time>
      </trkpt>
      <trkpt lat="47.2953" lon="-2.38126">
        <ele>11.199999809265</ele>
        <time>2022-06-30T07:30:14.000Z</time>
      </trkpt>
      <trkpt lat="47.29523" lon="-2.38126">
        <ele>10.800000190735</ele>
        <time>2022-06-30T07:30:15.000Z</time>
      </trkpt>
      <trkpt lat="47.29516" lon="-2.38125">
        <ele>10.39999961853</ele>
        <time>2022-06-30T07:30:16.000Z</time>
      </trkpt>
      <trkpt lat="47.29509" lon="-2.38124">
        <ele>9.8000001907349</ele>
        <time>2022-06-30T07:30:17.000Z</time>
      </trkpt>
      <trkpt lat="47.29495" lon="-2.38125">
        <ele>9.8000001907349</ele>
        <time>2022-06-30T07:30:19.000Z</time>
      </trkpt>
      <trkpt lat="47.29487" lon="-2.38127">
        <ele>9.3999996185303</ele>
        <time>2022-06-30T07:30:20.000Z</time>
      </trkpt>
      <trkpt lat="47.29481" lon="-2.3813">
        <ele>9</ele>
        <time>2022-06-30T07:30:21.000Z</time>
      </trkpt>
      <trkpt lat="47.29475" lon="-2.38134">
        <ele>8.6000003814697</ele>
        <time>2022-06-30T07:30:22.000Z</time>
      </trkpt>
      <trkpt lat="47.29469" lon="-2.38138">
        <ele>8.1999998092651</ele>
        <time>2022-06-30T07:30:23.000Z</time>
      </trkpt>
      <trkpt lat="47.29463" lon="-2.38142">
        <ele>7.8000001907349</ele>
        <time>2022-06-30T07:30:24.000Z</time>
      </trkpt>
      <trkpt lat="47.29458" lon="-2.38147">
        <ele>7.8000001907349</ele>
        <time>2022-06-30T07:30:25.000Z</time>
      </trkpt>
      <trkpt lat="47.29448" lon="-2.38154">
        <ele>7.8000001907349</ele>
        <time>2022-06-30T07:30:27.000Z</time>
      </trkpt>
      <trkpt lat="47.29446" lon="-2.38157">
        <ele>7.4000000953674</ele>
        <time>2022-06-30T07:30:28.000Z</time>
      </trkpt>
      <trkpt lat="47.29446" lon="-2.38162">
        <ele>7</ele>
        <time>2022-06-30T07:30:29.000Z</time>
      </trkpt>
      <trkpt lat="47.29446" lon="-2.38168">
        <ele>6.5999999046326</ele>
        <time>2022-06-30T07:30:30.000Z</time>
      </trkpt>
      <trkpt lat="47.29447" lon="-2.38174">
        <ele>6.1999998092651</ele>
        <time>2022-06-30T07:30:31.000Z</time>
      </trkpt>
      <trkpt lat="47.29447" lon="-2.38181">
        <ele>5.8000001907349</ele>
        <time>2022-06-30T07:30:32.000Z</time>
      </trkpt>
      <trkpt lat="47.2945" lon="-2.38212">
        <ele>5.8000001907349</ele>
        <time>2022-06-30T07:30:38.000Z</time>
      </trkpt>
      <trkpt lat="47.29455" lon="-2.38232">
        <ele>5.8000001907349</ele>
        <time>2022-06-30T07:30:44.000Z</time>
      </trkpt>
      <trkpt lat="47.29457" lon="-2.38248">
        <ele>5.8000001907349</ele>
        <time>2022-06-30T07:30:50.000Z</time>
      </trkpt>
      <trkpt lat="47.29457" lon="-2.38264">
        <ele>5.8000001907349</ele>
        <time>2022-06-30T07:30:54.000Z</time>
      </trkpt>
      <trkpt lat="47.29457" lon="-2.38269">
        <ele>5.8000001907349</ele>
        <time>2022-06-30T07:30:55.000Z</time>
      </trkpt>
      <trkpt lat="47.29456" lon="-2.38303">
        <ele>5.8000001907349</ele>
        <time>2022-06-30T07:31:00.000Z</time>
      </trkpt>
      <trkpt lat="47.29455" lon="-2.38358">
        <ele>5.8000001907349</ele>
        <time>2022-06-30T07:31:06.000Z</time>
      </trkpt>
      <trkpt lat="47.29457" lon="-2.38432">
        <ele>5.8000001907349</ele>
        <time>2022-06-30T07:31:14.000Z</time>
      </trkpt>
      <trkpt lat="47.29459" lon="-2.38488">
        <ele>5.8000001907349</ele>
        <time>2022-06-30T07:31:21.000Z</time>
      </trkpt>
      <trkpt lat="47.2946" lon="-2.38541">
        <ele>5.8000001907349</ele>
        <time>2022-06-30T07:31:28.000Z</time>
      </trkpt>
      <trkpt lat="47.29461" lon="-2.38612">
        <ele>5.8000001907349</ele>
        <time>2022-06-30T07:31:37.000Z</time>
      </trkpt>
      <trkpt lat="47.29462" lon="-2.3865">
        <ele>5.8000001907349</ele>
        <time>2022-06-30T07:31:42.000Z</time>
      </trkpt>
      <trkpt lat="47.29464" lon="-2.38666">
        <ele>5.8000001907349</ele>
        <time>2022-06-30T07:31:44.000Z</time>
      </trkpt>
      <trkpt lat="47.29469" lon="-2.38712">
        <ele>5.8000001907349</ele>
        <time>2022-06-30T07:31:50.000Z</time>
      </trkpt>
      <trkpt lat="47.2947" lon="-2.38768">
        <ele>5.8000001907349</ele>
        <time>2022-06-30T07:31:57.000Z</time>
      </trkpt>
      <trkpt lat="47.29472" lon="-2.38823">
        <ele>5.8000001907349</ele>
        <time>2022-06-30T07:32:04.000Z</time>
      </trkpt>
      <trkpt lat="47.29473" lon="-2.38829">
        <ele>5.8000001907349</ele>
        <time>2022-06-30T07:32:05.000Z</time>
      </trkpt>
      <trkpt lat="47.29482" lon="-2.38873">
        <ele>5.8000001907349</ele>
        <time>2022-06-30T07:32:11.000Z</time>
      </trkpt>
      <trkpt lat="47.29489" lon="-2.38894">
        <ele>6.1999998092651</ele>
        <time>2022-06-30T07:32:14.000Z</time>
      </trkpt>
      <trkpt lat="47.29491" lon="-2.38901">
        <ele>6.5999999046326</ele>
        <time>2022-06-30T07:32:15.000Z</time>
      </trkpt>
      <trkpt lat="47.29493" lon="-2.38908">
        <ele>7</ele>
        <time>2022-06-30T07:32:16.000Z</time>
      </trkpt>
      <trkpt lat="47.29496" lon="-2.38915">
        <ele>7.4000000953674</ele>
        <time>2022-06-30T07:32:17.000Z</time>
      </trkpt>
      <trkpt lat="47.29498" lon="-2.38922">
        <ele>7.8000001907349</ele>
        <time>2022-06-30T07:32:18.000Z</time>
      </trkpt>
      <trkpt lat="47.29504" lon="-2.38936">
        <ele>7.8000001907349</ele>
        <time>2022-06-30T07:32:20.000Z</time>
      </trkpt>
      <trkpt lat="47.29512" lon="-2.38956">
        <ele>7.8000001907349</ele>
        <time>2022-06-30T07:32:23.000Z</time>
      </trkpt>
      <trkpt lat="47.29532" lon="-2.38972">
        <ele>7.8000001907349</ele>
        <time>2022-06-30T07:32:27.000Z</time>
      </trkpt>
      <trkpt lat="47.2957" lon="-2.38992">
        <ele>7.8000001907349</ele>
        <time>2022-06-30T07:32:34.000Z</time>
      </trkpt>
      <trkpt lat="47.29609" lon="-2.39008">
        <ele>7.8000001907349</ele>
        <time>2022-06-30T07:32:41.000Z</time>
      </trkpt>
      <trkpt lat="47.29614" lon="-2.39011">
        <ele>7.8000001907349</ele>
        <time>2022-06-30T07:32:42.000Z</time>
      </trkpt>
      <trkpt lat="47.29626" lon="-2.39025">
        <ele>7.8000001907349</ele>
        <time>2022-06-30T07:32:45.000Z</time>
      </trkpt>
      <trkpt lat="47.29629" lon="-2.39057">
        <ele>7.8000001907349</ele>
        <time>2022-06-30T07:32:49.000Z</time>
      </trkpt>
      <trkpt lat="47.29629" lon="-2.39065">
        <ele>7.8000001907349</ele>
        <time>2022-06-30T07:32:50.000Z</time>
      </trkpt>
      <trkpt lat="47.29628" lon="-2.39107">
        <ele>7.8000001907349</ele>
        <time>2022-06-30T07:32:55.000Z</time>
      </trkpt>
      <trkpt lat="47.29629" lon="-2.39124">
        <ele>7.8000001907349</ele>
        <time>2022-06-30T07:32:57.000Z</time>
      </trkpt>
      <trkpt lat="47.29636" lon="-2.39159">
        <ele>7.4000000953674</ele>
        <time>2022-06-30T07:33:01.000Z</time>
      </trkpt>
      <trkpt lat="47.29639" lon="-2.39167">
        <ele>7</ele>
        <time>2022-06-30T07:33:02.000Z</time>
      </trkpt>
      <trkpt lat="47.29644" lon="-2.39173">
        <ele>6.5999999046326</ele>
        <time>2022-06-30T07:33:03.000Z</time>
      </trkpt>
      <trkpt lat="47.29649" lon="-2.39178">
        <ele>6</ele>
        <time>2022-06-30T07:33:04.000Z</time>
      </trkpt>
      <trkpt lat="47.29655" lon="-2.39181">
        <ele>5.5999999046326</ele>
        <time>2022-06-30T07:33:05.000Z</time>
      </trkpt>
      <trkpt lat="47.29668" lon="-2.39183">
        <ele>5.5999999046326</ele>
        <time>2022-06-30T07:33:07.000Z</time>
      </trkpt>
      <trkpt lat="47.29675" lon="-2.39182">
        <ele>5.5999999046326</ele>
        <time>2022-06-30T07:33:08.000Z</time>
      </trkpt>
      <trkpt lat="47.29681" lon="-2.39181">
        <ele>5.5999999046326</ele>
        <time>2022-06-30T07:33:09.000Z</time>
      </trkpt>
      <trkpt lat="47.29721" lon="-2.39163">
        <ele>5.5999999046326</ele>
        <time>2022-06-30T07:33:16.000Z</time>
      </trkpt>
      <trkpt lat="47.29764" lon="-2.39137">
        <ele>5.5999999046326</ele>
        <time>2022-06-30T07:33:24.000Z</time>
      </trkpt>
      <trkpt lat="47.29792" lon="-2.3912">
        <ele>5.5999999046326</ele>
        <time>2022-06-30T07:33:30.000Z</time>
      </trkpt>
      <trkpt lat="47.29819" lon="-2.39102">
        <ele>6.1999998092651</ele>
        <time>2022-06-30T07:33:36.000Z</time>
      </trkpt>
      <trkpt lat="47.29823" lon="-2.39099">
        <ele>6.5999999046326</ele>
        <time>2022-06-30T07:33:37.000Z</time>
      </trkpt>
      <trkpt lat="47.29827" lon="-2.39096">
        <ele>7</ele>
        <time>2022-06-30T07:33:38.000Z</time>
      </trkpt>
      <trkpt lat="47.29832" lon="-2.39094">
        <ele>7.4000000953674</ele>
        <time>2022-06-30T07:33:39.000Z</time>
      </trkpt>
      <trkpt lat="47.29836" lon="-2.39091">
        <ele>7.8000001907349</ele>
        <time>2022-06-30T07:33:40.000Z</time>
      </trkpt>
      <trkpt lat="47.29865" lon="-2.3907">
        <ele>7.8000001907349</ele>
        <time>2022-06-30T07:33:46.000Z</time>
      </trkpt>
      <trkpt lat="47.29902" lon="-2.39043">
        <ele>8.1999998092651</ele>
        <time>2022-06-30T07:33:54.000Z</time>
      </trkpt>
      <trkpt lat="47.29906" lon="-2.3904">
        <ele>8.6000003814697</ele>
        <time>2022-06-30T07:33:55.000Z</time>
      </trkpt>
      <trkpt lat="47.29911" lon="-2.39036">
        <ele>9.1999998092651</ele>
        <time>2022-06-30T07:33:56.000Z</time>
      </trkpt>
      <trkpt lat="47.29915" lon="-2.39033">
        <ele>9.6000003814697</ele>
        <time>2022-06-30T07:33:57.000Z</time>
      </trkpt>
      <trkpt lat="47.29919" lon="-2.3903">
        <ele>10</ele>
        <time>2022-06-30T07:33:58.000Z</time>
      </trkpt>
      <trkpt lat="47.29937" lon="-2.39018">
        <ele>10</ele>
        <time>2022-06-30T07:34:02.000Z</time>
      </trkpt>
      <trkpt lat="47.29973" lon="-2.38995">
        <ele>10</ele>
        <time>2022-06-30T07:34:10.000Z</time>
      </trkpt>
      <trkpt lat="47.29977" lon="-2.38993">
        <ele>10.39999961853</ele>
        <time>2022-06-30T07:34:11.000Z</time>
      </trkpt>
      <trkpt lat="47.29982" lon="-2.38992">
        <ele>10.800000190735</ele>
        <time>2022-06-30T07:34:12.000Z</time>
      </trkpt>
      <trkpt lat="47.29986" lon="-2.38991">
        <ele>11.199999809265</ele>
        <time>2022-06-30T07:34:13.000Z</time>
      </trkpt>
      <trkpt lat="47.29991" lon="-2.3899">
        <ele>11.60000038147</ele>
        <time>2022-06-30T07:34:14.000Z</time>
      </trkpt>
      <trkpt lat="47.29995" lon="-2.3899">
        <ele>12</ele>
        <time>2022-06-30T07:34:15.000Z</time>
      </trkpt>
      <trkpt lat="47.3" lon="-2.38988">
        <ele>12</ele>
        <time>2022-06-30T07:34:16.000Z</time>
      </trkpt>
      <trkpt lat="47.3001" lon="-2.38978">
        <ele>12</ele>
        <time>2022-06-30T07:34:19.000Z</time>
      </trkpt>
      <trkpt lat="47.30014" lon="-2.38975">
        <ele>12</ele>
        <time>2022-06-30T07:34:20.000Z</time>
      </trkpt>
      <trkpt lat="47.30028" lon="-2.38973">
        <ele>12</ele>
        <time>2022-06-30T07:34:23.000Z</time>
      </trkpt>
      <trkpt lat="47.30033" lon="-2.38971">
        <ele>12</ele>
        <time>2022-06-30T07:34:24.000Z</time>
      </trkpt>
      <trkpt lat="47.30051" lon="-2.38958">
        <ele>12</ele>
        <time>2022-06-30T07:34:28.000Z</time>
      </trkpt>
      <trkpt lat="47.30059" lon="-2.3895">
        <ele>12.39999961853</ele>
        <time>2022-06-30T07:34:30.000Z</time>
      </trkpt>
      <trkpt lat="47.30063" lon="-2.38946">
        <ele>13</ele>
        <time>2022-06-30T07:34:31.000Z</time>
      </trkpt>
      <trkpt lat="47.30067" lon="-2.38942">
        <ele>13.39999961853</ele>
        <time>2022-06-30T07:34:32.000Z</time>
      </trkpt>
      <trkpt lat="47.30071" lon="-2.38938">
        <ele>14.199999809265</ele>
        <time>2022-06-30T07:34:33.000Z</time>
      </trkpt>
      <trkpt lat="47.30079" lon="-2.38932">
        <ele>14.199999809265</ele>
        <time>2022-06-30T07:34:35.000Z</time>
      </trkpt>
      <trkpt lat="47.3009" lon="-2.38923">
        <ele>14.60000038147</ele>
        <time>2022-06-30T07:34:38.000Z</time>
      </trkpt>
      <trkpt lat="47.30094" lon="-2.3892">
        <ele>15</ele>
        <time>2022-06-30T07:34:39.000Z</time>
      </trkpt>
      <trkpt lat="47.30097" lon="-2.38917">
        <ele>15.39999961853</ele>
        <time>2022-06-30T07:34:40.000Z</time>
      </trkpt>
      <trkpt lat="47.30101" lon="-2.38914">
        <ele>15.800000190735</ele>
        <time>2022-06-30T07:34:41.000Z</time>
      </trkpt>
      <trkpt lat="47.30104" lon="-2.3891">
        <ele>16.200000762939</ele>
        <time>2022-06-30T07:34:42.000Z</time>
      </trkpt>
      <trkpt lat="47.30107" lon="-2.38907">
        <ele>16.200000762939</ele>
        <time>2022-06-30T07:34:43.000Z</time>
      </trkpt>
      <trkpt lat="47.30116" lon="-2.38895">
        <ele>16.200000762939</ele>
        <time>2022-06-30T07:34:46.000Z</time>
      </trkpt>
      <trkpt lat="47.30119" lon="-2.3889">
        <ele>16.60000038147</ele>
        <time>2022-06-30T07:34:47.000Z</time>
      </trkpt>
      <trkpt lat="47.30122" lon="-2.38885">
        <ele>17</ele>
        <time>2022-06-30T07:34:48.000Z</time>
      </trkpt>
      <trkpt lat="47.30125" lon="-2.3888">
        <ele>17.39999961853</ele>
        <time>2022-06-30T07:34:49.000Z</time>
      </trkpt>
      <trkpt lat="47.30128" lon="-2.38875">
        <ele>17.799999237061</ele>
        <time>2022-06-30T07:34:50.000Z</time>
      </trkpt>
      <trkpt lat="47.30131" lon="-2.3887">
        <ele>18.39999961853</ele>
        <time>2022-06-30T07:34:51.000Z</time>
      </trkpt>
      <trkpt lat="47.30139" lon="-2.38855">
        <ele>18.39999961853</ele>
        <time>2022-06-30T07:34:54.000Z</time>
      </trkpt>
      <trkpt lat="47.30144" lon="-2.38845">
        <ele>18.799999237061</ele>
        <time>2022-06-30T07:34:56.000Z</time>
      </trkpt>
      <trkpt lat="47.30147" lon="-2.3884">
        <ele>19.200000762939</ele>
        <time>2022-06-30T07:34:57.000Z</time>
      </trkpt>
      <trkpt lat="47.30149" lon="-2.38835">
        <ele>20</ele>
        <time>2022-06-30T07:34:58.000Z</time>
      </trkpt>
      <trkpt lat="47.30152" lon="-2.3883">
        <ele>20.39999961853</ele>
        <time>2022-06-30T07:34:59.000Z</time>
      </trkpt>
      <trkpt lat="47.30158" lon="-2.3882">
        <ele>20.39999961853</ele>
        <time>2022-06-30T07:35:01.000Z</time>
      </trkpt>
      <trkpt lat="47.30172" lon="-2.38802">
        <ele>20.799999237061</ele>
        <time>2022-06-30T07:35:06.000Z</time>
      </trkpt>
      <trkpt lat="47.30174" lon="-2.38799">
        <ele>21.200000762939</ele>
        <time>2022-06-30T07:35:07.000Z</time>
      </trkpt>
      <trkpt lat="47.30177" lon="-2.38796">
        <ele>21.799999237061</ele>
        <time>2022-06-30T07:35:08.000Z</time>
      </trkpt>
      <trkpt lat="47.3018" lon="-2.38793">
        <ele>22.200000762939</ele>
        <time>2022-06-30T07:35:09.000Z</time>
      </trkpt>
      <trkpt lat="47.30183" lon="-2.38789">
        <ele>22.60000038147</ele>
        <time>2022-06-30T07:35:10.000Z</time>
      </trkpt>
      <trkpt lat="47.30192" lon="-2.3878">
        <ele>22.60000038147</ele>
        <time>2022-06-30T07:35:13.000Z</time>
      </trkpt>
      <trkpt lat="47.30195" lon="-2.38778">
        <ele>23</ele>
        <time>2022-06-30T07:35:14.000Z</time>
      </trkpt>
      <trkpt lat="47.30198" lon="-2.38776">
        <ele>23.39999961853</ele>
        <time>2022-06-30T07:35:15.000Z</time>
      </trkpt>
      <trkpt lat="47.30201" lon="-2.38774">
        <ele>23.799999237061</ele>
        <time>2022-06-30T07:35:16.000Z</time>
      </trkpt>
      <trkpt lat="47.30204" lon="-2.38772">
        <ele>24.200000762939</ele>
        <time>2022-06-30T07:35:17.000Z</time>
      </trkpt>
      <trkpt lat="47.30207" lon="-2.38771">
        <ele>24.60000038147</ele>
        <time>2022-06-30T07:35:18.000Z</time>
      </trkpt>
      <trkpt lat="47.30211" lon="-2.38772">
        <ele>24.60000038147</ele>
        <time>2022-06-30T07:35:19.000Z</time>
      </trkpt>
      <trkpt lat="47.30218" lon="-2.38775">
        <ele>25</ele>
        <time>2022-06-30T07:35:21.000Z</time>
      </trkpt>
      <trkpt lat="47.3022" lon="-2.38777">
        <ele>25.39999961853</ele>
        <time>2022-06-30T07:35:22.000Z</time>
      </trkpt>
      <trkpt lat="47.30223" lon="-2.38779">
        <ele>26.39999961853</ele>
        <time>2022-06-30T07:35:23.000Z</time>
      </trkpt>
      <trkpt lat="47.30225" lon="-2.38782">
        <ele>26.799999237061</ele>
        <time>2022-06-30T07:35:24.000Z</time>
      </trkpt>
      <trkpt lat="47.30228" lon="-2.38784">
        <ele>27.200000762939</ele>
        <time>2022-06-30T07:35:25.000Z</time>
      </trkpt>
      <trkpt lat="47.3023" lon="-2.38786">
        <ele>27.60000038147</ele>
        <time>2022-06-30T07:35:26.000Z</time>
      </trkpt>
      <trkpt lat="47.30232" lon="-2.38788">
        <ele>28</ele>
        <time>2022-06-30T07:35:27.000Z</time>
      </trkpt>
      <trkpt lat="47.30234" lon="-2.38789">
        <ele>28.39999961853</ele>
        <time>2022-06-30T07:35:28.000Z</time>
      </trkpt>
      <trkpt lat="47.30236" lon="-2.38791">
        <ele>28.799999237061</ele>
        <time>2022-06-30T07:35:29.000Z</time>
      </trkpt>
      <trkpt lat="47.30239" lon="-2.38794">
        <ele>28.799999237061</ele>
        <time>2022-06-30T07:35:30.000Z</time>
      </trkpt>
      <trkpt lat="47.30245" lon="-2.388">
        <ele>29.200000762939</ele>
        <time>2022-06-30T07:35:32.000Z</time>
      </trkpt>
      <trkpt lat="47.30246" lon="-2.38804">
        <ele>29.799999237061</ele>
        <time>2022-06-30T07:35:33.000Z</time>
      </trkpt>
      <trkpt lat="47.30248" lon="-2.38807">
        <ele>30.200000762939</ele>
        <time>2022-06-30T07:35:34.000Z</time>
      </trkpt>
      <trkpt lat="47.3025" lon="-2.3881">
        <ele>30.60000038147</ele>
        <time>2022-06-30T07:35:35.000Z</time>
      </trkpt>
      <trkpt lat="47.30252" lon="-2.38814">
        <ele>31</ele>
        <time>2022-06-30T07:35:36.000Z</time>
      </trkpt>
      <trkpt lat="47.3026" lon="-2.38831">
        <ele>31.39999961853</ele>
        <time>2022-06-30T07:35:41.000Z</time>
      </trkpt>
      <trkpt lat="47.30262" lon="-2.38834">
        <ele>31.799999237061</ele>
        <time>2022-06-30T07:35:42.000Z</time>
      </trkpt>
      <trkpt lat="47.30263" lon="-2.38838">
        <ele>32.200000762939</ele>
        <time>2022-06-30T07:35:43.000Z</time>
      </trkpt>
      <trkpt lat="47.30265" lon="-2.38843">
        <ele>32.599998474121</ele>
        <time>2022-06-30T07:35:44.000Z</time>
      </trkpt>
      <trkpt lat="47.30267" lon="-2.38847">
        <ele>33</ele>
        <time>2022-06-30T07:35:45.000Z</time>
      </trkpt>
      <trkpt lat="47.30271" lon="-2.38856">
        <ele>33</ele>
        <time>2022-06-30T07:35:47.000Z</time>
      </trkpt>
      <trkpt lat="47.30288" lon="-2.38904">
        <ele>33</ele>
        <time>2022-06-30T07:35:57.000Z</time>
      </trkpt>
      <trkpt lat="47.30294" lon="-2.38919">
        <ele>33.400001525879</ele>
        <time>2022-06-30T07:36:00.000Z</time>
      </trkpt>
      <trkpt lat="47.30297" lon="-2.38924">
        <ele>33.799999237061</ele>
        <time>2022-06-30T07:36:01.000Z</time>
      </trkpt>
      <trkpt lat="47.30299" lon="-2.38929">
        <ele>34.400001525879</ele>
        <time>2022-06-30T07:36:02.000Z</time>
      </trkpt>
      <trkpt lat="47.30302" lon="-2.38934">
        <ele>34.799999237061</ele>
        <time>2022-06-30T07:36:03.000Z</time>
      </trkpt>
      <trkpt lat="47.30304" lon="-2.38939">
        <ele>35.200000762939</ele>
        <time>2022-06-30T07:36:04.000Z</time>
      </trkpt>
      <trkpt lat="47.30307" lon="-2.38944">
        <ele>35.200000762939</ele>
        <time>2022-06-30T07:36:05.000Z</time>
      </trkpt>
      <trkpt lat="47.30324" lon="-2.38971">
        <ele>35.200000762939</ele>
        <time>2022-06-30T07:36:11.000Z</time>
      </trkpt>
      <trkpt lat="47.30326" lon="-2.38976">
        <ele>35.200000762939</ele>
        <time>2022-06-30T07:36:12.000Z</time>
      </trkpt>
      <trkpt lat="47.30331" lon="-2.38986">
        <ele>35.200000762939</ele>
        <time>2022-06-30T07:36:14.000Z</time>
      </trkpt>
      <trkpt lat="47.30339" lon="-2.39006">
        <ele>35.599998474121</ele>
        <time>2022-06-30T07:36:18.000Z</time>
      </trkpt>
      <trkpt lat="47.30341" lon="-2.39012">
        <ele>36</ele>
        <time>2022-06-30T07:36:19.000Z</time>
      </trkpt>
      <trkpt lat="47.30343" lon="-2.39017">
        <ele>36.400001525879</ele>
        <time>2022-06-30T07:36:20.000Z</time>
      </trkpt>
      <trkpt lat="47.30344" lon="-2.39023">
        <ele>36.799999237061</ele>
        <time>2022-06-30T07:36:21.000Z</time>
      </trkpt>
      <trkpt lat="47.30346" lon="-2.39029">
        <ele>37.200000762939</ele>
        <time>2022-06-30T07:36:22.000Z</time>
      </trkpt>
      <trkpt lat="47.30353" lon="-2.39057">
        <ele>37.200000762939</ele>
        <time>2022-06-30T07:36:27.000Z</time>
      </trkpt>
      <trkpt lat="47.30363" lon="-2.39099">
        <ele>37.200000762939</ele>
        <time>2022-06-30T07:36:33.000Z</time>
      </trkpt>
      <trkpt lat="47.3038" lon="-2.39148">
        <ele>37.200000762939</ele>
        <time>2022-06-30T07:36:39.000Z</time>
      </trkpt>
      <trkpt lat="47.30384" lon="-2.39155">
        <ele>37.200000762939</ele>
        <time>2022-06-30T07:36:40.000Z</time>
      </trkpt>
      <trkpt lat="47.304" lon="-2.39168">
        <ele>37.200000762939</ele>
        <time>2022-06-30T07:36:43.000Z</time>
      </trkpt>
      <trkpt lat="47.30423" lon="-2.39168">
        <ele>37.200000762939</ele>
        <time>2022-06-30T07:36:47.000Z</time>
      </trkpt>
      <trkpt lat="47.30434" lon="-2.39162">
        <ele>37.200000762939</ele>
        <time>2022-06-30T07:36:49.000Z</time>
      </trkpt>
      <trkpt lat="47.30438" lon="-2.39159">
        <ele>37.200000762939</ele>
        <time>2022-06-30T07:36:50.000Z</time>
      </trkpt>
      <trkpt lat="47.30443" lon="-2.39155">
        <ele>37.200000762939</ele>
        <time>2022-06-30T07:36:51.000Z</time>
      </trkpt>
      <trkpt lat="47.30463" lon="-2.39132">
        <ele>37.200000762939</ele>
        <time>2022-06-30T07:36:56.000Z</time>
      </trkpt>
      <trkpt lat="47.30491" lon="-2.39102">
        <ele>37.599998474121</ele>
        <time>2022-06-30T07:37:03.000Z</time>
      </trkpt>
      <trkpt lat="47.30496" lon="-2.39098">
        <ele>38</ele>
        <time>2022-06-30T07:37:04.000Z</time>
      </trkpt>
      <trkpt lat="47.30499" lon="-2.39094">
        <ele>38.400001525879</ele>
        <time>2022-06-30T07:37:05.000Z</time>
      </trkpt>
      <trkpt lat="47.30504" lon="-2.3909">
        <ele>38.799999237061</ele>
        <time>2022-06-30T07:37:06.000Z</time>
      </trkpt>
      <trkpt lat="47.30508" lon="-2.39086">
        <ele>39.200000762939</ele>
        <time>2022-06-30T07:37:07.000Z</time>
      </trkpt>
      <trkpt lat="47.30517" lon="-2.39078">
        <ele>39.200000762939</ele>
        <time>2022-06-30T07:37:09.000Z</time>
      </trkpt>
      <trkpt lat="47.30551" lon="-2.39046">
        <ele>39.200000762939</ele>
        <time>2022-06-30T07:37:17.000Z</time>
      </trkpt>
      <trkpt lat="47.30555" lon="-2.39042">
        <ele>39.599998474121</ele>
        <time>2022-06-30T07:37:18.000Z</time>
      </trkpt>
      <trkpt lat="47.30559" lon="-2.39038">
        <ele>40</ele>
        <time>2022-06-30T07:37:19.000Z</time>
      </trkpt>
      <trkpt lat="47.30563" lon="-2.39033">
        <ele>40.400001525879</ele>
        <time>2022-06-30T07:37:20.000Z</time>
      </trkpt>
      <trkpt lat="47.30566" lon="-2.39029">
        <ele>40.799999237061</ele>
        <time>2022-06-30T07:37:21.000Z</time>
      </trkpt>
      <trkpt lat="47.3057" lon="-2.39025">
        <ele>41.400001525879</ele>
        <time>2022-06-30T07:37:22.000Z</time>
      </trkpt>
      <trkpt lat="47.30574" lon="-2.3902">
        <ele>41.400001525879</ele>
        <time>2022-06-30T07:37:23.000Z</time>
      </trkpt>
      <trkpt lat="47.30608" lon="-2.38976">
        <ele>41.799999237061</ele>
        <time>2022-06-30T07:37:32.000Z</time>
      </trkpt>
      <trkpt lat="47.30612" lon="-2.38972">
        <ele>42.200000762939</ele>
        <time>2022-06-30T07:37:33.000Z</time>
      </trkpt>
      <trkpt lat="47.30615" lon="-2.38968">
        <ele>42.599998474121</ele>
        <time>2022-06-30T07:37:34.000Z</time>
      </trkpt>
      <trkpt lat="47.30619" lon="-2.38964">
        <ele>43</ele>
        <time>2022-06-30T07:37:35.000Z</time>
      </trkpt>
      <trkpt lat="47.30623" lon="-2.3896">
        <ele>43.400001525879</ele>
        <time>2022-06-30T07:37:36.000Z</time>
      </trkpt>
      <trkpt lat="47.30639" lon="-2.38945">
        <ele>43.400001525879</ele>
        <time>2022-06-30T07:37:40.000Z</time>
      </trkpt>
      <trkpt lat="47.30663" lon="-2.38924">
        <ele>43.400001525879</ele>
        <time>2022-06-30T07:37:46.000Z</time>
      </trkpt>
      <trkpt lat="47.30689" lon="-2.38905">
        <ele>43.400001525879</ele>
        <time>2022-06-30T07:37:53.000Z</time>
      </trkpt>
      <trkpt lat="47.30693" lon="-2.38904">
        <ele>43.400001525879</ele>
        <time>2022-06-30T07:37:55.000Z</time>
      </trkpt>
      <trkpt lat="47.30695" lon="-2.38906">
        <ele>43.799999237061</ele>
        <time>2022-06-30T07:37:56.000Z</time>
      </trkpt>
      <trkpt lat="47.30696" lon="-2.38908">
        <ele>44.200000762939</ele>
        <time>2022-06-30T07:37:57.000Z</time>
      </trkpt>
      <trkpt lat="47.30697" lon="-2.38909">
        <ele>44.599998474121</ele>
        <time>2022-06-30T07:37:58.000Z</time>
      </trkpt>
      <trkpt lat="47.30698" lon="-2.3891">
        <ele>45</ele>
        <time>2022-06-30T07:37:59.000Z</time>
      </trkpt>
      <trkpt lat="47.30698" lon="-2.38911">
        <ele>45.400001525879</ele>
        <time>2022-06-30T07:38:00.000Z</time>
      </trkpt>
      <trkpt lat="47.30699" lon="-2.38912">
        <ele>45.400001525879</ele>
        <time>2022-06-30T07:38:02.000Z</time>
      </trkpt>
      <trkpt lat="47.30702" lon="-2.38921">
        <ele>45.400001525879</ele>
        <time>2022-06-30T07:38:06.000Z</time>
      </trkpt>
      <trkpt lat="47.30702" lon="-2.38925">
        <ele>45.400001525879</ele>
        <time>2022-06-30T07:38:07.000Z</time>
      </trkpt>
      <trkpt lat="47.30699" lon="-2.38938">
        <ele>45.400001525879</ele>
        <time>2022-06-30T07:38:10.000Z</time>
      </trkpt>
      <trkpt lat="47.307" lon="-2.38948">
        <ele>45.400001525879</ele>
        <time>2022-06-30T07:38:12.000Z</time>
      </trkpt>
      <trkpt lat="47.30706" lon="-2.38961">
        <ele>44.599998474121</ele>
        <time>2022-06-30T07:38:15.000Z</time>
      </trkpt>
      <trkpt lat="47.30709" lon="-2.38962">
        <ele>44.200000762939</ele>
        <time>2022-06-30T07:38:16.000Z</time>
      </trkpt>
      <trkpt lat="47.30712" lon="-2.38963">
        <ele>43.799999237061</ele>
        <time>2022-06-30T07:38:17.000Z</time>
      </trkpt>
      <trkpt lat="47.30714" lon="-2.38963">
        <ele>43.400001525879</ele>
        <time>2022-06-30T07:38:18.000Z</time>
      </trkpt>
      <trkpt lat="47.30721" lon="-2.38958">
        <ele>43.400001525879</ele>
        <time>2022-06-30T07:38:21.000Z</time>
      </trkpt>
      <trkpt lat="47.30739" lon="-2.38952">
        <ele>43.400001525879</ele>
        <time>2022-06-30T07:38:26.000Z</time>
      </trkpt>
      <trkpt lat="47.30755" lon="-2.38955">
        <ele>43.400001525879</ele>
        <time>2022-06-30T07:38:30.000Z</time>
      </trkpt>
      <trkpt lat="47.30759" lon="-2.38954">
        <ele>43.400001525879</ele>
        <time>2022-06-30T07:38:31.000Z</time>
      </trkpt>
      <trkpt lat="47.3078" lon="-2.3894">
        <ele>43</ele>
        <time>2022-06-30T07:38:35.000Z</time>
      </trkpt>
      <trkpt lat="47.30786" lon="-2.38936">
        <ele>42.599998474121</ele>
        <time>2022-06-30T07:38:36.000Z</time>
      </trkpt>
      <trkpt lat="47.30791" lon="-2.38931">
        <ele>42.200000762939</ele>
        <time>2022-06-30T07:38:37.000Z</time>
      </trkpt>
      <trkpt lat="47.30797" lon="-2.38927">
        <ele>41.799999237061</ele>
        <time>2022-06-30T07:38:38.000Z</time>
      </trkpt>
      <trkpt lat="47.30803" lon="-2.38923">
        <ele>41.400001525879</ele>
        <time>2022-06-30T07:38:39.000Z</time>
      </trkpt>
      <trkpt lat="47.30819" lon="-2.38911">
        <ele>41.400001525879</ele>
        <time>2022-06-30T07:38:42.000Z</time>
      </trkpt>
      <trkpt lat="47.30846" lon="-2.38891">
        <ele>41.400001525879</ele>
        <time>2022-06-30T07:38:48.000Z</time>
      </trkpt>
      <trkpt lat="47.30857" lon="-2.3888">
        <ele>41.400001525879</ele>
        <time>2022-06-30T07:38:52.000Z</time>
      </trkpt>
      <trkpt lat="47.30864" lon="-2.3887">
        <ele>41.799999237061</ele>
        <time>2022-06-30T07:38:55.000Z</time>
      </trkpt>
      <trkpt lat="47.30866" lon="-2.38865">
        <ele>42.200000762939</ele>
        <time>2022-06-30T07:38:56.000Z</time>
      </trkpt>
      <trkpt lat="47.30867" lon="-2.38859">
        <ele>42.799999237061</ele>
        <time>2022-06-30T07:38:57.000Z</time>
      </trkpt>
      <trkpt lat="47.30868" lon="-2.38854">
        <ele>43.200000762939</ele>
        <time>2022-06-30T07:38:58.000Z</time>
      </trkpt>
      <trkpt lat="47.3087" lon="-2.38848">
        <ele>43.599998474121</ele>
        <time>2022-06-30T07:38:59.000Z</time>
      </trkpt>
      <trkpt lat="47.30879" lon="-2.38837">
        <ele>43.599998474121</ele>
        <time>2022-06-30T07:39:02.000Z</time>
      </trkpt>
      <trkpt lat="47.30891" lon="-2.38838">
        <ele>43.599998474121</ele>
        <time>2022-06-30T07:39:05.000Z</time>
      </trkpt>
      <trkpt lat="47.30902" lon="-2.38853">
        <ele>43.599998474121</ele>
        <time>2022-06-30T07:39:09.000Z</time>
      </trkpt>
      <trkpt lat="47.30905" lon="-2.38864">
        <ele>43.599998474121</ele>
        <time>2022-06-30T07:39:11.000Z</time>
      </trkpt>
      <trkpt lat="47.30909" lon="-2.38877">
        <ele>43.599998474121</ele>
        <time>2022-06-30T07:39:13.000Z</time>
      </trkpt>
      <trkpt lat="47.30913" lon="-2.38883">
        <ele>43.599998474121</ele>
        <time>2022-06-30T07:39:14.000Z</time>
      </trkpt>
      <trkpt lat="47.30924" lon="-2.38898">
        <ele>43.599998474121</ele>
        <time>2022-06-30T07:39:17.000Z</time>
      </trkpt>
      <trkpt lat="47.3093" lon="-2.3891">
        <ele>43.599998474121</ele>
        <time>2022-06-30T07:39:19.000Z</time>
      </trkpt>
      <trkpt lat="47.3093" lon="-2.3893">
        <ele>43.599998474121</ele>
        <time>2022-06-30T07:39:22.000Z</time>
      </trkpt>
      <trkpt lat="47.30919" lon="-2.38956">
        <ele>43.599998474121</ele>
        <time>2022-06-30T07:39:26.000Z</time>
      </trkpt>
      <trkpt lat="47.30916" lon="-2.38962">
        <ele>43.599998474121</ele>
        <time>2022-06-30T07:39:27.000Z</time>
      </trkpt>
      <trkpt lat="47.30913" lon="-2.38968">
        <ele>43.599998474121</ele>
        <time>2022-06-30T07:39:28.000Z</time>
      </trkpt>
      <trkpt lat="47.3091" lon="-2.38975">
        <ele>44.599998474121</ele>
        <time>2022-06-30T07:39:29.000Z</time>
      </trkpt>
      <trkpt lat="47.30908" lon="-2.38982">
        <ele>45</ele>
        <time>2022-06-30T07:39:30.000Z</time>
      </trkpt>
      <trkpt lat="47.30907" lon="-2.3899">
        <ele>45.400001525879</ele>
        <time>2022-06-30T07:39:31.000Z</time>
      </trkpt>
      <trkpt lat="47.30905" lon="-2.38998">
        <ele>45.799999237061</ele>
        <time>2022-06-30T07:39:32.000Z</time>
      </trkpt>
      <trkpt lat="47.30903" lon="-2.39013">
        <ele>45.799999237061</ele>
        <time>2022-06-30T07:39:34.000Z</time>
      </trkpt>
      <trkpt lat="47.30901" lon="-2.39038">
        <ele>45.799999237061</ele>
        <time>2022-06-30T07:39:37.000Z</time>
      </trkpt>
      <trkpt lat="47.30901" lon="-2.39076">
        <ele>45.799999237061</ele>
        <time>2022-06-30T07:39:42.000Z</time>
      </trkpt>
      <trkpt lat="47.30902" lon="-2.39083">
        <ele>45.799999237061</ele>
        <time>2022-06-30T07:39:43.000Z</time>
      </trkpt>
      <trkpt lat="47.30914" lon="-2.39126">
        <ele>45.799999237061</ele>
        <time>2022-06-30T07:39:49.000Z</time>
      </trkpt>
      <trkpt lat="47.30941" lon="-2.39196">
        <ele>45.799999237061</ele>
        <time>2022-06-30T07:39:59.000Z</time>
      </trkpt>
      <trkpt lat="47.30971" lon="-2.3926">
        <ele>45.799999237061</ele>
        <time>2022-06-30T07:40:08.000Z</time>
      </trkpt>
      <trkpt lat="47.30993" lon="-2.3932">
        <ele>45.799999237061</ele>
        <time>2022-06-30T07:40:16.000Z</time>
      </trkpt>
      <trkpt lat="47.31016" lon="-2.39389">
        <ele>45.799999237061</ele>
        <time>2022-06-30T07:40:25.000Z</time>
      </trkpt>
      <trkpt lat="47.31037" lon="-2.39455">
        <ele>45.400001525879</ele>
        <time>2022-06-30T07:40:33.000Z</time>
      </trkpt>
      <trkpt lat="47.3104" lon="-2.39464">
        <ele>45</ele>
        <time>2022-06-30T07:40:34.000Z</time>
      </trkpt>
      <trkpt lat="47.31043" lon="-2.39473">
        <ele>44.599998474121</ele>
        <time>2022-06-30T07:40:35.000Z</time>
      </trkpt>
      <trkpt lat="47.31046" lon="-2.39482">
        <ele>44.200000762939</ele>
        <time>2022-06-30T07:40:36.000Z</time>
      </trkpt>
      <trkpt lat="47.31049" lon="-2.3949">
        <ele>43.799999237061</ele>
        <time>2022-06-30T07:40:37.000Z</time>
      </trkpt>
      <trkpt lat="47.31061" lon="-2.39528">
        <ele>43.799999237061</ele>
        <time>2022-06-30T07:40:42.000Z</time>
      </trkpt>
      <trkpt lat="47.31079" lon="-2.3958">
        <ele>43.799999237061</ele>
        <time>2022-06-30T07:40:50.000Z</time>
      </trkpt>
      <trkpt lat="47.31086" lon="-2.39598">
        <ele>44.200000762939</ele>
        <time>2022-06-30T07:40:53.000Z</time>
      </trkpt>
      <trkpt lat="47.31088" lon="-2.39604">
        <ele>44.599998474121</ele>
        <time>2022-06-30T07:40:54.000Z</time>
      </trkpt>
      <trkpt lat="47.31091" lon="-2.39611">
        <ele>45</ele>
        <time>2022-06-30T07:40:55.000Z</time>
      </trkpt>
      <trkpt lat="47.31093" lon="-2.39618">
        <ele>45.400001525879</ele>
        <time>2022-06-30T07:40:56.000Z</time>
      </trkpt>
      <trkpt lat="47.31095" lon="-2.39625">
        <ele>45.799999237061</ele>
        <time>2022-06-30T07:40:57.000Z</time>
      </trkpt>
      <trkpt lat="47.31098" lon="-2.39632">
        <ele>45.799999237061</ele>
        <time>2022-06-30T07:40:58.000Z</time>
      </trkpt>
      <trkpt lat="47.31117" lon="-2.39686">
        <ele>45.799999237061</ele>
        <time>2022-06-30T07:41:06.000Z</time>
      </trkpt>
      <trkpt lat="47.31139" lon="-2.39747">
        <ele>45.799999237061</ele>
        <time>2022-06-30T07:41:15.000Z</time>
      </trkpt>
      <trkpt lat="47.31144" lon="-2.39762">
        <ele>45.400001525879</ele>
        <time>2022-06-30T07:41:17.000Z</time>
      </trkpt>
      <trkpt lat="47.31146" lon="-2.3977">
        <ele>45</ele>
        <time>2022-06-30T07:41:18.000Z</time>
      </trkpt>
      <trkpt lat="47.31149" lon="-2.39778">
        <ele>44.599998474121</ele>
        <time>2022-06-30T07:41:19.000Z</time>
      </trkpt>
      <trkpt lat="47.31152" lon="-2.39786">
        <ele>44.200000762939</ele>
        <time>2022-06-30T07:41:20.000Z</time>
      </trkpt>
      <trkpt lat="47.31154" lon="-2.39794">
        <ele>43.799999237061</ele>
        <time>2022-06-30T07:41:21.000Z</time>
      </trkpt>
      <trkpt lat="47.31157" lon="-2.39803">
        <ele>43.799999237061</ele>
        <time>2022-06-30T07:41:22.000Z</time>
      </trkpt>
      <trkpt lat="47.31177" lon="-2.39846">
        <ele>43.799999237061</ele>
        <time>2022-06-30T07:41:28.000Z</time>
      </trkpt>
      <trkpt lat="47.31179" lon="-2.39853">
        <ele>43.799999237061</ele>
        <time>2022-06-30T07:41:29.000Z</time>
      </trkpt>
      <trkpt lat="47.31185" lon="-2.39876">
        <ele>43.799999237061</ele>
        <time>2022-06-30T07:41:32.000Z</time>
      </trkpt>
      <trkpt lat="47.31188" lon="-2.39886">
        <ele>43.799999237061</ele>
        <time>2022-06-30T07:41:35.000Z</time>
      </trkpt>
      <trkpt lat="47.31192" lon="-2.39901">
        <ele>43.400001525879</ele>
        <time>2022-06-30T07:41:38.000Z</time>
      </trkpt>
      <trkpt lat="47.31194" lon="-2.39906">
        <ele>43</ele>
        <time>2022-06-30T07:41:39.000Z</time>
      </trkpt>
      <trkpt lat="47.31196" lon="-2.3991">
        <ele>42.599998474121</ele>
        <time>2022-06-30T07:41:40.000Z</time>
      </trkpt>
      <trkpt lat="47.31198" lon="-2.39915">
        <ele>42</ele>
        <time>2022-06-30T07:41:41.000Z</time>
      </trkpt>
      <trkpt lat="47.31201" lon="-2.3992">
        <ele>41.599998474121</ele>
        <time>2022-06-30T07:41:42.000Z</time>
      </trkpt>
      <trkpt lat="47.31206" lon="-2.39936">
        <ele>41.599998474121</ele>
        <time>2022-06-30T07:41:45.000Z</time>
      </trkpt>
      <trkpt lat="47.31212" lon="-2.3995">
        <ele>41.200000762939</ele>
        <time>2022-06-30T07:41:48.000Z</time>
      </trkpt>
      <trkpt lat="47.31213" lon="-2.39955">
        <ele>40.799999237061</ele>
        <time>2022-06-30T07:41:49.000Z</time>
      </trkpt>
      <trkpt lat="47.31215" lon="-2.39959">
        <ele>40.400001525879</ele>
        <time>2022-06-30T07:41:50.000Z</time>
      </trkpt>
      <trkpt lat="47.31216" lon="-2.39963">
        <ele>40</ele>
        <time>2022-06-30T07:41:51.000Z</time>
      </trkpt>
      <trkpt lat="47.31217" lon="-2.39967">
        <ele>39.599998474121</ele>
        <time>2022-06-30T07:41:52.000Z</time>
      </trkpt>
      <trkpt lat="47.31227" lon="-2.39991">
        <ele>39.200000762939</ele>
        <time>2022-06-30T07:41:58.000Z</time>
      </trkpt>
      <trkpt lat="47.31229" lon="-2.39995">
        <ele>38.799999237061</ele>
        <time>2022-06-30T07:41:59.000Z</time>
      </trkpt>
      <trkpt lat="47.31231" lon="-2.4">
        <ele>38.400001525879</ele>
        <time>2022-06-30T07:42:00.000Z</time>
      </trkpt>
      <trkpt lat="47.31231" lon="-2.40006">
        <ele>38</ele>
        <time>2022-06-30T07:42:01.000Z</time>
      </trkpt>
      <trkpt lat="47.31233" lon="-2.40012">
        <ele>37.599998474121</ele>
        <time>2022-06-30T07:42:02.000Z</time>
      </trkpt>
      <trkpt lat="47.31234" lon="-2.40019">
        <ele>37.599998474121</ele>
        <time>2022-06-30T07:42:03.000Z</time>
      </trkpt>
      <trkpt lat="47.31239" lon="-2.40035">
        <ele>37.599998474121</ele>
        <time>2022-06-30T07:42:06.000Z</time>
      </trkpt>
      <trkpt lat="47.31241" lon="-2.40037">
        <ele>37.599998474121</ele>
        <time>2022-06-30T07:42:07.000Z</time>
      </trkpt>
      <trkpt lat="47.31244" lon="-2.40038">
        <ele>37.599998474121</ele>
        <time>2022-06-30T07:42:10.000Z</time>
      </trkpt>
      <trkpt lat="47.3125" lon="-2.40045">
        <ele>37.599998474121</ele>
        <time>2022-06-30T07:42:18.000Z</time>
      </trkpt>
      <trkpt lat="47.31262" lon="-2.40052">
        <ele>37.599998474121</ele>
        <time>2022-06-30T07:42:21.000Z</time>
      </trkpt>
      <trkpt lat="47.31281" lon="-2.40058">
        <ele>37.599998474121</ele>
        <time>2022-06-30T07:42:25.000Z</time>
      </trkpt>
      <trkpt lat="47.31291" lon="-2.40062">
        <ele>37.599998474121</ele>
        <time>2022-06-30T07:42:29.000Z</time>
      </trkpt>
      <trkpt lat="47.313" lon="-2.40065">
        <ele>37.599998474121</ele>
        <time>2022-06-30T07:42:34.000Z</time>
      </trkpt>
      <trkpt lat="47.3131" lon="-2.40071">
        <ele>37.599998474121</ele>
        <time>2022-06-30T07:42:41.000Z</time>
      </trkpt>
      <trkpt lat="47.31325" lon="-2.40082">
        <ele>37.599998474121</ele>
        <time>2022-06-30T07:42:47.000Z</time>
      </trkpt>
      <trkpt lat="47.31348" lon="-2.40095">
        <ele>37.599998474121</ele>
        <time>2022-06-30T07:42:52.000Z</time>
      </trkpt>
      <trkpt lat="47.31372" lon="-2.40106">
        <ele>37.599998474121</ele>
        <time>2022-06-30T07:42:59.000Z</time>
      </trkpt>
      <trkpt lat="47.31399" lon="-2.40117">
        <ele>37.599998474121</ele>
        <time>2022-06-30T07:43:06.000Z</time>
      </trkpt>
      <trkpt lat="47.31422" lon="-2.40132">
        <ele>37.599998474121</ele>
        <time>2022-06-30T07:43:12.000Z</time>
      </trkpt>
      <trkpt lat="47.31444" lon="-2.40148">
        <ele>37.599998474121</ele>
        <time>2022-06-30T07:43:18.000Z</time>
      </trkpt>
      <trkpt lat="47.31468" lon="-2.40166">
        <ele>37.599998474121</ele>
        <time>2022-06-30T07:43:25.000Z</time>
      </trkpt>
      <trkpt lat="47.31481" lon="-2.40175">
        <ele>38</ele>
        <time>2022-06-30T07:43:29.000Z</time>
      </trkpt>
      <trkpt lat="47.31484" lon="-2.40178">
        <ele>38.400001525879</ele>
        <time>2022-06-30T07:43:30.000Z</time>
      </trkpt>
      <trkpt lat="47.31487" lon="-2.40179">
        <ele>38.799999237061</ele>
        <time>2022-06-30T07:43:31.000Z</time>
      </trkpt>
      <trkpt lat="47.3149" lon="-2.4018">
        <ele>39.200000762939</ele>
        <time>2022-06-30T07:43:32.000Z</time>
      </trkpt>
      <trkpt lat="47.31493" lon="-2.40181">
        <ele>39.599998474121</ele>
        <time>2022-06-30T07:43:33.000Z</time>
      </trkpt>
      <trkpt lat="47.31505" lon="-2.40189">
        <ele>39.599998474121</ele>
        <time>2022-06-30T07:43:37.000Z</time>
      </trkpt>
      <trkpt lat="47.31523" lon="-2.40203">
        <ele>39.599998474121</ele>
        <time>2022-06-30T07:43:43.000Z</time>
      </trkpt>
      <trkpt lat="47.31545" lon="-2.40223">
        <ele>39.599998474121</ele>
        <time>2022-06-30T07:43:50.000Z</time>
      </trkpt>
      <trkpt lat="47.31568" lon="-2.40241">
        <ele>39.599998474121</ele>
        <time>2022-06-30T07:43:57.000Z</time>
      </trkpt>
      <trkpt lat="47.31572" lon="-2.40244">
        <ele>40</ele>
        <time>2022-06-30T07:43:58.000Z</time>
      </trkpt>
      <trkpt lat="47.31576" lon="-2.40248">
        <ele>40.400001525879</ele>
        <time>2022-06-30T07:43:59.000Z</time>
      </trkpt>
      <trkpt lat="47.3158" lon="-2.40251">
        <ele>40.799999237061</ele>
        <time>2022-06-30T07:44:00.000Z</time>
      </trkpt>
      <trkpt lat="47.31584" lon="-2.40254">
        <ele>41.200000762939</ele>
        <time>2022-06-30T07:44:01.000Z</time>
      </trkpt>
      <trkpt lat="47.31588" lon="-2.40257">
        <ele>41.599998474121</ele>
        <time>2022-06-30T07:44:02.000Z</time>
      </trkpt>
      <trkpt lat="47.31596" lon="-2.40263">
        <ele>41.599998474121</ele>
        <time>2022-06-30T07:44:04.000Z</time>
      </trkpt>
      <trkpt lat="47.31623" lon="-2.40283">
        <ele>41.599998474121</ele>
        <time>2022-06-30T07:44:12.000Z</time>
      </trkpt>
      <trkpt lat="47.31641" lon="-2.40298">
        <ele>41.599998474121</ele>
        <time>2022-06-30T07:44:18.000Z</time>
      </trkpt>
      <trkpt lat="47.31659" lon="-2.40313">
        <ele>41.599998474121</ele>
        <time>2022-06-30T07:44:24.000Z</time>
      </trkpt>
      <trkpt lat="47.31662" lon="-2.40316">
        <ele>42</ele>
        <time>2022-06-30T07:44:25.000Z</time>
      </trkpt>
      <trkpt lat="47.31664" lon="-2.40318">
        <ele>43</ele>
        <time>2022-06-30T07:44:26.000Z</time>
      </trkpt>
      <trkpt lat="47.31667" lon="-2.4032">
        <ele>43.400001525879</ele>
        <time>2022-06-30T07:44:27.000Z</time>
      </trkpt>
      <trkpt lat="47.31668" lon="-2.40322">
        <ele>43.799999237061</ele>
        <time>2022-06-30T07:44:28.000Z</time>
      </trkpt>
      <trkpt lat="47.3167" lon="-2.40324">
        <ele>43.799999237061</ele>
        <time>2022-06-30T07:44:29.000Z</time>
      </trkpt>
      <trkpt lat="47.31686" lon="-2.40333">
        <ele>43.799999237061</ele>
        <time>2022-06-30T07:44:34.000Z</time>
      </trkpt>
      <trkpt lat="47.31715" lon="-2.40353">
        <ele>43.799999237061</ele>
        <time>2022-06-30T07:44:43.000Z</time>
      </trkpt>
      <trkpt lat="47.31747" lon="-2.40376">
        <ele>43.799999237061</ele>
        <time>2022-06-30T07:44:51.000Z</time>
      </trkpt>
      <trkpt lat="47.31751" lon="-2.40379">
        <ele>44.200000762939</ele>
        <time>2022-06-30T07:44:52.000Z</time>
      </trkpt>
      <trkpt lat="47.31755" lon="-2.40381">
        <ele>44.599998474121</ele>
        <time>2022-06-30T07:44:53.000Z</time>
      </trkpt>
      <trkpt lat="47.31758" lon="-2.40383">
        <ele>45</ele>
        <time>2022-06-30T07:44:54.000Z</time>
      </trkpt>
      <trkpt lat="47.31762" lon="-2.40386">
        <ele>45.400001525879</ele>
        <time>2022-06-30T07:44:55.000Z</time>
      </trkpt>
      <trkpt lat="47.31766" lon="-2.40389">
        <ele>45.799999237061</ele>
        <time>2022-06-30T07:44:56.000Z</time>
      </trkpt>
      <trkpt lat="47.31778" lon="-2.40399">
        <ele>45.799999237061</ele>
        <time>2022-06-30T07:44:59.000Z</time>
      </trkpt>
      <trkpt lat="47.31809" lon="-2.40421">
        <ele>45.799999237061</ele>
        <time>2022-06-30T07:45:06.000Z</time>
      </trkpt>
      <trkpt lat="47.31844" lon="-2.40445">
        <ele>45.799999237061</ele>
        <time>2022-06-30T07:45:14.000Z</time>
      </trkpt>
      <trkpt lat="47.31853" lon="-2.40451">
        <ele>46.599998474121</ele>
        <time>2022-06-30T07:45:16.000Z</time>
      </trkpt>
      <trkpt lat="47.31858" lon="-2.40454">
        <ele>47</ele>
        <time>2022-06-30T07:45:17.000Z</time>
      </trkpt>
      <trkpt lat="47.31863" lon="-2.40458">
        <ele>47.599998474121</ele>
        <time>2022-06-30T07:45:18.000Z</time>
      </trkpt>
      <trkpt lat="47.31868" lon="-2.40461">
        <ele>48</ele>
        <time>2022-06-30T07:45:19.000Z</time>
      </trkpt>
      <trkpt lat="47.31877" lon="-2.40468">
        <ele>48</ele>
        <time>2022-06-30T07:45:21.000Z</time>
      </trkpt>
      <trkpt lat="47.3192" lon="-2.40495">
        <ele>48</ele>
        <time>2022-06-30T07:45:29.000Z</time>
      </trkpt>
      <trkpt lat="47.31944" lon="-2.40508">
        <ele>48</ele>
        <time>2022-06-30T07:45:34.000Z</time>
      </trkpt>
      <trkpt lat="47.31948" lon="-2.40511">
        <ele>48</ele>
        <time>2022-06-30T07:45:35.000Z</time>
      </trkpt>
      <trkpt lat="47.31957" lon="-2.40518">
        <ele>48.400001525879</ele>
        <time>2022-06-30T07:45:37.000Z</time>
      </trkpt>
      <trkpt lat="47.31961" lon="-2.40522">
        <ele>48.799999237061</ele>
        <time>2022-06-30T07:45:38.000Z</time>
      </trkpt>
      <trkpt lat="47.31966" lon="-2.40527">
        <ele>49.200000762939</ele>
        <time>2022-06-30T07:45:39.000Z</time>
      </trkpt>
      <trkpt lat="47.31971" lon="-2.40531">
        <ele>49.599998474121</ele>
        <time>2022-06-30T07:45:40.000Z</time>
      </trkpt>
      <trkpt lat="47.31976" lon="-2.40535">
        <ele>50</ele>
        <time>2022-06-30T07:45:41.000Z</time>
      </trkpt>
      <trkpt lat="47.32001" lon="-2.40558">
        <ele>50</ele>
        <time>2022-06-30T07:45:46.000Z</time>
      </trkpt>
      <trkpt lat="47.32044" lon="-2.40595">
        <ele>50</ele>
        <time>2022-06-30T07:45:54.000Z</time>
      </trkpt>
      <trkpt lat="47.32053" lon="-2.40604">
        <ele>50.400001525879</ele>
        <time>2022-06-30T07:45:56.000Z</time>
      </trkpt>
      <trkpt lat="47.32058" lon="-2.40609">
        <ele>50.799999237061</ele>
        <time>2022-06-30T07:45:57.000Z</time>
      </trkpt>
      <trkpt lat="47.32063" lon="-2.40615">
        <ele>51.200000762939</ele>
        <time>2022-06-30T07:45:58.000Z</time>
      </trkpt>
      <trkpt lat="47.32068" lon="-2.4062">
        <ele>51.599998474121</ele>
        <time>2022-06-30T07:45:59.000Z</time>
      </trkpt>
      <trkpt lat="47.32073" lon="-2.40626">
        <ele>52</ele>
        <time>2022-06-30T07:46:00.000Z</time>
      </trkpt>
      <trkpt lat="47.32078" lon="-2.40632">
        <ele>52</ele>
        <time>2022-06-30T07:46:01.000Z</time>
      </trkpt>
      <trkpt lat="47.32118" lon="-2.40675">
        <ele>52</ele>
        <time>2022-06-30T07:46:09.000Z</time>
      </trkpt>
      <trkpt lat="47.32155" lon="-2.40718">
        <ele>52</ele>
        <time>2022-06-30T07:46:17.000Z</time>
      </trkpt>
      <trkpt lat="47.32185" lon="-2.40754">
        <ele>52</ele>
        <time>2022-06-30T07:46:24.000Z</time>
      </trkpt>
      <trkpt lat="47.32203" lon="-2.40779">
        <ele>52</ele>
        <time>2022-06-30T07:46:30.000Z</time>
      </trkpt>
      <trkpt lat="47.32205" lon="-2.40782">
        <ele>52</ele>
        <time>2022-06-30T07:46:31.000Z</time>
      </trkpt>
      <trkpt lat="47.32212" lon="-2.40795">
        <ele>52</ele>
        <time>2022-06-30T07:46:35.000Z</time>
      </trkpt>
      <trkpt lat="47.32221" lon="-2.40812">
        <ele>52</ele>
        <time>2022-06-30T07:46:39.000Z</time>
      </trkpt>
      <trkpt lat="47.32223" lon="-2.40814">
        <ele>52</ele>
        <time>2022-06-30T07:46:40.000Z</time>
      </trkpt>
      <trkpt lat="47.32234" lon="-2.40832">
        <ele>52</ele>
        <time>2022-06-30T07:46:44.000Z</time>
      </trkpt>
      <trkpt lat="47.32255" lon="-2.40869">
        <ele>52</ele>
        <time>2022-06-30T07:46:51.000Z</time>
      </trkpt>
      <trkpt lat="47.32265" lon="-2.40884">
        <ele>52.400001525879</ele>
        <time>2022-06-30T07:46:54.000Z</time>
      </trkpt>
      <trkpt lat="47.32268" lon="-2.40889">
        <ele>53.200000762939</ele>
        <time>2022-06-30T07:46:55.000Z</time>
      </trkpt>
      <trkpt lat="47.32271" lon="-2.40895">
        <ele>53.599998474121</ele>
        <time>2022-06-30T07:46:56.000Z</time>
      </trkpt>
      <trkpt lat="47.32274" lon="-2.40901">
        <ele>54.200000762939</ele>
        <time>2022-06-30T07:46:57.000Z</time>
      </trkpt>
      <trkpt lat="47.3228" lon="-2.40913">
        <ele>54.200000762939</ele>
        <time>2022-06-30T07:46:59.000Z</time>
      </trkpt>
      <trkpt lat="47.32315" lon="-2.40978">
        <ele>54.200000762939</ele>
        <time>2022-06-30T07:47:10.000Z</time>
      </trkpt>
      <trkpt lat="47.32343" lon="-2.41034">
        <ele>54.200000762939</ele>
        <time>2022-06-30T07:47:20.000Z</time>
      </trkpt>
      <trkpt lat="47.32349" lon="-2.41044">
        <ele>54.599998474121</ele>
        <time>2022-06-30T07:47:22.000Z</time>
      </trkpt>
      <trkpt lat="47.32352" lon="-2.4105">
        <ele>55</ele>
        <time>2022-06-30T07:47:23.000Z</time>
      </trkpt>
      <trkpt lat="47.32355" lon="-2.41055">
        <ele>55.400001525879</ele>
        <time>2022-06-30T07:47:24.000Z</time>
      </trkpt>
      <trkpt lat="47.32358" lon="-2.4106">
        <ele>55.799999237061</ele>
        <time>2022-06-30T07:47:25.000Z</time>
      </trkpt>
      <trkpt lat="47.32361" lon="-2.41065">
        <ele>56.200000762939</ele>
        <time>2022-06-30T07:47:26.000Z</time>
      </trkpt>
      <trkpt lat="47.32368" lon="-2.41073">
        <ele>56.200000762939</ele>
        <time>2022-06-30T07:47:28.000Z</time>
      </trkpt>
      <trkpt lat="47.32371" lon="-2.41078">
        <ele>56.200000762939</ele>
        <time>2022-06-30T07:47:29.000Z</time>
      </trkpt>
      <trkpt lat="47.32372" lon="-2.41084">
        <ele>56.200000762939</ele>
        <time>2022-06-30T07:47:30.000Z</time>
      </trkpt>
      <trkpt lat="47.32376" lon="-2.41094">
        <ele>56.200000762939</ele>
        <time>2022-06-30T07:47:32.000Z</time>
      </trkpt>
      <trkpt lat="47.32393" lon="-2.41127">
        <ele>56.200000762939</ele>
        <time>2022-06-30T07:47:39.000Z</time>
      </trkpt>
      <trkpt lat="47.32408" lon="-2.41155">
        <ele>56.200000762939</ele>
        <time>2022-06-30T07:47:46.000Z</time>
      </trkpt>
      <trkpt lat="47.32412" lon="-2.41165">
        <ele>56.200000762939</ele>
        <time>2022-06-30T07:47:50.000Z</time>
      </trkpt>
      <trkpt lat="47.32418" lon="-2.41179">
        <ele>56.200000762939</ele>
        <time>2022-06-30T07:47:54.000Z</time>
      </trkpt>
      <trkpt lat="47.3242" lon="-2.41185">
        <ele>56.200000762939</ele>
        <time>2022-06-30T07:47:55.000Z</time>
      </trkpt>
      <trkpt lat="47.32429" lon="-2.412">
        <ele>56.200000762939</ele>
        <time>2022-06-30T07:47:58.000Z</time>
      </trkpt>
      <trkpt lat="47.32434" lon="-2.41212">
        <ele>56.200000762939</ele>
        <time>2022-06-30T07:48:00.000Z</time>
      </trkpt>
      <trkpt lat="47.3245" lon="-2.4124">
        <ele>56.200000762939</ele>
        <time>2022-06-30T07:48:05.000Z</time>
      </trkpt>
      <trkpt lat="47.32479" lon="-2.41294">
        <ele>56.200000762939</ele>
        <time>2022-06-30T07:48:14.000Z</time>
      </trkpt>
      <trkpt lat="47.325" lon="-2.41334">
        <ele>56.200000762939</ele>
        <time>2022-06-30T07:48:20.000Z</time>
      </trkpt>
      <trkpt lat="47.32529" lon="-2.41389">
        <ele>56.200000762939</ele>
        <time>2022-06-30T07:48:28.000Z</time>
      </trkpt>
      <trkpt lat="47.32553" lon="-2.41436">
        <ele>56.200000762939</ele>
        <time>2022-06-30T07:48:35.000Z</time>
      </trkpt>
      <trkpt lat="47.32567" lon="-2.4146">
        <ele>56.200000762939</ele>
        <time>2022-06-30T07:48:40.000Z</time>
      </trkpt>
      <trkpt lat="47.32572" lon="-2.41479">
        <ele>56.200000762939</ele>
        <time>2022-06-30T07:48:44.000Z</time>
      </trkpt>
      <trkpt lat="47.32574" lon="-2.41507">
        <ele>56.200000762939</ele>
        <time>2022-06-30T07:48:49.000Z</time>
      </trkpt>
      <trkpt lat="47.32575" lon="-2.41513">
        <ele>56.200000762939</ele>
        <time>2022-06-30T07:48:50.000Z</time>
      </trkpt>
      <trkpt lat="47.32579" lon="-2.41516">
        <ele>56.200000762939</ele>
        <time>2022-06-30T07:48:51.000Z</time>
      </trkpt>
      <trkpt lat="47.32583" lon="-2.41518">
        <ele>55.799999237061</ele>
        <time>2022-06-30T07:48:52.000Z</time>
      </trkpt>
      <trkpt lat="47.32588" lon="-2.41519">
        <ele>55.400001525879</ele>
        <time>2022-06-30T07:48:53.000Z</time>
      </trkpt>
      <trkpt lat="47.32593" lon="-2.41521">
        <ele>55</ele>
        <time>2022-06-30T07:48:54.000Z</time>
      </trkpt>
      <trkpt lat="47.32597" lon="-2.41522">
        <ele>54.400001525879</ele>
        <time>2022-06-30T07:48:55.000Z</time>
      </trkpt>
      <trkpt lat="47.32602" lon="-2.41522">
        <ele>54</ele>
        <time>2022-06-30T07:48:56.000Z</time>
      </trkpt>
      <trkpt lat="47.32624" lon="-2.41528">
        <ele>54</ele>
        <time>2022-06-30T07:49:01.000Z</time>
      </trkpt>
      <trkpt lat="47.32634" lon="-2.41529">
        <ele>54</ele>
        <time>2022-06-30T07:49:03.000Z</time>
      </trkpt>
      <trkpt lat="47.32651" lon="-2.41532">
        <ele>54</ele>
        <time>2022-06-30T07:49:07.000Z</time>
      </trkpt>
      <trkpt lat="47.32677" lon="-2.41537">
        <ele>53.599998474121</ele>
        <time>2022-06-30T07:49:12.000Z</time>
      </trkpt>
      <trkpt lat="47.32683" lon="-2.41538">
        <ele>53.200000762939</ele>
        <time>2022-06-30T07:49:13.000Z</time>
      </trkpt>
      <trkpt lat="47.32688" lon="-2.41539">
        <ele>52.799999237061</ele>
        <time>2022-06-30T07:49:14.000Z</time>
      </trkpt>
      <trkpt lat="47.32693" lon="-2.4154">
        <ele>52.400001525879</ele>
        <time>2022-06-30T07:49:15.000Z</time>
      </trkpt>
      <trkpt lat="47.32697" lon="-2.41541">
        <ele>52</ele>
        <time>2022-06-30T07:49:16.000Z</time>
      </trkpt>
      <trkpt lat="47.327" lon="-2.41544">
        <ele>52</ele>
        <time>2022-06-30T07:49:17.000Z</time>
      </trkpt>
      <trkpt lat="47.32701" lon="-2.41548">
        <ele>52</ele>
        <time>2022-06-30T07:49:18.000Z</time>
      </trkpt>
      <trkpt lat="47.32701" lon="-2.41563">
        <ele>52</ele>
        <time>2022-06-30T07:49:21.000Z</time>
      </trkpt>
      <trkpt lat="47.327" lon="-2.41568">
        <ele>52</ele>
        <time>2022-06-30T07:49:22.000Z</time>
      </trkpt>
      <trkpt lat="47.327" lon="-2.41571">
        <ele>51.599998474121</ele>
        <time>2022-06-30T07:49:23.000Z</time>
      </trkpt>
      <trkpt lat="47.327" lon="-2.41573">
        <ele>51.200000762939</ele>
        <time>2022-06-30T07:49:24.000Z</time>
      </trkpt>
      <trkpt lat="47.32699" lon="-2.41575">
        <ele>50.799999237061</ele>
        <time>2022-06-30T07:49:25.000Z</time>
      </trkpt>
      <trkpt lat="47.327" lon="-2.41577">
        <ele>50.400001525879</ele>
        <time>2022-06-30T07:49:26.000Z</time>
      </trkpt>
      <trkpt lat="47.327" lon="-2.41579">
        <ele>50</ele>
        <time>2022-06-30T07:49:27.000Z</time>
      </trkpt>
      <trkpt lat="47.32701" lon="-2.41579">
        <ele>50</ele>
        <time>2022-06-30T07:49:28.000Z</time>
      </trkpt>
      <trkpt lat="47.32703" lon="-2.41588">
        <ele>50</ele>
        <time>2022-06-30T07:49:30.000Z</time>
      </trkpt>
      <trkpt lat="47.32709" lon="-2.41611">
        <ele>50</ele>
        <time>2022-06-30T07:49:34.000Z</time>
      </trkpt>
      <trkpt lat="47.32712" lon="-2.41616">
        <ele>50</ele>
        <time>2022-06-30T07:49:35.000Z</time>
      </trkpt>
      <trkpt lat="47.32716" lon="-2.41624">
        <ele>50</ele>
        <time>2022-06-30T07:49:37.000Z</time>
      </trkpt>
      <trkpt lat="47.32714" lon="-2.41626">
        <ele>50</ele>
        <time>2022-06-30T07:49:38.000Z</time>
      </trkpt>
      <trkpt lat="47.32707" lon="-2.41627">
        <ele>50</ele>
        <time>2022-06-30T07:49:41.000Z</time>
      </trkpt>
      <trkpt lat="47.32703" lon="-2.41627">
        <ele>50</ele>
        <time>2022-06-30T07:49:42.000Z</time>
      </trkpt>
      <trkpt lat="47.3269" lon="-2.41627">
        <ele>50</ele>
        <time>2022-06-30T07:49:45.000Z</time>
      </trkpt>
      <trkpt lat="47.32686" lon="-2.41626">
        <ele>50</ele>
        <time>2022-06-30T07:49:46.000Z</time>
      </trkpt>
      <trkpt lat="47.32676" lon="-2.41625">
        <ele>50</ele>
        <time>2022-06-30T07:49:48.000Z</time>
      </trkpt>
      <trkpt lat="47.32667" lon="-2.41622">
        <ele>50</ele>
        <time>2022-06-30T07:49:50.000Z</time>
      </trkpt>
      <trkpt lat="47.32643" lon="-2.41614">
        <ele>50.400001525879</ele>
        <time>2022-06-30T07:49:55.000Z</time>
      </trkpt>
      <trkpt lat="47.32639" lon="-2.41612">
        <ele>51</ele>
        <time>2022-06-30T07:49:56.000Z</time>
      </trkpt>
      <trkpt lat="47.32634" lon="-2.41611">
        <ele>51.400001525879</ele>
        <time>2022-06-30T07:49:57.000Z</time>
      </trkpt>
      <trkpt lat="47.32631" lon="-2.41609">
        <ele>51.799999237061</ele>
        <time>2022-06-30T07:49:58.000Z</time>
      </trkpt>
      <trkpt lat="47.32627" lon="-2.41607">
        <ele>52.200000762939</ele>
        <time>2022-06-30T07:49:59.000Z</time>
      </trkpt>
      <trkpt lat="47.32609" lon="-2.41604">
        <ele>52.200000762939</ele>
        <time>2022-06-30T07:50:04.000Z</time>
      </trkpt>
      <trkpt lat="47.32597" lon="-2.41607">
        <ele>52.599998474121</ele>
        <time>2022-06-30T07:50:07.000Z</time>
      </trkpt>
      <trkpt lat="47.32593" lon="-2.41608">
        <ele>53</ele>
        <time>2022-06-30T07:50:08.000Z</time>
      </trkpt>
      <trkpt lat="47.32589" lon="-2.41608">
        <ele>53.400001525879</ele>
        <time>2022-06-30T07:50:09.000Z</time>
      </trkpt>
      <trkpt lat="47.32585" lon="-2.41606">
        <ele>53.799999237061</ele>
        <time>2022-06-30T07:50:10.000Z</time>
      </trkpt>
      <trkpt lat="47.32581" lon="-2.41604">
        <ele>54.400001525879</ele>
        <time>2022-06-30T07:50:11.000Z</time>
      </trkpt>
      <trkpt lat="47.3257" lon="-2.41593">
        <ele>54.400001525879</ele>
        <time>2022-06-30T07:50:14.000Z</time>
      </trkpt>
      <trkpt lat="47.32553" lon="-2.41578">
        <ele>54.400001525879</ele>
        <time>2022-06-30T07:50:18.000Z</time>
      </trkpt>
      <trkpt lat="47.32544" lon="-2.41577">
        <ele>54.400001525879</ele>
        <time>2022-06-30T07:50:20.000Z</time>
      </trkpt>
      <trkpt lat="47.32535" lon="-2.41578">
        <ele>54.400001525879</ele>
        <time>2022-06-30T07:50:22.000Z</time>
      </trkpt>
      <trkpt lat="47.32527" lon="-2.41581">
        <ele>54.400001525879</ele>
        <time>2022-06-30T07:50:24.000Z</time>
      </trkpt>
      <trkpt lat="47.32522" lon="-2.41583">
        <ele>54.400001525879</ele>
        <time>2022-06-30T07:50:25.000Z</time>
      </trkpt>
      <trkpt lat="47.32505" lon="-2.41589">
        <ele>54.400001525879</ele>
        <time>2022-06-30T07:50:29.000Z</time>
      </trkpt>
      <trkpt lat="47.32494" lon="-2.41588">
        <ele>54.400001525879</ele>
        <time>2022-06-30T07:50:31.000Z</time>
      </trkpt>
      <trkpt lat="47.32484" lon="-2.41584">
        <ele>54.400001525879</ele>
        <time>2022-06-30T07:50:33.000Z</time>
      </trkpt>
      <trkpt lat="47.32469" lon="-2.41578">
        <ele>54.400001525879</ele>
        <time>2022-06-30T07:50:36.000Z</time>
      </trkpt>
      <trkpt lat="47.32464" lon="-2.41576">
        <ele>54.400001525879</ele>
        <time>2022-06-30T07:50:37.000Z</time>
      </trkpt>
      <trkpt lat="47.32423" lon="-2.41566">
        <ele>54.400001525879</ele>
        <time>2022-06-30T07:50:45.000Z</time>
      </trkpt>
      <trkpt lat="47.32398" lon="-2.41565">
        <ele>54.400001525879</ele>
        <time>2022-06-30T07:50:50.000Z</time>
      </trkpt>
      <trkpt lat="47.32393" lon="-2.41562">
        <ele>54.400001525879</ele>
        <time>2022-06-30T07:50:51.000Z</time>
      </trkpt>
      <trkpt lat="47.32379" lon="-2.41551">
        <ele>54.400001525879</ele>
        <time>2022-06-30T07:50:54.000Z</time>
      </trkpt>
      <trkpt lat="47.32373" lon="-2.41549">
        <ele>54.400001525879</ele>
        <time>2022-06-30T07:50:55.000Z</time>
      </trkpt>
      <trkpt lat="47.32355" lon="-2.41545">
        <ele>54.400001525879</ele>
        <time>2022-06-30T07:50:58.000Z</time>
      </trkpt>
      <trkpt lat="47.32345" lon="-2.41547">
        <ele>54.400001525879</ele>
        <time>2022-06-30T07:51:00.000Z</time>
      </trkpt>
      <trkpt lat="47.32326" lon="-2.41563">
        <ele>54.400001525879</ele>
        <time>2022-06-30T07:51:04.000Z</time>
      </trkpt>
      <trkpt lat="47.32316" lon="-2.4159">
        <ele>54.400001525879</ele>
        <time>2022-06-30T07:51:08.000Z</time>
      </trkpt>
      <trkpt lat="47.32309" lon="-2.41621">
        <ele>54.400001525879</ele>
        <time>2022-06-30T07:51:12.000Z</time>
      </trkpt>
      <trkpt lat="47.32306" lon="-2.41628">
        <ele>54.400001525879</ele>
        <time>2022-06-30T07:51:13.000Z</time>
      </trkpt>
      <trkpt lat="47.32298" lon="-2.41649">
        <ele>54.400001525879</ele>
        <time>2022-06-30T07:51:16.000Z</time>
      </trkpt>
      <trkpt lat="47.32297" lon="-2.41663">
        <ele>54.400001525879</ele>
        <time>2022-06-30T07:51:18.000Z</time>
      </trkpt>
      <trkpt lat="47.32297" lon="-2.41678">
        <ele>54.400001525879</ele>
        <time>2022-06-30T07:51:20.000Z</time>
      </trkpt>
      <trkpt lat="47.32296" lon="-2.41713">
        <ele>54.400001525879</ele>
        <time>2022-06-30T07:51:24.000Z</time>
      </trkpt>
      <trkpt lat="47.32287" lon="-2.41737">
        <ele>54.400001525879</ele>
        <time>2022-06-30T07:51:27.000Z</time>
      </trkpt>
      <trkpt lat="47.32281" lon="-2.41767">
        <ele>54.400001525879</ele>
        <time>2022-06-30T07:51:31.000Z</time>
      </trkpt>
      <trkpt lat="47.32281" lon="-2.41775">
        <ele>53.799999237061</ele>
        <time>2022-06-30T07:51:32.000Z</time>
      </trkpt>
      <trkpt lat="47.3228" lon="-2.41782">
        <ele>53.400001525879</ele>
        <time>2022-06-30T07:51:33.000Z</time>
      </trkpt>
      <trkpt lat="47.32277" lon="-2.41789">
        <ele>53</ele>
        <time>2022-06-30T07:51:34.000Z</time>
      </trkpt>
      <trkpt lat="47.32275" lon="-2.41795">
        <ele>52.599998474121</ele>
        <time>2022-06-30T07:51:35.000Z</time>
      </trkpt>
      <trkpt lat="47.32271" lon="-2.41801">
        <ele>52</ele>
        <time>2022-06-30T07:51:36.000Z</time>
      </trkpt>
      <trkpt lat="47.32268" lon="-2.41807">
        <ele>52</ele>
        <time>2022-06-30T07:51:37.000Z</time>
      </trkpt>
      <trkpt lat="47.32255" lon="-2.41832">
        <ele>52</ele>
        <time>2022-06-30T07:51:41.000Z</time>
      </trkpt>
      <trkpt lat="47.32245" lon="-2.41858">
        <ele>52</ele>
        <time>2022-06-30T07:51:45.000Z</time>
      </trkpt>
      <trkpt lat="47.32245" lon="-2.41862">
        <ele>52</ele>
        <time>2022-06-30T07:51:46.000Z</time>
      </trkpt>
      <trkpt lat="47.32249" lon="-2.41871">
        <ele>52</ele>
        <time>2022-06-30T07:51:49.000Z</time>
      </trkpt>
      <trkpt lat="47.32257" lon="-2.4189">
        <ele>52</ele>
        <time>2022-06-30T07:51:53.000Z</time>
      </trkpt>
      <trkpt lat="47.3226" lon="-2.41895">
        <ele>52</ele>
        <time>2022-06-30T07:51:54.000Z</time>
      </trkpt>
      <trkpt lat="47.32274" lon="-2.41918">
        <ele>52</ele>
        <time>2022-06-30T07:51:59.000Z</time>
      </trkpt>
      <trkpt lat="47.32287" lon="-2.41933">
        <ele>52</ele>
        <time>2022-06-30T07:52:04.000Z</time>
      </trkpt>
      <trkpt lat="47.32293" lon="-2.41945">
        <ele>52</ele>
        <time>2022-06-30T07:52:06.000Z</time>
      </trkpt>
      <trkpt lat="47.32302" lon="-2.41956">
        <ele>52</ele>
        <time>2022-06-30T07:52:08.000Z</time>
      </trkpt>
      <trkpt lat="47.32322" lon="-2.4198">
        <ele>52</ele>
        <time>2022-06-30T07:52:13.000Z</time>
      </trkpt>
      <trkpt lat="47.32334" lon="-2.41993">
        <ele>52</ele>
        <time>2022-06-30T07:52:16.000Z</time>
      </trkpt>
      <trkpt lat="47.32367" lon="-2.42027">
        <ele>52</ele>
        <time>2022-06-30T07:52:24.000Z</time>
      </trkpt>
      <trkpt lat="47.32402" lon="-2.42066">
        <ele>52</ele>
        <time>2022-06-30T07:52:33.000Z</time>
      </trkpt>
      <trkpt lat="47.32409" lon="-2.42075">
        <ele>52.400001525879</ele>
        <time>2022-06-30T07:52:35.000Z</time>
      </trkpt>
      <trkpt lat="47.32413" lon="-2.4208">
        <ele>52.799999237061</ele>
        <time>2022-06-30T07:52:36.000Z</time>
      </trkpt>
      <trkpt lat="47.32417" lon="-2.42084">
        <ele>53.200000762939</ele>
        <time>2022-06-30T07:52:37.000Z</time>
      </trkpt>
      <trkpt lat="47.32421" lon="-2.42088">
        <ele>53.599998474121</ele>
        <time>2022-06-30T07:52:38.000Z</time>
      </trkpt>
      <trkpt lat="47.32425" lon="-2.42092">
        <ele>54</ele>
        <time>2022-06-30T07:52:39.000Z</time>
      </trkpt>
      <trkpt lat="47.32435" lon="-2.42106">
        <ele>54</ele>
        <time>2022-06-30T07:52:42.000Z</time>
      </trkpt>
      <trkpt lat="47.32439" lon="-2.42109">
        <ele>54</ele>
        <time>2022-06-30T07:52:43.000Z</time>
      </trkpt>
      <trkpt lat="47.32451" lon="-2.42118">
        <ele>54.400001525879</ele>
        <time>2022-06-30T07:52:46.000Z</time>
      </trkpt>
      <trkpt lat="47.32455" lon="-2.42122">
        <ele>54.799999237061</ele>
        <time>2022-06-30T07:52:47.000Z</time>
      </trkpt>
      <trkpt lat="47.32458" lon="-2.42125">
        <ele>55.200000762939</ele>
        <time>2022-06-30T07:52:48.000Z</time>
      </trkpt>
      <trkpt lat="47.32462" lon="-2.42128">
        <ele>55.599998474121</ele>
        <time>2022-06-30T07:52:49.000Z</time>
      </trkpt>
      <trkpt lat="47.32466" lon="-2.42131">
        <ele>56.200000762939</ele>
        <time>2022-06-30T07:52:50.000Z</time>
      </trkpt>
      <trkpt lat="47.32478" lon="-2.42139">
        <ele>56.200000762939</ele>
        <time>2022-06-30T07:52:53.000Z</time>
      </trkpt>
      <trkpt lat="47.32486" lon="-2.42144">
        <ele>56.200000762939</ele>
        <time>2022-06-30T07:52:55.000Z</time>
      </trkpt>
      <trkpt lat="47.3249" lon="-2.42148">
        <ele>56.200000762939</ele>
        <time>2022-06-30T07:52:56.000Z</time>
      </trkpt>
      <trkpt lat="47.32499" lon="-2.42168">
        <ele>56.200000762939</ele>
        <time>2022-06-30T07:52:59.000Z</time>
      </trkpt>
      <trkpt lat="47.32503" lon="-2.42176">
        <ele>56.200000762939</ele>
        <time>2022-06-30T07:53:00.000Z</time>
      </trkpt>
      <trkpt lat="47.32516" lon="-2.42204">
        <ele>55.599998474121</ele>
        <time>2022-06-30T07:53:04.000Z</time>
      </trkpt>
      <trkpt lat="47.3252" lon="-2.42211">
        <ele>55.200000762939</ele>
        <time>2022-06-30T07:53:05.000Z</time>
      </trkpt>
      <trkpt lat="47.32523" lon="-2.42219">
        <ele>54.799999237061</ele>
        <time>2022-06-30T07:53:06.000Z</time>
      </trkpt>
      <trkpt lat="47.32527" lon="-2.42226">
        <ele>54.400001525879</ele>
        <time>2022-06-30T07:53:07.000Z</time>
      </trkpt>
      <trkpt lat="47.32531" lon="-2.42233">
        <ele>54</ele>
        <time>2022-06-30T07:53:08.000Z</time>
      </trkpt>
      <trkpt lat="47.32551" lon="-2.4227">
        <ele>54</ele>
        <time>2022-06-30T07:53:13.000Z</time>
      </trkpt>
      <trkpt lat="47.32558" lon="-2.42284">
        <ele>53.599998474121</ele>
        <time>2022-06-30T07:53:15.000Z</time>
      </trkpt>
      <trkpt lat="47.32562" lon="-2.42291">
        <ele>53.200000762939</ele>
        <time>2022-06-30T07:53:16.000Z</time>
      </trkpt>
      <trkpt lat="47.32566" lon="-2.42298">
        <ele>52.799999237061</ele>
        <time>2022-06-30T07:53:17.000Z</time>
      </trkpt>
      <trkpt lat="47.3257" lon="-2.42304">
        <ele>52.400001525879</ele>
        <time>2022-06-30T07:53:18.000Z</time>
      </trkpt>
      <trkpt lat="47.32574" lon="-2.4231">
        <ele>52</ele>
        <time>2022-06-30T07:53:19.000Z</time>
      </trkpt>
      <trkpt lat="47.32581" lon="-2.42324">
        <ele>52</ele>
        <time>2022-06-30T07:53:21.000Z</time>
      </trkpt>
      <trkpt lat="47.32605" lon="-2.42371">
        <ele>52</ele>
        <time>2022-06-30T07:53:28.000Z</time>
      </trkpt>
      <trkpt lat="47.32609" lon="-2.42379">
        <ele>52</ele>
        <time>2022-06-30T07:53:31.000Z</time>
      </trkpt>
      <trkpt lat="47.32621" lon="-2.42401">
        <ele>52</ele>
        <time>2022-06-30T07:53:36.000Z</time>
      </trkpt>
      <trkpt lat="47.32623" lon="-2.42406">
        <ele>52</ele>
        <time>2022-06-30T07:53:37.000Z</time>
      </trkpt>
      <trkpt lat="47.32634" lon="-2.42431">
        <ele>52</ele>
        <time>2022-06-30T07:53:41.000Z</time>
      </trkpt>
      <trkpt lat="47.32646" lon="-2.4246">
        <ele>52</ele>
        <time>2022-06-30T07:53:46.000Z</time>
      </trkpt>
      <trkpt lat="47.32649" lon="-2.42466">
        <ele>52</ele>
        <time>2022-06-30T07:53:47.000Z</time>
      </trkpt>
      <trkpt lat="47.32659" lon="-2.42492">
        <ele>52</ele>
        <time>2022-06-30T07:53:51.000Z</time>
      </trkpt>
      <trkpt lat="47.32664" lon="-2.42506">
        <ele>52</ele>
        <time>2022-06-30T07:53:53.000Z</time>
      </trkpt>
      <trkpt lat="47.32669" lon="-2.4252">
        <ele>51.599998474121</ele>
        <time>2022-06-30T07:53:55.000Z</time>
      </trkpt>
      <trkpt lat="47.32671" lon="-2.42528">
        <ele>51.200000762939</ele>
        <time>2022-06-30T07:53:56.000Z</time>
      </trkpt>
      <trkpt lat="47.32673" lon="-2.42535">
        <ele>50.799999237061</ele>
        <time>2022-06-30T07:53:57.000Z</time>
      </trkpt>
      <trkpt lat="47.32676" lon="-2.42542">
        <ele>50.200000762939</ele>
        <time>2022-06-30T07:53:58.000Z</time>
      </trkpt>
      <trkpt lat="47.32678" lon="-2.4255">
        <ele>49.799999237061</ele>
        <time>2022-06-30T07:53:59.000Z</time>
      </trkpt>
      <trkpt lat="47.32682" lon="-2.42564">
        <ele>49.799999237061</ele>
        <time>2022-06-30T07:54:01.000Z</time>
      </trkpt>
      <trkpt lat="47.327" lon="-2.42627">
        <ele>49.799999237061</ele>
        <time>2022-06-30T07:54:10.000Z</time>
      </trkpt>
      <trkpt lat="47.3271" lon="-2.42658">
        <ele>49.799999237061</ele>
        <time>2022-06-30T07:54:16.000Z</time>
      </trkpt>
      <trkpt lat="47.32711" lon="-2.42671">
        <ele>49.799999237061</ele>
        <time>2022-06-30T07:54:20.000Z</time>
      </trkpt>
      <trkpt lat="47.3271" lon="-2.42673">
        <ele>49.799999237061</ele>
        <time>2022-06-30T07:54:21.000Z</time>
      </trkpt>
      <trkpt lat="47.32701" lon="-2.42682">
        <ele>49.799999237061</ele>
        <time>2022-06-30T07:54:25.000Z</time>
      </trkpt>
      <trkpt lat="47.32691" lon="-2.42692">
        <ele>49.799999237061</ele>
        <time>2022-06-30T07:54:29.000Z</time>
      </trkpt>
      <trkpt lat="47.32688" lon="-2.42695">
        <ele>49.799999237061</ele>
        <time>2022-06-30T07:54:30.000Z</time>
      </trkpt>
      <trkpt lat="47.32671" lon="-2.42704">
        <ele>49.799999237061</ele>
        <time>2022-06-30T07:54:34.000Z</time>
      </trkpt>
      <trkpt lat="47.32668" lon="-2.42707">
        <ele>49.799999237061</ele>
        <time>2022-06-30T07:54:35.000Z</time>
      </trkpt>
      <trkpt lat="47.32654" lon="-2.42719">
        <ele>49.799999237061</ele>
        <time>2022-06-30T07:54:39.000Z</time>
      </trkpt>
      <trkpt lat="47.32645" lon="-2.42737">
        <ele>49.799999237061</ele>
        <time>2022-06-30T07:54:42.000Z</time>
      </trkpt>
      <trkpt lat="47.3264" lon="-2.42749">
        <ele>49.799999237061</ele>
        <time>2022-06-30T07:54:44.000Z</time>
      </trkpt>
      <trkpt lat="47.32633" lon="-2.42767">
        <ele>49.799999237061</ele>
        <time>2022-06-30T07:54:47.000Z</time>
      </trkpt>
      <trkpt lat="47.32631" lon="-2.42773">
        <ele>49.799999237061</ele>
        <time>2022-06-30T07:54:48.000Z</time>
      </trkpt>
      <trkpt lat="47.3262" lon="-2.42804">
        <ele>49.799999237061</ele>
        <time>2022-06-30T07:54:53.000Z</time>
      </trkpt>
      <trkpt lat="47.32619" lon="-2.42812">
        <ele>49.799999237061</ele>
        <time>2022-06-30T07:54:54.000Z</time>
      </trkpt>
      <trkpt lat="47.32611" lon="-2.42846">
        <ele>49.799999237061</ele>
        <time>2022-06-30T07:54:59.000Z</time>
      </trkpt>
      <trkpt lat="47.32607" lon="-2.42866">
        <ele>49.799999237061</ele>
        <time>2022-06-30T07:55:02.000Z</time>
      </trkpt>
      <trkpt lat="47.32601" lon="-2.42889">
        <ele>49.799999237061</ele>
        <time>2022-06-30T07:55:06.000Z</time>
      </trkpt>
      <trkpt lat="47.326" lon="-2.42906">
        <ele>49.799999237061</ele>
        <time>2022-06-30T07:55:09.000Z</time>
      </trkpt>
      <trkpt lat="47.32601" lon="-2.42928">
        <ele>49.799999237061</ele>
        <time>2022-06-30T07:55:14.000Z</time>
      </trkpt>
      <trkpt lat="47.32603" lon="-2.4293">
        <ele>49.799999237061</ele>
        <time>2022-06-30T07:55:15.000Z</time>
      </trkpt>
      <trkpt lat="47.32614" lon="-2.42934">
        <ele>49.799999237061</ele>
        <time>2022-06-30T07:55:19.000Z</time>
      </trkpt>
      <trkpt lat="47.32625" lon="-2.42935">
        <ele>49.799999237061</ele>
        <time>2022-06-30T07:55:23.000Z</time>
      </trkpt>
      <trkpt lat="47.32623" lon="-2.42949">
        <ele>49.799999237061</ele>
        <time>2022-06-30T07:55:26.000Z</time>
      </trkpt>
      <trkpt lat="47.32619" lon="-2.42972">
        <ele>49.799999237061</ele>
        <time>2022-06-30T07:55:30.000Z</time>
      </trkpt>
      <trkpt lat="47.32618" lon="-2.42979">
        <ele>49.799999237061</ele>
        <time>2022-06-30T07:55:31.000Z</time>
      </trkpt>
      <trkpt lat="47.32617" lon="-2.42987">
        <ele>49.799999237061</ele>
        <time>2022-06-30T07:55:32.000Z</time>
      </trkpt>
      <trkpt lat="47.32618" lon="-2.43017">
        <ele>49.799999237061</ele>
        <time>2022-06-30T07:55:36.000Z</time>
      </trkpt>
      <trkpt lat="47.32619" lon="-2.43065">
        <ele>49.799999237061</ele>
        <time>2022-06-30T07:55:43.000Z</time>
      </trkpt>
      <trkpt lat="47.32617" lon="-2.43076">
        <ele>49.799999237061</ele>
        <time>2022-06-30T07:55:45.000Z</time>
      </trkpt>
      <trkpt lat="47.32609" lon="-2.4308">
        <ele>49.799999237061</ele>
        <time>2022-06-30T07:55:47.000Z</time>
      </trkpt>
      <trkpt lat="47.32595" lon="-2.4308">
        <ele>49.799999237061</ele>
        <time>2022-06-30T07:55:50.000Z</time>
      </trkpt>
      <trkpt lat="47.3259" lon="-2.43081">
        <ele>49.799999237061</ele>
        <time>2022-06-30T07:55:51.000Z</time>
      </trkpt>
      <trkpt lat="47.32561" lon="-2.43084">
        <ele>49</ele>
        <time>2022-06-30T07:55:56.000Z</time>
      </trkpt>
      <trkpt lat="47.32556" lon="-2.43085">
        <ele>48.599998474121</ele>
        <time>2022-06-30T07:55:57.000Z</time>
      </trkpt>
      <trkpt lat="47.32551" lon="-2.43085">
        <ele>48.200000762939</ele>
        <time>2022-06-30T07:55:58.000Z</time>
      </trkpt>
      <trkpt lat="47.32546" lon="-2.43085">
        <ele>47.799999237061</ele>
        <time>2022-06-30T07:55:59.000Z</time>
      </trkpt>
      <trkpt lat="47.32534" lon="-2.43085">
        <ele>47.799999237061</ele>
        <time>2022-06-30T07:56:01.000Z</time>
      </trkpt>
      <trkpt lat="47.32528" lon="-2.43084">
        <ele>47.799999237061</ele>
        <time>2022-06-30T07:56:02.000Z</time>
      </trkpt>
      <trkpt lat="47.32498" lon="-2.43083">
        <ele>47.400001525879</ele>
        <time>2022-06-30T07:56:07.000Z</time>
      </trkpt>
      <trkpt lat="47.32492" lon="-2.43082">
        <ele>47</ele>
        <time>2022-06-30T07:56:08.000Z</time>
      </trkpt>
      <trkpt lat="47.32485" lon="-2.43083">
        <ele>46.599998474121</ele>
        <time>2022-06-30T07:56:09.000Z</time>
      </trkpt>
      <trkpt lat="47.32478" lon="-2.43083">
        <ele>46.200000762939</ele>
        <time>2022-06-30T07:56:10.000Z</time>
      </trkpt>
      <trkpt lat="47.32471" lon="-2.43083">
        <ele>45.599998474121</ele>
        <time>2022-06-30T07:56:11.000Z</time>
      </trkpt>
      <trkpt lat="47.32456" lon="-2.43082">
        <ele>45.200000762939</ele>
        <time>2022-06-30T07:56:13.000Z</time>
      </trkpt>
      <trkpt lat="47.32448" lon="-2.43081">
        <ele>44.799999237061</ele>
        <time>2022-06-30T07:56:14.000Z</time>
      </trkpt>
      <trkpt lat="47.3244" lon="-2.4308">
        <ele>44.400001525879</ele>
        <time>2022-06-30T07:56:15.000Z</time>
      </trkpt>
      <trkpt lat="47.32433" lon="-2.43079">
        <ele>44</ele>
        <time>2022-06-30T07:56:16.000Z</time>
      </trkpt>
      <trkpt lat="47.32424" lon="-2.43077">
        <ele>43.599998474121</ele>
        <time>2022-06-30T07:56:17.000Z</time>
      </trkpt>
      <trkpt lat="47.32416" lon="-2.43075">
        <ele>43.200000762939</ele>
        <time>2022-06-30T07:56:18.000Z</time>
      </trkpt>
      <trkpt lat="47.32408" lon="-2.43073">
        <ele>42.599998474121</ele>
        <time>2022-06-30T07:56:19.000Z</time>
      </trkpt>
      <trkpt lat="47.32399" lon="-2.43071">
        <ele>42.200000762939</ele>
        <time>2022-06-30T07:56:20.000Z</time>
      </trkpt>
      <trkpt lat="47.32389" lon="-2.43071">
        <ele>41.400001525879</ele>
        <time>2022-06-30T07:56:21.000Z</time>
      </trkpt>
      <trkpt lat="47.3238" lon="-2.43074">
        <ele>40.799999237061</ele>
        <time>2022-06-30T07:56:22.000Z</time>
      </trkpt>
      <trkpt lat="47.32371" lon="-2.43077">
        <ele>40.400001525879</ele>
        <time>2022-06-30T07:56:23.000Z</time>
      </trkpt>
      <trkpt lat="47.32362" lon="-2.4308">
        <ele>40</ele>
        <time>2022-06-30T07:56:24.000Z</time>
      </trkpt>
      <trkpt lat="47.32352" lon="-2.43083">
        <ele>39.599998474121</ele>
        <time>2022-06-30T07:56:25.000Z</time>
      </trkpt>
      <trkpt lat="47.32344" lon="-2.43085">
        <ele>39</ele>
        <time>2022-06-30T07:56:26.000Z</time>
      </trkpt>
      <trkpt lat="47.32335" lon="-2.43089">
        <ele>38.599998474121</ele>
        <time>2022-06-30T07:56:27.000Z</time>
      </trkpt>
      <trkpt lat="47.32325" lon="-2.43093">
        <ele>38.200000762939</ele>
        <time>2022-06-30T07:56:28.000Z</time>
      </trkpt>
      <trkpt lat="47.32317" lon="-2.43098">
        <ele>37.799999237061</ele>
        <time>2022-06-30T07:56:29.000Z</time>
      </trkpt>
      <trkpt lat="47.32309" lon="-2.43104">
        <ele>37.200000762939</ele>
        <time>2022-06-30T07:56:30.000Z</time>
      </trkpt>
      <trkpt lat="47.32301" lon="-2.43109">
        <ele>36.799999237061</ele>
        <time>2022-06-30T07:56:31.000Z</time>
      </trkpt>
      <trkpt lat="47.32293" lon="-2.43114">
        <ele>36.799999237061</ele>
        <time>2022-06-30T07:56:32.000Z</time>
      </trkpt>
      <trkpt lat="47.32285" lon="-2.43117">
        <ele>36.799999237061</ele>
        <time>2022-06-30T07:56:33.000Z</time>
      </trkpt>
      <trkpt lat="47.32263" lon="-2.43125">
        <ele>36.799999237061</ele>
        <time>2022-06-30T07:56:36.000Z</time>
      </trkpt>
      <trkpt lat="47.3223" lon="-2.43141">
        <ele>36.400001525879</ele>
        <time>2022-06-30T07:56:41.000Z</time>
      </trkpt>
      <trkpt lat="47.32223" lon="-2.43143">
        <ele>36</ele>
        <time>2022-06-30T07:56:42.000Z</time>
      </trkpt>
      <trkpt lat="47.32217" lon="-2.43146">
        <ele>35.599998474121</ele>
        <time>2022-06-30T07:56:43.000Z</time>
      </trkpt>
      <trkpt lat="47.3221" lon="-2.43149">
        <ele>35.200000762939</ele>
        <time>2022-06-30T07:56:44.000Z</time>
      </trkpt>
      <trkpt lat="47.32203" lon="-2.43152">
        <ele>34.799999237061</ele>
        <time>2022-06-30T07:56:45.000Z</time>
      </trkpt>
      <trkpt lat="47.32156" lon="-2.43172">
        <ele>34.400001525879</ele>
        <time>2022-06-30T07:56:52.000Z</time>
      </trkpt>
      <trkpt lat="47.32149" lon="-2.43176">
        <ele>34</ele>
        <time>2022-06-30T07:56:53.000Z</time>
      </trkpt>
      <trkpt lat="47.32142" lon="-2.4318">
        <ele>33.400001525879</ele>
        <time>2022-06-30T07:56:54.000Z</time>
      </trkpt>
      <trkpt lat="47.32135" lon="-2.43186">
        <ele>33</ele>
        <time>2022-06-30T07:56:55.000Z</time>
      </trkpt>
      <trkpt lat="47.32129" lon="-2.4319">
        <ele>32.599998474121</ele>
        <time>2022-06-30T07:56:56.000Z</time>
      </trkpt>
      <trkpt lat="47.32122" lon="-2.43194">
        <ele>32.599998474121</ele>
        <time>2022-06-30T07:56:57.000Z</time>
      </trkpt>
      <trkpt lat="47.32115" lon="-2.43197">
        <ele>32.599998474121</ele>
        <time>2022-06-30T07:56:58.000Z</time>
      </trkpt>
      <trkpt lat="47.32072" lon="-2.43216">
        <ele>32.200000762939</ele>
        <time>2022-06-30T07:57:04.000Z</time>
      </trkpt>
      <trkpt lat="47.32066" lon="-2.4322">
        <ele>31.799999237061</ele>
        <time>2022-06-30T07:57:05.000Z</time>
      </trkpt>
      <trkpt lat="47.32059" lon="-2.43223">
        <ele>31.39999961853</ele>
        <time>2022-06-30T07:57:06.000Z</time>
      </trkpt>
      <trkpt lat="47.32053" lon="-2.43226">
        <ele>31</ele>
        <time>2022-06-30T07:57:07.000Z</time>
      </trkpt>
      <trkpt lat="47.32046" lon="-2.43231">
        <ele>30.60000038147</ele>
        <time>2022-06-30T07:57:08.000Z</time>
      </trkpt>
      <trkpt lat="47.32027" lon="-2.43246">
        <ele>30.200000762939</ele>
        <time>2022-06-30T07:57:11.000Z</time>
      </trkpt>
      <trkpt lat="47.3202" lon="-2.43251">
        <ele>29.60000038147</ele>
        <time>2022-06-30T07:57:12.000Z</time>
      </trkpt>
      <trkpt lat="47.32013" lon="-2.43256">
        <ele>29.200000762939</ele>
        <time>2022-06-30T07:57:13.000Z</time>
      </trkpt>
      <trkpt lat="47.32006" lon="-2.43261">
        <ele>28.799999237061</ele>
        <time>2022-06-30T07:57:14.000Z</time>
      </trkpt>
      <trkpt lat="47.32" lon="-2.43265">
        <ele>28.39999961853</ele>
        <time>2022-06-30T07:57:15.000Z</time>
      </trkpt>
      <trkpt lat="47.31987" lon="-2.43272">
        <ele>27.799999237061</ele>
        <time>2022-06-30T07:57:17.000Z</time>
      </trkpt>
      <trkpt lat="47.31982" lon="-2.43275">
        <ele>27.39999961853</ele>
        <time>2022-06-30T07:57:18.000Z</time>
      </trkpt>
      <trkpt lat="47.31979" lon="-2.43281">
        <ele>26.799999237061</ele>
        <time>2022-06-30T07:57:19.000Z</time>
      </trkpt>
      <trkpt lat="47.31977" lon="-2.43288">
        <ele>26.39999961853</ele>
        <time>2022-06-30T07:57:20.000Z</time>
      </trkpt>
      <trkpt lat="47.31975" lon="-2.43297">
        <ele>26</ele>
        <time>2022-06-30T07:57:21.000Z</time>
      </trkpt>
      <trkpt lat="47.31974" lon="-2.43323">
        <ele>26</ele>
        <time>2022-06-30T07:57:24.000Z</time>
      </trkpt>
      <trkpt lat="47.31972" lon="-2.43343">
        <ele>26</ele>
        <time>2022-06-30T07:57:26.000Z</time>
      </trkpt>
      <trkpt lat="47.3197" lon="-2.43353">
        <ele>25.39999961853</ele>
        <time>2022-06-30T07:57:27.000Z</time>
      </trkpt>
      <trkpt lat="47.31967" lon="-2.43363">
        <ele>25</ele>
        <time>2022-06-30T07:57:28.000Z</time>
      </trkpt>
      <trkpt lat="47.31964" lon="-2.43373">
        <ele>24.60000038147</ele>
        <time>2022-06-30T07:57:29.000Z</time>
      </trkpt>
      <trkpt lat="47.31962" lon="-2.43382">
        <ele>24.200000762939</ele>
        <time>2022-06-30T07:57:30.000Z</time>
      </trkpt>
      <trkpt lat="47.31959" lon="-2.43392">
        <ele>23.799999237061</ele>
        <time>2022-06-30T07:57:31.000Z</time>
      </trkpt>
      <trkpt lat="47.31946" lon="-2.43431">
        <ele>22.799999237061</ele>
        <time>2022-06-30T07:57:35.000Z</time>
      </trkpt>
      <trkpt lat="47.31942" lon="-2.4344">
        <ele>22.39999961853</ele>
        <time>2022-06-30T07:57:36.000Z</time>
      </trkpt>
      <trkpt lat="47.31939" lon="-2.4345">
        <ele>21.799999237061</ele>
        <time>2022-06-30T07:57:37.000Z</time>
      </trkpt>
      <trkpt lat="47.31935" lon="-2.43459">
        <ele>21.39999961853</ele>
        <time>2022-06-30T07:57:38.000Z</time>
      </trkpt>
      <trkpt lat="47.3193" lon="-2.43479">
        <ele>21</ele>
        <time>2022-06-30T07:57:40.000Z</time>
      </trkpt>
      <trkpt lat="47.31928" lon="-2.4349">
        <ele>20.60000038147</ele>
        <time>2022-06-30T07:57:41.000Z</time>
      </trkpt>
      <trkpt lat="47.31927" lon="-2.43502">
        <ele>20</ele>
        <time>2022-06-30T07:57:42.000Z</time>
      </trkpt>
      <trkpt lat="47.31926" lon="-2.43513">
        <ele>19.60000038147</ele>
        <time>2022-06-30T07:57:43.000Z</time>
      </trkpt>
      <trkpt lat="47.31926" lon="-2.43524">
        <ele>19.200000762939</ele>
        <time>2022-06-30T07:57:44.000Z</time>
      </trkpt>
      <trkpt lat="47.31928" lon="-2.43557">
        <ele>19.200000762939</ele>
        <time>2022-06-30T07:57:47.000Z</time>
      </trkpt>
      <trkpt lat="47.31928" lon="-2.43578">
        <ele>18.799999237061</ele>
        <time>2022-06-30T07:57:49.000Z</time>
      </trkpt>
      <trkpt lat="47.31927" lon="-2.43588">
        <ele>18.200000762939</ele>
        <time>2022-06-30T07:57:50.000Z</time>
      </trkpt>
      <trkpt lat="47.31924" lon="-2.43597">
        <ele>17.799999237061</ele>
        <time>2022-06-30T07:57:51.000Z</time>
      </trkpt>
      <trkpt lat="47.31918" lon="-2.43605">
        <ele>17.39999961853</ele>
        <time>2022-06-30T07:57:52.000Z</time>
      </trkpt>
      <trkpt lat="47.31913" lon="-2.43611">
        <ele>17</ele>
        <time>2022-06-30T07:57:53.000Z</time>
      </trkpt>
      <trkpt lat="47.31906" lon="-2.43615">
        <ele>17</ele>
        <time>2022-06-30T07:57:54.000Z</time>
      </trkpt>
      <trkpt lat="47.31899" lon="-2.4362">
        <ele>16.60000038147</ele>
        <time>2022-06-30T07:57:55.000Z</time>
      </trkpt>
      <trkpt lat="47.31893" lon="-2.43626">
        <ele>16.200000762939</ele>
        <time>2022-06-30T07:57:56.000Z</time>
      </trkpt>
      <trkpt lat="47.31888" lon="-2.43633">
        <ele>15.800000190735</ele>
        <time>2022-06-30T07:57:57.000Z</time>
      </trkpt>
      <trkpt lat="47.31888" lon="-2.43641">
        <ele>15.39999961853</ele>
        <time>2022-06-30T07:57:58.000Z</time>
      </trkpt>
      <trkpt lat="47.31888" lon="-2.43651">
        <ele>14.800000190735</ele>
        <time>2022-06-30T07:57:59.000Z</time>
      </trkpt>
      <trkpt lat="47.31889" lon="-2.43658">
        <ele>14</ele>
        <time>2022-06-30T07:58:00.000Z</time>
      </trkpt>
      <trkpt lat="47.31891" lon="-2.43667">
        <ele>13.39999961853</ele>
        <time>2022-06-30T07:58:01.000Z</time>
      </trkpt>
      <trkpt lat="47.31893" lon="-2.43675">
        <ele>13</ele>
        <time>2022-06-30T07:58:02.000Z</time>
      </trkpt>
      <trkpt lat="47.31897" lon="-2.43682">
        <ele>12.60000038147</ele>
        <time>2022-06-30T07:58:03.000Z</time>
      </trkpt>
      <trkpt lat="47.31905" lon="-2.43695">
        <ele>12.60000038147</ele>
        <time>2022-06-30T07:58:05.000Z</time>
      </trkpt>
      <trkpt lat="47.31926" lon="-2.43739">
        <ele>12.60000038147</ele>
        <time>2022-06-30T07:58:11.000Z</time>
      </trkpt>
      <trkpt lat="47.31943" lon="-2.43781">
        <ele>12.60000038147</ele>
        <time>2022-06-30T07:58:17.000Z</time>
      </trkpt>
      <trkpt lat="47.31965" lon="-2.43822">
        <ele>12.60000038147</ele>
        <time>2022-06-30T07:58:24.000Z</time>
      </trkpt>
      <trkpt lat="47.31975" lon="-2.43837">
        <ele>13</ele>
        <time>2022-06-30T07:58:27.000Z</time>
      </trkpt>
      <trkpt lat="47.3198" lon="-2.43838">
        <ele>13.39999961853</ele>
        <time>2022-06-30T07:58:28.000Z</time>
      </trkpt>
      <trkpt lat="47.31985" lon="-2.43839">
        <ele>13.800000190735</ele>
        <time>2022-06-30T07:58:29.000Z</time>
      </trkpt>
      <trkpt lat="47.31989" lon="-2.43837">
        <ele>14.199999809265</ele>
        <time>2022-06-30T07:58:30.000Z</time>
      </trkpt>
      <trkpt lat="47.31993" lon="-2.43833">
        <ele>14.60000038147</ele>
        <time>2022-06-30T07:58:31.000Z</time>
      </trkpt>
      <trkpt lat="47.31996" lon="-2.4383">
        <ele>14.60000038147</ele>
        <time>2022-06-30T07:58:32.000Z</time>
      </trkpt>
      <trkpt lat="47.32005" lon="-2.43818">
        <ele>15</ele>
        <time>2022-06-30T07:58:35.000Z</time>
      </trkpt>
      <trkpt lat="47.32008" lon="-2.43815">
        <ele>15.39999961853</ele>
        <time>2022-06-30T07:58:36.000Z</time>
      </trkpt>
      <trkpt lat="47.32011" lon="-2.43812">
        <ele>15.800000190735</ele>
        <time>2022-06-30T07:58:37.000Z</time>
      </trkpt>
      <trkpt lat="47.32014" lon="-2.43809">
        <ele>16.200000762939</ele>
        <time>2022-06-30T07:58:38.000Z</time>
      </trkpt>
      <trkpt lat="47.32017" lon="-2.43807">
        <ele>16.60000038147</ele>
        <time>2022-06-30T07:58:39.000Z</time>
      </trkpt>
      <trkpt lat="47.32026" lon="-2.43801">
        <ele>17.200000762939</ele>
        <time>2022-06-30T07:58:42.000Z</time>
      </trkpt>
      <trkpt lat="47.3203" lon="-2.438">
        <ele>17.60000038147</ele>
        <time>2022-06-30T07:58:43.000Z</time>
      </trkpt>
      <trkpt lat="47.32032" lon="-2.438">
        <ele>18</ele>
        <time>2022-06-30T07:58:44.000Z</time>
      </trkpt>
      <trkpt lat="47.32035" lon="-2.43804">
        <ele>18.39999961853</ele>
        <time>2022-06-30T07:58:45.000Z</time>
      </trkpt>
      <trkpt lat="47.32037" lon="-2.43808">
        <ele>18.799999237061</ele>
        <time>2022-06-30T07:58:46.000Z</time>
      </trkpt>
      <trkpt lat="47.32039" lon="-2.43812">
        <ele>18.799999237061</ele>
        <time>2022-06-30T07:58:47.000Z</time>
      </trkpt>
      <trkpt lat="47.32046" lon="-2.43824">
        <ele>19.39999961853</ele>
        <time>2022-06-30T07:58:50.000Z</time>
      </trkpt>
      <trkpt lat="47.32048" lon="-2.43828">
        <ele>19.799999237061</ele>
        <time>2022-06-30T07:58:51.000Z</time>
      </trkpt>
      <trkpt lat="47.3205" lon="-2.43832">
        <ele>20.200000762939</ele>
        <time>2022-06-30T07:58:52.000Z</time>
      </trkpt>
      <trkpt lat="47.32053" lon="-2.43836">
        <ele>20.60000038147</ele>
        <time>2022-06-30T07:58:53.000Z</time>
      </trkpt>
      <trkpt lat="47.32055" lon="-2.43841">
        <ele>21</ele>
        <time>2022-06-30T07:58:54.000Z</time>
      </trkpt>
      <trkpt lat="47.32057" lon="-2.43846">
        <ele>21</ele>
        <time>2022-06-30T07:58:55.000Z</time>
      </trkpt>
      <trkpt lat="47.32076" lon="-2.43883">
        <ele>21</ele>
        <time>2022-06-30T07:59:03.000Z</time>
      </trkpt>
      <trkpt lat="47.32095" lon="-2.43901">
        <ele>21</ele>
        <time>2022-06-30T07:59:09.000Z</time>
      </trkpt>
      <trkpt lat="47.3211" lon="-2.43907">
        <ele>21.39999961853</ele>
        <time>2022-06-30T07:59:14.000Z</time>
      </trkpt>
      <trkpt lat="47.32114" lon="-2.43909">
        <ele>21.799999237061</ele>
        <time>2022-06-30T07:59:15.000Z</time>
      </trkpt>
      <trkpt lat="47.32117" lon="-2.43911">
        <ele>22.39999961853</ele>
        <time>2022-06-30T07:59:16.000Z</time>
      </trkpt>
      <trkpt lat="47.32122" lon="-2.43913">
        <ele>22.799999237061</ele>
        <time>2022-06-30T07:59:17.000Z</time>
      </trkpt>
      <trkpt lat="47.32125" lon="-2.43915">
        <ele>23.200000762939</ele>
        <time>2022-06-30T07:59:18.000Z</time>
      </trkpt>
      <trkpt lat="47.32133" lon="-2.43924">
        <ele>23.200000762939</ele>
        <time>2022-06-30T07:59:21.000Z</time>
      </trkpt>
      <trkpt lat="47.32137" lon="-2.43932">
        <ele>23.60000038147</ele>
        <time>2022-06-30T07:59:23.000Z</time>
      </trkpt>
      <trkpt lat="47.3214" lon="-2.43936">
        <ele>24</ele>
        <time>2022-06-30T07:59:24.000Z</time>
      </trkpt>
      <trkpt lat="47.32142" lon="-2.4394">
        <ele>24.39999961853</ele>
        <time>2022-06-30T07:59:25.000Z</time>
      </trkpt>
      <trkpt lat="47.32145" lon="-2.43943">
        <ele>25</ele>
        <time>2022-06-30T07:59:26.000Z</time>
      </trkpt>
      <trkpt lat="47.32147" lon="-2.43947">
        <ele>25.39999961853</ele>
        <time>2022-06-30T07:59:27.000Z</time>
      </trkpt>
      <trkpt lat="47.32164" lon="-2.43971">
        <ele>25.799999237061</ele>
        <time>2022-06-30T07:59:34.000Z</time>
      </trkpt>
      <trkpt lat="47.32166" lon="-2.43974">
        <ele>26.200000762939</ele>
        <time>2022-06-30T07:59:35.000Z</time>
      </trkpt>
      <trkpt lat="47.32169" lon="-2.43977">
        <ele>26.60000038147</ele>
        <time>2022-06-30T07:59:36.000Z</time>
      </trkpt>
      <trkpt lat="47.32171" lon="-2.4398">
        <ele>27</ele>
        <time>2022-06-30T07:59:37.000Z</time>
      </trkpt>
      <trkpt lat="47.32174" lon="-2.43984">
        <ele>27.39999961853</ele>
        <time>2022-06-30T07:59:38.000Z</time>
      </trkpt>
      <trkpt lat="47.32186" lon="-2.44002">
        <ele>27.39999961853</ele>
        <time>2022-06-30T07:59:43.000Z</time>
      </trkpt>
      <trkpt lat="47.32202" lon="-2.44022">
        <ele>27.799999237061</ele>
        <time>2022-06-30T07:59:49.000Z</time>
      </trkpt>
      <trkpt lat="47.32205" lon="-2.44025">
        <ele>28.39999961853</ele>
        <time>2022-06-30T07:59:50.000Z</time>
      </trkpt>
      <trkpt lat="47.32208" lon="-2.44028">
        <ele>28.799999237061</ele>
        <time>2022-06-30T07:59:51.000Z</time>
      </trkpt>
      <trkpt lat="47.3221" lon="-2.4403">
        <ele>29.200000762939</ele>
        <time>2022-06-30T07:59:52.000Z</time>
      </trkpt>
      <trkpt lat="47.32213" lon="-2.44033">
        <ele>29.60000038147</ele>
        <time>2022-06-30T07:59:53.000Z</time>
      </trkpt>
      <trkpt lat="47.32228" lon="-2.44044">
        <ele>29.60000038147</ele>
        <time>2022-06-30T07:59:58.000Z</time>
      </trkpt>
      <trkpt lat="47.3225" lon="-2.44046">
        <ele>29.60000038147</ele>
        <time>2022-06-30T08:00:04.000Z</time>
      </trkpt>
      <trkpt lat="47.32275" lon="-2.44049">
        <ele>29.60000038147</ele>
        <time>2022-06-30T08:00:10.000Z</time>
      </trkpt>
      <trkpt lat="47.32289" lon="-2.44052">
        <ele>30</ele>
        <time>2022-06-30T08:00:14.000Z</time>
      </trkpt>
      <trkpt lat="47.32293" lon="-2.44053">
        <ele>30.39999961853</ele>
        <time>2022-06-30T08:00:15.000Z</time>
      </trkpt>
      <trkpt lat="47.32297" lon="-2.44055">
        <ele>30.799999237061</ele>
        <time>2022-06-30T08:00:16.000Z</time>
      </trkpt>
      <trkpt lat="47.32302" lon="-2.44056">
        <ele>31.200000762939</ele>
        <time>2022-06-30T08:00:17.000Z</time>
      </trkpt>
      <trkpt lat="47.32307" lon="-2.44058">
        <ele>31.799999237061</ele>
        <time>2022-06-30T08:00:18.000Z</time>
      </trkpt>
      <trkpt lat="47.32329" lon="-2.44067">
        <ele>31.799999237061</ele>
        <time>2022-06-30T08:00:23.000Z</time>
      </trkpt>
      <trkpt lat="47.32349" lon="-2.44069">
        <ele>32.200000762939</ele>
        <time>2022-06-30T08:00:28.000Z</time>
      </trkpt>
      <trkpt lat="47.32354" lon="-2.44069">
        <ele>33</ele>
        <time>2022-06-30T08:00:29.000Z</time>
      </trkpt>
      <trkpt lat="47.32358" lon="-2.44068">
        <ele>33.400001525879</ele>
        <time>2022-06-30T08:00:30.000Z</time>
      </trkpt>
      <trkpt lat="47.32362" lon="-2.44067">
        <ele>33.799999237061</ele>
        <time>2022-06-30T08:00:31.000Z</time>
      </trkpt>
      <trkpt lat="47.32383" lon="-2.4406">
        <ele>33.799999237061</ele>
        <time>2022-06-30T08:00:36.000Z</time>
      </trkpt>
      <trkpt lat="47.32387" lon="-2.44058">
        <ele>33.799999237061</ele>
        <time>2022-06-30T08:00:37.000Z</time>
      </trkpt>
      <trkpt lat="47.32399" lon="-2.44051">
        <ele>34.200000762939</ele>
        <time>2022-06-30T08:00:40.000Z</time>
      </trkpt>
      <trkpt lat="47.32402" lon="-2.44049">
        <ele>34.599998474121</ele>
        <time>2022-06-30T08:00:41.000Z</time>
      </trkpt>
      <trkpt lat="47.32406" lon="-2.44046">
        <ele>35</ele>
        <time>2022-06-30T08:00:42.000Z</time>
      </trkpt>
      <trkpt lat="47.3241" lon="-2.44044">
        <ele>35.400001525879</ele>
        <time>2022-06-30T08:00:43.000Z</time>
      </trkpt>
      <trkpt lat="47.32414" lon="-2.44041">
        <ele>35.799999237061</ele>
        <time>2022-06-30T08:00:44.000Z</time>
      </trkpt>
      <trkpt lat="47.32418" lon="-2.44039">
        <ele>35.799999237061</ele>
        <time>2022-06-30T08:00:45.000Z</time>
      </trkpt>
      <trkpt lat="47.32441" lon="-2.44023">
        <ele>36.200000762939</ele>
        <time>2022-06-30T08:00:51.000Z</time>
      </trkpt>
      <trkpt lat="47.32445" lon="-2.4402">
        <ele>36.599998474121</ele>
        <time>2022-06-30T08:00:52.000Z</time>
      </trkpt>
      <trkpt lat="47.32449" lon="-2.44018">
        <ele>37.599998474121</ele>
        <time>2022-06-30T08:00:53.000Z</time>
      </trkpt>
      <trkpt lat="47.32453" lon="-2.44015">
        <ele>38</ele>
        <time>2022-06-30T08:00:54.000Z</time>
      </trkpt>
      <trkpt lat="47.32477" lon="-2.43999">
        <ele>38</ele>
        <time>2022-06-30T08:01:00.000Z</time>
      </trkpt>
      <trkpt lat="47.32498" lon="-2.43986">
        <ele>38.400001525879</ele>
        <time>2022-06-30T08:01:06.000Z</time>
      </trkpt>
      <trkpt lat="47.325" lon="-2.43985">
        <ele>38.799999237061</ele>
        <time>2022-06-30T08:01:07.000Z</time>
      </trkpt>
      <trkpt lat="47.32503" lon="-2.43984">
        <ele>39.200000762939</ele>
        <time>2022-06-30T08:01:08.000Z</time>
      </trkpt>
      <trkpt lat="47.32504" lon="-2.43983">
        <ele>39.599998474121</ele>
        <time>2022-06-30T08:01:09.000Z</time>
      </trkpt>
      <trkpt lat="47.32506" lon="-2.43981">
        <ele>40</ele>
        <time>2022-06-30T08:01:10.000Z</time>
      </trkpt>
      <trkpt lat="47.32509" lon="-2.4398">
        <ele>40</ele>
        <time>2022-06-30T08:01:12.000Z</time>
      </trkpt>
      <trkpt lat="47.32513" lon="-2.43979">
        <ele>40</ele>
        <time>2022-06-30T08:01:16.000Z</time>
      </trkpt>
      <trkpt lat="47.32515" lon="-2.4398">
        <ele>40</ele>
        <time>2022-06-30T08:02:24.000Z</time>
      </trkpt>
      <trkpt lat="47.32521" lon="-2.43977">
        <ele>40</ele>
        <time>2022-06-30T08:02:30.000Z</time>
      </trkpt>
      <trkpt lat="47.32528" lon="-2.43975">
        <ele>40</ele>
        <time>2022-06-30T08:02:36.000Z</time>
      </trkpt>
      <trkpt lat="47.32532" lon="-2.43972">
        <ele>40</ele>
        <time>2022-06-30T08:02:39.000Z</time>
      </trkpt>
      <trkpt lat="47.32536" lon="-2.43972">
        <ele>40</ele>
        <time>2022-06-30T08:02:41.000Z</time>
      </trkpt>
      <trkpt lat="47.32545" lon="-2.43968">
        <ele>40</ele>
        <time>2022-06-30T08:02:46.000Z</time>
      </trkpt>
      <trkpt lat="47.32551" lon="-2.43964">
        <ele>40</ele>
        <time>2022-06-30T08:02:51.000Z</time>
      </trkpt>
      <trkpt lat="47.32548" lon="-2.43969">
        <ele>40</ele>
        <time>2022-06-30T08:04:27.000Z</time>
      </trkpt>
      <trkpt lat="47.32538" lon="-2.4397">
        <ele>40</ele>
        <time>2022-06-30T08:04:32.000Z</time>
      </trkpt>
      <trkpt lat="47.32522" lon="-2.43973">
        <ele>40</ele>
        <time>2022-06-30T08:04:38.000Z</time>
      </trkpt>
      <trkpt lat="47.32509" lon="-2.43978">
        <ele>40</ele>
        <time>2022-06-30T08:04:44.000Z</time>
      </trkpt>
      <trkpt lat="47.32507" lon="-2.4398">
        <ele>40</ele>
        <time>2022-06-30T08:04:45.000Z</time>
      </trkpt>
      <trkpt lat="47.32508" lon="-2.43984">
        <ele>40</ele>
        <time>2022-06-30T08:04:47.000Z</time>
      </trkpt>
      <trkpt lat="47.32513" lon="-2.43994">
        <ele>40</ele>
        <time>2022-06-30T08:04:51.000Z</time>
      </trkpt>
      <trkpt lat="47.32515" lon="-2.43997">
        <ele>40</ele>
        <time>2022-06-30T08:04:54.000Z</time>
      </trkpt>
      <trkpt lat="47.32517" lon="-2.43999">
        <ele>40</ele>
        <time>2022-06-30T08:05:11.000Z</time>
      </trkpt>
      <trkpt lat="47.32518" lon="-2.44001">
        <ele>40</ele>
        <time>2022-06-30T08:05:12.000Z</time>
      </trkpt>
      <trkpt lat="47.32527" lon="-2.44011">
        <ele>40</ele>
        <time>2022-06-30T08:05:16.000Z</time>
      </trkpt>
      <trkpt lat="47.32547" lon="-2.44025">
        <ele>40</ele>
        <time>2022-06-30T08:05:23.000Z</time>
      </trkpt>
      <trkpt lat="47.32565" lon="-2.44033">
        <ele>40</ele>
        <time>2022-06-30T08:05:29.000Z</time>
      </trkpt>
      <trkpt lat="47.32568" lon="-2.44037">
        <ele>40</ele>
        <time>2022-06-30T08:05:31.000Z</time>
      </trkpt>
      <trkpt lat="47.32568" lon="-2.44043">
        <ele>40</ele>
        <time>2022-06-30T08:05:33.000Z</time>
      </trkpt>
      <trkpt lat="47.3256" lon="-2.44059">
        <ele>40</ele>
        <time>2022-06-30T08:05:37.000Z</time>
      </trkpt>
      <trkpt lat="47.3255" lon="-2.4409">
        <ele>40</ele>
        <time>2022-06-30T08:05:43.000Z</time>
      </trkpt>
      <trkpt lat="47.3254" lon="-2.44131">
        <ele>40</ele>
        <time>2022-06-30T08:05:50.000Z</time>
      </trkpt>
      <trkpt lat="47.3253" lon="-2.44169">
        <ele>40</ele>
        <time>2022-06-30T08:05:57.000Z</time>
      </trkpt>
      <trkpt lat="47.32525" lon="-2.442">
        <ele>40</ele>
        <time>2022-06-30T08:06:02.000Z</time>
      </trkpt>
      <trkpt lat="47.32534" lon="-2.44218">
        <ele>40</ele>
        <time>2022-06-30T08:06:06.000Z</time>
      </trkpt>
      <trkpt lat="47.32549" lon="-2.44243">
        <ele>40</ele>
        <time>2022-06-30T08:06:12.000Z</time>
      </trkpt>
      <trkpt lat="47.32556" lon="-2.44258">
        <ele>40</ele>
        <time>2022-06-30T08:06:15.000Z</time>
      </trkpt>
      <trkpt lat="47.32559" lon="-2.44272">
        <ele>40</ele>
        <time>2022-06-30T08:06:17.000Z</time>
      </trkpt>
      <trkpt lat="47.32567" lon="-2.44305">
        <ele>40</ele>
        <time>2022-06-30T08:06:22.000Z</time>
      </trkpt>
      <trkpt lat="47.32582" lon="-2.44343">
        <ele>40</ele>
        <time>2022-06-30T08:06:28.000Z</time>
      </trkpt>
      <trkpt lat="47.32591" lon="-2.44362">
        <ele>40</ele>
        <time>2022-06-30T08:06:31.000Z</time>
      </trkpt>
      <trkpt lat="47.32598" lon="-2.44371">
        <ele>40</ele>
        <time>2022-06-30T08:06:33.000Z</time>
      </trkpt>
      <trkpt lat="47.32605" lon="-2.44379">
        <ele>40</ele>
        <time>2022-06-30T08:06:35.000Z</time>
      </trkpt>
      <trkpt lat="47.32613" lon="-2.44386">
        <ele>40</ele>
        <time>2022-06-30T08:06:37.000Z</time>
      </trkpt>
      <trkpt lat="47.32616" lon="-2.44391">
        <ele>40</ele>
        <time>2022-06-30T08:06:38.000Z</time>
      </trkpt>
      <trkpt lat="47.32627" lon="-2.44414">
        <ele>40</ele>
        <time>2022-06-30T08:06:42.000Z</time>
      </trkpt>
      <trkpt lat="47.32639" lon="-2.4444">
        <ele>40</ele>
        <time>2022-06-30T08:06:46.000Z</time>
      </trkpt>
      <trkpt lat="47.32644" lon="-2.44454">
        <ele>40</ele>
        <time>2022-06-30T08:06:48.000Z</time>
      </trkpt>
      <trkpt lat="47.32657" lon="-2.44487">
        <ele>40</ele>
        <time>2022-06-30T08:06:53.000Z</time>
      </trkpt>
      <trkpt lat="47.32661" lon="-2.44491">
        <ele>40.400001525879</ele>
        <time>2022-06-30T08:06:54.000Z</time>
      </trkpt>
      <trkpt lat="47.32665" lon="-2.44494">
        <ele>40.799999237061</ele>
        <time>2022-06-30T08:06:55.000Z</time>
      </trkpt>
      <trkpt lat="47.32667" lon="-2.44497">
        <ele>41.200000762939</ele>
        <time>2022-06-30T08:06:56.000Z</time>
      </trkpt>
      <trkpt lat="47.32668" lon="-2.44502">
        <ele>41.599998474121</ele>
        <time>2022-06-30T08:06:57.000Z</time>
      </trkpt>
      <trkpt lat="47.32668" lon="-2.44507">
        <ele>42</ele>
        <time>2022-06-30T08:06:58.000Z</time>
      </trkpt>
      <trkpt lat="47.32664" lon="-2.44516">
        <ele>42</ele>
        <time>2022-06-30T08:07:00.000Z</time>
      </trkpt>
      <trkpt lat="47.32649" lon="-2.44545">
        <ele>42</ele>
        <time>2022-06-30T08:07:05.000Z</time>
      </trkpt>
      <trkpt lat="47.32635" lon="-2.4457">
        <ele>42</ele>
        <time>2022-06-30T08:07:09.000Z</time>
      </trkpt>
      <trkpt lat="47.32628" lon="-2.44583">
        <ele>42</ele>
        <time>2022-06-30T08:07:11.000Z</time>
      </trkpt>
      <trkpt lat="47.3262" lon="-2.44595">
        <ele>41.599998474121</ele>
        <time>2022-06-30T08:07:13.000Z</time>
      </trkpt>
      <trkpt lat="47.32616" lon="-2.44601">
        <ele>41.200000762939</ele>
        <time>2022-06-30T08:07:14.000Z</time>
      </trkpt>
      <trkpt lat="47.32612" lon="-2.44608">
        <ele>40.799999237061</ele>
        <time>2022-06-30T08:07:15.000Z</time>
      </trkpt>
      <trkpt lat="47.32608" lon="-2.44614">
        <ele>40.200000762939</ele>
        <time>2022-06-30T08:07:16.000Z</time>
      </trkpt>
      <trkpt lat="47.32604" lon="-2.4462">
        <ele>39.799999237061</ele>
        <time>2022-06-30T08:07:17.000Z</time>
      </trkpt>
      <trkpt lat="47.32601" lon="-2.44625">
        <ele>39.799999237061</ele>
        <time>2022-06-30T08:07:18.000Z</time>
      </trkpt>
      <trkpt lat="47.32589" lon="-2.44643">
        <ele>39.400001525879</ele>
        <time>2022-06-30T08:07:21.000Z</time>
      </trkpt>
      <trkpt lat="47.32585" lon="-2.44649">
        <ele>39</ele>
        <time>2022-06-30T08:07:22.000Z</time>
      </trkpt>
      <trkpt lat="47.3258" lon="-2.44654">
        <ele>38.599998474121</ele>
        <time>2022-06-30T08:07:23.000Z</time>
      </trkpt>
      <trkpt lat="47.32576" lon="-2.4466">
        <ele>38.200000762939</ele>
        <time>2022-06-30T08:07:24.000Z</time>
      </trkpt>
      <trkpt lat="47.32571" lon="-2.44667">
        <ele>37.799999237061</ele>
        <time>2022-06-30T08:07:25.000Z</time>
      </trkpt>
      <trkpt lat="47.32561" lon="-2.4468">
        <ele>37.400001525879</ele>
        <time>2022-06-30T08:07:27.000Z</time>
      </trkpt>
      <trkpt lat="47.32556" lon="-2.44686">
        <ele>36.599998474121</ele>
        <time>2022-06-30T08:07:28.000Z</time>
      </trkpt>
      <trkpt lat="47.3255" lon="-2.44693">
        <ele>36.200000762939</ele>
        <time>2022-06-30T08:07:29.000Z</time>
      </trkpt>
      <trkpt lat="47.32545" lon="-2.447">
        <ele>35.799999237061</ele>
        <time>2022-06-30T08:07:30.000Z</time>
      </trkpt>
      <trkpt lat="47.32537" lon="-2.44714">
        <ele>35.200000762939</ele>
        <time>2022-06-30T08:07:32.000Z</time>
      </trkpt>
      <trkpt lat="47.32534" lon="-2.4472">
        <ele>34.799999237061</ele>
        <time>2022-06-30T08:07:33.000Z</time>
      </trkpt>
      <trkpt lat="47.32531" lon="-2.44727">
        <ele>34.200000762939</ele>
        <time>2022-06-30T08:07:34.000Z</time>
      </trkpt>
      <trkpt lat="47.32528" lon="-2.44734">
        <ele>33.799999237061</ele>
        <time>2022-06-30T08:07:35.000Z</time>
      </trkpt>
      <trkpt lat="47.32525" lon="-2.44739">
        <ele>33.400001525879</ele>
        <time>2022-06-30T08:07:36.000Z</time>
      </trkpt>
      <trkpt lat="47.32522" lon="-2.44743">
        <ele>33.400001525879</ele>
        <time>2022-06-30T08:07:37.000Z</time>
      </trkpt>
      <trkpt lat="47.32518" lon="-2.44746">
        <ele>33</ele>
        <time>2022-06-30T08:07:38.000Z</time>
      </trkpt>
      <trkpt lat="47.32514" lon="-2.44748">
        <ele>32.599998474121</ele>
        <time>2022-06-30T08:07:39.000Z</time>
      </trkpt>
      <trkpt lat="47.32511" lon="-2.44751">
        <ele>32</ele>
        <time>2022-06-30T08:07:40.000Z</time>
      </trkpt>
      <trkpt lat="47.32507" lon="-2.44754">
        <ele>31.60000038147</ele>
        <time>2022-06-30T08:07:41.000Z</time>
      </trkpt>
      <trkpt lat="47.32503" lon="-2.44757">
        <ele>31.200000762939</ele>
        <time>2022-06-30T08:07:42.000Z</time>
      </trkpt>
      <trkpt lat="47.32496" lon="-2.44762">
        <ele>31.200000762939</ele>
        <time>2022-06-30T08:07:44.000Z</time>
      </trkpt>
      <trkpt lat="47.32492" lon="-2.44766">
        <ele>30.799999237061</ele>
        <time>2022-06-30T08:07:45.000Z</time>
      </trkpt>
      <trkpt lat="47.32488" lon="-2.4477">
        <ele>30.39999961853</ele>
        <time>2022-06-30T08:07:46.000Z</time>
      </trkpt>
      <trkpt lat="47.32483" lon="-2.44773">
        <ele>30</ele>
        <time>2022-06-30T08:07:47.000Z</time>
      </trkpt>
      <trkpt lat="47.32478" lon="-2.44778">
        <ele>29.39999961853</ele>
        <time>2022-06-30T08:07:48.000Z</time>
      </trkpt>
      <trkpt lat="47.32473" lon="-2.44782">
        <ele>29</ele>
        <time>2022-06-30T08:07:49.000Z</time>
      </trkpt>
      <trkpt lat="47.3246" lon="-2.44793">
        <ele>29</ele>
        <time>2022-06-30T08:07:50.000Z</time>
      </trkpt>
      <trkpt lat="47.32438" lon="-2.44808">
        <ele>28.200000762939</ele>
        <time>2022-06-30T08:07:52.000Z</time>
      </trkpt>
      <trkpt lat="47.32429" lon="-2.44814">
        <ele>27.60000038147</ele>
        <time>2022-06-30T08:07:53.000Z</time>
      </trkpt>
      <trkpt lat="47.32419" lon="-2.4482">
        <ele>27.200000762939</ele>
        <time>2022-06-30T08:07:54.000Z</time>
      </trkpt>
      <trkpt lat="47.3241" lon="-2.44826">
        <ele>26.799999237061</ele>
        <time>2022-06-30T08:07:55.000Z</time>
      </trkpt>
      <trkpt lat="47.32401" lon="-2.44832">
        <ele>26.200000762939</ele>
        <time>2022-06-30T08:07:56.000Z</time>
      </trkpt>
      <trkpt lat="47.32393" lon="-2.44837">
        <ele>25.799999237061</ele>
        <time>2022-06-30T08:07:57.000Z</time>
      </trkpt>
      <trkpt lat="47.32384" lon="-2.44843">
        <ele>25.39999961853</ele>
        <time>2022-06-30T08:07:58.000Z</time>
      </trkpt>
      <trkpt lat="47.32376" lon="-2.44849">
        <ele>25</ele>
        <time>2022-06-30T08:07:59.000Z</time>
      </trkpt>
      <trkpt lat="47.32369" lon="-2.44855">
        <ele>24.60000038147</ele>
        <time>2022-06-30T08:08:00.000Z</time>
      </trkpt>
      <trkpt lat="47.32362" lon="-2.44861">
        <ele>24.60000038147</ele>
        <time>2022-06-30T08:08:01.000Z</time>
      </trkpt>
      <trkpt lat="47.32343" lon="-2.4488">
        <ele>24.60000038147</ele>
        <time>2022-06-30T08:08:04.000Z</time>
      </trkpt>
      <trkpt lat="47.32337" lon="-2.44886">
        <ele>24.60000038147</ele>
        <time>2022-06-30T08:08:05.000Z</time>
      </trkpt>
      <trkpt lat="47.32317" lon="-2.44914">
        <ele>24.60000038147</ele>
        <time>2022-06-30T08:08:09.000Z</time>
      </trkpt>
      <trkpt lat="47.32306" lon="-2.44926">
        <ele>24.200000762939</ele>
        <time>2022-06-30T08:08:11.000Z</time>
      </trkpt>
      <trkpt lat="47.32301" lon="-2.44932">
        <ele>23.799999237061</ele>
        <time>2022-06-30T08:08:12.000Z</time>
      </trkpt>
      <trkpt lat="47.32296" lon="-2.44938">
        <ele>23.39999961853</ele>
        <time>2022-06-30T08:08:13.000Z</time>
      </trkpt>
      <trkpt lat="47.32291" lon="-2.44943">
        <ele>23</ele>
        <time>2022-06-30T08:08:14.000Z</time>
      </trkpt>
      <trkpt lat="47.32287" lon="-2.44948">
        <ele>22.60000038147</ele>
        <time>2022-06-30T08:08:15.000Z</time>
      </trkpt>
      <trkpt lat="47.32282" lon="-2.44953">
        <ele>22.60000038147</ele>
        <time>2022-06-30T08:08:16.000Z</time>
      </trkpt>
      <trkpt lat="47.32251" lon="-2.44989">
        <ele>22.60000038147</ele>
        <time>2022-06-30T08:08:22.000Z</time>
      </trkpt>
      <trkpt lat="47.32246" lon="-2.44995">
        <ele>22</ele>
        <time>2022-06-30T08:08:23.000Z</time>
      </trkpt>
      <trkpt lat="47.3224" lon="-2.45002">
        <ele>21.60000038147</ele>
        <time>2022-06-30T08:08:24.000Z</time>
      </trkpt>
      <trkpt lat="47.32234" lon="-2.45009">
        <ele>20.799999237061</ele>
        <time>2022-06-30T08:08:25.000Z</time>
      </trkpt>
      <trkpt lat="47.32228" lon="-2.45016">
        <ele>20</ele>
        <time>2022-06-30T08:08:26.000Z</time>
      </trkpt>
      <trkpt lat="47.32222" lon="-2.45022">
        <ele>19.39999961853</ele>
        <time>2022-06-30T08:08:27.000Z</time>
      </trkpt>
      <trkpt lat="47.32219" lon="-2.45026">
        <ele>18.39999961853</ele>
        <time>2022-06-30T08:08:28.000Z</time>
      </trkpt>
      <trkpt lat="47.32217" lon="-2.4503">
        <ele>17.60000038147</ele>
        <time>2022-06-30T08:08:29.000Z</time>
      </trkpt>
      <trkpt lat="47.32216" lon="-2.45035">
        <ele>16.799999237061</ele>
        <time>2022-06-30T08:08:30.000Z</time>
      </trkpt>
      <trkpt lat="47.32217" lon="-2.4504">
        <ele>15.800000190735</ele>
        <time>2022-06-30T08:08:31.000Z</time>
      </trkpt>
      <trkpt lat="47.32219" lon="-2.45045">
        <ele>15</ele>
        <time>2022-06-30T08:08:32.000Z</time>
      </trkpt>
      <trkpt lat="47.32222" lon="-2.45051">
        <ele>15</ele>
        <time>2022-06-30T08:08:33.000Z</time>
      </trkpt>
      <trkpt lat="47.32225" lon="-2.45056">
        <ele>15</ele>
        <time>2022-06-30T08:08:34.000Z</time>
      </trkpt>
      <trkpt lat="47.32241" lon="-2.45092">
        <ele>15</ele>
        <time>2022-06-30T08:08:40.000Z</time>
      </trkpt>
      <trkpt lat="47.32262" lon="-2.4515">
        <ele>14.60000038147</ele>
        <time>2022-06-30T08:08:48.000Z</time>
      </trkpt>
      <trkpt lat="47.32264" lon="-2.45159">
        <ele>14.199999809265</ele>
        <time>2022-06-30T08:08:49.000Z</time>
      </trkpt>
      <trkpt lat="47.32266" lon="-2.45167">
        <ele>13.800000190735</ele>
        <time>2022-06-30T08:08:50.000Z</time>
      </trkpt>
      <trkpt lat="47.32268" lon="-2.45175">
        <ele>13.39999961853</ele>
        <time>2022-06-30T08:08:51.000Z</time>
      </trkpt>
      <trkpt lat="47.3227" lon="-2.45184">
        <ele>13</ele>
        <time>2022-06-30T08:08:52.000Z</time>
      </trkpt>
      <trkpt lat="47.32273" lon="-2.45193">
        <ele>13</ele>
        <time>2022-06-30T08:08:53.000Z</time>
      </trkpt>
      <trkpt lat="47.32277" lon="-2.45202">
        <ele>12.39999961853</ele>
        <time>2022-06-30T08:08:54.000Z</time>
      </trkpt>
      <trkpt lat="47.32281" lon="-2.45211">
        <ele>11.800000190735</ele>
        <time>2022-06-30T08:08:55.000Z</time>
      </trkpt>
      <trkpt lat="47.32285" lon="-2.4522">
        <ele>11.39999961853</ele>
        <time>2022-06-30T08:08:56.000Z</time>
      </trkpt>
      <trkpt lat="47.32289" lon="-2.45228">
        <ele>10.800000190735</ele>
        <time>2022-06-30T08:08:57.000Z</time>
      </trkpt>
      <trkpt lat="47.32293" lon="-2.45236">
        <ele>10.199999809265</ele>
        <time>2022-06-30T08:08:58.000Z</time>
      </trkpt>
      <trkpt lat="47.32299" lon="-2.4525">
        <ele>10.199999809265</ele>
        <time>2022-06-30T08:09:00.000Z</time>
      </trkpt>
      <trkpt lat="47.32309" lon="-2.45279">
        <ele>10.199999809265</ele>
        <time>2022-06-30T08:09:05.000Z</time>
      </trkpt>
      <trkpt lat="47.32319" lon="-2.45319">
        <ele>10.800000190735</ele>
        <time>2022-06-30T08:09:12.000Z</time>
      </trkpt>
      <trkpt lat="47.32319" lon="-2.45324">
        <ele>11.199999809265</ele>
        <time>2022-06-30T08:09:13.000Z</time>
      </trkpt>
      <trkpt lat="47.32319" lon="-2.4533">
        <ele>11.60000038147</ele>
        <time>2022-06-30T08:09:14.000Z</time>
      </trkpt>
      <trkpt lat="47.32319" lon="-2.45336">
        <ele>12</ele>
        <time>2022-06-30T08:09:15.000Z</time>
      </trkpt>
      <trkpt lat="47.32319" lon="-2.45342">
        <ele>12.39999961853</ele>
        <time>2022-06-30T08:09:16.000Z</time>
      </trkpt>
      <trkpt lat="47.32319" lon="-2.45365">
        <ele>12.39999961853</ele>
        <time>2022-06-30T08:09:19.000Z</time>
      </trkpt>
      <trkpt lat="47.32321" lon="-2.45381">
        <ele>11.800000190735</ele>
        <time>2022-06-30T08:09:21.000Z</time>
      </trkpt>
      <trkpt lat="47.32321" lon="-2.45388">
        <ele>11.39999961853</ele>
        <time>2022-06-30T08:09:22.000Z</time>
      </trkpt>
      <trkpt lat="47.32321" lon="-2.45394">
        <ele>11</ele>
        <time>2022-06-30T08:09:23.000Z</time>
      </trkpt>
      <trkpt lat="47.32319" lon="-2.454">
        <ele>10.60000038147</ele>
        <time>2022-06-30T08:09:24.000Z</time>
      </trkpt>
      <trkpt lat="47.32317" lon="-2.45408">
        <ele>10.199999809265</ele>
        <time>2022-06-30T08:09:25.000Z</time>
      </trkpt>
      <trkpt lat="47.32316" lon="-2.45415">
        <ele>9.8000001907349</ele>
        <time>2022-06-30T08:09:26.000Z</time>
      </trkpt>
      <trkpt lat="47.32318" lon="-2.45423">
        <ele>9.3999996185303</ele>
        <time>2022-06-30T08:09:27.000Z</time>
      </trkpt>
      <trkpt lat="47.32321" lon="-2.45429">
        <ele>8.8000001907349</ele>
        <time>2022-06-30T08:09:28.000Z</time>
      </trkpt>
      <trkpt lat="47.32324" lon="-2.45435">
        <ele>8.3999996185303</ele>
        <time>2022-06-30T08:09:29.000Z</time>
      </trkpt>
      <trkpt lat="47.32328" lon="-2.45441">
        <ele>8</ele>
        <time>2022-06-30T08:09:30.000Z</time>
      </trkpt>
      <trkpt lat="47.32334" lon="-2.45452">
        <ele>8</ele>
        <time>2022-06-30T08:09:32.000Z</time>
      </trkpt>
      <trkpt lat="47.32356" lon="-2.45487">
        <ele>8</ele>
        <time>2022-06-30T08:09:38.000Z</time>
      </trkpt>
      <trkpt lat="47.32376" lon="-2.45521">
        <ele>8</ele>
        <time>2022-06-30T08:09:44.000Z</time>
      </trkpt>
      <trkpt lat="47.3238" lon="-2.45526">
        <ele>8</ele>
        <time>2022-06-30T08:09:45.000Z</time>
      </trkpt>
      <trkpt lat="47.32383" lon="-2.45531">
        <ele>8</ele>
        <time>2022-06-30T08:09:46.000Z</time>
      </trkpt>
      <trkpt lat="47.32394" lon="-2.45554">
        <ele>8</ele>
        <time>2022-06-30T08:09:50.000Z</time>
      </trkpt>
      <trkpt lat="47.324" lon="-2.45563">
        <ele>8</ele>
        <time>2022-06-30T08:09:52.000Z</time>
      </trkpt>
      <trkpt lat="47.32407" lon="-2.45571">
        <ele>8</ele>
        <time>2022-06-30T08:09:54.000Z</time>
      </trkpt>
      <trkpt lat="47.32415" lon="-2.45596">
        <ele>8</ele>
        <time>2022-06-30T08:09:58.000Z</time>
      </trkpt>
      <trkpt lat="47.3242" lon="-2.4561">
        <ele>8</ele>
        <time>2022-06-30T08:10:00.000Z</time>
      </trkpt>
      <trkpt lat="47.32433" lon="-2.45637">
        <ele>8</ele>
        <time>2022-06-30T08:10:04.000Z</time>
      </trkpt>
      <trkpt lat="47.32458" lon="-2.45676">
        <ele>8</ele>
        <time>2022-06-30T08:10:10.000Z</time>
      </trkpt>
      <trkpt lat="47.32486" lon="-2.45724">
        <ele>8</ele>
        <time>2022-06-30T08:10:17.000Z</time>
      </trkpt>
      <trkpt lat="47.32489" lon="-2.45731">
        <ele>8</ele>
        <time>2022-06-30T08:10:18.000Z</time>
      </trkpt>
      <trkpt lat="47.32512" lon="-2.45771">
        <ele>8</ele>
        <time>2022-06-30T08:10:24.000Z</time>
      </trkpt>
      <trkpt lat="47.32537" lon="-2.45813">
        <ele>8</ele>
        <time>2022-06-30T08:10:31.000Z</time>
      </trkpt>
      <trkpt lat="47.32545" lon="-2.45823">
        <ele>8</ele>
        <time>2022-06-30T08:10:33.000Z</time>
      </trkpt>
      <trkpt lat="47.32553" lon="-2.45834">
        <ele>8</ele>
        <time>2022-06-30T08:10:35.000Z</time>
      </trkpt>
      <trkpt lat="47.32557" lon="-2.4584">
        <ele>8</ele>
        <time>2022-06-30T08:10:36.000Z</time>
      </trkpt>
      <trkpt lat="47.32574" lon="-2.45871">
        <ele>8</ele>
        <time>2022-06-30T08:10:41.000Z</time>
      </trkpt>
      <trkpt lat="47.32578" lon="-2.45877">
        <ele>8</ele>
        <time>2022-06-30T08:10:42.000Z</time>
      </trkpt>
      <trkpt lat="47.32606" lon="-2.45912">
        <ele>8</ele>
        <time>2022-06-30T08:10:49.000Z</time>
      </trkpt>
      <trkpt lat="47.32629" lon="-2.45951">
        <ele>8</ele>
        <time>2022-06-30T08:10:56.000Z</time>
      </trkpt>
      <trkpt lat="47.32637" lon="-2.45962">
        <ele>8</ele>
        <time>2022-06-30T08:10:58.000Z</time>
      </trkpt>
      <trkpt lat="47.32647" lon="-2.45971">
        <ele>8</ele>
        <time>2022-06-30T08:11:00.000Z</time>
      </trkpt>
      <trkpt lat="47.32667" lon="-2.45989">
        <ele>8</ele>
        <time>2022-06-30T08:11:05.000Z</time>
      </trkpt>
      <trkpt lat="47.32678" lon="-2.46004">
        <ele>8</ele>
        <time>2022-06-30T08:11:09.000Z</time>
      </trkpt>
      <trkpt lat="47.32684" lon="-2.46011">
        <ele>8</ele>
        <time>2022-06-30T08:11:11.000Z</time>
      </trkpt>
      <trkpt lat="47.32703" lon="-2.46041">
        <ele>8</ele>
        <time>2022-06-30T08:11:19.000Z</time>
      </trkpt>
      <trkpt lat="47.32708" lon="-2.46045">
        <ele>8</ele>
        <time>2022-06-30T08:11:21.000Z</time>
      </trkpt>
      <trkpt lat="47.32715" lon="-2.4605">
        <ele>8</ele>
        <time>2022-06-30T08:11:24.000Z</time>
      </trkpt>
      <trkpt lat="47.32717" lon="-2.46053">
        <ele>8</ele>
        <time>2022-06-30T08:11:25.000Z</time>
      </trkpt>
      <trkpt lat="47.32726" lon="-2.46064">
        <ele>8</ele>
        <time>2022-06-30T08:11:30.000Z</time>
      </trkpt>
      <trkpt lat="47.32728" lon="-2.46067">
        <ele>8.6000003814697</ele>
        <time>2022-06-30T08:11:31.000Z</time>
      </trkpt>
      <trkpt lat="47.3273" lon="-2.46069">
        <ele>9</ele>
        <time>2022-06-30T08:11:32.000Z</time>
      </trkpt>
      <trkpt lat="47.32733" lon="-2.46072">
        <ele>9.3999996185303</ele>
        <time>2022-06-30T08:11:33.000Z</time>
      </trkpt>
      <trkpt lat="47.32735" lon="-2.46075">
        <ele>9.8000001907349</ele>
        <time>2022-06-30T08:11:34.000Z</time>
      </trkpt>
      <trkpt lat="47.32738" lon="-2.46078">
        <ele>10.199999809265</ele>
        <time>2022-06-30T08:11:35.000Z</time>
      </trkpt>
      <trkpt lat="47.32741" lon="-2.46081">
        <ele>10.199999809265</ele>
        <time>2022-06-30T08:11:36.000Z</time>
      </trkpt>
      <trkpt lat="47.32753" lon="-2.46102">
        <ele>10.199999809265</ele>
        <time>2022-06-30T08:11:42.000Z</time>
      </trkpt>
      <trkpt lat="47.32759" lon="-2.46121">
        <ele>10.60000038147</ele>
        <time>2022-06-30T08:11:47.000Z</time>
      </trkpt>
      <trkpt lat="47.3276" lon="-2.46125">
        <ele>11</ele>
        <time>2022-06-30T08:11:48.000Z</time>
      </trkpt>
      <trkpt lat="47.32761" lon="-2.46129">
        <ele>11.39999961853</ele>
        <time>2022-06-30T08:11:49.000Z</time>
      </trkpt>
      <trkpt lat="47.32764" lon="-2.46135">
        <ele>11.800000190735</ele>
        <time>2022-06-30T08:11:50.000Z</time>
      </trkpt>
      <trkpt lat="47.32766" lon="-2.4614">
        <ele>12.199999809265</ele>
        <time>2022-06-30T08:11:51.000Z</time>
      </trkpt>
      <trkpt lat="47.3277" lon="-2.4615">
        <ele>12.199999809265</ele>
        <time>2022-06-30T08:11:53.000Z</time>
      </trkpt>
      <trkpt lat="47.32784" lon="-2.46168">
        <ele>12.199999809265</ele>
        <time>2022-06-30T08:11:58.000Z</time>
      </trkpt>
      <trkpt lat="47.32787" lon="-2.4617">
        <ele>12.60000038147</ele>
        <time>2022-06-30T08:11:59.000Z</time>
      </trkpt>
      <trkpt lat="47.32789" lon="-2.46173">
        <ele>13.39999961853</ele>
        <time>2022-06-30T08:12:00.000Z</time>
      </trkpt>
      <trkpt lat="47.32792" lon="-2.46174">
        <ele>14</ele>
        <time>2022-06-30T08:12:01.000Z</time>
      </trkpt>
      <trkpt lat="47.32794" lon="-2.46176">
        <ele>14.39999961853</ele>
        <time>2022-06-30T08:12:02.000Z</time>
      </trkpt>
      <trkpt lat="47.32799" lon="-2.46181">
        <ele>14.39999961853</ele>
        <time>2022-06-30T08:12:04.000Z</time>
      </trkpt>
      <trkpt lat="47.32821" lon="-2.46194">
        <ele>14.39999961853</ele>
        <time>2022-06-30T08:12:10.000Z</time>
      </trkpt>
      <trkpt lat="47.3284" lon="-2.46184">
        <ele>14.800000190735</ele>
        <time>2022-06-30T08:12:15.000Z</time>
      </trkpt>
      <trkpt lat="47.32843" lon="-2.46181">
        <ele>15.199999809265</ele>
        <time>2022-06-30T08:12:16.000Z</time>
      </trkpt>
      <trkpt lat="47.32847" lon="-2.46178">
        <ele>15.60000038147</ele>
        <time>2022-06-30T08:12:17.000Z</time>
      </trkpt>
      <trkpt lat="47.3285" lon="-2.46176">
        <ele>16</ele>
        <time>2022-06-30T08:12:18.000Z</time>
      </trkpt>
      <trkpt lat="47.32854" lon="-2.46173">
        <ele>16.39999961853</ele>
        <time>2022-06-30T08:12:19.000Z</time>
      </trkpt>
      <trkpt lat="47.32861" lon="-2.46169">
        <ele>16.799999237061</ele>
        <time>2022-06-30T08:12:21.000Z</time>
      </trkpt>
      <trkpt lat="47.32864" lon="-2.46167">
        <ele>17.200000762939</ele>
        <time>2022-06-30T08:12:22.000Z</time>
      </trkpt>
      <trkpt lat="47.32867" lon="-2.46165">
        <ele>17.60000038147</ele>
        <time>2022-06-30T08:12:23.000Z</time>
      </trkpt>
      <trkpt lat="47.32871" lon="-2.46163">
        <ele>18</ele>
        <time>2022-06-30T08:12:24.000Z</time>
      </trkpt>
      <trkpt lat="47.32874" lon="-2.46161">
        <ele>18.39999961853</ele>
        <time>2022-06-30T08:12:25.000Z</time>
      </trkpt>
      <trkpt lat="47.32877" lon="-2.4616">
        <ele>18.799999237061</ele>
        <time>2022-06-30T08:12:26.000Z</time>
      </trkpt>
      <trkpt lat="47.3288" lon="-2.46158">
        <ele>19.200000762939</ele>
        <time>2022-06-30T08:12:27.000Z</time>
      </trkpt>
      <trkpt lat="47.32883" lon="-2.46156">
        <ele>19.799999237061</ele>
        <time>2022-06-30T08:12:28.000Z</time>
      </trkpt>
      <trkpt lat="47.32886" lon="-2.46155">
        <ele>20.200000762939</ele>
        <time>2022-06-30T08:12:29.000Z</time>
      </trkpt>
      <trkpt lat="47.32889" lon="-2.46154">
        <ele>20.60000038147</ele>
        <time>2022-06-30T08:12:30.000Z</time>
      </trkpt>
      <trkpt lat="47.32897" lon="-2.4615">
        <ele>20.60000038147</ele>
        <time>2022-06-30T08:12:35.000Z</time>
      </trkpt>
      <trkpt lat="47.32903" lon="-2.46155">
        <ele>20.60000038147</ele>
        <time>2022-06-30T08:12:40.000Z</time>
      </trkpt>
      <trkpt lat="47.32905" lon="-2.46159">
        <ele>20.60000038147</ele>
        <time>2022-06-30T08:12:41.000Z</time>
      </trkpt>
      <trkpt lat="47.32916" lon="-2.4619">
        <ele>20.60000038147</ele>
        <time>2022-06-30T08:12:47.000Z</time>
      </trkpt>
      <trkpt lat="47.32927" lon="-2.46231">
        <ele>20.60000038147</ele>
        <time>2022-06-30T08:12:54.000Z</time>
      </trkpt>
      <trkpt lat="47.32938" lon="-2.46273">
        <ele>20.60000038147</ele>
        <time>2022-06-30T08:13:01.000Z</time>
      </trkpt>
      <trkpt lat="47.3295" lon="-2.46316">
        <ele>20.60000038147</ele>
        <time>2022-06-30T08:13:08.000Z</time>
      </trkpt>
      <trkpt lat="47.32962" lon="-2.4636">
        <ele>20.60000038147</ele>
        <time>2022-06-30T08:13:13.000Z</time>
      </trkpt>
      <trkpt lat="47.32964" lon="-2.46371">
        <ele>20</ele>
        <time>2022-06-30T08:13:14.000Z</time>
      </trkpt>
      <trkpt lat="47.32965" lon="-2.46382">
        <ele>19.60000038147</ele>
        <time>2022-06-30T08:13:15.000Z</time>
      </trkpt>
      <trkpt lat="47.32966" lon="-2.46395">
        <ele>19</ele>
        <time>2022-06-30T08:13:16.000Z</time>
      </trkpt>
      <trkpt lat="47.32966" lon="-2.46408">
        <ele>18.39999961853</ele>
        <time>2022-06-30T08:13:17.000Z</time>
      </trkpt>
      <trkpt lat="47.32967" lon="-2.46422">
        <ele>17.799999237061</ele>
        <time>2022-06-30T08:13:18.000Z</time>
      </trkpt>
      <trkpt lat="47.32967" lon="-2.46436">
        <ele>17.200000762939</ele>
        <time>2022-06-30T08:13:19.000Z</time>
      </trkpt>
      <trkpt lat="47.32967" lon="-2.46451">
        <ele>16.39999961853</ele>
        <time>2022-06-30T08:13:20.000Z</time>
      </trkpt>
      <trkpt lat="47.32967" lon="-2.46466">
        <ele>15.60000038147</ele>
        <time>2022-06-30T08:13:21.000Z</time>
      </trkpt>
      <trkpt lat="47.32967" lon="-2.46482">
        <ele>14.800000190735</ele>
        <time>2022-06-30T08:13:22.000Z</time>
      </trkpt>
      <trkpt lat="47.32966" lon="-2.46499">
        <ele>14</ele>
        <time>2022-06-30T08:13:23.000Z</time>
      </trkpt>
      <trkpt lat="47.32964" lon="-2.46515">
        <ele>13.199999809265</ele>
        <time>2022-06-30T08:13:24.000Z</time>
      </trkpt>
      <trkpt lat="47.32963" lon="-2.4653">
        <ele>12.60000038147</ele>
        <time>2022-06-30T08:13:25.000Z</time>
      </trkpt>
      <trkpt lat="47.32962" lon="-2.46542">
        <ele>11.800000190735</ele>
        <time>2022-06-30T08:13:26.000Z</time>
      </trkpt>
      <trkpt lat="47.32962" lon="-2.46552">
        <ele>11</ele>
        <time>2022-06-30T08:13:27.000Z</time>
      </trkpt>
      <trkpt lat="47.32963" lon="-2.4656">
        <ele>10.199999809265</ele>
        <time>2022-06-30T08:13:28.000Z</time>
      </trkpt>
      <trkpt lat="47.32966" lon="-2.46564">
        <ele>9.3999996185303</ele>
        <time>2022-06-30T08:13:29.000Z</time>
      </trkpt>
      <trkpt lat="47.3297" lon="-2.46565">
        <ele>8.6000003814697</ele>
        <time>2022-06-30T08:13:30.000Z</time>
      </trkpt>
      <trkpt lat="47.32977" lon="-2.46561">
        <ele>8.6000003814697</ele>
        <time>2022-06-30T08:13:32.000Z</time>
      </trkpt>
      <trkpt lat="47.32981" lon="-2.46559">
        <ele>8.6000003814697</ele>
        <time>2022-06-30T08:13:33.000Z</time>
      </trkpt>
      <trkpt lat="47.32998" lon="-2.4655">
        <ele>8.6000003814697</ele>
        <time>2022-06-30T08:13:38.000Z</time>
      </trkpt>
      <trkpt lat="47.33002" lon="-2.46548">
        <ele>9.3999996185303</ele>
        <time>2022-06-30T08:13:39.000Z</time>
      </trkpt>
      <trkpt lat="47.33005" lon="-2.46545">
        <ele>10</ele>
        <time>2022-06-30T08:13:40.000Z</time>
      </trkpt>
      <trkpt lat="47.33008" lon="-2.46543">
        <ele>10.39999961853</ele>
        <time>2022-06-30T08:13:41.000Z</time>
      </trkpt>
      <trkpt lat="47.33011" lon="-2.46541">
        <ele>10.800000190735</ele>
        <time>2022-06-30T08:13:42.000Z</time>
      </trkpt>
      <trkpt lat="47.33023" lon="-2.46537">
        <ele>10.800000190735</ele>
        <time>2022-06-30T08:13:45.000Z</time>
      </trkpt>
      <trkpt lat="47.33027" lon="-2.46537">
        <ele>11.199999809265</ele>
        <time>2022-06-30T08:13:46.000Z</time>
      </trkpt>
      <trkpt lat="47.33031" lon="-2.46536">
        <ele>11.800000190735</ele>
        <time>2022-06-30T08:13:47.000Z</time>
      </trkpt>
      <trkpt lat="47.33036" lon="-2.46536">
        <ele>12.199999809265</ele>
        <time>2022-06-30T08:13:48.000Z</time>
      </trkpt>
      <trkpt lat="47.3304" lon="-2.46535">
        <ele>12.60000038147</ele>
        <time>2022-06-30T08:13:49.000Z</time>
      </trkpt>
      <trkpt lat="47.33044" lon="-2.46534">
        <ele>13</ele>
        <time>2022-06-30T08:13:50.000Z</time>
      </trkpt>
      <trkpt lat="47.33052" lon="-2.46532">
        <ele>13</ele>
        <time>2022-06-30T08:13:52.000Z</time>
      </trkpt>
      <trkpt lat="47.33075" lon="-2.46523">
        <ele>13</ele>
        <time>2022-06-30T08:13:58.000Z</time>
      </trkpt>
      <trkpt lat="47.33078" lon="-2.46521">
        <ele>13.39999961853</ele>
        <time>2022-06-30T08:13:59.000Z</time>
      </trkpt>
      <trkpt lat="47.33081" lon="-2.4652">
        <ele>13.800000190735</ele>
        <time>2022-06-30T08:14:00.000Z</time>
      </trkpt>
      <trkpt lat="47.33085" lon="-2.46519">
        <ele>14.199999809265</ele>
        <time>2022-06-30T08:14:01.000Z</time>
      </trkpt>
      <trkpt lat="47.33088" lon="-2.46518">
        <ele>14.60000038147</ele>
        <time>2022-06-30T08:14:02.000Z</time>
      </trkpt>
      <trkpt lat="47.33091" lon="-2.46517">
        <ele>15</ele>
        <time>2022-06-30T08:14:03.000Z</time>
      </trkpt>
      <trkpt lat="47.33094" lon="-2.46515">
        <ele>15</ele>
        <time>2022-06-30T08:14:04.000Z</time>
      </trkpt>
      <trkpt lat="47.33097" lon="-2.46514">
        <ele>15.39999961853</ele>
        <time>2022-06-30T08:14:05.000Z</time>
      </trkpt>
      <trkpt lat="47.33099" lon="-2.46512">
        <ele>16</ele>
        <time>2022-06-30T08:14:06.000Z</time>
      </trkpt>
      <trkpt lat="47.33102" lon="-2.46511">
        <ele>16.39999961853</ele>
        <time>2022-06-30T08:14:07.000Z</time>
      </trkpt>
      <trkpt lat="47.33105" lon="-2.46509">
        <ele>16.799999237061</ele>
        <time>2022-06-30T08:14:08.000Z</time>
      </trkpt>
      <trkpt lat="47.33108" lon="-2.46508">
        <ele>17.200000762939</ele>
        <time>2022-06-30T08:14:09.000Z</time>
      </trkpt>
      <trkpt lat="47.33115" lon="-2.46503">
        <ele>17.200000762939</ele>
        <time>2022-06-30T08:14:12.000Z</time>
      </trkpt>
      <trkpt lat="47.33121" lon="-2.465">
        <ele>17.60000038147</ele>
        <time>2022-06-30T08:14:14.000Z</time>
      </trkpt>
      <trkpt lat="47.33123" lon="-2.46499">
        <ele>18</ele>
        <time>2022-06-30T08:14:15.000Z</time>
      </trkpt>
      <trkpt lat="47.33127" lon="-2.46499">
        <ele>18.60000038147</ele>
        <time>2022-06-30T08:14:16.000Z</time>
      </trkpt>
      <trkpt lat="47.33129" lon="-2.46497">
        <ele>19</ele>
        <time>2022-06-30T08:14:17.000Z</time>
      </trkpt>
      <trkpt lat="47.33132" lon="-2.46497">
        <ele>19.39999961853</ele>
        <time>2022-06-30T08:14:18.000Z</time>
      </trkpt>
      <trkpt lat="47.3315" lon="-2.46494">
        <ele>19.39999961853</ele>
        <time>2022-06-30T08:14:24.000Z</time>
      </trkpt>
      <trkpt lat="47.33163" lon="-2.46491">
        <ele>20.200000762939</ele>
        <time>2022-06-30T08:14:28.000Z</time>
      </trkpt>
      <trkpt lat="47.33166" lon="-2.4649">
        <ele>20.60000038147</ele>
        <time>2022-06-30T08:14:29.000Z</time>
      </trkpt>
      <trkpt lat="47.33169" lon="-2.46489">
        <ele>21</ele>
        <time>2022-06-30T08:14:30.000Z</time>
      </trkpt>
      <trkpt lat="47.33171" lon="-2.46487">
        <ele>21.39999961853</ele>
        <time>2022-06-30T08:14:31.000Z</time>
      </trkpt>
      <trkpt lat="47.33183" lon="-2.46481">
        <ele>21.39999961853</ele>
        <time>2022-06-30T08:14:36.000Z</time>
      </trkpt>
      <trkpt lat="47.33189" lon="-2.46479">
        <ele>21.799999237061</ele>
        <time>2022-06-30T08:14:38.000Z</time>
      </trkpt>
      <trkpt lat="47.33191" lon="-2.46478">
        <ele>22.200000762939</ele>
        <time>2022-06-30T08:14:39.000Z</time>
      </trkpt>
      <trkpt lat="47.33193" lon="-2.46477">
        <ele>22.60000038147</ele>
        <time>2022-06-30T08:14:40.000Z</time>
      </trkpt>
      <trkpt lat="47.33195" lon="-2.46476">
        <ele>23</ele>
        <time>2022-06-30T08:14:41.000Z</time>
      </trkpt>
      <trkpt lat="47.33197" lon="-2.46476">
        <ele>23.60000038147</ele>
        <time>2022-06-30T08:14:42.000Z</time>
      </trkpt>
      <trkpt lat="47.33208" lon="-2.46475">
        <ele>24</ele>
        <time>2022-06-30T08:14:47.000Z</time>
      </trkpt>
      <trkpt lat="47.33211" lon="-2.46474">
        <ele>24.39999961853</ele>
        <time>2022-06-30T08:14:48.000Z</time>
      </trkpt>
      <trkpt lat="47.33213" lon="-2.46473">
        <ele>24.799999237061</ele>
        <time>2022-06-30T08:14:49.000Z</time>
      </trkpt>
      <trkpt lat="47.33215" lon="-2.46473">
        <ele>25.200000762939</ele>
        <time>2022-06-30T08:14:50.000Z</time>
      </trkpt>
      <trkpt lat="47.33217" lon="-2.46473">
        <ele>25.60000038147</ele>
        <time>2022-06-30T08:14:51.000Z</time>
      </trkpt>
      <trkpt lat="47.33222" lon="-2.46469">
        <ele>26</ele>
        <time>2022-06-30T08:14:53.000Z</time>
      </trkpt>
      <trkpt lat="47.33224" lon="-2.46467">
        <ele>26.39999961853</ele>
        <time>2022-06-30T08:14:54.000Z</time>
      </trkpt>
      <trkpt lat="47.33226" lon="-2.46465">
        <ele>26.799999237061</ele>
        <time>2022-06-30T08:14:55.000Z</time>
      </trkpt>
      <trkpt lat="47.33227" lon="-2.46462">
        <ele>27.200000762939</ele>
        <time>2022-06-30T08:14:56.000Z</time>
      </trkpt>
      <trkpt lat="47.33229" lon="-2.46459">
        <ele>27.60000038147</ele>
        <time>2022-06-30T08:14:57.000Z</time>
      </trkpt>
      <trkpt lat="47.33236" lon="-2.46447">
        <ele>27.60000038147</ele>
        <time>2022-06-30T08:15:01.000Z</time>
      </trkpt>
      <trkpt lat="47.33241" lon="-2.46439">
        <ele>28</ele>
        <time>2022-06-30T08:15:04.000Z</time>
      </trkpt>
      <trkpt lat="47.33243" lon="-2.46437">
        <ele>28.39999961853</ele>
        <time>2022-06-30T08:15:05.000Z</time>
      </trkpt>
      <trkpt lat="47.33244" lon="-2.46435">
        <ele>29</ele>
        <time>2022-06-30T08:15:06.000Z</time>
      </trkpt>
      <trkpt lat="47.33246" lon="-2.46433">
        <ele>29.39999961853</ele>
        <time>2022-06-30T08:15:07.000Z</time>
      </trkpt>
      <trkpt lat="47.33248" lon="-2.46432">
        <ele>29.799999237061</ele>
        <time>2022-06-30T08:15:08.000Z</time>
      </trkpt>
      <trkpt lat="47.3326" lon="-2.46431">
        <ele>29.799999237061</ele>
        <time>2022-06-30T08:15:13.000Z</time>
      </trkpt>
      <trkpt lat="47.33273" lon="-2.46437">
        <ele>29.799999237061</ele>
        <time>2022-06-30T08:15:19.000Z</time>
      </trkpt>
      <trkpt lat="47.33278" lon="-2.46446">
        <ele>29.799999237061</ele>
        <time>2022-06-30T08:15:24.000Z</time>
      </trkpt>
      <trkpt lat="47.33279" lon="-2.46447">
        <ele>29.799999237061</ele>
        <time>2022-06-30T08:15:26.000Z</time>
      </trkpt>
      <trkpt lat="47.33284" lon="-2.46446">
        <ele>29.799999237061</ele>
        <time>2022-06-30T08:15:52.000Z</time>
      </trkpt>
      <trkpt lat="47.33285" lon="-2.46446">
        <ele>29.799999237061</ele>
        <time>2022-06-30T08:15:53.000Z</time>
      </trkpt>
      <trkpt lat="47.33285" lon="-2.46448">
        <ele>29.799999237061</ele>
        <time>2022-06-30T08:15:55.000Z</time>
      </trkpt>
      <trkpt lat="47.33286" lon="-2.46452">
        <ele>29.799999237061</ele>
        <time>2022-06-30T08:16:14.000Z</time>
      </trkpt>
      <trkpt lat="47.33286" lon="-2.46454">
        <ele>29.799999237061</ele>
        <time>2022-06-30T08:16:15.000Z</time>
      </trkpt>
      <trkpt lat="47.33286" lon="-2.46474">
        <ele>29.799999237061</ele>
        <time>2022-06-30T08:16:20.000Z</time>
      </trkpt>
      <trkpt lat="47.33286" lon="-2.46493">
        <ele>29.799999237061</ele>
        <time>2022-06-30T08:16:23.000Z</time>
      </trkpt>
      <trkpt lat="47.33288" lon="-2.46509">
        <ele>29.799999237061</ele>
        <time>2022-06-30T08:16:25.000Z</time>
      </trkpt>
      <trkpt lat="47.33295" lon="-2.46563">
        <ele>29.799999237061</ele>
        <time>2022-06-30T08:16:31.000Z</time>
      </trkpt>
      <trkpt lat="47.33301" lon="-2.46588">
        <ele>29.799999237061</ele>
        <time>2022-06-30T08:16:34.000Z</time>
      </trkpt>
      <trkpt lat="47.33308" lon="-2.46601">
        <ele>29.799999237061</ele>
        <time>2022-06-30T08:16:36.000Z</time>
      </trkpt>
      <trkpt lat="47.33312" lon="-2.46607">
        <ele>29.39999961853</ele>
        <time>2022-06-30T08:16:37.000Z</time>
      </trkpt>
      <trkpt lat="47.33316" lon="-2.46612">
        <ele>29</ele>
        <time>2022-06-30T08:16:38.000Z</time>
      </trkpt>
      <trkpt lat="47.3332" lon="-2.46617">
        <ele>28.60000038147</ele>
        <time>2022-06-30T08:16:39.000Z</time>
      </trkpt>
      <trkpt lat="47.33323" lon="-2.46621">
        <ele>28</ele>
        <time>2022-06-30T08:16:40.000Z</time>
      </trkpt>
      <trkpt lat="47.33327" lon="-2.46626">
        <ele>27.60000038147</ele>
        <time>2022-06-30T08:16:41.000Z</time>
      </trkpt>
      <trkpt lat="47.33329" lon="-2.46632">
        <ele>27.60000038147</ele>
        <time>2022-06-30T08:16:42.000Z</time>
      </trkpt>
      <trkpt lat="47.3333" lon="-2.46643">
        <ele>27.60000038147</ele>
        <time>2022-06-30T08:16:44.000Z</time>
      </trkpt>
      <trkpt lat="47.33332" lon="-2.46655">
        <ele>27.60000038147</ele>
        <time>2022-06-30T08:16:48.000Z</time>
      </trkpt>
      <trkpt lat="47.33339" lon="-2.46656">
        <ele>27.60000038147</ele>
        <time>2022-06-30T08:16:51.000Z</time>
      </trkpt>
      <trkpt lat="47.33347" lon="-2.46653">
        <ele>27.60000038147</ele>
        <time>2022-06-30T08:16:54.000Z</time>
      </trkpt>
      <trkpt lat="47.33364" lon="-2.46646">
        <ele>27.60000038147</ele>
        <time>2022-06-30T08:17:01.000Z</time>
      </trkpt>
      <trkpt lat="47.33376" lon="-2.46634">
        <ele>27.60000038147</ele>
        <time>2022-06-30T08:17:06.000Z</time>
      </trkpt>
      <trkpt lat="47.33388" lon="-2.46618">
        <ele>27.60000038147</ele>
        <time>2022-06-30T08:17:12.000Z</time>
      </trkpt>
      <trkpt lat="47.33394" lon="-2.46612">
        <ele>28</ele>
        <time>2022-06-30T08:17:15.000Z</time>
      </trkpt>
      <trkpt lat="47.33396" lon="-2.4661">
        <ele>28.39999961853</ele>
        <time>2022-06-30T08:17:16.000Z</time>
      </trkpt>
      <trkpt lat="47.33398" lon="-2.46608">
        <ele>28.799999237061</ele>
        <time>2022-06-30T08:17:17.000Z</time>
      </trkpt>
      <trkpt lat="47.334" lon="-2.46606">
        <ele>29.200000762939</ele>
        <time>2022-06-30T08:17:18.000Z</time>
      </trkpt>
      <trkpt lat="47.33402" lon="-2.46604">
        <ele>29.60000038147</ele>
        <time>2022-06-30T08:17:19.000Z</time>
      </trkpt>
      <trkpt lat="47.33413" lon="-2.46596">
        <ele>29.60000038147</ele>
        <time>2022-06-30T08:17:25.000Z</time>
      </trkpt>
      <trkpt lat="47.33415" lon="-2.46594">
        <ele>30.200000762939</ele>
        <time>2022-06-30T08:17:26.000Z</time>
      </trkpt>
      <trkpt lat="47.33418" lon="-2.46593">
        <ele>30.60000038147</ele>
        <time>2022-06-30T08:17:27.000Z</time>
      </trkpt>
      <trkpt lat="47.3342" lon="-2.46591">
        <ele>31</ele>
        <time>2022-06-30T08:17:28.000Z</time>
      </trkpt>
      <trkpt lat="47.33423" lon="-2.4659">
        <ele>31.39999961853</ele>
        <time>2022-06-30T08:17:29.000Z</time>
      </trkpt>
      <trkpt lat="47.33426" lon="-2.46588">
        <ele>31.799999237061</ele>
        <time>2022-06-30T08:17:30.000Z</time>
      </trkpt>
      <trkpt lat="47.33428" lon="-2.46586">
        <ele>31.799999237061</ele>
        <time>2022-06-30T08:17:31.000Z</time>
      </trkpt>
      <trkpt lat="47.3344" lon="-2.46579">
        <ele>32.200000762939</ele>
        <time>2022-06-30T08:17:36.000Z</time>
      </trkpt>
      <trkpt lat="47.33442" lon="-2.46577">
        <ele>32.799999237061</ele>
        <time>2022-06-30T08:17:37.000Z</time>
      </trkpt>
      <trkpt lat="47.33443" lon="-2.46575">
        <ele>33.200000762939</ele>
        <time>2022-06-30T08:17:38.000Z</time>
      </trkpt>
      <trkpt lat="47.33446" lon="-2.46573">
        <ele>33.599998474121</ele>
        <time>2022-06-30T08:17:39.000Z</time>
      </trkpt>
      <trkpt lat="47.33447" lon="-2.46571">
        <ele>34</ele>
        <time>2022-06-30T08:17:40.000Z</time>
      </trkpt>
      <trkpt lat="47.3345" lon="-2.46567">
        <ele>34</ele>
        <time>2022-06-30T08:17:42.000Z</time>
      </trkpt>
      <trkpt lat="47.33459" lon="-2.46556">
        <ele>34</ele>
        <time>2022-06-30T08:17:47.000Z</time>
      </trkpt>
      <trkpt lat="47.33461" lon="-2.46554">
        <ele>34.400001525879</ele>
        <time>2022-06-30T08:17:48.000Z</time>
      </trkpt>
      <trkpt lat="47.33463" lon="-2.46552">
        <ele>34.799999237061</ele>
        <time>2022-06-30T08:17:49.000Z</time>
      </trkpt>
      <trkpt lat="47.33465" lon="-2.4655">
        <ele>35.200000762939</ele>
        <time>2022-06-30T08:17:50.000Z</time>
      </trkpt>
      <trkpt lat="47.33467" lon="-2.46549">
        <ele>35.799999237061</ele>
        <time>2022-06-30T08:17:51.000Z</time>
      </trkpt>
      <trkpt lat="47.33469" lon="-2.46546">
        <ele>36.200000762939</ele>
        <time>2022-06-30T08:17:52.000Z</time>
      </trkpt>
      <trkpt lat="47.33471" lon="-2.46544">
        <ele>36.200000762939</ele>
        <time>2022-06-30T08:17:53.000Z</time>
      </trkpt>
      <trkpt lat="47.33484" lon="-2.46528">
        <ele>36.200000762939</ele>
        <time>2022-06-30T08:17:59.000Z</time>
      </trkpt>
      <trkpt lat="47.33497" lon="-2.46511">
        <ele>36.200000762939</ele>
        <time>2022-06-30T08:18:05.000Z</time>
      </trkpt>
      <trkpt lat="47.33506" lon="-2.46503">
        <ele>36.599998474121</ele>
        <time>2022-06-30T08:18:09.000Z</time>
      </trkpt>
      <trkpt lat="47.33509" lon="-2.46501">
        <ele>37.400001525879</ele>
        <time>2022-06-30T08:18:10.000Z</time>
      </trkpt>
      <trkpt lat="47.33511" lon="-2.46499">
        <ele>37.799999237061</ele>
        <time>2022-06-30T08:18:11.000Z</time>
      </trkpt>
      <trkpt lat="47.33513" lon="-2.46496">
        <ele>38.200000762939</ele>
        <time>2022-06-30T08:18:12.000Z</time>
      </trkpt>
      <trkpt lat="47.3352" lon="-2.46491">
        <ele>38.599998474121</ele>
        <time>2022-06-30T08:18:16.000Z</time>
      </trkpt>
      <trkpt lat="47.33522" lon="-2.46491">
        <ele>39</ele>
        <time>2022-06-30T08:18:17.000Z</time>
      </trkpt>
      <trkpt lat="47.33524" lon="-2.46491">
        <ele>39.400001525879</ele>
        <time>2022-06-30T08:18:18.000Z</time>
      </trkpt>
      <trkpt lat="47.33525" lon="-2.46491">
        <ele>39.799999237061</ele>
        <time>2022-06-30T08:18:19.000Z</time>
      </trkpt>
      <trkpt lat="47.33527" lon="-2.46491">
        <ele>40.200000762939</ele>
        <time>2022-06-30T08:18:20.000Z</time>
      </trkpt>
      <trkpt lat="47.3353" lon="-2.46491">
        <ele>40.200000762939</ele>
        <time>2022-06-30T08:18:22.000Z</time>
      </trkpt>
      <trkpt lat="47.33534" lon="-2.4649">
        <ele>40.200000762939</ele>
        <time>2022-06-30T08:18:26.000Z</time>
      </trkpt>
      <trkpt lat="47.33535" lon="-2.46493">
        <ele>40.200000762939</ele>
        <time>2022-06-30T08:18:36.000Z</time>
      </trkpt>
      <trkpt lat="47.33536" lon="-2.46495">
        <ele>40.200000762939</ele>
        <time>2022-06-30T08:18:37.000Z</time>
      </trkpt>
      <trkpt lat="47.3354" lon="-2.46515">
        <ele>40.200000762939</ele>
        <time>2022-06-30T08:18:40.000Z</time>
      </trkpt>
      <trkpt lat="47.33544" lon="-2.46537">
        <ele>40.200000762939</ele>
        <time>2022-06-30T08:18:43.000Z</time>
      </trkpt>
      <trkpt lat="47.33546" lon="-2.4655">
        <ele>40.200000762939</ele>
        <time>2022-06-30T08:18:45.000Z</time>
      </trkpt>
      <trkpt lat="47.33548" lon="-2.46557">
        <ele>39.799999237061</ele>
        <time>2022-06-30T08:18:46.000Z</time>
      </trkpt>
      <trkpt lat="47.33549" lon="-2.46564">
        <ele>39.400001525879</ele>
        <time>2022-06-30T08:18:47.000Z</time>
      </trkpt>
      <trkpt lat="47.33551" lon="-2.46571">
        <ele>39</ele>
        <time>2022-06-30T08:18:48.000Z</time>
      </trkpt>
      <trkpt lat="47.33552" lon="-2.46577">
        <ele>38.599998474121</ele>
        <time>2022-06-30T08:18:49.000Z</time>
      </trkpt>
      <trkpt lat="47.33554" lon="-2.46582">
        <ele>38.200000762939</ele>
        <time>2022-06-30T08:18:50.000Z</time>
      </trkpt>
      <trkpt lat="47.33558" lon="-2.46586">
        <ele>38.200000762939</ele>
        <time>2022-06-30T08:18:51.000Z</time>
      </trkpt>
      <trkpt lat="47.33565" lon="-2.46591">
        <ele>38.200000762939</ele>
        <time>2022-06-30T08:18:53.000Z</time>
      </trkpt>
      <trkpt lat="47.3357" lon="-2.46602">
        <ele>38.200000762939</ele>
        <time>2022-06-30T08:18:55.000Z</time>
      </trkpt>
      <trkpt lat="47.33572" lon="-2.46608">
        <ele>38.200000762939</ele>
        <time>2022-06-30T08:18:56.000Z</time>
      </trkpt>
      <trkpt lat="47.33587" lon="-2.46649">
        <ele>38.200000762939</ele>
        <time>2022-06-30T08:19:02.000Z</time>
      </trkpt>
      <trkpt lat="47.33608" lon="-2.467">
        <ele>38.200000762939</ele>
        <time>2022-06-30T08:19:09.000Z</time>
      </trkpt>
      <trkpt lat="47.33624" lon="-2.46746">
        <ele>38.200000762939</ele>
        <time>2022-06-30T08:19:16.000Z</time>
      </trkpt>
      <trkpt lat="47.33625" lon="-2.46753">
        <ele>38.200000762939</ele>
        <time>2022-06-30T08:19:17.000Z</time>
      </trkpt>
      <trkpt lat="47.33637" lon="-2.46779">
        <ele>38.200000762939</ele>
        <time>2022-06-30T08:19:21.000Z</time>
      </trkpt>
      <trkpt lat="47.33655" lon="-2.4681">
        <ele>38.200000762939</ele>
        <time>2022-06-30T08:19:26.000Z</time>
      </trkpt>
      <trkpt lat="47.33661" lon="-2.46814">
        <ele>38.200000762939</ele>
        <time>2022-06-30T08:19:27.000Z</time>
      </trkpt>
      <trkpt lat="47.33679" lon="-2.4682">
        <ele>38.200000762939</ele>
        <time>2022-06-30T08:19:31.000Z</time>
      </trkpt>
      <trkpt lat="47.33694" lon="-2.46832">
        <ele>38.200000762939</ele>
        <time>2022-06-30T08:19:35.000Z</time>
      </trkpt>
      <trkpt lat="47.33703" lon="-2.46848">
        <ele>38.200000762939</ele>
        <time>2022-06-30T08:19:38.000Z</time>
      </trkpt>
      <trkpt lat="47.33712" lon="-2.46866">
        <ele>38.200000762939</ele>
        <time>2022-06-30T08:19:41.000Z</time>
      </trkpt>
      <trkpt lat="47.33719" lon="-2.46877">
        <ele>38.200000762939</ele>
        <time>2022-06-30T08:19:43.000Z</time>
      </trkpt>
      <trkpt lat="47.3373" lon="-2.46893">
        <ele>38.200000762939</ele>
        <time>2022-06-30T08:19:46.000Z</time>
      </trkpt>
      <trkpt lat="47.33734" lon="-2.46899">
        <ele>38.200000762939</ele>
        <time>2022-06-30T08:19:47.000Z</time>
      </trkpt>
      <trkpt lat="47.33743" lon="-2.46914">
        <ele>38.599998474121</ele>
        <time>2022-06-30T08:19:50.000Z</time>
      </trkpt>
      <trkpt lat="47.33746" lon="-2.46919">
        <ele>39</ele>
        <time>2022-06-30T08:19:51.000Z</time>
      </trkpt>
      <trkpt lat="47.33747" lon="-2.46924">
        <ele>39.400001525879</ele>
        <time>2022-06-30T08:19:52.000Z</time>
      </trkpt>
      <trkpt lat="47.33748" lon="-2.46932">
        <ele>39.799999237061</ele>
        <time>2022-06-30T08:19:53.000Z</time>
      </trkpt>
      <trkpt lat="47.33748" lon="-2.4694">
        <ele>40.200000762939</ele>
        <time>2022-06-30T08:19:54.000Z</time>
      </trkpt>
      <trkpt lat="47.33748" lon="-2.46949">
        <ele>40.200000762939</ele>
        <time>2022-06-30T08:19:55.000Z</time>
      </trkpt>
      <trkpt lat="47.33747" lon="-2.46978">
        <ele>40.200000762939</ele>
        <time>2022-06-30T08:19:58.000Z</time>
      </trkpt>
      <trkpt lat="47.33748" lon="-2.46989">
        <ele>39.799999237061</ele>
        <time>2022-06-30T08:19:59.000Z</time>
      </trkpt>
      <trkpt lat="47.33748" lon="-2.47">
        <ele>39.200000762939</ele>
        <time>2022-06-30T08:20:00.000Z</time>
      </trkpt>
      <trkpt lat="47.33749" lon="-2.47011">
        <ele>38.799999237061</ele>
        <time>2022-06-30T08:20:01.000Z</time>
      </trkpt>
      <trkpt lat="47.3375" lon="-2.47022">
        <ele>38.200000762939</ele>
        <time>2022-06-30T08:20:02.000Z</time>
      </trkpt>
      <trkpt lat="47.33751" lon="-2.47032">
        <ele>37.799999237061</ele>
        <time>2022-06-30T08:20:03.000Z</time>
      </trkpt>
      <trkpt lat="47.33752" lon="-2.47043">
        <ele>37.799999237061</ele>
        <time>2022-06-30T08:20:04.000Z</time>
      </trkpt>
      <trkpt lat="47.33754" lon="-2.47064">
        <ele>37.400001525879</ele>
        <time>2022-06-30T08:20:06.000Z</time>
      </trkpt>
      <trkpt lat="47.33755" lon="-2.47074">
        <ele>36.799999237061</ele>
        <time>2022-06-30T08:20:07.000Z</time>
      </trkpt>
      <trkpt lat="47.33757" lon="-2.47084">
        <ele>36.400001525879</ele>
        <time>2022-06-30T08:20:08.000Z</time>
      </trkpt>
      <trkpt lat="47.33758" lon="-2.47094">
        <ele>36</ele>
        <time>2022-06-30T08:20:09.000Z</time>
      </trkpt>
      <trkpt lat="47.3376" lon="-2.47103">
        <ele>35.400001525879</ele>
        <time>2022-06-30T08:20:10.000Z</time>
      </trkpt>
      <trkpt lat="47.33762" lon="-2.47111">
        <ele>35.400001525879</ele>
        <time>2022-06-30T08:20:11.000Z</time>
      </trkpt>
      <trkpt lat="47.33777" lon="-2.47171">
        <ele>35.400001525879</ele>
        <time>2022-06-30T08:20:18.000Z</time>
      </trkpt>
      <trkpt lat="47.33781" lon="-2.47228">
        <ele>35.400001525879</ele>
        <time>2022-06-30T08:20:24.000Z</time>
      </trkpt>
      <trkpt lat="47.33783" lon="-2.47255">
        <ele>35</ele>
        <time>2022-06-30T08:20:27.000Z</time>
      </trkpt>
      <trkpt lat="47.33784" lon="-2.47264">
        <ele>34.599998474121</ele>
        <time>2022-06-30T08:20:28.000Z</time>
      </trkpt>
      <trkpt lat="47.33785" lon="-2.47273">
        <ele>34.200000762939</ele>
        <time>2022-06-30T08:20:29.000Z</time>
      </trkpt>
      <trkpt lat="47.33785" lon="-2.47282">
        <ele>33.799999237061</ele>
        <time>2022-06-30T08:20:30.000Z</time>
      </trkpt>
      <trkpt lat="47.33785" lon="-2.47292">
        <ele>33.400001525879</ele>
        <time>2022-06-30T08:20:31.000Z</time>
      </trkpt>
      <trkpt lat="47.33786" lon="-2.47319">
        <ele>33.400001525879</ele>
        <time>2022-06-30T08:20:34.000Z</time>
      </trkpt>
      <trkpt lat="47.33784" lon="-2.47338">
        <ele>33</ele>
        <time>2022-06-30T08:20:36.000Z</time>
      </trkpt>
      <trkpt lat="47.33782" lon="-2.47348">
        <ele>32.599998474121</ele>
        <time>2022-06-30T08:20:37.000Z</time>
      </trkpt>
      <trkpt lat="47.33781" lon="-2.47358">
        <ele>32.200000762939</ele>
        <time>2022-06-30T08:20:38.000Z</time>
      </trkpt>
      <trkpt lat="47.3378" lon="-2.47368">
        <ele>31.39999961853</ele>
        <time>2022-06-30T08:20:39.000Z</time>
      </trkpt>
      <trkpt lat="47.33777" lon="-2.47397">
        <ele>30.799999237061</ele>
        <time>2022-06-30T08:20:42.000Z</time>
      </trkpt>
      <trkpt lat="47.33776" lon="-2.47407">
        <ele>30.39999961853</ele>
        <time>2022-06-30T08:20:43.000Z</time>
      </trkpt>
      <trkpt lat="47.33775" lon="-2.47416">
        <ele>30</ele>
        <time>2022-06-30T08:20:44.000Z</time>
      </trkpt>
      <trkpt lat="47.33774" lon="-2.47426">
        <ele>29.60000038147</ele>
        <time>2022-06-30T08:20:45.000Z</time>
      </trkpt>
      <trkpt lat="47.33772" lon="-2.47436">
        <ele>29.200000762939</ele>
        <time>2022-06-30T08:20:46.000Z</time>
      </trkpt>
      <trkpt lat="47.3377" lon="-2.47446">
        <ele>28.799999237061</ele>
        <time>2022-06-30T08:20:47.000Z</time>
      </trkpt>
      <trkpt lat="47.33768" lon="-2.47456">
        <ele>28.39999961853</ele>
        <time>2022-06-30T08:20:48.000Z</time>
      </trkpt>
      <trkpt lat="47.33766" lon="-2.47466">
        <ele>28</ele>
        <time>2022-06-30T08:20:49.000Z</time>
      </trkpt>
      <trkpt lat="47.33764" lon="-2.47476">
        <ele>27.39999961853</ele>
        <time>2022-06-30T08:20:50.000Z</time>
      </trkpt>
      <trkpt lat="47.33762" lon="-2.47485">
        <ele>27</ele>
        <time>2022-06-30T08:20:51.000Z</time>
      </trkpt>
      <trkpt lat="47.33758" lon="-2.47505">
        <ele>27</ele>
        <time>2022-06-30T08:20:53.000Z</time>
      </trkpt>
      <trkpt lat="47.33753" lon="-2.47525">
        <ele>26.60000038147</ele>
        <time>2022-06-30T08:20:55.000Z</time>
      </trkpt>
      <trkpt lat="47.33751" lon="-2.47535">
        <ele>26.200000762939</ele>
        <time>2022-06-30T08:20:56.000Z</time>
      </trkpt>
      <trkpt lat="47.33748" lon="-2.47544">
        <ele>25.799999237061</ele>
        <time>2022-06-30T08:20:57.000Z</time>
      </trkpt>
      <trkpt lat="47.33746" lon="-2.47554">
        <ele>25.39999961853</ele>
        <time>2022-06-30T08:20:58.000Z</time>
      </trkpt>
      <trkpt lat="47.33744" lon="-2.47565">
        <ele>24.799999237061</ele>
        <time>2022-06-30T08:20:59.000Z</time>
      </trkpt>
      <trkpt lat="47.33737" lon="-2.47603">
        <ele>24</ele>
        <time>2022-06-30T08:21:03.000Z</time>
      </trkpt>
      <trkpt lat="47.33735" lon="-2.47611">
        <ele>23.60000038147</ele>
        <time>2022-06-30T08:21:04.000Z</time>
      </trkpt>
      <trkpt lat="47.33734" lon="-2.47617">
        <ele>23.200000762939</ele>
        <time>2022-06-30T08:21:05.000Z</time>
      </trkpt>
      <trkpt lat="47.33736" lon="-2.47624">
        <ele>22.799999237061</ele>
        <time>2022-06-30T08:21:06.000Z</time>
      </trkpt>
      <trkpt lat="47.33739" lon="-2.4763">
        <ele>22.799999237061</ele>
        <time>2022-06-30T08:21:07.000Z</time>
      </trkpt>
      <trkpt lat="47.33751" lon="-2.4764">
        <ele>22.799999237061</ele>
        <time>2022-06-30T08:21:10.000Z</time>
      </trkpt>
      <trkpt lat="47.33755" lon="-2.47644">
        <ele>22.799999237061</ele>
        <time>2022-06-30T08:21:11.000Z</time>
      </trkpt>
      <trkpt lat="47.3376" lon="-2.47656">
        <ele>22.799999237061</ele>
        <time>2022-06-30T08:21:13.000Z</time>
      </trkpt>
      <trkpt lat="47.33773" lon="-2.47679">
        <ele>22.39999961853</ele>
        <time>2022-06-30T08:21:17.000Z</time>
      </trkpt>
      <trkpt lat="47.33777" lon="-2.47684">
        <ele>22</ele>
        <time>2022-06-30T08:21:18.000Z</time>
      </trkpt>
      <trkpt lat="47.33781" lon="-2.4769">
        <ele>21.60000038147</ele>
        <time>2022-06-30T08:21:19.000Z</time>
      </trkpt>
      <trkpt lat="47.33786" lon="-2.47695">
        <ele>21.200000762939</ele>
        <time>2022-06-30T08:21:20.000Z</time>
      </trkpt>
      <trkpt lat="47.33791" lon="-2.47701">
        <ele>20.799999237061</ele>
        <time>2022-06-30T08:21:21.000Z</time>
      </trkpt>
      <trkpt lat="47.33795" lon="-2.47707">
        <ele>20.799999237061</ele>
        <time>2022-06-30T08:21:22.000Z</time>
      </trkpt>
      <trkpt lat="47.33809" lon="-2.47724">
        <ele>20.39999961853</ele>
        <time>2022-06-30T08:21:25.000Z</time>
      </trkpt>
      <trkpt lat="47.33813" lon="-2.4773">
        <ele>20</ele>
        <time>2022-06-30T08:21:26.000Z</time>
      </trkpt>
      <trkpt lat="47.33818" lon="-2.47735">
        <ele>19.60000038147</ele>
        <time>2022-06-30T08:21:27.000Z</time>
      </trkpt>
      <trkpt lat="47.33822" lon="-2.47741">
        <ele>18.60000038147</ele>
        <time>2022-06-30T08:21:28.000Z</time>
      </trkpt>
      <trkpt lat="47.33847" lon="-2.4777">
        <ele>18.60000038147</ele>
        <time>2022-06-30T08:21:34.000Z</time>
      </trkpt>
      <trkpt lat="47.3385" lon="-2.47773">
        <ele>18.60000038147</ele>
        <time>2022-06-30T08:21:37.000Z</time>
      </trkpt>
      <trkpt lat="47.3385" lon="-2.47774">
        <ele>18.60000038147</ele>
        <time>2022-06-30T08:21:38.000Z</time>
      </trkpt>
      <trkpt lat="47.33852" lon="-2.47778">
        <ele>18.60000038147</ele>
        <time>2022-06-30T08:21:43.000Z</time>
      </trkpt>
      <trkpt lat="47.33851" lon="-2.47784">
        <ele>18.60000038147</ele>
        <time>2022-06-30T08:21:45.000Z</time>
      </trkpt>
      <trkpt lat="47.33846" lon="-2.47797">
        <ele>18.60000038147</ele>
        <time>2022-06-30T08:21:48.000Z</time>
      </trkpt>
      <trkpt lat="47.33842" lon="-2.47807">
        <ele>18.60000038147</ele>
        <time>2022-06-30T08:21:50.000Z</time>
      </trkpt>
      <trkpt lat="47.33839" lon="-2.47812">
        <ele>18.60000038147</ele>
        <time>2022-06-30T08:21:51.000Z</time>
      </trkpt>
      <trkpt lat="47.33826" lon="-2.47834">
        <ele>18.60000038147</ele>
        <time>2022-06-30T08:21:55.000Z</time>
      </trkpt>
      <trkpt lat="47.33804" lon="-2.47871">
        <ele>18.200000762939</ele>
        <time>2022-06-30T08:22:01.000Z</time>
      </trkpt>
      <trkpt lat="47.33802" lon="-2.47877">
        <ele>17.799999237061</ele>
        <time>2022-06-30T08:22:02.000Z</time>
      </trkpt>
      <trkpt lat="47.33799" lon="-2.47883">
        <ele>17.39999961853</ele>
        <time>2022-06-30T08:22:03.000Z</time>
      </trkpt>
      <trkpt lat="47.33796" lon="-2.4789">
        <ele>17</ele>
        <time>2022-06-30T08:22:04.000Z</time>
      </trkpt>
      <trkpt lat="47.33793" lon="-2.47896">
        <ele>16.60000038147</ele>
        <time>2022-06-30T08:22:05.000Z</time>
      </trkpt>
      <trkpt lat="47.3378" lon="-2.47921">
        <ele>16.60000038147</ele>
        <time>2022-06-30T08:22:09.000Z</time>
      </trkpt>
      <trkpt lat="47.33776" lon="-2.47928">
        <ele>16.60000038147</ele>
        <time>2022-06-30T08:22:10.000Z</time>
      </trkpt>
      <trkpt lat="47.33764" lon="-2.47958">
        <ele>16</ele>
        <time>2022-06-30T08:22:14.000Z</time>
      </trkpt>
      <trkpt lat="47.33762" lon="-2.47965">
        <ele>15.60000038147</ele>
        <time>2022-06-30T08:22:15.000Z</time>
      </trkpt>
      <trkpt lat="47.3376" lon="-2.47973">
        <ele>15.199999809265</ele>
        <time>2022-06-30T08:22:16.000Z</time>
      </trkpt>
      <trkpt lat="47.33758" lon="-2.47981">
        <ele>14.39999961853</ele>
        <time>2022-06-30T08:22:17.000Z</time>
      </trkpt>
      <trkpt lat="47.33752" lon="-2.48011">
        <ele>14.39999961853</ele>
        <time>2022-06-30T08:22:21.000Z</time>
      </trkpt>
      <trkpt lat="47.33747" lon="-2.48035">
        <ele>14.39999961853</ele>
        <time>2022-06-30T08:22:24.000Z</time>
      </trkpt>
      <trkpt lat="47.33743" lon="-2.48059">
        <ele>14.39999961853</ele>
        <time>2022-06-30T08:22:27.000Z</time>
      </trkpt>
      <trkpt lat="47.33737" lon="-2.48084">
        <ele>14.39999961853</ele>
        <time>2022-06-30T08:22:30.000Z</time>
      </trkpt>
      <trkpt lat="47.33734" lon="-2.48112">
        <ele>14</ele>
        <time>2022-06-30T08:22:33.000Z</time>
      </trkpt>
      <trkpt lat="47.33732" lon="-2.48121">
        <ele>13.39999961853</ele>
        <time>2022-06-30T08:22:34.000Z</time>
      </trkpt>
      <trkpt lat="47.33731" lon="-2.4813">
        <ele>13</ele>
        <time>2022-06-30T08:22:35.000Z</time>
      </trkpt>
      <trkpt lat="47.3373" lon="-2.48139">
        <ele>12.60000038147</ele>
        <time>2022-06-30T08:22:36.000Z</time>
      </trkpt>
      <trkpt lat="47.3373" lon="-2.48148">
        <ele>12</ele>
        <time>2022-06-30T08:22:37.000Z</time>
      </trkpt>
      <trkpt lat="47.3373" lon="-2.48157">
        <ele>12</ele>
        <time>2022-06-30T08:22:38.000Z</time>
      </trkpt>
      <trkpt lat="47.33725" lon="-2.48226">
        <ele>12</ele>
        <time>2022-06-30T08:22:46.000Z</time>
      </trkpt>
      <trkpt lat="47.33724" lon="-2.48242">
        <ele>11.60000038147</ele>
        <time>2022-06-30T08:22:48.000Z</time>
      </trkpt>
      <trkpt lat="47.33724" lon="-2.4825">
        <ele>11.199999809265</ele>
        <time>2022-06-30T08:22:49.000Z</time>
      </trkpt>
      <trkpt lat="47.33723" lon="-2.48258">
        <ele>10.800000190735</ele>
        <time>2022-06-30T08:22:50.000Z</time>
      </trkpt>
      <trkpt lat="47.33723" lon="-2.48266">
        <ele>10.39999961853</ele>
        <time>2022-06-30T08:22:51.000Z</time>
      </trkpt>
      <trkpt lat="47.33722" lon="-2.48274">
        <ele>10</ele>
        <time>2022-06-30T08:22:52.000Z</time>
      </trkpt>
      <trkpt lat="47.33722" lon="-2.48291">
        <ele>10</ele>
        <time>2022-06-30T08:22:54.000Z</time>
      </trkpt>
      <trkpt lat="47.33721" lon="-2.48315">
        <ele>10</ele>
        <time>2022-06-30T08:22:58.000Z</time>
      </trkpt>
      <trkpt lat="47.33721" lon="-2.48318">
        <ele>9.6000003814697</ele>
        <time>2022-06-30T08:22:59.000Z</time>
      </trkpt>
      <trkpt lat="47.33721" lon="-2.4832">
        <ele>9</ele>
        <time>2022-06-30T08:23:00.000Z</time>
      </trkpt>
      <trkpt lat="47.33721" lon="-2.4832">
        <ele>8.6000003814697</ele>
        <time>2022-06-30T08:23:01.000Z</time>
      </trkpt>
      <trkpt lat="47.33722" lon="-2.48322">
        <ele>7.8000001907349</ele>
        <time>2022-06-30T08:23:07.000Z</time>
      </trkpt>
      <trkpt lat="47.33734" lon="-2.48322">
        <ele>7.8000001907349</ele>
        <time>2022-06-30T08:23:11.000Z</time>
      </trkpt>
      <trkpt lat="47.33744" lon="-2.48317">
        <ele>7.8000001907349</ele>
        <time>2022-06-30T08:23:14.000Z</time>
      </trkpt>
      <trkpt lat="47.33752" lon="-2.48312">
        <ele>7.8000001907349</ele>
        <time>2022-06-30T08:23:16.000Z</time>
      </trkpt>
      <trkpt lat="47.33776" lon="-2.48297">
        <ele>8.1999998092651</ele>
        <time>2022-06-30T08:23:22.000Z</time>
      </trkpt>
      <trkpt lat="47.3378" lon="-2.48294">
        <ele>8.6000003814697</ele>
        <time>2022-06-30T08:23:23.000Z</time>
      </trkpt>
      <trkpt lat="47.33785" lon="-2.48292">
        <ele>9</ele>
        <time>2022-06-30T08:23:24.000Z</time>
      </trkpt>
      <trkpt lat="47.33789" lon="-2.48289">
        <ele>9.6000003814697</ele>
        <time>2022-06-30T08:23:25.000Z</time>
      </trkpt>
      <trkpt lat="47.33794" lon="-2.48286">
        <ele>10</ele>
        <time>2022-06-30T08:23:26.000Z</time>
      </trkpt>
      <trkpt lat="47.33816" lon="-2.48277">
        <ele>10.39999961853</ele>
        <time>2022-06-30T08:23:31.000Z</time>
      </trkpt>
      <trkpt lat="47.3382" lon="-2.48276">
        <ele>10.800000190735</ele>
        <time>2022-06-30T08:23:32.000Z</time>
      </trkpt>
      <trkpt lat="47.33824" lon="-2.48274">
        <ele>11.199999809265</ele>
        <time>2022-06-30T08:23:33.000Z</time>
      </trkpt>
      <trkpt lat="47.33829" lon="-2.48273">
        <ele>11.60000038147</ele>
        <time>2022-06-30T08:23:34.000Z</time>
      </trkpt>
      <trkpt lat="47.33833" lon="-2.48272">
        <ele>12</ele>
        <time>2022-06-30T08:23:35.000Z</time>
      </trkpt>
      <trkpt lat="47.33846" lon="-2.48269">
        <ele>12</ele>
        <time>2022-06-30T08:23:38.000Z</time>
      </trkpt>
      <trkpt lat="47.33883" lon="-2.48255">
        <ele>12</ele>
        <time>2022-06-30T08:23:46.000Z</time>
      </trkpt>
      <trkpt lat="47.33916" lon="-2.48236">
        <ele>12</ele>
        <time>2022-06-30T08:23:53.000Z</time>
      </trkpt>
      <trkpt lat="47.33953" lon="-2.48217">
        <ele>12</ele>
        <time>2022-06-30T08:24:00.000Z</time>
      </trkpt>
      <trkpt lat="47.33982" lon="-2.48218">
        <ele>12</ele>
        <time>2022-06-30T08:24:05.000Z</time>
      </trkpt>
      <trkpt lat="47.33988" lon="-2.48219">
        <ele>12</ele>
        <time>2022-06-30T08:24:06.000Z</time>
      </trkpt>
      <trkpt lat="47.34023" lon="-2.48232">
        <ele>12</ele>
        <time>2022-06-30T08:24:12.000Z</time>
      </trkpt>
      <trkpt lat="47.34066" lon="-2.48245">
        <ele>12</ele>
        <time>2022-06-30T08:24:19.000Z</time>
      </trkpt>
      <trkpt lat="47.34101" lon="-2.48256">
        <ele>12</ele>
        <time>2022-06-30T08:24:25.000Z</time>
      </trkpt>
      <trkpt lat="47.34147" lon="-2.48274">
        <ele>12</ele>
        <time>2022-06-30T08:24:33.000Z</time>
      </trkpt>
      <trkpt lat="47.34175" lon="-2.48302">
        <ele>12</ele>
        <time>2022-06-30T08:24:38.000Z</time>
      </trkpt>
      <trkpt lat="47.34206" lon="-2.48344">
        <ele>12</ele>
        <time>2022-06-30T08:24:44.000Z</time>
      </trkpt>
      <trkpt lat="47.34219" lon="-2.48357">
        <ele>11</ele>
        <time>2022-06-30T08:24:46.000Z</time>
      </trkpt>
      <trkpt lat="47.34225" lon="-2.48362">
        <ele>10.60000038147</ele>
        <time>2022-06-30T08:24:47.000Z</time>
      </trkpt>
      <trkpt lat="47.34231" lon="-2.48367">
        <ele>10.199999809265</ele>
        <time>2022-06-30T08:24:48.000Z</time>
      </trkpt>
      <trkpt lat="47.34237" lon="-2.48371">
        <ele>9.8000001907349</ele>
        <time>2022-06-30T08:24:49.000Z</time>
      </trkpt>
      <trkpt lat="47.34267" lon="-2.48382">
        <ele>9.8000001907349</ele>
        <time>2022-06-30T08:24:54.000Z</time>
      </trkpt>
      <trkpt lat="47.34273" lon="-2.48382">
        <ele>9.8000001907349</ele>
        <time>2022-06-30T08:24:55.000Z</time>
      </trkpt>
      <trkpt lat="47.34278" lon="-2.48381">
        <ele>10.199999809265</ele>
        <time>2022-06-30T08:24:56.000Z</time>
      </trkpt>
      <trkpt lat="47.34283" lon="-2.4838">
        <ele>10.60000038147</ele>
        <time>2022-06-30T08:24:57.000Z</time>
      </trkpt>
      <trkpt lat="47.34287" lon="-2.48379">
        <ele>11.199999809265</ele>
        <time>2022-06-30T08:24:58.000Z</time>
      </trkpt>
      <trkpt lat="47.34292" lon="-2.48377">
        <ele>11.60000038147</ele>
        <time>2022-06-30T08:24:59.000Z</time>
      </trkpt>
      <trkpt lat="47.34297" lon="-2.48375">
        <ele>12</ele>
        <time>2022-06-30T08:25:00.000Z</time>
      </trkpt>
      <trkpt lat="47.34311" lon="-2.48371">
        <ele>12</ele>
        <time>2022-06-30T08:25:03.000Z</time>
      </trkpt>
      <trkpt lat="47.34316" lon="-2.48371">
        <ele>12.60000038147</ele>
        <time>2022-06-30T08:25:04.000Z</time>
      </trkpt>
      <trkpt lat="47.34321" lon="-2.48371">
        <ele>13</ele>
        <time>2022-06-30T08:25:05.000Z</time>
      </trkpt>
      <trkpt lat="47.34325" lon="-2.48372">
        <ele>13.39999961853</ele>
        <time>2022-06-30T08:25:06.000Z</time>
      </trkpt>
      <trkpt lat="47.3433" lon="-2.48373">
        <ele>13.800000190735</ele>
        <time>2022-06-30T08:25:07.000Z</time>
      </trkpt>
      <trkpt lat="47.34333" lon="-2.48375">
        <ele>14.199999809265</ele>
        <time>2022-06-30T08:25:08.000Z</time>
      </trkpt>
      <trkpt lat="47.34339" lon="-2.4838">
        <ele>14.199999809265</ele>
        <time>2022-06-30T08:25:10.000Z</time>
      </trkpt>
      <trkpt lat="47.34347" lon="-2.48393">
        <ele>14.199999809265</ele>
        <time>2022-06-30T08:25:15.000Z</time>
      </trkpt>
      <trkpt lat="47.34355" lon="-2.48412">
        <ele>14.60000038147</ele>
        <time>2022-06-30T08:25:20.000Z</time>
      </trkpt>
      <trkpt lat="47.34356" lon="-2.48416">
        <ele>15</ele>
        <time>2022-06-30T08:25:21.000Z</time>
      </trkpt>
      <trkpt lat="47.34357" lon="-2.4842">
        <ele>15.39999961853</ele>
        <time>2022-06-30T08:25:22.000Z</time>
      </trkpt>
      <trkpt lat="47.34359" lon="-2.48425">
        <ele>15.800000190735</ele>
        <time>2022-06-30T08:25:23.000Z</time>
      </trkpt>
      <trkpt lat="47.3436" lon="-2.48429">
        <ele>16.200000762939</ele>
        <time>2022-06-30T08:25:24.000Z</time>
      </trkpt>
      <trkpt lat="47.3437" lon="-2.48454">
        <ele>16.200000762939</ele>
        <time>2022-06-30T08:25:29.000Z</time>
      </trkpt>
      <trkpt lat="47.34372" lon="-2.48459">
        <ele>16.200000762939</ele>
        <time>2022-06-30T08:25:30.000Z</time>
      </trkpt>
      <trkpt lat="47.34381" lon="-2.48486">
        <ele>16.200000762939</ele>
        <time>2022-06-30T08:25:35.000Z</time>
      </trkpt>
      <trkpt lat="47.34387" lon="-2.48502">
        <ele>16.200000762939</ele>
        <time>2022-06-30T08:25:38.000Z</time>
      </trkpt>
      <trkpt lat="47.34393" lon="-2.4852">
        <ele>16.200000762939</ele>
        <time>2022-06-30T08:25:41.000Z</time>
      </trkpt>
      <trkpt lat="47.34397" lon="-2.48537">
        <ele>16.200000762939</ele>
        <time>2022-06-30T08:25:44.000Z</time>
      </trkpt>
      <trkpt lat="47.34404" lon="-2.48556">
        <ele>16.200000762939</ele>
        <time>2022-06-30T08:25:47.000Z</time>
      </trkpt>
      <trkpt lat="47.34427" lon="-2.4862">
        <ele>16.200000762939</ele>
        <time>2022-06-30T08:25:57.000Z</time>
      </trkpt>
      <trkpt lat="47.34444" lon="-2.4867">
        <ele>16.200000762939</ele>
        <time>2022-06-30T08:26:04.000Z</time>
      </trkpt>
      <trkpt lat="47.3446" lon="-2.48713">
        <ele>16.200000762939</ele>
        <time>2022-06-30T08:26:10.000Z</time>
      </trkpt>
      <trkpt lat="47.34483" lon="-2.48764">
        <ele>16.200000762939</ele>
        <time>2022-06-30T08:26:18.000Z</time>
      </trkpt>
      <trkpt lat="47.34511" lon="-2.48806">
        <ele>16.200000762939</ele>
        <time>2022-06-30T08:26:26.000Z</time>
      </trkpt>
      <trkpt lat="47.34529" lon="-2.48837">
        <ele>16.200000762939</ele>
        <time>2022-06-30T08:26:32.000Z</time>
      </trkpt>
      <trkpt lat="47.34532" lon="-2.48842">
        <ele>16.200000762939</ele>
        <time>2022-06-30T08:26:33.000Z</time>
      </trkpt>
      <trkpt lat="47.34541" lon="-2.4886">
        <ele>15.800000190735</ele>
        <time>2022-06-30T08:26:37.000Z</time>
      </trkpt>
      <trkpt lat="47.34542" lon="-2.48862">
        <ele>15.39999961853</ele>
        <time>2022-06-30T08:26:38.000Z</time>
      </trkpt>
      <trkpt lat="47.34542" lon="-2.48865">
        <ele>15</ele>
        <time>2022-06-30T08:26:39.000Z</time>
      </trkpt>
      <trkpt lat="47.34542" lon="-2.48869">
        <ele>14.60000038147</ele>
        <time>2022-06-30T08:26:40.000Z</time>
      </trkpt>
      <trkpt lat="47.3454" lon="-2.48872">
        <ele>14.199999809265</ele>
        <time>2022-06-30T08:26:41.000Z</time>
      </trkpt>
      <trkpt lat="47.34538" lon="-2.48875">
        <ele>14.199999809265</ele>
        <time>2022-06-30T08:26:42.000Z</time>
      </trkpt>
      <trkpt lat="47.3452" lon="-2.48898">
        <ele>14.199999809265</ele>
        <time>2022-06-30T08:26:47.000Z</time>
      </trkpt>
      <trkpt lat="47.34511" lon="-2.48909">
        <ele>13.39999961853</ele>
        <time>2022-06-30T08:26:49.000Z</time>
      </trkpt>
      <trkpt lat="47.34507" lon="-2.48915">
        <ele>13</ele>
        <time>2022-06-30T08:26:50.000Z</time>
      </trkpt>
      <trkpt lat="47.34503" lon="-2.48921">
        <ele>12.39999961853</ele>
        <time>2022-06-30T08:26:51.000Z</time>
      </trkpt>
      <trkpt lat="47.345" lon="-2.48927">
        <ele>12</ele>
        <time>2022-06-30T08:26:52.000Z</time>
      </trkpt>
      <trkpt lat="47.34497" lon="-2.48934">
        <ele>12</ele>
        <time>2022-06-30T08:26:53.000Z</time>
      </trkpt>
      <trkpt lat="47.34491" lon="-2.48949">
        <ele>11.60000038147</ele>
        <time>2022-06-30T08:26:55.000Z</time>
      </trkpt>
      <trkpt lat="47.34487" lon="-2.48955">
        <ele>11.199999809265</ele>
        <time>2022-06-30T08:26:56.000Z</time>
      </trkpt>
      <trkpt lat="47.34483" lon="-2.48962">
        <ele>10.800000190735</ele>
        <time>2022-06-30T08:26:57.000Z</time>
      </trkpt>
      <trkpt lat="47.34479" lon="-2.48968">
        <ele>10.199999809265</ele>
        <time>2022-06-30T08:26:58.000Z</time>
      </trkpt>
      <trkpt lat="47.34476" lon="-2.48975">
        <ele>9.8000001907349</ele>
        <time>2022-06-30T08:26:59.000Z</time>
      </trkpt>
      <trkpt lat="47.34454" lon="-2.49002">
        <ele>9.8000001907349</ele>
        <time>2022-06-30T08:27:04.000Z</time>
      </trkpt>
      <trkpt lat="47.34449" lon="-2.49006">
        <ele>9.3999996185303</ele>
        <time>2022-06-30T08:27:05.000Z</time>
      </trkpt>
      <trkpt lat="47.34443" lon="-2.49009">
        <ele>9</ele>
        <time>2022-06-30T08:27:06.000Z</time>
      </trkpt>
      <trkpt lat="47.34438" lon="-2.49012">
        <ele>8.6000003814697</ele>
        <time>2022-06-30T08:27:07.000Z</time>
      </trkpt>
      <trkpt lat="47.34433" lon="-2.49015">
        <ele>8.1999998092651</ele>
        <time>2022-06-30T08:27:08.000Z</time>
      </trkpt>
      <trkpt lat="47.34429" lon="-2.49018">
        <ele>7.8000001907349</ele>
        <time>2022-06-30T08:27:09.000Z</time>
      </trkpt>
      <trkpt lat="47.34425" lon="-2.49021">
        <ele>7.8000001907349</ele>
        <time>2022-06-30T08:27:10.000Z</time>
      </trkpt>
      <trkpt lat="47.34412" lon="-2.4904">
        <ele>7.8000001907349</ele>
        <time>2022-06-30T08:27:15.000Z</time>
      </trkpt>
      <trkpt lat="47.34406" lon="-2.49053">
        <ele>7.8000001907349</ele>
        <time>2022-06-30T08:27:18.000Z</time>
      </trkpt>
      <trkpt lat="47.34407" lon="-2.49058">
        <ele>7.8000001907349</ele>
        <time>2022-06-30T08:27:19.000Z</time>
      </trkpt>
      <trkpt lat="47.34414" lon="-2.49076">
        <ele>7.8000001907349</ele>
        <time>2022-06-30T08:27:23.000Z</time>
      </trkpt>
      <trkpt lat="47.34416" lon="-2.49082">
        <ele>7.8000001907349</ele>
        <time>2022-06-30T08:27:24.000Z</time>
      </trkpt>
      <trkpt lat="47.34418" lon="-2.49087">
        <ele>7.4000000953674</ele>
        <time>2022-06-30T08:27:25.000Z</time>
      </trkpt>
      <trkpt lat="47.3442" lon="-2.49091">
        <ele>7</ele>
        <time>2022-06-30T08:27:26.000Z</time>
      </trkpt>
      <trkpt lat="47.34422" lon="-2.49094">
        <ele>6.5999999046326</ele>
        <time>2022-06-30T08:27:27.000Z</time>
      </trkpt>
      <trkpt lat="47.34423" lon="-2.49097">
        <ele>6.1999998092651</ele>
        <time>2022-06-30T08:27:28.000Z</time>
      </trkpt>
      <trkpt lat="47.34424" lon="-2.49098">
        <ele>5.8000001907349</ele>
        <time>2022-06-30T08:27:29.000Z</time>
      </trkpt>
      <trkpt lat="47.3443" lon="-2.4911">
        <ele>5.8000001907349</ele>
        <time>2022-06-30T08:27:36.000Z</time>
      </trkpt>
      <trkpt lat="47.34438" lon="-2.49126">
        <ele>5.8000001907349</ele>
        <time>2022-06-30T08:27:42.000Z</time>
      </trkpt>
      <trkpt lat="47.34449" lon="-2.49141">
        <ele>5.4000000953674</ele>
        <time>2022-06-30T08:27:48.000Z</time>
      </trkpt>
      <trkpt lat="47.34451" lon="-2.49142">
        <ele>4.8000001907349</ele>
        <time>2022-06-30T08:27:49.000Z</time>
      </trkpt>
      <trkpt lat="47.34453" lon="-2.49143">
        <ele>4.4000000953674</ele>
        <time>2022-06-30T08:27:50.000Z</time>
      </trkpt>
      <trkpt lat="47.34455" lon="-2.49144">
        <ele>4</ele>
        <time>2022-06-30T08:27:51.000Z</time>
      </trkpt>
      <trkpt lat="47.34457" lon="-2.49146">
        <ele>3.5999999046326</ele>
        <time>2022-06-30T08:27:52.000Z</time>
      </trkpt>
      <trkpt lat="47.34458" lon="-2.49148">
        <ele>3.5999999046326</ele>
        <time>2022-06-30T08:27:53.000Z</time>
      </trkpt>
      <trkpt lat="47.34472" lon="-2.49168">
        <ele>3.5999999046326</ele>
        <time>2022-06-30T08:28:00.000Z</time>
      </trkpt>
      <trkpt lat="47.34483" lon="-2.49196">
        <ele>3.5999999046326</ele>
        <time>2022-06-30T08:28:06.000Z</time>
      </trkpt>
      <trkpt lat="47.3449" lon="-2.49211">
        <ele>3.5999999046326</ele>
        <time>2022-06-30T08:28:11.000Z</time>
      </trkpt>
      <trkpt lat="47.34492" lon="-2.49217">
        <ele>3.5999999046326</ele>
        <time>2022-06-30T08:28:16.000Z</time>
      </trkpt>
      <trkpt lat="47.3449" lon="-2.49221">
        <ele>3.5999999046326</ele>
        <time>2022-06-30T08:28:37.000Z</time>
      </trkpt>
      <trkpt lat="47.34489" lon="-2.49223">
        <ele>3.5999999046326</ele>
        <time>2022-06-30T08:28:38.000Z</time>
      </trkpt>
      <trkpt lat="47.34479" lon="-2.49248">
        <ele>3.5999999046326</ele>
        <time>2022-06-30T08:28:46.000Z</time>
      </trkpt>
      <trkpt lat="47.34478" lon="-2.49258">
        <ele>3.5999999046326</ele>
        <time>2022-06-30T08:28:48.000Z</time>
      </trkpt>
      <trkpt lat="47.3448" lon="-2.4927">
        <ele>3.5999999046326</ele>
        <time>2022-06-30T08:28:51.000Z</time>
      </trkpt>
      <trkpt lat="47.34488" lon="-2.49289">
        <ele>3.5999999046326</ele>
        <time>2022-06-30T08:28:57.000Z</time>
      </trkpt>
      <trkpt lat="47.34491" lon="-2.49292">
        <ele>3.5999999046326</ele>
        <time>2022-06-30T08:29:01.000Z</time>
      </trkpt>
      <trkpt lat="47.34493" lon="-2.49301">
        <ele>3.5999999046326</ele>
        <time>2022-06-30T08:29:06.000Z</time>
      </trkpt>
      <trkpt lat="47.345" lon="-2.49323">
        <ele>3.5999999046326</ele>
        <time>2022-06-30T08:29:11.000Z</time>
      </trkpt>
      <trkpt lat="47.34501" lon="-2.49356">
        <ele>3.5999999046326</ele>
        <time>2022-06-30T08:29:17.000Z</time>
      </trkpt>
      <trkpt lat="47.34501" lon="-2.49387">
        <ele>3.5999999046326</ele>
        <time>2022-06-30T08:29:23.000Z</time>
      </trkpt>
      <trkpt lat="47.34492" lon="-2.49415">
        <ele>3.5999999046326</ele>
        <time>2022-06-30T08:29:27.000Z</time>
      </trkpt>
      <trkpt lat="47.34489" lon="-2.49429">
        <ele>3.5999999046326</ele>
        <time>2022-06-30T08:29:29.000Z</time>
      </trkpt>
      <trkpt lat="47.34487" lon="-2.49449">
        <ele>3.5999999046326</ele>
        <time>2022-06-30T08:29:32.000Z</time>
      </trkpt>
      <trkpt lat="47.34483" lon="-2.4949">
        <ele>3.5999999046326</ele>
        <time>2022-06-30T08:29:38.000Z</time>
      </trkpt>
      <trkpt lat="47.34488" lon="-2.49513">
        <ele>3.5999999046326</ele>
        <time>2022-06-30T08:29:42.000Z</time>
      </trkpt>
      <trkpt lat="47.345" lon="-2.49547">
        <ele>3.5999999046326</ele>
        <time>2022-06-30T08:29:49.000Z</time>
      </trkpt>
      <trkpt lat="47.34501" lon="-2.49548">
        <ele>3.5999999046326</ele>
        <time>2022-06-30T08:29:51.000Z</time>
      </trkpt>
      <trkpt lat="47.34497" lon="-2.49557">
        <ele>3.5999999046326</ele>
        <time>2022-06-30T08:42:17.000Z</time>
      </trkpt>
      <trkpt lat="47.34499" lon="-2.49566">
        <ele>3.5999999046326</ele>
        <time>2022-06-30T08:42:21.000Z</time>
      </trkpt>
      <trkpt lat="47.34501" lon="-2.4957">
        <ele>3.5999999046326</ele>
        <time>2022-06-30T08:42:23.000Z</time>
      </trkpt>
      <trkpt lat="47.34506" lon="-2.49586">
        <ele>3.5999999046326</ele>
        <time>2022-06-30T08:42:29.000Z</time>
      </trkpt>
      <trkpt lat="47.34512" lon="-2.49597">
        <ele>3.5999999046326</ele>
        <time>2022-06-30T08:42:35.000Z</time>
      </trkpt>
      <trkpt lat="47.34512" lon="-2.49604">
        <ele>3.5999999046326</ele>
        <time>2022-06-30T08:42:39.000Z</time>
      </trkpt>
      <trkpt lat="47.34505" lon="-2.49607">
        <ele>3.5999999046326</ele>
        <time>2022-06-30T08:42:42.000Z</time>
      </trkpt>
      <trkpt lat="47.34499" lon="-2.49611">
        <ele>3.5999999046326</ele>
        <time>2022-06-30T08:42:44.000Z</time>
      </trkpt>
      <trkpt lat="47.34474" lon="-2.49634">
        <ele>3.5999999046326</ele>
        <time>2022-06-30T08:42:52.000Z</time>
      </trkpt>
      <trkpt lat="47.34449" lon="-2.49656">
        <ele>3.5999999046326</ele>
        <time>2022-06-30T08:42:59.000Z</time>
      </trkpt>
      <trkpt lat="47.34445" lon="-2.49659">
        <ele>3.5999999046326</ele>
        <time>2022-06-30T08:43:00.000Z</time>
      </trkpt>
      <trkpt lat="47.34423" lon="-2.49671">
        <ele>3.5999999046326</ele>
        <time>2022-06-30T08:43:05.000Z</time>
      </trkpt>
      <trkpt lat="47.34397" lon="-2.49684">
        <ele>3.5999999046326</ele>
        <time>2022-06-30T08:43:11.000Z</time>
      </trkpt>
      <trkpt lat="47.34366" lon="-2.49702">
        <ele>3.5999999046326</ele>
        <time>2022-06-30T08:43:18.000Z</time>
      </trkpt>
      <trkpt lat="47.34334" lon="-2.49726">
        <ele>3.5999999046326</ele>
        <time>2022-06-30T08:43:25.000Z</time>
      </trkpt>
      <trkpt lat="47.34308" lon="-2.49747">
        <ele>3.5999999046326</ele>
        <time>2022-06-30T08:43:31.000Z</time>
      </trkpt>
      <trkpt lat="47.34273" lon="-2.49776">
        <ele>3.5999999046326</ele>
        <time>2022-06-30T08:43:38.000Z</time>
      </trkpt>
      <trkpt lat="47.34269" lon="-2.49781">
        <ele>3.5999999046326</ele>
        <time>2022-06-30T08:43:39.000Z</time>
      </trkpt>
      <trkpt lat="47.34253" lon="-2.49808">
        <ele>3.5999999046326</ele>
        <time>2022-06-30T08:43:43.000Z</time>
      </trkpt>
      <trkpt lat="47.34225" lon="-2.49861">
        <ele>3.5999999046326</ele>
        <time>2022-06-30T08:43:51.000Z</time>
      </trkpt>
      <trkpt lat="47.3421" lon="-2.49906">
        <ele>3.5999999046326</ele>
        <time>2022-06-30T08:43:57.000Z</time>
      </trkpt>
      <trkpt lat="47.34193" lon="-2.49971">
        <ele>3.5999999046326</ele>
        <time>2022-06-30T08:44:05.000Z</time>
      </trkpt>
      <trkpt lat="47.34192" lon="-2.49981">
        <ele>2.7999999523163</ele>
        <time>2022-06-30T08:44:07.000Z</time>
      </trkpt>
      <trkpt lat="47.34191" lon="-2.49984">
        <ele>2.4000000953674</ele>
        <time>2022-06-30T08:44:08.000Z</time>
      </trkpt>
      <trkpt lat="47.3419" lon="-2.49987">
        <ele>2</ele>
        <time>2022-06-30T08:44:09.000Z</time>
      </trkpt>
      <trkpt lat="47.34188" lon="-2.49989">
        <ele>1.3999999761581</ele>
        <time>2022-06-30T08:44:10.000Z</time>
      </trkpt>
      <trkpt lat="47.34186" lon="-2.49991">
        <ele>1.3999999761581</ele>
        <time>2022-06-30T08:44:12.000Z</time>
      </trkpt>
      <trkpt lat="47.34184" lon="-2.49988">
        <ele>1.3999999761581</ele>
        <time>2022-06-30T08:44:13.000Z</time>
      </trkpt>
      <trkpt lat="47.34182" lon="-2.49981">
        <ele>1.3999999761581</ele>
        <time>2022-06-30T08:44:15.000Z</time>
      </trkpt>
      <trkpt lat="47.34178" lon="-2.49956">
        <ele>1.3999999761581</ele>
        <time>2022-06-30T08:44:20.000Z</time>
      </trkpt>
      <trkpt lat="47.34166" lon="-2.49923">
        <ele>1.3999999761581</ele>
        <time>2022-06-30T08:44:26.000Z</time>
      </trkpt>
      <trkpt lat="47.34144" lon="-2.49885">
        <ele>1.3999999761581</ele>
        <time>2022-06-30T08:44:33.000Z</time>
      </trkpt>
      <trkpt lat="47.34125" lon="-2.49856">
        <ele>1.3999999761581</ele>
        <time>2022-06-30T08:44:38.000Z</time>
      </trkpt>
      <trkpt lat="47.34117" lon="-2.49846">
        <ele>1.3999999761581</ele>
        <time>2022-06-30T08:44:40.000Z</time>
      </trkpt>
      <trkpt lat="47.34112" lon="-2.49841">
        <ele>1.3999999761581</ele>
        <time>2022-06-30T08:44:41.000Z</time>
      </trkpt>
      <trkpt lat="47.34096" lon="-2.4983">
        <ele>1.3999999761581</ele>
        <time>2022-06-30T08:44:44.000Z</time>
      </trkpt>
      <trkpt lat="47.34071" lon="-2.49828">
        <ele>1.3999999761581</ele>
        <time>2022-06-30T08:44:48.000Z</time>
      </trkpt>
      <trkpt lat="47.34033" lon="-2.49829">
        <ele>1.3999999761581</ele>
        <time>2022-06-30T08:44:55.000Z</time>
      </trkpt>
      <trkpt lat="47.3403" lon="-2.49831">
        <ele>1.3999999761581</ele>
        <time>2022-06-30T08:44:57.000Z</time>
      </trkpt>
      <trkpt lat="47.34029" lon="-2.49831">
        <ele>1.3999999761581</ele>
        <time>2022-06-30T08:44:58.000Z</time>
      </trkpt>
      <trkpt lat="47.34029" lon="-2.49831">
        <ele>1.3999999761581</ele>
        <time>2022-06-30T08:45:00.000Z</time>
      </trkpt>
      <trkpt lat="47.34029" lon="-2.49827">
        <ele>1.3999999761581</ele>
        <time>2022-06-30T08:45:34.000Z</time>
      </trkpt>
      <trkpt lat="47.3403" lon="-2.49827">
        <ele>1.3999999761581</ele>
        <time>2022-06-30T08:45:35.000Z</time>
      </trkpt>
      <trkpt lat="47.34042" lon="-2.49826">
        <ele>1.3999999761581</ele>
        <time>2022-06-30T08:45:40.000Z</time>
      </trkpt>
      <trkpt lat="47.34064" lon="-2.49827">
        <ele>1.3999999761581</ele>
        <time>2022-06-30T08:45:45.000Z</time>
      </trkpt>
      <trkpt lat="47.34095" lon="-2.4983">
        <ele>1.3999999761581</ele>
        <time>2022-06-30T08:45:51.000Z</time>
      </trkpt>
      <trkpt lat="47.34113" lon="-2.49843">
        <ele>1.3999999761581</ele>
        <time>2022-06-30T08:45:55.000Z</time>
      </trkpt>
      <trkpt lat="47.3414" lon="-2.49874">
        <ele>1.3999999761581</ele>
        <time>2022-06-30T08:46:02.000Z</time>
      </trkpt>
      <trkpt lat="47.3416" lon="-2.49907">
        <ele>1.3999999761581</ele>
        <time>2022-06-30T08:46:08.000Z</time>
      </trkpt>
      <trkpt lat="47.34169" lon="-2.49924">
        <ele>1.3999999761581</ele>
        <time>2022-06-30T08:46:11.000Z</time>
      </trkpt>
      <trkpt lat="47.34176" lon="-2.49942">
        <ele>1.3999999761581</ele>
        <time>2022-06-30T08:46:14.000Z</time>
      </trkpt>
      <trkpt lat="47.34182" lon="-2.49959">
        <ele>1.3999999761581</ele>
        <time>2022-06-30T08:46:17.000Z</time>
      </trkpt>
      <trkpt lat="47.34186" lon="-2.49967">
        <ele>1.3999999761581</ele>
        <time>2022-06-30T08:46:19.000Z</time>
      </trkpt>
      <trkpt lat="47.34189" lon="-2.49984">
        <ele>1.3999999761581</ele>
        <time>2022-06-30T08:46:23.000Z</time>
      </trkpt>
      <trkpt lat="47.34186" lon="-2.50008">
        <ele>1.3999999761581</ele>
        <time>2022-06-30T08:46:27.000Z</time>
      </trkpt>
      <trkpt lat="47.34184" lon="-2.50015">
        <ele>1.3999999761581</ele>
        <time>2022-06-30T08:46:28.000Z</time>
      </trkpt>
      <trkpt lat="47.34173" lon="-2.50051">
        <ele>1.3999999761581</ele>
        <time>2022-06-30T08:46:33.000Z</time>
      </trkpt>
      <trkpt lat="47.34161" lon="-2.50092">
        <ele>1.3999999761581</ele>
        <time>2022-06-30T08:46:39.000Z</time>
      </trkpt>
      <trkpt lat="47.34159" lon="-2.50098">
        <ele>1.3999999761581</ele>
        <time>2022-06-30T08:46:40.000Z</time>
      </trkpt>
      <trkpt lat="47.3414" lon="-2.5015">
        <ele>1.3999999761581</ele>
        <time>2022-06-30T08:46:48.000Z</time>
      </trkpt>
      <trkpt lat="47.34124" lon="-2.50167">
        <ele>1.3999999761581</ele>
        <time>2022-06-30T08:46:52.000Z</time>
      </trkpt>
      <trkpt lat="47.34115" lon="-2.50174">
        <ele>1.3999999761581</ele>
        <time>2022-06-30T08:46:54.000Z</time>
      </trkpt>
      <trkpt lat="47.34088" lon="-2.50196">
        <ele>1.3999999761581</ele>
        <time>2022-06-30T08:47:00.000Z</time>
      </trkpt>
      <trkpt lat="47.34079" lon="-2.50203">
        <ele>1.7999999523163</ele>
        <time>2022-06-30T08:47:02.000Z</time>
      </trkpt>
      <trkpt lat="47.34074" lon="-2.50207">
        <ele>2.4000000953674</ele>
        <time>2022-06-30T08:47:03.000Z</time>
      </trkpt>
      <trkpt lat="47.3407" lon="-2.50211">
        <ele>2.7999999523163</ele>
        <time>2022-06-30T08:47:04.000Z</time>
      </trkpt>
      <trkpt lat="47.34065" lon="-2.50215">
        <ele>3.2000000476837</ele>
        <time>2022-06-30T08:47:05.000Z</time>
      </trkpt>
      <trkpt lat="47.34061" lon="-2.5022">
        <ele>3.5999999046326</ele>
        <time>2022-06-30T08:47:06.000Z</time>
      </trkpt>
      <trkpt lat="47.34056" lon="-2.50225">
        <ele>3.5999999046326</ele>
        <time>2022-06-30T08:47:07.000Z</time>
      </trkpt>
      <trkpt lat="47.34014" lon="-2.50265">
        <ele>3.5999999046326</ele>
        <time>2022-06-30T08:47:16.000Z</time>
      </trkpt>
      <trkpt lat="47.34002" lon="-2.5027">
        <ele>3.5999999046326</ele>
        <time>2022-06-30T08:47:18.000Z</time>
      </trkpt>
      <trkpt lat="47.33983" lon="-2.50277">
        <ele>3.5999999046326</ele>
        <time>2022-06-30T08:47:21.000Z</time>
      </trkpt>
      <trkpt lat="47.33939" lon="-2.50294">
        <ele>3.5999999046326</ele>
        <time>2022-06-30T08:47:28.000Z</time>
      </trkpt>
      <trkpt lat="47.33898" lon="-2.50319">
        <ele>3.5999999046326</ele>
        <time>2022-06-30T08:47:35.000Z</time>
      </trkpt>
      <trkpt lat="47.33863" lon="-2.5034">
        <ele>3.5999999046326</ele>
        <time>2022-06-30T08:47:42.000Z</time>
      </trkpt>
      <trkpt lat="47.33855" lon="-2.5035">
        <ele>3.5999999046326</ele>
        <time>2022-06-30T08:47:45.000Z</time>
      </trkpt>
      <trkpt lat="47.33843" lon="-2.50348">
        <ele>3.5999999046326</ele>
        <time>2022-06-30T08:47:48.000Z</time>
      </trkpt>
      <trkpt lat="47.33834" lon="-2.50341">
        <ele>3.5999999046326</ele>
        <time>2022-06-30T08:47:50.000Z</time>
      </trkpt>
      <trkpt lat="47.33819" lon="-2.5033">
        <ele>3.5999999046326</ele>
        <time>2022-06-30T08:47:53.000Z</time>
      </trkpt>
      <trkpt lat="47.33777" lon="-2.50301">
        <ele>3.5999999046326</ele>
        <time>2022-06-30T08:48:01.000Z</time>
      </trkpt>
      <trkpt lat="47.3374" lon="-2.50268">
        <ele>3.5999999046326</ele>
        <time>2022-06-30T08:48:08.000Z</time>
      </trkpt>
      <trkpt lat="47.3371" lon="-2.50236">
        <ele>3.5999999046326</ele>
        <time>2022-06-30T08:48:14.000Z</time>
      </trkpt>
      <trkpt lat="47.33681" lon="-2.50198">
        <ele>3.5999999046326</ele>
        <time>2022-06-30T08:48:20.000Z</time>
      </trkpt>
      <trkpt lat="47.33651" lon="-2.50152">
        <ele>3.5999999046326</ele>
        <time>2022-06-30T08:48:27.000Z</time>
      </trkpt>
      <trkpt lat="47.3363" lon="-2.50114">
        <ele>3.5999999046326</ele>
        <time>2022-06-30T08:48:33.000Z</time>
      </trkpt>
      <trkpt lat="47.33617" lon="-2.50098">
        <ele>3.5999999046326</ele>
        <time>2022-06-30T08:48:38.000Z</time>
      </trkpt>
      <trkpt lat="47.33613" lon="-2.50097">
        <ele>2.7999999523163</ele>
        <time>2022-06-30T08:48:40.000Z</time>
      </trkpt>
      <trkpt lat="47.33612" lon="-2.50095">
        <ele>2.4000000953674</ele>
        <time>2022-06-30T08:48:41.000Z</time>
      </trkpt>
      <trkpt lat="47.33611" lon="-2.50093">
        <ele>2</ele>
        <time>2022-06-30T08:48:42.000Z</time>
      </trkpt>
      <trkpt lat="47.33609" lon="-2.50091">
        <ele>1.3999999761581</ele>
        <time>2022-06-30T08:48:43.000Z</time>
      </trkpt>
      <trkpt lat="47.33603" lon="-2.50086">
        <ele>1.3999999761581</ele>
        <time>2022-06-30T08:48:45.000Z</time>
      </trkpt>
      <trkpt lat="47.33596" lon="-2.5008">
        <ele>1.3999999761581</ele>
        <time>2022-06-30T08:48:47.000Z</time>
      </trkpt>
      <trkpt lat="47.33567" lon="-2.50054">
        <ele>1.3999999761581</ele>
        <time>2022-06-30T08:48:55.000Z</time>
      </trkpt>
      <trkpt lat="47.33539" lon="-2.50029">
        <ele>1.3999999761581</ele>
        <time>2022-06-30T08:49:02.000Z</time>
      </trkpt>
      <trkpt lat="47.33524" lon="-2.50007">
        <ele>1.3999999761581</ele>
        <time>2022-06-30T08:49:06.000Z</time>
      </trkpt>
      <trkpt lat="47.3352" lon="-2.50002">
        <ele>1.3999999761581</ele>
        <time>2022-06-30T08:49:07.000Z</time>
      </trkpt>
      <trkpt lat="47.33515" lon="-2.49997">
        <ele>1.3999999761581</ele>
        <time>2022-06-30T08:49:08.000Z</time>
      </trkpt>
      <trkpt lat="47.335" lon="-2.49989">
        <ele>1.3999999761581</ele>
        <time>2022-06-30T08:49:11.000Z</time>
      </trkpt>
      <trkpt lat="47.33478" lon="-2.4999">
        <ele>1.3999999761581</ele>
        <time>2022-06-30T08:49:15.000Z</time>
      </trkpt>
      <trkpt lat="47.33472" lon="-2.49992">
        <ele>1.3999999761581</ele>
        <time>2022-06-30T08:49:16.000Z</time>
      </trkpt>
      <trkpt lat="47.33446" lon="-2.49994">
        <ele>1.3999999761581</ele>
        <time>2022-06-30T08:49:21.000Z</time>
      </trkpt>
      <trkpt lat="47.33431" lon="-2.49989">
        <ele>1.3999999761581</ele>
        <time>2022-06-30T08:49:24.000Z</time>
      </trkpt>
      <trkpt lat="47.33422" lon="-2.49981">
        <ele>1.3999999761581</ele>
        <time>2022-06-30T08:49:26.000Z</time>
      </trkpt>
      <trkpt lat="47.33402" lon="-2.4997">
        <ele>1.3999999761581</ele>
        <time>2022-06-30T08:49:30.000Z</time>
      </trkpt>
      <trkpt lat="47.33397" lon="-2.49968">
        <ele>1.3999999761581</ele>
        <time>2022-06-30T08:49:31.000Z</time>
      </trkpt>
      <trkpt lat="47.33375" lon="-2.49951">
        <ele>1.3999999761581</ele>
        <time>2022-06-30T08:49:36.000Z</time>
      </trkpt>
      <trkpt lat="47.33371" lon="-2.49948">
        <ele>1.3999999761581</ele>
        <time>2022-06-30T08:49:37.000Z</time>
      </trkpt>
      <trkpt lat="47.33339" lon="-2.49917">
        <ele>1.3999999761581</ele>
        <time>2022-06-30T08:49:44.000Z</time>
      </trkpt>
      <trkpt lat="47.33318" lon="-2.49894">
        <ele>1.3999999761581</ele>
        <time>2022-06-30T08:49:49.000Z</time>
      </trkpt>
      <trkpt lat="47.33293" lon="-2.49868">
        <ele>1.3999999761581</ele>
        <time>2022-06-30T08:49:55.000Z</time>
      </trkpt>
      <trkpt lat="47.33271" lon="-2.49844">
        <ele>1.3999999761581</ele>
        <time>2022-06-30T08:50:00.000Z</time>
      </trkpt>
      <trkpt lat="47.33238" lon="-2.49808">
        <ele>1.3999999761581</ele>
        <time>2022-06-30T08:50:07.000Z</time>
      </trkpt>
      <trkpt lat="47.3321" lon="-2.4978">
        <ele>1.3999999761581</ele>
        <time>2022-06-30T08:50:13.000Z</time>
      </trkpt>
      <trkpt lat="47.33201" lon="-2.49771">
        <ele>1.3999999761581</ele>
        <time>2022-06-30T08:50:15.000Z</time>
      </trkpt>
      <trkpt lat="47.33183" lon="-2.49751">
        <ele>1.3999999761581</ele>
        <time>2022-06-30T08:50:19.000Z</time>
      </trkpt>
      <trkpt lat="47.3317" lon="-2.49736">
        <ele>1.3999999761581</ele>
        <time>2022-06-30T08:50:22.000Z</time>
      </trkpt>
      <trkpt lat="47.3316" lon="-2.49726">
        <ele>1.3999999761581</ele>
        <time>2022-06-30T08:50:24.000Z</time>
      </trkpt>
      <trkpt lat="47.33155" lon="-2.49722">
        <ele>1.3999999761581</ele>
        <time>2022-06-30T08:50:25.000Z</time>
      </trkpt>
      <trkpt lat="47.33144" lon="-2.49714">
        <ele>1.3999999761581</ele>
        <time>2022-06-30T08:50:27.000Z</time>
      </trkpt>
      <trkpt lat="47.33123" lon="-2.497">
        <ele>1.3999999761581</ele>
        <time>2022-06-30T08:50:31.000Z</time>
      </trkpt>
      <trkpt lat="47.3308" lon="-2.49677">
        <ele>1.3999999761581</ele>
        <time>2022-06-30T08:50:39.000Z</time>
      </trkpt>
      <trkpt lat="47.33033" lon="-2.49656">
        <ele>1.3999999761581</ele>
        <time>2022-06-30T08:50:48.000Z</time>
      </trkpt>
      <trkpt lat="47.33012" lon="-2.49645">
        <ele>1.3999999761581</ele>
        <time>2022-06-30T08:50:52.000Z</time>
      </trkpt>
      <trkpt lat="47.33003" lon="-2.49643">
        <ele>1.3999999761581</ele>
        <time>2022-06-30T08:50:54.000Z</time>
      </trkpt>
      <trkpt lat="47.32995" lon="-2.49643">
        <ele>1.3999999761581</ele>
        <time>2022-06-30T08:50:56.000Z</time>
      </trkpt>
      <trkpt lat="47.32985" lon="-2.49644">
        <ele>1.3999999761581</ele>
        <time>2022-06-30T08:50:59.000Z</time>
      </trkpt>
      <trkpt lat="47.3298" lon="-2.49645">
        <ele>1.3999999761581</ele>
        <time>2022-06-30T08:51:02.000Z</time>
      </trkpt>
      <trkpt lat="47.3298" lon="-2.49644">
        <ele>1.3999999761581</ele>
        <time>2022-06-30T08:51:03.000Z</time>
      </trkpt>
      <trkpt lat="47.3298" lon="-2.49644">
        <ele>1.3999999761581</ele>
        <time>2022-06-30T08:51:04.000Z</time>
      </trkpt>
      <trkpt lat="47.32979" lon="-2.49643">
        <ele>1.3999999761581</ele>
        <time>2022-06-30T08:51:19.000Z</time>
      </trkpt>
      <trkpt lat="47.32977" lon="-2.4964">
        <ele>1.3999999761581</ele>
        <time>2022-06-30T08:51:21.000Z</time>
      </trkpt>
      <trkpt lat="47.32966" lon="-2.4963">
        <ele>1.3999999761581</ele>
        <time>2022-06-30T08:51:26.000Z</time>
      </trkpt>
      <trkpt lat="47.32955" lon="-2.49613">
        <ele>1.3999999761581</ele>
        <time>2022-06-30T08:51:30.000Z</time>
      </trkpt>
      <trkpt lat="47.32948" lon="-2.49606">
        <ele>1.3999999761581</ele>
        <time>2022-06-30T08:51:32.000Z</time>
      </trkpt>
      <trkpt lat="47.3294" lon="-2.49602">
        <ele>1.3999999761581</ele>
        <time>2022-06-30T08:51:34.000Z</time>
      </trkpt>
      <trkpt lat="47.32917" lon="-2.49599">
        <ele>1.3999999761581</ele>
        <time>2022-06-30T08:51:39.000Z</time>
      </trkpt>
      <trkpt lat="47.32912" lon="-2.49598">
        <ele>1.3999999761581</ele>
        <time>2022-06-30T08:51:40.000Z</time>
      </trkpt>
      <trkpt lat="47.32883" lon="-2.49591">
        <ele>1.3999999761581</ele>
        <time>2022-06-30T08:51:46.000Z</time>
      </trkpt>
      <trkpt lat="47.32868" lon="-2.49583">
        <ele>1.3999999761581</ele>
        <time>2022-06-30T08:51:49.000Z</time>
      </trkpt>
      <trkpt lat="47.3286" lon="-2.49573">
        <ele>1.3999999761581</ele>
        <time>2022-06-30T08:51:51.000Z</time>
      </trkpt>
      <trkpt lat="47.32853" lon="-2.49561">
        <ele>1.3999999761581</ele>
        <time>2022-06-30T08:51:53.000Z</time>
      </trkpt>
      <trkpt lat="47.32842" lon="-2.49544">
        <ele>1.3999999761581</ele>
        <time>2022-06-30T08:51:56.000Z</time>
      </trkpt>
      <trkpt lat="47.32838" lon="-2.49538">
        <ele>1.3999999761581</ele>
        <time>2022-06-30T08:51:57.000Z</time>
      </trkpt>
      <trkpt lat="47.32834" lon="-2.49533">
        <ele>1.3999999761581</ele>
        <time>2022-06-30T08:51:58.000Z</time>
      </trkpt>
      <trkpt lat="47.32822" lon="-2.49517">
        <ele>1.3999999761581</ele>
        <time>2022-06-30T08:52:01.000Z</time>
      </trkpt>
      <trkpt lat="47.32819" lon="-2.49509">
        <ele>1.3999999761581</ele>
        <time>2022-06-30T08:52:02.000Z</time>
      </trkpt>
      <trkpt lat="47.32813" lon="-2.49496">
        <ele>1.3999999761581</ele>
        <time>2022-06-30T08:52:04.000Z</time>
      </trkpt>
      <trkpt lat="47.32798" lon="-2.49457">
        <ele>1.3999999761581</ele>
        <time>2022-06-30T08:52:10.000Z</time>
      </trkpt>
      <trkpt lat="47.32781" lon="-2.49444">
        <ele>1.3999999761581</ele>
        <time>2022-06-30T08:52:14.000Z</time>
      </trkpt>
      <trkpt lat="47.32776" lon="-2.49442">
        <ele>1.3999999761581</ele>
        <time>2022-06-30T08:52:15.000Z</time>
      </trkpt>
      <trkpt lat="47.32747" lon="-2.49425">
        <ele>1.3999999761581</ele>
        <time>2022-06-30T08:52:21.000Z</time>
      </trkpt>
      <trkpt lat="47.32726" lon="-2.49413">
        <ele>1.3999999761581</ele>
        <time>2022-06-30T08:52:25.000Z</time>
      </trkpt>
      <trkpt lat="47.32721" lon="-2.49409">
        <ele>1.3999999761581</ele>
        <time>2022-06-30T08:52:26.000Z</time>
      </trkpt>
      <trkpt lat="47.32695" lon="-2.49391">
        <ele>1.3999999761581</ele>
        <time>2022-06-30T08:52:31.000Z</time>
      </trkpt>
      <trkpt lat="47.32679" lon="-2.49376">
        <ele>1.3999999761581</ele>
        <time>2022-06-30T08:52:34.000Z</time>
      </trkpt>
      <trkpt lat="47.32675" lon="-2.49368">
        <ele>1.3999999761581</ele>
        <time>2022-06-30T08:52:35.000Z</time>
      </trkpt>
      <trkpt lat="47.32665" lon="-2.49347">
        <ele>1.3999999761581</ele>
        <time>2022-06-30T08:52:38.000Z</time>
      </trkpt>
      <trkpt lat="47.32662" lon="-2.4933">
        <ele>1.3999999761581</ele>
        <time>2022-06-30T08:52:40.000Z</time>
      </trkpt>
      <trkpt lat="47.32658" lon="-2.49307">
        <ele>1.3999999761581</ele>
        <time>2022-06-30T08:52:43.000Z</time>
      </trkpt>
      <trkpt lat="47.32651" lon="-2.49295">
        <ele>1.3999999761581</ele>
        <time>2022-06-30T08:52:45.000Z</time>
      </trkpt>
      <trkpt lat="47.32644" lon="-2.49283">
        <ele>1.3999999761581</ele>
        <time>2022-06-30T08:52:47.000Z</time>
      </trkpt>
      <trkpt lat="47.32632" lon="-2.49258">
        <ele>1.3999999761581</ele>
        <time>2022-06-30T08:52:51.000Z</time>
      </trkpt>
      <trkpt lat="47.32617" lon="-2.49225">
        <ele>1.3999999761581</ele>
        <time>2022-06-30T08:52:57.000Z</time>
      </trkpt>
      <trkpt lat="47.32613" lon="-2.49224">
        <ele>1.3999999761581</ele>
        <time>2022-06-30T08:52:58.000Z</time>
      </trkpt>
      <trkpt lat="47.32606" lon="-2.4923">
        <ele>1.3999999761581</ele>
        <time>2022-06-30T08:53:00.000Z</time>
      </trkpt>
      <trkpt lat="47.32584" lon="-2.49256">
        <ele>1.3999999761581</ele>
        <time>2022-06-30T08:53:06.000Z</time>
      </trkpt>
      <trkpt lat="47.32577" lon="-2.49265">
        <ele>1.3999999761581</ele>
        <time>2022-06-30T08:53:08.000Z</time>
      </trkpt>
      <trkpt lat="47.32561" lon="-2.49279">
        <ele>1.3999999761581</ele>
        <time>2022-06-30T08:53:12.000Z</time>
      </trkpt>
      <trkpt lat="47.32538" lon="-2.49299">
        <ele>1.3999999761581</ele>
        <time>2022-06-30T08:53:18.000Z</time>
      </trkpt>
      <trkpt lat="47.32527" lon="-2.4931">
        <ele>1.3999999761581</ele>
        <time>2022-06-30T08:53:21.000Z</time>
      </trkpt>
      <trkpt lat="47.32519" lon="-2.4931">
        <ele>1.3999999761581</ele>
        <time>2022-06-30T08:53:23.000Z</time>
      </trkpt>
      <trkpt lat="47.32506" lon="-2.49301">
        <ele>1.3999999761581</ele>
        <time>2022-06-30T08:53:26.000Z</time>
      </trkpt>
      <trkpt lat="47.32501" lon="-2.49298">
        <ele>1.3999999761581</ele>
        <time>2022-06-30T08:53:27.000Z</time>
      </trkpt>
      <trkpt lat="47.32465" lon="-2.49275">
        <ele>1.3999999761581</ele>
        <time>2022-06-30T08:53:34.000Z</time>
      </trkpt>
      <trkpt lat="47.32419" lon="-2.49247">
        <ele>1.3999999761581</ele>
        <time>2022-06-30T08:53:42.000Z</time>
      </trkpt>
      <trkpt lat="47.32365" lon="-2.49217">
        <ele>1.3999999761581</ele>
        <time>2022-06-30T08:53:51.000Z</time>
      </trkpt>
      <trkpt lat="47.32312" lon="-2.49191">
        <ele>1.3999999761581</ele>
        <time>2022-06-30T08:54:00.000Z</time>
      </trkpt>
      <trkpt lat="47.3227" lon="-2.49175">
        <ele>1.3999999761581</ele>
        <time>2022-06-30T08:54:07.000Z</time>
      </trkpt>
      <trkpt lat="47.32215" lon="-2.49155">
        <ele>1.3999999761581</ele>
        <time>2022-06-30T08:54:16.000Z</time>
      </trkpt>
      <trkpt lat="47.32186" lon="-2.49143">
        <ele>1.3999999761581</ele>
        <time>2022-06-30T08:54:22.000Z</time>
      </trkpt>
      <trkpt lat="47.32181" lon="-2.49129">
        <ele>1.3999999761581</ele>
        <time>2022-06-30T08:54:25.000Z</time>
      </trkpt>
      <trkpt lat="47.32178" lon="-2.49099">
        <ele>1.3999999761581</ele>
        <time>2022-06-30T08:54:30.000Z</time>
      </trkpt>
      <trkpt lat="47.32176" lon="-2.49072">
        <ele>1.3999999761581</ele>
        <time>2022-06-30T08:54:34.000Z</time>
      </trkpt>
      <trkpt lat="47.32171" lon="-2.49061">
        <ele>1.3999999761581</ele>
        <time>2022-06-30T08:54:36.000Z</time>
      </trkpt>
      <trkpt lat="47.32153" lon="-2.49049">
        <ele>1.3999999761581</ele>
        <time>2022-06-30T08:54:40.000Z</time>
      </trkpt>
      <trkpt lat="47.32149" lon="-2.49048">
        <ele>1.3999999761581</ele>
        <time>2022-06-30T08:54:41.000Z</time>
      </trkpt>
      <trkpt lat="47.32139" lon="-2.49043">
        <ele>1.3999999761581</ele>
        <time>2022-06-30T08:54:45.000Z</time>
      </trkpt>
      <trkpt lat="47.32138" lon="-2.49029">
        <ele>1.3999999761581</ele>
        <time>2022-06-30T08:54:50.000Z</time>
      </trkpt>
      <trkpt lat="47.32141" lon="-2.49022">
        <ele>1.3999999761581</ele>
        <time>2022-06-30T08:54:54.000Z</time>
      </trkpt>
      <trkpt lat="47.32141" lon="-2.49019">
        <ele>1.3999999761581</ele>
        <time>2022-06-30T08:54:55.000Z</time>
      </trkpt>
      <trkpt lat="47.32139" lon="-2.48999">
        <ele>1.3999999761581</ele>
        <time>2022-06-30T08:54:59.000Z</time>
      </trkpt>
      <trkpt lat="47.32137" lon="-2.48954">
        <ele>1.3999999761581</ele>
        <time>2022-06-30T08:55:05.000Z</time>
      </trkpt>
      <trkpt lat="47.32142" lon="-2.4892">
        <ele>1.3999999761581</ele>
        <time>2022-06-30T08:55:09.000Z</time>
      </trkpt>
      <trkpt lat="47.32145" lon="-2.48912">
        <ele>1.3999999761581</ele>
        <time>2022-06-30T08:55:10.000Z</time>
      </trkpt>
      <trkpt lat="47.3216" lon="-2.48882">
        <ele>1.3999999761581</ele>
        <time>2022-06-30T08:55:15.000Z</time>
      </trkpt>
      <trkpt lat="47.32172" lon="-2.48858">
        <ele>1.3999999761581</ele>
        <time>2022-06-30T08:55:20.000Z</time>
      </trkpt>
      <trkpt lat="47.32176" lon="-2.4885">
        <ele>1.3999999761581</ele>
        <time>2022-06-30T08:55:22.000Z</time>
      </trkpt>
      <trkpt lat="47.32194" lon="-2.48821">
        <ele>1.3999999761581</ele>
        <time>2022-06-30T08:55:29.000Z</time>
      </trkpt>
      <trkpt lat="47.32208" lon="-2.48798">
        <ele>1.3999999761581</ele>
        <time>2022-06-30T08:55:36.000Z</time>
      </trkpt>
      <trkpt lat="47.32212" lon="-2.4879">
        <ele>1.3999999761581</ele>
        <time>2022-06-30T08:55:41.000Z</time>
      </trkpt>
      <trkpt lat="47.32213" lon="-2.48789">
        <ele>1.3999999761581</ele>
        <time>2022-06-30T08:55:45.000Z</time>
      </trkpt>
      <trkpt lat="47.32214" lon="-2.48787">
        <ele>1.3999999761581</ele>
        <time>2022-06-30T08:55:46.000Z</time>
      </trkpt>
      <trkpt lat="47.32216" lon="-2.48777">
        <ele>1.3999999761581</ele>
        <time>2022-06-30T08:55:50.000Z</time>
      </trkpt>
      <trkpt lat="47.32222" lon="-2.48764">
        <ele>1.3999999761581</ele>
        <time>2022-06-30T08:55:53.000Z</time>
      </trkpt>
      <trkpt lat="47.32224" lon="-2.48758">
        <ele>1.3999999761581</ele>
        <time>2022-06-30T08:55:54.000Z</time>
      </trkpt>
      <trkpt lat="47.32235" lon="-2.48719">
        <ele>1.3999999761581</ele>
        <time>2022-06-30T08:56:00.000Z</time>
      </trkpt>
      <trkpt lat="47.32251" lon="-2.48673">
        <ele>1.3999999761581</ele>
        <time>2022-06-30T08:56:07.000Z</time>
      </trkpt>
      <trkpt lat="47.32258" lon="-2.48662">
        <ele>1.3999999761581</ele>
        <time>2022-06-30T08:56:09.000Z</time>
      </trkpt>
      <trkpt lat="47.32271" lon="-2.48648">
        <ele>1.3999999761581</ele>
        <time>2022-06-30T08:56:12.000Z</time>
      </trkpt>
      <trkpt lat="47.32275" lon="-2.48644">
        <ele>1.3999999761581</ele>
        <time>2022-06-30T08:56:13.000Z</time>
      </trkpt>
      <trkpt lat="47.3231" lon="-2.48618">
        <ele>1.3999999761581</ele>
        <time>2022-06-30T08:56:20.000Z</time>
      </trkpt>
      <trkpt lat="47.3235" lon="-2.48589">
        <ele>1.3999999761581</ele>
        <time>2022-06-30T08:56:28.000Z</time>
      </trkpt>
      <trkpt lat="47.32384" lon="-2.48569">
        <ele>1.3999999761581</ele>
        <time>2022-06-30T08:56:35.000Z</time>
      </trkpt>
      <trkpt lat="47.32395" lon="-2.48566">
        <ele>1.3999999761581</ele>
        <time>2022-06-30T08:56:37.000Z</time>
      </trkpt>
      <trkpt lat="47.32412" lon="-2.48565">
        <ele>1.3999999761581</ele>
        <time>2022-06-30T08:56:40.000Z</time>
      </trkpt>
      <trkpt lat="47.32442" lon="-2.48572">
        <ele>1.3999999761581</ele>
        <time>2022-06-30T08:56:46.000Z</time>
      </trkpt>
      <trkpt lat="47.32477" lon="-2.4859">
        <ele>1.3999999761581</ele>
        <time>2022-06-30T08:56:53.000Z</time>
      </trkpt>
      <trkpt lat="47.32507" lon="-2.48618">
        <ele>1.3999999761581</ele>
        <time>2022-06-30T08:56:59.000Z</time>
      </trkpt>
      <trkpt lat="47.32545" lon="-2.48656">
        <ele>1.3999999761581</ele>
        <time>2022-06-30T08:57:07.000Z</time>
      </trkpt>
      <trkpt lat="47.32571" lon="-2.4867">
        <ele>1.3999999761581</ele>
        <time>2022-06-30T08:57:12.000Z</time>
      </trkpt>
      <trkpt lat="47.32604" lon="-2.48672">
        <ele>1.3999999761581</ele>
        <time>2022-06-30T08:57:18.000Z</time>
      </trkpt>
      <trkpt lat="47.32635" lon="-2.48662">
        <ele>1.3999999761581</ele>
        <time>2022-06-30T08:57:24.000Z</time>
      </trkpt>
      <trkpt lat="47.32685" lon="-2.48637">
        <ele>1.3999999761581</ele>
        <time>2022-06-30T08:57:34.000Z</time>
      </trkpt>
      <trkpt lat="47.32731" lon="-2.48612">
        <ele>1.3999999761581</ele>
        <time>2022-06-30T08:57:43.000Z</time>
      </trkpt>
      <trkpt lat="47.32777" lon="-2.4859">
        <ele>1.3999999761581</ele>
        <time>2022-06-30T08:57:52.000Z</time>
      </trkpt>
      <trkpt lat="47.32814" lon="-2.48589">
        <ele>1.3999999761581</ele>
        <time>2022-06-30T08:57:59.000Z</time>
      </trkpt>
      <trkpt lat="47.32868" lon="-2.48591">
        <ele>1.3999999761581</ele>
        <time>2022-06-30T08:58:09.000Z</time>
      </trkpt>
      <trkpt lat="47.32873" lon="-2.48591">
        <ele>1.3999999761581</ele>
        <time>2022-06-30T08:58:10.000Z</time>
      </trkpt>
      <trkpt lat="47.32884" lon="-2.48588">
        <ele>1.3999999761581</ele>
        <time>2022-06-30T08:58:12.000Z</time>
      </trkpt>
      <trkpt lat="47.32899" lon="-2.4858">
        <ele>1.3999999761581</ele>
        <time>2022-06-30T08:58:15.000Z</time>
      </trkpt>
      <trkpt lat="47.32922" lon="-2.48557">
        <ele>1.3999999761581</ele>
        <time>2022-06-30T08:58:20.000Z</time>
      </trkpt>
      <trkpt lat="47.3296" lon="-2.48514">
        <ele>1.3999999761581</ele>
        <time>2022-06-30T08:58:29.000Z</time>
      </trkpt>
      <trkpt lat="47.32991" lon="-2.48488">
        <ele>1.3999999761581</ele>
        <time>2022-06-30T08:58:35.000Z</time>
      </trkpt>
      <trkpt lat="47.33034" lon="-2.48459">
        <ele>1.3999999761581</ele>
        <time>2022-06-30T08:58:43.000Z</time>
      </trkpt>
      <trkpt lat="47.33085" lon="-2.48425">
        <ele>1.3999999761581</ele>
        <time>2022-06-30T08:58:53.000Z</time>
      </trkpt>
      <trkpt lat="47.3309" lon="-2.48422">
        <ele>1.3999999761581</ele>
        <time>2022-06-30T08:58:54.000Z</time>
      </trkpt>
      <trkpt lat="47.33121" lon="-2.484">
        <ele>1.3999999761581</ele>
        <time>2022-06-30T08:59:00.000Z</time>
      </trkpt>
      <trkpt lat="47.33129" lon="-2.48389">
        <ele>1.3999999761581</ele>
        <time>2022-06-30T08:59:02.000Z</time>
      </trkpt>
      <trkpt lat="47.33141" lon="-2.48363">
        <ele>1.3999999761581</ele>
        <time>2022-06-30T08:59:07.000Z</time>
      </trkpt>
      <trkpt lat="47.33145" lon="-2.48337">
        <ele>1.3999999761581</ele>
        <time>2022-06-30T08:59:12.000Z</time>
      </trkpt>
      <trkpt lat="47.33145" lon="-2.4833">
        <ele>1.3999999761581</ele>
        <time>2022-06-30T08:59:13.000Z</time>
      </trkpt>
      <trkpt lat="47.33145" lon="-2.48322">
        <ele>1.3999999761581</ele>
        <time>2022-06-30T08:59:14.000Z</time>
      </trkpt>
      <trkpt lat="47.33145" lon="-2.48284">
        <ele>1.3999999761581</ele>
        <time>2022-06-30T08:59:20.000Z</time>
      </trkpt>
      <trkpt lat="47.33142" lon="-2.48244">
        <ele>1.3999999761581</ele>
        <time>2022-06-30T08:59:28.000Z</time>
      </trkpt>
      <trkpt lat="47.33142" lon="-2.48237">
        <ele>1.3999999761581</ele>
        <time>2022-06-30T08:59:29.000Z</time>
      </trkpt>
      <trkpt lat="47.33142" lon="-2.48206">
        <ele>1.3999999761581</ele>
        <time>2022-06-30T08:59:33.000Z</time>
      </trkpt>
      <trkpt lat="47.33143" lon="-2.48132">
        <ele>1.3999999761581</ele>
        <time>2022-06-30T08:59:41.000Z</time>
      </trkpt>
      <trkpt lat="47.33145" lon="-2.48066">
        <ele>1.3999999761581</ele>
        <time>2022-06-30T08:59:48.000Z</time>
      </trkpt>
      <trkpt lat="47.33148" lon="-2.47995">
        <ele>1.3999999761581</ele>
        <time>2022-06-30T08:59:56.000Z</time>
      </trkpt>
      <trkpt lat="47.3315" lon="-2.47942">
        <ele>1.3999999761581</ele>
        <time>2022-06-30T09:00:03.000Z</time>
      </trkpt>
      <trkpt lat="47.33151" lon="-2.47934">
        <ele>1.3999999761581</ele>
        <time>2022-06-30T09:00:04.000Z</time>
      </trkpt>
      <trkpt lat="47.33159" lon="-2.47913">
        <ele>1.3999999761581</ele>
        <time>2022-06-30T09:00:07.000Z</time>
      </trkpt>
      <trkpt lat="47.33162" lon="-2.47906">
        <ele>1.3999999761581</ele>
        <time>2022-06-30T09:00:08.000Z</time>
      </trkpt>
      <trkpt lat="47.33189" lon="-2.47863">
        <ele>1.3999999761581</ele>
        <time>2022-06-30T09:00:15.000Z</time>
      </trkpt>
      <trkpt lat="47.33219" lon="-2.47823">
        <ele>1.3999999761581</ele>
        <time>2022-06-30T09:00:23.000Z</time>
      </trkpt>
      <trkpt lat="47.33252" lon="-2.47786">
        <ele>1.3999999761581</ele>
        <time>2022-06-30T09:00:31.000Z</time>
      </trkpt>
      <trkpt lat="47.33277" lon="-2.47761">
        <ele>1.3999999761581</ele>
        <time>2022-06-30T09:00:37.000Z</time>
      </trkpt>
      <trkpt lat="47.33286" lon="-2.47755">
        <ele>1.3999999761581</ele>
        <time>2022-06-30T09:00:39.000Z</time>
      </trkpt>
      <trkpt lat="47.33299" lon="-2.47745">
        <ele>1.7999999523163</ele>
        <time>2022-06-30T09:00:42.000Z</time>
      </trkpt>
      <trkpt lat="47.33303" lon="-2.47742">
        <ele>2.4000000953674</ele>
        <time>2022-06-30T09:00:43.000Z</time>
      </trkpt>
      <trkpt lat="47.33307" lon="-2.47739">
        <ele>2.7999999523163</ele>
        <time>2022-06-30T09:00:44.000Z</time>
      </trkpt>
      <trkpt lat="47.33311" lon="-2.47736">
        <ele>3.2000000476837</ele>
        <time>2022-06-30T09:00:45.000Z</time>
      </trkpt>
      <trkpt lat="47.33314" lon="-2.47734">
        <ele>3.5999999046326</ele>
        <time>2022-06-30T09:00:46.000Z</time>
      </trkpt>
      <trkpt lat="47.33345" lon="-2.4771">
        <ele>3.5999999046326</ele>
        <time>2022-06-30T09:00:54.000Z</time>
      </trkpt>
      <trkpt lat="47.33361" lon="-2.47695">
        <ele>4.4000000953674</ele>
        <time>2022-06-30T09:01:00.000Z</time>
      </trkpt>
      <trkpt lat="47.33363" lon="-2.47693">
        <ele>4.8000001907349</ele>
        <time>2022-06-30T09:01:01.000Z</time>
      </trkpt>
      <trkpt lat="47.33366" lon="-2.47692">
        <ele>5.1999998092651</ele>
        <time>2022-06-30T09:01:02.000Z</time>
      </trkpt>
      <trkpt lat="47.33368" lon="-2.4769">
        <ele>5.5999999046326</ele>
        <time>2022-06-30T09:01:03.000Z</time>
      </trkpt>
      <trkpt lat="47.33375" lon="-2.47684">
        <ele>5.5999999046326</ele>
        <time>2022-06-30T09:01:06.000Z</time>
      </trkpt>
      <trkpt lat="47.33389" lon="-2.47672">
        <ele>5.5999999046326</ele>
        <time>2022-06-30T09:01:12.000Z</time>
      </trkpt>
      <trkpt lat="47.33397" lon="-2.47665">
        <ele>6</ele>
        <time>2022-06-30T09:01:16.000Z</time>
      </trkpt>
      <trkpt lat="47.33398" lon="-2.47663">
        <ele>6.4000000953674</ele>
        <time>2022-06-30T09:01:17.000Z</time>
      </trkpt>
      <trkpt lat="47.334" lon="-2.47661">
        <ele>6.8000001907349</ele>
        <time>2022-06-30T09:01:18.000Z</time>
      </trkpt>
      <trkpt lat="47.33403" lon="-2.47658">
        <ele>7.1999998092651</ele>
        <time>2022-06-30T09:01:19.000Z</time>
      </trkpt>
      <trkpt lat="47.33405" lon="-2.47655">
        <ele>7.8000001907349</ele>
        <time>2022-06-30T09:01:20.000Z</time>
      </trkpt>
      <trkpt lat="47.33419" lon="-2.47644">
        <ele>7.8000001907349</ele>
        <time>2022-06-30T09:01:26.000Z</time>
      </trkpt>
      <trkpt lat="47.33423" lon="-2.47641">
        <ele>7.8000001907349</ele>
        <time>2022-06-30T09:01:28.000Z</time>
      </trkpt>
      <trkpt lat="47.33427" lon="-2.47639">
        <ele>8.1999998092651</ele>
        <time>2022-06-30T09:01:29.000Z</time>
      </trkpt>
      <trkpt lat="47.33431" lon="-2.47638">
        <ele>8.6000003814697</ele>
        <time>2022-06-30T09:01:30.000Z</time>
      </trkpt>
      <trkpt lat="47.33433" lon="-2.47636">
        <ele>9</ele>
        <time>2022-06-30T09:01:31.000Z</time>
      </trkpt>
      <trkpt lat="47.33435" lon="-2.47635">
        <ele>9.3999996185303</ele>
        <time>2022-06-30T09:01:32.000Z</time>
      </trkpt>
      <trkpt lat="47.33436" lon="-2.47634">
        <ele>9.8000001907349</ele>
        <time>2022-06-30T09:01:33.000Z</time>
      </trkpt>
      <trkpt lat="47.33437" lon="-2.47633">
        <ele>10.39999961853</ele>
        <time>2022-06-30T09:01:34.000Z</time>
      </trkpt>
      <trkpt lat="47.33438" lon="-2.47633">
        <ele>11</ele>
        <time>2022-06-30T09:01:35.000Z</time>
      </trkpt>
      <trkpt lat="47.33438" lon="-2.47632">
        <ele>11.39999961853</ele>
        <time>2022-06-30T09:01:36.000Z</time>
      </trkpt>
      <trkpt lat="47.33439" lon="-2.47631">
        <ele>12</ele>
        <time>2022-06-30T09:01:37.000Z</time>
      </trkpt>
      <trkpt lat="47.33463" lon="-2.47617">
        <ele>14</ele>
        <time>2022-06-30T09:02:20.000Z</time>
      </trkpt>
      <trkpt lat="47.33468" lon="-2.47614">
        <ele>14</ele>
        <time>2022-06-30T09:02:23.000Z</time>
      </trkpt>
      <trkpt lat="47.3347" lon="-2.47613">
        <ele>14.39999961853</ele>
        <time>2022-06-30T09:02:24.000Z</time>
      </trkpt>
      <trkpt lat="47.33472" lon="-2.47611">
        <ele>14.800000190735</ele>
        <time>2022-06-30T09:02:25.000Z</time>
      </trkpt>
      <trkpt lat="47.33473" lon="-2.47609">
        <ele>15.199999809265</ele>
        <time>2022-06-30T09:02:26.000Z</time>
      </trkpt>
      <trkpt lat="47.33475" lon="-2.47607">
        <ele>15.60000038147</ele>
        <time>2022-06-30T09:02:27.000Z</time>
      </trkpt>
      <trkpt lat="47.33476" lon="-2.47604">
        <ele>16</ele>
        <time>2022-06-30T09:02:28.000Z</time>
      </trkpt>
      <trkpt lat="47.33479" lon="-2.476">
        <ele>16</ele>
        <time>2022-06-30T09:02:30.000Z</time>
      </trkpt>
      <trkpt lat="47.33478" lon="-2.47594">
        <ele>16</ele>
        <time>2022-06-30T09:02:33.000Z</time>
      </trkpt>
      <trkpt lat="47.33478" lon="-2.47591">
        <ele>16</ele>
        <time>2022-06-30T09:02:35.000Z</time>
      </trkpt>
      <trkpt lat="47.33475" lon="-2.47585">
        <ele>16</ele>
        <time>2022-06-30T09:02:38.000Z</time>
      </trkpt>
      <trkpt lat="47.33471" lon="-2.47578">
        <ele>16</ele>
        <time>2022-06-30T09:02:41.000Z</time>
      </trkpt>
      <trkpt lat="47.33461" lon="-2.47564">
        <ele>16.39999961853</ele>
        <time>2022-06-30T09:02:46.000Z</time>
      </trkpt>
      <trkpt lat="47.3346" lon="-2.4756">
        <ele>16.799999237061</ele>
        <time>2022-06-30T09:02:47.000Z</time>
      </trkpt>
      <trkpt lat="47.3346" lon="-2.47557">
        <ele>17.200000762939</ele>
        <time>2022-06-30T09:02:48.000Z</time>
      </trkpt>
      <trkpt lat="47.33458" lon="-2.47555">
        <ele>17.799999237061</ele>
        <time>2022-06-30T09:02:49.000Z</time>
      </trkpt>
      <trkpt lat="47.33457" lon="-2.47553">
        <ele>18.200000762939</ele>
        <time>2022-06-30T09:02:50.000Z</time>
      </trkpt>
      <trkpt lat="47.33453" lon="-2.47544">
        <ele>18.200000762939</ele>
        <time>2022-06-30T09:02:55.000Z</time>
      </trkpt>
      <trkpt lat="47.33445" lon="-2.47524">
        <ele>18.200000762939</ele>
        <time>2022-06-30T09:03:00.000Z</time>
      </trkpt>
      <trkpt lat="47.33431" lon="-2.47491">
        <ele>18.200000762939</ele>
        <time>2022-06-30T09:03:07.000Z</time>
      </trkpt>
      <trkpt lat="47.33424" lon="-2.47469">
        <ele>18.200000762939</ele>
        <time>2022-06-30T09:03:11.000Z</time>
      </trkpt>
      <trkpt lat="47.3342" lon="-2.47459">
        <ele>18.200000762939</ele>
        <time>2022-06-30T09:03:13.000Z</time>
      </trkpt>
      <trkpt lat="47.33414" lon="-2.47442">
        <ele>18.200000762939</ele>
        <time>2022-06-30T09:03:16.000Z</time>
      </trkpt>
      <trkpt lat="47.33411" lon="-2.47421">
        <ele>18.200000762939</ele>
        <time>2022-06-30T09:03:19.000Z</time>
      </trkpt>
      <trkpt lat="47.33404" lon="-2.47387">
        <ele>18.200000762939</ele>
        <time>2022-06-30T09:03:24.000Z</time>
      </trkpt>
      <trkpt lat="47.334" lon="-2.47374">
        <ele>18.200000762939</ele>
        <time>2022-06-30T09:03:26.000Z</time>
      </trkpt>
      <trkpt lat="47.33394" lon="-2.47355">
        <ele>18.200000762939</ele>
        <time>2022-06-30T09:03:29.000Z</time>
      </trkpt>
      <trkpt lat="47.33389" lon="-2.47342">
        <ele>18.200000762939</ele>
        <time>2022-06-30T09:03:31.000Z</time>
      </trkpt>
      <trkpt lat="47.33389" lon="-2.47335">
        <ele>18.200000762939</ele>
        <time>2022-06-30T09:03:32.000Z</time>
      </trkpt>
      <trkpt lat="47.33384" lon="-2.47286">
        <ele>18.200000762939</ele>
        <time>2022-06-30T09:03:38.000Z</time>
      </trkpt>
      <trkpt lat="47.33378" lon="-2.47234">
        <ele>18.200000762939</ele>
        <time>2022-06-30T09:03:44.000Z</time>
      </trkpt>
      <trkpt lat="47.33368" lon="-2.47176">
        <ele>18.200000762939</ele>
        <time>2022-06-30T09:03:52.000Z</time>
      </trkpt>
      <trkpt lat="47.33366" lon="-2.4715">
        <ele>18.200000762939</ele>
        <time>2022-06-30T09:03:58.000Z</time>
      </trkpt>
      <trkpt lat="47.33375" lon="-2.47143">
        <ele>18.200000762939</ele>
        <time>2022-06-30T09:04:01.000Z</time>
      </trkpt>
      <trkpt lat="47.33387" lon="-2.4712">
        <ele>18.200000762939</ele>
        <time>2022-06-30T09:04:06.000Z</time>
      </trkpt>
      <trkpt lat="47.33391" lon="-2.47099">
        <ele>18.200000762939</ele>
        <time>2022-06-30T09:04:09.000Z</time>
      </trkpt>
      <trkpt lat="47.33397" lon="-2.47071">
        <ele>18.200000762939</ele>
        <time>2022-06-30T09:04:13.000Z</time>
      </trkpt>
      <trkpt lat="47.33407" lon="-2.4704">
        <ele>19</ele>
        <time>2022-06-30T09:04:18.000Z</time>
      </trkpt>
      <trkpt lat="47.3341" lon="-2.47033">
        <ele>19.39999961853</ele>
        <time>2022-06-30T09:04:19.000Z</time>
      </trkpt>
      <trkpt lat="47.33412" lon="-2.47028">
        <ele>19.799999237061</ele>
        <time>2022-06-30T09:04:20.000Z</time>
      </trkpt>
      <trkpt lat="47.33415" lon="-2.47022">
        <ele>20.200000762939</ele>
        <time>2022-06-30T09:04:21.000Z</time>
      </trkpt>
      <trkpt lat="47.33418" lon="-2.47016">
        <ele>20.200000762939</ele>
        <time>2022-06-30T09:04:22.000Z</time>
      </trkpt>
      <trkpt lat="47.33425" lon="-2.47006">
        <ele>20.200000762939</ele>
        <time>2022-06-30T09:04:24.000Z</time>
      </trkpt>
      <trkpt lat="47.33432" lon="-2.46996">
        <ele>20.200000762939</ele>
        <time>2022-06-30T09:04:26.000Z</time>
      </trkpt>
      <trkpt lat="47.33458" lon="-2.46957">
        <ele>20.200000762939</ele>
        <time>2022-06-30T09:04:34.000Z</time>
      </trkpt>
      <trkpt lat="47.33464" lon="-2.46946">
        <ele>20.200000762939</ele>
        <time>2022-06-30T09:04:36.000Z</time>
      </trkpt>
      <trkpt lat="47.33473" lon="-2.46933">
        <ele>20.200000762939</ele>
        <time>2022-06-30T09:04:39.000Z</time>
      </trkpt>
      <trkpt lat="47.33476" lon="-2.46929">
        <ele>20.60000038147</ele>
        <time>2022-06-30T09:04:40.000Z</time>
      </trkpt>
      <trkpt lat="47.33479" lon="-2.46925">
        <ele>21</ele>
        <time>2022-06-30T09:04:41.000Z</time>
      </trkpt>
      <trkpt lat="47.33483" lon="-2.46921">
        <ele>21.39999961853</ele>
        <time>2022-06-30T09:04:42.000Z</time>
      </trkpt>
      <trkpt lat="47.33486" lon="-2.46919">
        <ele>22.39999961853</ele>
        <time>2022-06-30T09:04:43.000Z</time>
      </trkpt>
      <trkpt lat="47.33493" lon="-2.46914">
        <ele>22.39999961853</ele>
        <time>2022-06-30T09:04:45.000Z</time>
      </trkpt>
      <trkpt lat="47.3351" lon="-2.46896">
        <ele>22.39999961853</ele>
        <time>2022-06-30T09:04:51.000Z</time>
      </trkpt>
      <trkpt lat="47.33513" lon="-2.46893">
        <ele>22.799999237061</ele>
        <time>2022-06-30T09:04:52.000Z</time>
      </trkpt>
      <trkpt lat="47.33516" lon="-2.4689">
        <ele>23.200000762939</ele>
        <time>2022-06-30T09:04:53.000Z</time>
      </trkpt>
      <trkpt lat="47.33519" lon="-2.46886">
        <ele>23.60000038147</ele>
        <time>2022-06-30T09:04:54.000Z</time>
      </trkpt>
      <trkpt lat="47.33522" lon="-2.46883">
        <ele>24</ele>
        <time>2022-06-30T09:04:55.000Z</time>
      </trkpt>
      <trkpt lat="47.33525" lon="-2.4688">
        <ele>24.39999961853</ele>
        <time>2022-06-30T09:04:56.000Z</time>
      </trkpt>
      <trkpt lat="47.33527" lon="-2.46876">
        <ele>24.39999961853</ele>
        <time>2022-06-30T09:04:57.000Z</time>
      </trkpt>
      <trkpt lat="47.33532" lon="-2.46859">
        <ele>24.799999237061</ele>
        <time>2022-06-30T09:05:01.000Z</time>
      </trkpt>
      <trkpt lat="47.33532" lon="-2.46855">
        <ele>25.200000762939</ele>
        <time>2022-06-30T09:05:02.000Z</time>
      </trkpt>
      <trkpt lat="47.33532" lon="-2.46851">
        <ele>25.60000038147</ele>
        <time>2022-06-30T09:05:03.000Z</time>
      </trkpt>
      <trkpt lat="47.33532" lon="-2.46846">
        <ele>26</ele>
        <time>2022-06-30T09:05:04.000Z</time>
      </trkpt>
      <trkpt lat="47.33532" lon="-2.46842">
        <ele>26.39999961853</ele>
        <time>2022-06-30T09:05:05.000Z</time>
      </trkpt>
      <trkpt lat="47.33534" lon="-2.46839">
        <ele>26.39999961853</ele>
        <time>2022-06-30T09:05:06.000Z</time>
      </trkpt>
      <trkpt lat="47.33539" lon="-2.46833">
        <ele>27</ele>
        <time>2022-06-30T09:05:08.000Z</time>
      </trkpt>
      <trkpt lat="47.33542" lon="-2.4683">
        <ele>27.39999961853</ele>
        <time>2022-06-30T09:05:09.000Z</time>
      </trkpt>
      <trkpt lat="47.33544" lon="-2.46827">
        <ele>27.799999237061</ele>
        <time>2022-06-30T09:05:10.000Z</time>
      </trkpt>
      <trkpt lat="47.33546" lon="-2.46824">
        <ele>28.200000762939</ele>
        <time>2022-06-30T09:05:11.000Z</time>
      </trkpt>
      <trkpt lat="47.33549" lon="-2.46821">
        <ele>28.60000038147</ele>
        <time>2022-06-30T09:05:12.000Z</time>
      </trkpt>
      <trkpt lat="47.33561" lon="-2.46809">
        <ele>28.60000038147</ele>
        <time>2022-06-30T09:05:17.000Z</time>
      </trkpt>
      <trkpt lat="47.33567" lon="-2.46802">
        <ele>29</ele>
        <time>2022-06-30T09:05:20.000Z</time>
      </trkpt>
      <trkpt lat="47.3357" lon="-2.46799">
        <ele>29.39999961853</ele>
        <time>2022-06-30T09:05:21.000Z</time>
      </trkpt>
      <trkpt lat="47.33571" lon="-2.46797">
        <ele>29.799999237061</ele>
        <time>2022-06-30T09:05:22.000Z</time>
      </trkpt>
      <trkpt lat="47.33573" lon="-2.46793">
        <ele>30.39999961853</ele>
        <time>2022-06-30T09:05:23.000Z</time>
      </trkpt>
      <trkpt lat="47.33576" lon="-2.46791">
        <ele>30.799999237061</ele>
        <time>2022-06-30T09:05:24.000Z</time>
      </trkpt>
      <trkpt lat="47.33579" lon="-2.46788">
        <ele>30.799999237061</ele>
        <time>2022-06-30T09:05:25.000Z</time>
      </trkpt>
      <trkpt lat="47.33584" lon="-2.46783">
        <ele>31.200000762939</ele>
        <time>2022-06-30T09:05:27.000Z</time>
      </trkpt>
      <trkpt lat="47.33586" lon="-2.46781">
        <ele>31.60000038147</ele>
        <time>2022-06-30T09:05:28.000Z</time>
      </trkpt>
      <trkpt lat="47.33589" lon="-2.46779">
        <ele>32</ele>
        <time>2022-06-30T09:05:29.000Z</time>
      </trkpt>
      <trkpt lat="47.33592" lon="-2.46777">
        <ele>32.599998474121</ele>
        <time>2022-06-30T09:05:30.000Z</time>
      </trkpt>
      <trkpt lat="47.33594" lon="-2.46775">
        <ele>33</ele>
        <time>2022-06-30T09:05:31.000Z</time>
      </trkpt>
      <trkpt lat="47.33597" lon="-2.46773">
        <ele>33</ele>
        <time>2022-06-30T09:05:32.000Z</time>
      </trkpt>
      <trkpt lat="47.33599" lon="-2.46771">
        <ele>33.400001525879</ele>
        <time>2022-06-30T09:05:33.000Z</time>
      </trkpt>
      <trkpt lat="47.33602" lon="-2.46768">
        <ele>33.799999237061</ele>
        <time>2022-06-30T09:05:34.000Z</time>
      </trkpt>
      <trkpt lat="47.33604" lon="-2.46766">
        <ele>34.200000762939</ele>
        <time>2022-06-30T09:05:35.000Z</time>
      </trkpt>
      <trkpt lat="47.33606" lon="-2.46764">
        <ele>34.599998474121</ele>
        <time>2022-06-30T09:05:36.000Z</time>
      </trkpt>
      <trkpt lat="47.33607" lon="-2.46762">
        <ele>35</ele>
        <time>2022-06-30T09:05:37.000Z</time>
      </trkpt>
      <trkpt lat="47.33613" lon="-2.46755">
        <ele>35</ele>
        <time>2022-06-30T09:05:40.000Z</time>
      </trkpt>
      <trkpt lat="47.33618" lon="-2.46751">
        <ele>35</ele>
        <time>2022-06-30T09:05:42.000Z</time>
      </trkpt>
      <trkpt lat="47.33619" lon="-2.46747">
        <ele>35.400001525879</ele>
        <time>2022-06-30T09:05:43.000Z</time>
      </trkpt>
      <trkpt lat="47.33619" lon="-2.46743">
        <ele>35.799999237061</ele>
        <time>2022-06-30T09:05:44.000Z</time>
      </trkpt>
      <trkpt lat="47.3362" lon="-2.4674">
        <ele>36.400001525879</ele>
        <time>2022-06-30T09:05:45.000Z</time>
      </trkpt>
      <trkpt lat="47.33619" lon="-2.46736">
        <ele>36.799999237061</ele>
        <time>2022-06-30T09:05:46.000Z</time>
      </trkpt>
      <trkpt lat="47.33618" lon="-2.46733">
        <ele>37.200000762939</ele>
        <time>2022-06-30T09:05:47.000Z</time>
      </trkpt>
      <trkpt lat="47.33615" lon="-2.46723">
        <ele>37.200000762939</ele>
        <time>2022-06-30T09:05:50.000Z</time>
      </trkpt>
      <trkpt lat="47.33606" lon="-2.46698">
        <ele>37.200000762939</ele>
        <time>2022-06-30T09:05:57.000Z</time>
      </trkpt>
      <trkpt lat="47.33601" lon="-2.46682">
        <ele>37.200000762939</ele>
        <time>2022-06-30T09:06:02.000Z</time>
      </trkpt>
      <trkpt lat="47.336" lon="-2.4668">
        <ele>37.200000762939</ele>
        <time>2022-06-30T09:06:03.000Z</time>
      </trkpt>
      <trkpt lat="47.33597" lon="-2.46672">
        <ele>37.200000762939</ele>
        <time>2022-06-30T09:06:07.000Z</time>
      </trkpt>
      <trkpt lat="47.33591" lon="-2.46658">
        <ele>37.200000762939</ele>
        <time>2022-06-30T09:06:14.000Z</time>
      </trkpt>
      <trkpt lat="47.33583" lon="-2.46638">
        <ele>37.200000762939</ele>
        <time>2022-06-30T09:06:21.000Z</time>
      </trkpt>
      <trkpt lat="47.33575" lon="-2.46613">
        <ele>37.200000762939</ele>
        <time>2022-06-30T09:06:28.000Z</time>
      </trkpt>
      <trkpt lat="47.33567" lon="-2.46591">
        <ele>37.200000762939</ele>
        <time>2022-06-30T09:06:34.000Z</time>
      </trkpt>
      <trkpt lat="47.33564" lon="-2.46589">
        <ele>37.200000762939</ele>
        <time>2022-06-30T09:06:35.000Z</time>
      </trkpt>
      <trkpt lat="47.33554" lon="-2.46572">
        <ele>37.200000762939</ele>
        <time>2022-06-30T09:06:39.000Z</time>
      </trkpt>
      <trkpt lat="47.33553" lon="-2.46567">
        <ele>37.200000762939</ele>
        <time>2022-06-30T09:06:40.000Z</time>
      </trkpt>
      <trkpt lat="47.33547" lon="-2.46536">
        <ele>37.200000762939</ele>
        <time>2022-06-30T09:06:46.000Z</time>
      </trkpt>
      <trkpt lat="47.33542" lon="-2.46508">
        <ele>37.200000762939</ele>
        <time>2022-06-30T09:06:51.000Z</time>
      </trkpt>
      <trkpt lat="47.3354" lon="-2.46501">
        <ele>37.200000762939</ele>
        <time>2022-06-30T09:06:52.000Z</time>
      </trkpt>
      <trkpt lat="47.33536" lon="-2.46492">
        <ele>37.799999237061</ele>
        <time>2022-06-30T09:06:54.000Z</time>
      </trkpt>
      <trkpt lat="47.33535" lon="-2.46489">
        <ele>38.200000762939</ele>
        <time>2022-06-30T09:06:55.000Z</time>
      </trkpt>
      <trkpt lat="47.33533" lon="-2.46488">
        <ele>38.599998474121</ele>
        <time>2022-06-30T09:06:56.000Z</time>
      </trkpt>
      <trkpt lat="47.33531" lon="-2.46487">
        <ele>39</ele>
        <time>2022-06-30T09:06:57.000Z</time>
      </trkpt>
      <trkpt lat="47.33527" lon="-2.46487">
        <ele>39.400001525879</ele>
        <time>2022-06-30T09:06:58.000Z</time>
      </trkpt>
      <trkpt lat="47.33524" lon="-2.46487">
        <ele>39.400001525879</ele>
        <time>2022-06-30T09:06:59.000Z</time>
      </trkpt>
      <trkpt lat="47.33509" lon="-2.46496">
        <ele>39.400001525879</ele>
        <time>2022-06-30T09:07:02.000Z</time>
      </trkpt>
      <trkpt lat="47.33499" lon="-2.46506">
        <ele>39.400001525879</ele>
        <time>2022-06-30T09:07:04.000Z</time>
      </trkpt>
      <trkpt lat="47.33489" lon="-2.46518">
        <ele>39</ele>
        <time>2022-06-30T09:07:06.000Z</time>
      </trkpt>
      <trkpt lat="47.33484" lon="-2.46524">
        <ele>38.599998474121</ele>
        <time>2022-06-30T09:07:07.000Z</time>
      </trkpt>
      <trkpt lat="47.33479" lon="-2.4653">
        <ele>38.200000762939</ele>
        <time>2022-06-30T09:07:08.000Z</time>
      </trkpt>
      <trkpt lat="47.33474" lon="-2.46537">
        <ele>37.799999237061</ele>
        <time>2022-06-30T09:07:09.000Z</time>
      </trkpt>
      <trkpt lat="47.33469" lon="-2.46543">
        <ele>37.400001525879</ele>
        <time>2022-06-30T09:07:10.000Z</time>
      </trkpt>
      <trkpt lat="47.33456" lon="-2.46559">
        <ele>37</ele>
        <time>2022-06-30T09:07:13.000Z</time>
      </trkpt>
      <trkpt lat="47.33451" lon="-2.46565">
        <ele>36.599998474121</ele>
        <time>2022-06-30T09:07:14.000Z</time>
      </trkpt>
      <trkpt lat="47.33444" lon="-2.46571">
        <ele>36.200000762939</ele>
        <time>2022-06-30T09:07:15.000Z</time>
      </trkpt>
      <trkpt lat="47.33438" lon="-2.46576">
        <ele>35.599998474121</ele>
        <time>2022-06-30T09:07:16.000Z</time>
      </trkpt>
      <trkpt lat="47.33432" lon="-2.4658">
        <ele>35.200000762939</ele>
        <time>2022-06-30T09:07:17.000Z</time>
      </trkpt>
      <trkpt lat="47.33426" lon="-2.46583">
        <ele>34.799999237061</ele>
        <time>2022-06-30T09:07:18.000Z</time>
      </trkpt>
      <trkpt lat="47.33421" lon="-2.46587">
        <ele>34.400001525879</ele>
        <time>2022-06-30T09:07:19.000Z</time>
      </trkpt>
      <trkpt lat="47.33415" lon="-2.46591">
        <ele>33.799999237061</ele>
        <time>2022-06-30T09:07:20.000Z</time>
      </trkpt>
      <trkpt lat="47.3341" lon="-2.46595">
        <ele>33.400001525879</ele>
        <time>2022-06-30T09:07:21.000Z</time>
      </trkpt>
      <trkpt lat="47.33405" lon="-2.466">
        <ele>33</ele>
        <time>2022-06-30T09:07:22.000Z</time>
      </trkpt>
      <trkpt lat="47.33401" lon="-2.46605">
        <ele>32.599998474121</ele>
        <time>2022-06-30T09:07:23.000Z</time>
      </trkpt>
      <trkpt lat="47.33395" lon="-2.4661">
        <ele>32</ele>
        <time>2022-06-30T09:07:24.000Z</time>
      </trkpt>
      <trkpt lat="47.33391" lon="-2.46616">
        <ele>31.60000038147</ele>
        <time>2022-06-30T09:07:25.000Z</time>
      </trkpt>
      <trkpt lat="47.33385" lon="-2.46622">
        <ele>31.200000762939</ele>
        <time>2022-06-30T09:07:26.000Z</time>
      </trkpt>
      <trkpt lat="47.3338" lon="-2.46628">
        <ele>30.60000038147</ele>
        <time>2022-06-30T09:07:27.000Z</time>
      </trkpt>
      <trkpt lat="47.33376" lon="-2.46634">
        <ele>30.60000038147</ele>
        <time>2022-06-30T09:07:28.000Z</time>
      </trkpt>
      <trkpt lat="47.3337" lon="-2.46639">
        <ele>30.200000762939</ele>
        <time>2022-06-30T09:07:29.000Z</time>
      </trkpt>
      <trkpt lat="47.33365" lon="-2.46643">
        <ele>29.799999237061</ele>
        <time>2022-06-30T09:07:30.000Z</time>
      </trkpt>
      <trkpt lat="47.33359" lon="-2.46647">
        <ele>29.39999961853</ele>
        <time>2022-06-30T09:07:31.000Z</time>
      </trkpt>
      <trkpt lat="47.33353" lon="-2.46649">
        <ele>29</ele>
        <time>2022-06-30T09:07:32.000Z</time>
      </trkpt>
      <trkpt lat="47.33347" lon="-2.46652">
        <ele>28.60000038147</ele>
        <time>2022-06-30T09:07:33.000Z</time>
      </trkpt>
      <trkpt lat="47.33337" lon="-2.46656">
        <ele>28.200000762939</ele>
        <time>2022-06-30T09:07:35.000Z</time>
      </trkpt>
      <trkpt lat="47.33333" lon="-2.46656">
        <ele>27.799999237061</ele>
        <time>2022-06-30T09:07:36.000Z</time>
      </trkpt>
      <trkpt lat="47.33329" lon="-2.46655">
        <ele>27.39999961853</ele>
        <time>2022-06-30T09:07:37.000Z</time>
      </trkpt>
      <trkpt lat="47.33327" lon="-2.46653">
        <ele>27</ele>
        <time>2022-06-30T09:07:38.000Z</time>
      </trkpt>
      <trkpt lat="47.33325" lon="-2.46649">
        <ele>26.60000038147</ele>
        <time>2022-06-30T09:07:39.000Z</time>
      </trkpt>
      <trkpt lat="47.33325" lon="-2.46644">
        <ele>26.60000038147</ele>
        <time>2022-06-30T09:07:40.000Z</time>
      </trkpt>
      <trkpt lat="47.3332" lon="-2.46624">
        <ele>26.60000038147</ele>
        <time>2022-06-30T09:07:44.000Z</time>
      </trkpt>
      <trkpt lat="47.33305" lon="-2.46601">
        <ele>26.60000038147</ele>
        <time>2022-06-30T09:07:51.000Z</time>
      </trkpt>
      <trkpt lat="47.33295" lon="-2.46578">
        <ele>26.60000038147</ele>
        <time>2022-06-30T09:07:57.000Z</time>
      </trkpt>
      <trkpt lat="47.33292" lon="-2.46564">
        <ele>26.60000038147</ele>
        <time>2022-06-30T09:08:02.000Z</time>
      </trkpt>
      <trkpt lat="47.33289" lon="-2.46549">
        <ele>26.60000038147</ele>
        <time>2022-06-30T09:08:10.000Z</time>
      </trkpt>
      <trkpt lat="47.33289" lon="-2.46548">
        <ele>26.60000038147</ele>
        <time>2022-06-30T09:08:11.000Z</time>
      </trkpt>
      <trkpt lat="47.33289" lon="-2.46547">
        <ele>26.60000038147</ele>
        <time>2022-06-30T09:08:37.000Z</time>
      </trkpt>
      <trkpt lat="47.33288" lon="-2.46541">
        <ele>26.60000038147</ele>
        <time>2022-06-30T09:08:39.000Z</time>
      </trkpt>
      <trkpt lat="47.33286" lon="-2.46516">
        <ele>26.60000038147</ele>
        <time>2022-06-30T09:08:45.000Z</time>
      </trkpt>
      <trkpt lat="47.33286" lon="-2.46511">
        <ele>27</ele>
        <time>2022-06-30T09:08:46.000Z</time>
      </trkpt>
      <trkpt lat="47.33286" lon="-2.46506">
        <ele>27.39999961853</ele>
        <time>2022-06-30T09:08:47.000Z</time>
      </trkpt>
      <trkpt lat="47.33286" lon="-2.46501">
        <ele>28.200000762939</ele>
        <time>2022-06-30T09:08:48.000Z</time>
      </trkpt>
      <trkpt lat="47.33285" lon="-2.46496">
        <ele>28.60000038147</ele>
        <time>2022-06-30T09:08:49.000Z</time>
      </trkpt>
      <trkpt lat="47.33284" lon="-2.46482">
        <ele>28.60000038147</ele>
        <time>2022-06-30T09:08:52.000Z</time>
      </trkpt>
      <trkpt lat="47.33283" lon="-2.46473">
        <ele>29</ele>
        <time>2022-06-30T09:08:54.000Z</time>
      </trkpt>
      <trkpt lat="47.33283" lon="-2.4647">
        <ele>29.39999961853</ele>
        <time>2022-06-30T09:08:55.000Z</time>
      </trkpt>
      <trkpt lat="47.33283" lon="-2.46466">
        <ele>29.799999237061</ele>
        <time>2022-06-30T09:08:56.000Z</time>
      </trkpt>
      <trkpt lat="47.33282" lon="-2.46462">
        <ele>30.200000762939</ele>
        <time>2022-06-30T09:08:57.000Z</time>
      </trkpt>
      <trkpt lat="47.33282" lon="-2.46458">
        <ele>30.60000038147</ele>
        <time>2022-06-30T09:08:58.000Z</time>
      </trkpt>
      <trkpt lat="47.33281" lon="-2.46454">
        <ele>30.60000038147</ele>
        <time>2022-06-30T09:08:59.000Z</time>
      </trkpt>
      <trkpt lat="47.33271" lon="-2.46432">
        <ele>30.60000038147</ele>
        <time>2022-06-30T09:09:05.000Z</time>
      </trkpt>
      <trkpt lat="47.33268" lon="-2.4643">
        <ele>30.60000038147</ele>
        <time>2022-06-30T09:09:06.000Z</time>
      </trkpt>
      <trkpt lat="47.33252" lon="-2.4643">
        <ele>30.60000038147</ele>
        <time>2022-06-30T09:09:10.000Z</time>
      </trkpt>
      <trkpt lat="47.33238" lon="-2.46441">
        <ele>30.60000038147</ele>
        <time>2022-06-30T09:09:13.000Z</time>
      </trkpt>
      <trkpt lat="47.33223" lon="-2.46467">
        <ele>30.200000762939</ele>
        <time>2022-06-30T09:09:17.000Z</time>
      </trkpt>
      <trkpt lat="47.33218" lon="-2.4647">
        <ele>29.799999237061</ele>
        <time>2022-06-30T09:09:18.000Z</time>
      </trkpt>
      <trkpt lat="47.33214" lon="-2.46471">
        <ele>29.200000762939</ele>
        <time>2022-06-30T09:09:19.000Z</time>
      </trkpt>
      <trkpt lat="47.33209" lon="-2.46473">
        <ele>28.799999237061</ele>
        <time>2022-06-30T09:09:20.000Z</time>
      </trkpt>
      <trkpt lat="47.33204" lon="-2.46473">
        <ele>28.39999961853</ele>
        <time>2022-06-30T09:09:21.000Z</time>
      </trkpt>
      <trkpt lat="47.33199" lon="-2.46474">
        <ele>27.799999237061</ele>
        <time>2022-06-30T09:09:22.000Z</time>
      </trkpt>
      <trkpt lat="47.33193" lon="-2.46475">
        <ele>27.39999961853</ele>
        <time>2022-06-30T09:09:23.000Z</time>
      </trkpt>
      <trkpt lat="47.33188" lon="-2.46477">
        <ele>26.799999237061</ele>
        <time>2022-06-30T09:09:24.000Z</time>
      </trkpt>
      <trkpt lat="47.33183" lon="-2.4648">
        <ele>26.39999961853</ele>
        <time>2022-06-30T09:09:25.000Z</time>
      </trkpt>
      <trkpt lat="47.33177" lon="-2.46484">
        <ele>25.799999237061</ele>
        <time>2022-06-30T09:09:26.000Z</time>
      </trkpt>
      <trkpt lat="47.33171" lon="-2.46488">
        <ele>25.39999961853</ele>
        <time>2022-06-30T09:09:27.000Z</time>
      </trkpt>
      <trkpt lat="47.33165" lon="-2.46491">
        <ele>24.799999237061</ele>
        <time>2022-06-30T09:09:28.000Z</time>
      </trkpt>
      <trkpt lat="47.33158" lon="-2.46494">
        <ele>24.39999961853</ele>
        <time>2022-06-30T09:09:29.000Z</time>
      </trkpt>
      <trkpt lat="47.33151" lon="-2.46496">
        <ele>23.799999237061</ele>
        <time>2022-06-30T09:09:30.000Z</time>
      </trkpt>
      <trkpt lat="47.33144" lon="-2.46498">
        <ele>23.39999961853</ele>
        <time>2022-06-30T09:09:31.000Z</time>
      </trkpt>
      <trkpt lat="47.33137" lon="-2.46499">
        <ele>23</ele>
        <time>2022-06-30T09:09:32.000Z</time>
      </trkpt>
      <trkpt lat="47.3313" lon="-2.465">
        <ele>22.60000038147</ele>
        <time>2022-06-30T09:09:33.000Z</time>
      </trkpt>
      <trkpt lat="47.33123" lon="-2.46502">
        <ele>22.200000762939</ele>
        <time>2022-06-30T09:09:34.000Z</time>
      </trkpt>
      <trkpt lat="47.33117" lon="-2.46505">
        <ele>21.60000038147</ele>
        <time>2022-06-30T09:09:35.000Z</time>
      </trkpt>
      <trkpt lat="47.33112" lon="-2.46508">
        <ele>21.200000762939</ele>
        <time>2022-06-30T09:09:36.000Z</time>
      </trkpt>
      <trkpt lat="47.33107" lon="-2.46511">
        <ele>21.200000762939</ele>
        <time>2022-06-30T09:09:37.000Z</time>
      </trkpt>
      <trkpt lat="47.33102" lon="-2.46513">
        <ele>20.39999961853</ele>
        <time>2022-06-30T09:09:38.000Z</time>
      </trkpt>
      <trkpt lat="47.33096" lon="-2.46516">
        <ele>20</ele>
        <time>2022-06-30T09:09:39.000Z</time>
      </trkpt>
      <trkpt lat="47.3309" lon="-2.46519">
        <ele>19.39999961853</ele>
        <time>2022-06-30T09:09:40.000Z</time>
      </trkpt>
      <trkpt lat="47.33084" lon="-2.46522">
        <ele>19</ele>
        <time>2022-06-30T09:09:41.000Z</time>
      </trkpt>
      <trkpt lat="47.33077" lon="-2.46526">
        <ele>18.60000038147</ele>
        <time>2022-06-30T09:09:42.000Z</time>
      </trkpt>
      <trkpt lat="47.3307" lon="-2.46529">
        <ele>18.200000762939</ele>
        <time>2022-06-30T09:09:43.000Z</time>
      </trkpt>
      <trkpt lat="47.33063" lon="-2.46532">
        <ele>17.799999237061</ele>
        <time>2022-06-30T09:09:44.000Z</time>
      </trkpt>
      <trkpt lat="47.33056" lon="-2.46535">
        <ele>17.200000762939</ele>
        <time>2022-06-30T09:09:45.000Z</time>
      </trkpt>
      <trkpt lat="47.33048" lon="-2.46538">
        <ele>16.60000038147</ele>
        <time>2022-06-30T09:09:46.000Z</time>
      </trkpt>
      <trkpt lat="47.33041" lon="-2.46541">
        <ele>16</ele>
        <time>2022-06-30T09:09:47.000Z</time>
      </trkpt>
      <trkpt lat="47.33035" lon="-2.46543">
        <ele>15.39999961853</ele>
        <time>2022-06-30T09:09:48.000Z</time>
      </trkpt>
      <trkpt lat="47.33027" lon="-2.46542">
        <ele>14.800000190735</ele>
        <time>2022-06-30T09:09:49.000Z</time>
      </trkpt>
      <trkpt lat="47.33014" lon="-2.46544">
        <ele>14.800000190735</ele>
        <time>2022-06-30T09:09:51.000Z</time>
      </trkpt>
      <trkpt lat="47.33007" lon="-2.46546">
        <ele>14.39999961853</ele>
        <time>2022-06-30T09:09:52.000Z</time>
      </trkpt>
      <trkpt lat="47.33001" lon="-2.46549">
        <ele>14</ele>
        <time>2022-06-30T09:09:53.000Z</time>
      </trkpt>
      <trkpt lat="47.32994" lon="-2.46553">
        <ele>13.60000038147</ele>
        <time>2022-06-30T09:09:54.000Z</time>
      </trkpt>
      <trkpt lat="47.32988" lon="-2.46555">
        <ele>13.199999809265</ele>
        <time>2022-06-30T09:09:55.000Z</time>
      </trkpt>
      <trkpt lat="47.32982" lon="-2.46558">
        <ele>12.60000038147</ele>
        <time>2022-06-30T09:09:56.000Z</time>
      </trkpt>
      <trkpt lat="47.32977" lon="-2.46561">
        <ele>12.199999809265</ele>
        <time>2022-06-30T09:09:57.000Z</time>
      </trkpt>
      <trkpt lat="47.32972" lon="-2.46563">
        <ele>11.800000190735</ele>
        <time>2022-06-30T09:09:58.000Z</time>
      </trkpt>
      <trkpt lat="47.32968" lon="-2.46566">
        <ele>11.39999961853</ele>
        <time>2022-06-30T09:09:59.000Z</time>
      </trkpt>
      <trkpt lat="47.32963" lon="-2.46568">
        <ele>11</ele>
        <time>2022-06-30T09:10:00.000Z</time>
      </trkpt>
      <trkpt lat="47.3296" lon="-2.4657">
        <ele>10.39999961853</ele>
        <time>2022-06-30T09:10:01.000Z</time>
      </trkpt>
      <trkpt lat="47.32958" lon="-2.4657">
        <ele>9.1999998092651</ele>
        <time>2022-06-30T09:10:02.000Z</time>
      </trkpt>
      <trkpt lat="47.32956" lon="-2.4657">
        <ele>8.6000003814697</ele>
        <time>2022-06-30T09:10:03.000Z</time>
      </trkpt>
      <trkpt lat="47.32954" lon="-2.46569">
        <ele>8</ele>
        <time>2022-06-30T09:10:04.000Z</time>
      </trkpt>
      <trkpt lat="47.32952" lon="-2.46565">
        <ele>8</ele>
        <time>2022-06-30T09:10:05.000Z</time>
      </trkpt>
      <trkpt lat="47.32954" lon="-2.46546">
        <ele>8</ele>
        <time>2022-06-30T09:10:08.000Z</time>
      </trkpt>
      <trkpt lat="47.32957" lon="-2.46495">
        <ele>8</ele>
        <time>2022-06-30T09:10:16.000Z</time>
      </trkpt>
      <trkpt lat="47.3296" lon="-2.46446">
        <ele>8</ele>
        <time>2022-06-30T09:10:24.000Z</time>
      </trkpt>
      <trkpt lat="47.32961" lon="-2.4644">
        <ele>8.6000003814697</ele>
        <time>2022-06-30T09:10:25.000Z</time>
      </trkpt>
      <trkpt lat="47.32962" lon="-2.46435">
        <ele>9</ele>
        <time>2022-06-30T09:10:26.000Z</time>
      </trkpt>
      <trkpt lat="47.32962" lon="-2.46429">
        <ele>10</ele>
        <time>2022-06-30T09:10:27.000Z</time>
      </trkpt>
      <trkpt lat="47.32963" lon="-2.46424">
        <ele>10.60000038147</ele>
        <time>2022-06-30T09:10:28.000Z</time>
      </trkpt>
      <trkpt lat="47.32963" lon="-2.46412">
        <ele>11</ele>
        <time>2022-06-30T09:10:30.000Z</time>
      </trkpt>
      <trkpt lat="47.32964" lon="-2.46407">
        <ele>11.39999961853</ele>
        <time>2022-06-30T09:10:31.000Z</time>
      </trkpt>
      <trkpt lat="47.32964" lon="-2.46401">
        <ele>11.800000190735</ele>
        <time>2022-06-30T09:10:32.000Z</time>
      </trkpt>
      <trkpt lat="47.32964" lon="-2.46396">
        <ele>12.39999961853</ele>
        <time>2022-06-30T09:10:33.000Z</time>
      </trkpt>
      <trkpt lat="47.32964" lon="-2.46391">
        <ele>12.800000190735</ele>
        <time>2022-06-30T09:10:34.000Z</time>
      </trkpt>
      <trkpt lat="47.32963" lon="-2.46375">
        <ele>13.199999809265</ele>
        <time>2022-06-30T09:10:37.000Z</time>
      </trkpt>
      <trkpt lat="47.32963" lon="-2.4637">
        <ele>13.60000038147</ele>
        <time>2022-06-30T09:10:38.000Z</time>
      </trkpt>
      <trkpt lat="47.32962" lon="-2.46366">
        <ele>14</ele>
        <time>2022-06-30T09:10:39.000Z</time>
      </trkpt>
      <trkpt lat="47.32961" lon="-2.46361">
        <ele>14.39999961853</ele>
        <time>2022-06-30T09:10:40.000Z</time>
      </trkpt>
      <trkpt lat="47.3296" lon="-2.46356">
        <ele>14.800000190735</ele>
        <time>2022-06-30T09:10:41.000Z</time>
      </trkpt>
      <trkpt lat="47.32958" lon="-2.46346">
        <ele>15.199999809265</ele>
        <time>2022-06-30T09:10:43.000Z</time>
      </trkpt>
      <trkpt lat="47.32956" lon="-2.46341">
        <ele>15.800000190735</ele>
        <time>2022-06-30T09:10:44.000Z</time>
      </trkpt>
      <trkpt lat="47.32955" lon="-2.46336">
        <ele>16.200000762939</ele>
        <time>2022-06-30T09:10:45.000Z</time>
      </trkpt>
      <trkpt lat="47.32953" lon="-2.46332">
        <ele>16.60000038147</ele>
        <time>2022-06-30T09:10:46.000Z</time>
      </trkpt>
      <trkpt lat="47.32952" lon="-2.46326">
        <ele>17</ele>
        <time>2022-06-30T09:10:47.000Z</time>
      </trkpt>
      <trkpt lat="47.32949" lon="-2.46316">
        <ele>17.39999961853</ele>
        <time>2022-06-30T09:10:49.000Z</time>
      </trkpt>
      <trkpt lat="47.32947" lon="-2.46311">
        <ele>17.799999237061</ele>
        <time>2022-06-30T09:10:50.000Z</time>
      </trkpt>
      <trkpt lat="47.32946" lon="-2.46306">
        <ele>18.39999961853</ele>
        <time>2022-06-30T09:10:51.000Z</time>
      </trkpt>
      <trkpt lat="47.32945" lon="-2.46301">
        <ele>19.200000762939</ele>
        <time>2022-06-30T09:10:52.000Z</time>
      </trkpt>
      <trkpt lat="47.32939" lon="-2.4628">
        <ele>19.200000762939</ele>
        <time>2022-06-30T09:10:56.000Z</time>
      </trkpt>
      <trkpt lat="47.32926" lon="-2.46236">
        <ele>19.200000762939</ele>
        <time>2022-06-30T09:11:03.000Z</time>
      </trkpt>
      <trkpt lat="47.32918" lon="-2.46202">
        <ele>19.60000038147</ele>
        <time>2022-06-30T09:11:09.000Z</time>
      </trkpt>
      <trkpt lat="47.32917" lon="-2.46196">
        <ele>20</ele>
        <time>2022-06-30T09:11:10.000Z</time>
      </trkpt>
      <trkpt lat="47.32915" lon="-2.46191">
        <ele>20.39999961853</ele>
        <time>2022-06-30T09:11:11.000Z</time>
      </trkpt>
      <trkpt lat="47.32914" lon="-2.46185">
        <ele>20.799999237061</ele>
        <time>2022-06-30T09:11:12.000Z</time>
      </trkpt>
      <trkpt lat="47.32913" lon="-2.46179">
        <ele>21.200000762939</ele>
        <time>2022-06-30T09:11:13.000Z</time>
      </trkpt>
      <trkpt lat="47.32905" lon="-2.46153">
        <ele>21.200000762939</ele>
        <time>2022-06-30T09:11:17.000Z</time>
      </trkpt>
      <trkpt lat="47.32895" lon="-2.46145">
        <ele>21.200000762939</ele>
        <time>2022-06-30T09:11:20.000Z</time>
      </trkpt>
      <trkpt lat="47.32884" lon="-2.46151">
        <ele>21.200000762939</ele>
        <time>2022-06-30T09:11:23.000Z</time>
      </trkpt>
      <trkpt lat="47.32879" lon="-2.46156">
        <ele>21.200000762939</ele>
        <time>2022-06-30T09:11:24.000Z</time>
      </trkpt>
      <trkpt lat="47.32857" lon="-2.46175">
        <ele>20.799999237061</ele>
        <time>2022-06-30T09:11:28.000Z</time>
      </trkpt>
      <trkpt lat="47.32851" lon="-2.4618">
        <ele>20.200000762939</ele>
        <time>2022-06-30T09:11:29.000Z</time>
      </trkpt>
      <trkpt lat="47.32844" lon="-2.46185">
        <ele>19.799999237061</ele>
        <time>2022-06-30T09:11:30.000Z</time>
      </trkpt>
      <trkpt lat="47.32838" lon="-2.46189">
        <ele>19.200000762939</ele>
        <time>2022-06-30T09:11:31.000Z</time>
      </trkpt>
      <trkpt lat="47.32832" lon="-2.46191">
        <ele>18.60000038147</ele>
        <time>2022-06-30T09:11:32.000Z</time>
      </trkpt>
      <trkpt lat="47.32826" lon="-2.46192">
        <ele>17.799999237061</ele>
        <time>2022-06-30T09:11:33.000Z</time>
      </trkpt>
      <trkpt lat="47.32819" lon="-2.46192">
        <ele>17.200000762939</ele>
        <time>2022-06-30T09:11:34.000Z</time>
      </trkpt>
      <trkpt lat="47.32812" lon="-2.46189">
        <ele>16.60000038147</ele>
        <time>2022-06-30T09:11:35.000Z</time>
      </trkpt>
      <trkpt lat="47.32806" lon="-2.46186">
        <ele>16.60000038147</ele>
        <time>2022-06-30T09:11:36.000Z</time>
      </trkpt>
      <trkpt lat="47.328" lon="-2.46182">
        <ele>16.60000038147</ele>
        <time>2022-06-30T09:11:37.000Z</time>
      </trkpt>
      <trkpt lat="47.32788" lon="-2.46174">
        <ele>16.200000762939</ele>
        <time>2022-06-30T09:11:39.000Z</time>
      </trkpt>
      <trkpt lat="47.32783" lon="-2.46169">
        <ele>15.800000190735</ele>
        <time>2022-06-30T09:11:40.000Z</time>
      </trkpt>
      <trkpt lat="47.32778" lon="-2.46164">
        <ele>15.39999961853</ele>
        <time>2022-06-30T09:11:41.000Z</time>
      </trkpt>
      <trkpt lat="47.32773" lon="-2.46157">
        <ele>14.60000038147</ele>
        <time>2022-06-30T09:11:42.000Z</time>
      </trkpt>
      <trkpt lat="47.32764" lon="-2.46137">
        <ele>14.60000038147</ele>
        <time>2022-06-30T09:11:45.000Z</time>
      </trkpt>
      <trkpt lat="47.32763" lon="-2.46129">
        <ele>14.199999809265</ele>
        <time>2022-06-30T09:11:46.000Z</time>
      </trkpt>
      <trkpt lat="47.32762" lon="-2.46121">
        <ele>13.800000190735</ele>
        <time>2022-06-30T09:11:47.000Z</time>
      </trkpt>
      <trkpt lat="47.32761" lon="-2.46113">
        <ele>13.39999961853</ele>
        <time>2022-06-30T09:11:48.000Z</time>
      </trkpt>
      <trkpt lat="47.32758" lon="-2.46106">
        <ele>13</ele>
        <time>2022-06-30T09:11:49.000Z</time>
      </trkpt>
      <trkpt lat="47.32756" lon="-2.46101">
        <ele>12.60000038147</ele>
        <time>2022-06-30T09:11:50.000Z</time>
      </trkpt>
      <trkpt lat="47.32751" lon="-2.4609">
        <ele>12.60000038147</ele>
        <time>2022-06-30T09:11:52.000Z</time>
      </trkpt>
      <trkpt lat="47.32744" lon="-2.46082">
        <ele>12.199999809265</ele>
        <time>2022-06-30T09:11:54.000Z</time>
      </trkpt>
      <trkpt lat="47.32741" lon="-2.46079">
        <ele>11.800000190735</ele>
        <time>2022-06-30T09:11:55.000Z</time>
      </trkpt>
      <trkpt lat="47.32739" lon="-2.46076">
        <ele>11.199999809265</ele>
        <time>2022-06-30T09:11:56.000Z</time>
      </trkpt>
      <trkpt lat="47.32736" lon="-2.46073">
        <ele>10.800000190735</ele>
        <time>2022-06-30T09:11:57.000Z</time>
      </trkpt>
      <trkpt lat="47.32733" lon="-2.4607">
        <ele>10.39999961853</ele>
        <time>2022-06-30T09:11:58.000Z</time>
      </trkpt>
      <trkpt lat="47.32731" lon="-2.46067">
        <ele>10.39999961853</ele>
        <time>2022-06-30T09:11:59.000Z</time>
      </trkpt>
      <trkpt lat="47.32721" lon="-2.46055">
        <ele>10.39999961853</ele>
        <time>2022-06-30T09:12:02.000Z</time>
      </trkpt>
      <trkpt lat="47.32713" lon="-2.46048">
        <ele>10.39999961853</ele>
        <time>2022-06-30T09:12:04.000Z</time>
      </trkpt>
      <trkpt lat="47.32706" lon="-2.46039">
        <ele>10</ele>
        <time>2022-06-30T09:12:06.000Z</time>
      </trkpt>
      <trkpt lat="47.32702" lon="-2.46033">
        <ele>9.6000003814697</ele>
        <time>2022-06-30T09:12:07.000Z</time>
      </trkpt>
      <trkpt lat="47.32698" lon="-2.46027">
        <ele>9.1999998092651</ele>
        <time>2022-06-30T09:12:08.000Z</time>
      </trkpt>
      <trkpt lat="47.32694" lon="-2.46021">
        <ele>8.8000001907349</ele>
        <time>2022-06-30T09:12:09.000Z</time>
      </trkpt>
      <trkpt lat="47.32691" lon="-2.46016">
        <ele>8.3999996185303</ele>
        <time>2022-06-30T09:12:10.000Z</time>
      </trkpt>
      <trkpt lat="47.32681" lon="-2.46001">
        <ele>8.3999996185303</ele>
        <time>2022-06-30T09:12:13.000Z</time>
      </trkpt>
      <trkpt lat="47.32678" lon="-2.45996">
        <ele>8.3999996185303</ele>
        <time>2022-06-30T09:12:14.000Z</time>
      </trkpt>
      <trkpt lat="47.32659" lon="-2.45978">
        <ele>8.3999996185303</ele>
        <time>2022-06-30T09:12:18.000Z</time>
      </trkpt>
      <trkpt lat="47.32638" lon="-2.45957">
        <ele>8.3999996185303</ele>
        <time>2022-06-30T09:12:22.000Z</time>
      </trkpt>
      <trkpt lat="47.32633" lon="-2.45952">
        <ele>8.3999996185303</ele>
        <time>2022-06-30T09:12:23.000Z</time>
      </trkpt>
      <trkpt lat="47.32609" lon="-2.45911">
        <ele>8.3999996185303</ele>
        <time>2022-06-30T09:12:29.000Z</time>
      </trkpt>
      <trkpt lat="47.326" lon="-2.45899">
        <ele>8.3999996185303</ele>
        <time>2022-06-30T09:12:31.000Z</time>
      </trkpt>
      <trkpt lat="47.32583" lon="-2.45878">
        <ele>8.3999996185303</ele>
        <time>2022-06-30T09:12:35.000Z</time>
      </trkpt>
      <trkpt lat="47.32566" lon="-2.45853">
        <ele>8.3999996185303</ele>
        <time>2022-06-30T09:12:39.000Z</time>
      </trkpt>
      <trkpt lat="47.32559" lon="-2.45839">
        <ele>8.3999996185303</ele>
        <time>2022-06-30T09:12:41.000Z</time>
      </trkpt>
      <trkpt lat="47.32552" lon="-2.45827">
        <ele>8.3999996185303</ele>
        <time>2022-06-30T09:12:43.000Z</time>
      </trkpt>
      <trkpt lat="47.32539" lon="-2.45809">
        <ele>8.3999996185303</ele>
        <time>2022-06-30T09:12:46.000Z</time>
      </trkpt>
      <trkpt lat="47.32518" lon="-2.45773">
        <ele>8.3999996185303</ele>
        <time>2022-06-30T09:12:51.000Z</time>
      </trkpt>
      <trkpt lat="47.32496" lon="-2.45734">
        <ele>8</ele>
        <time>2022-06-30T09:12:56.000Z</time>
      </trkpt>
      <trkpt lat="47.32492" lon="-2.45726">
        <ele>7.5999999046326</ele>
        <time>2022-06-30T09:12:57.000Z</time>
      </trkpt>
      <trkpt lat="47.32488" lon="-2.45719">
        <ele>7.1999998092651</ele>
        <time>2022-06-30T09:12:58.000Z</time>
      </trkpt>
      <trkpt lat="47.32484" lon="-2.45711">
        <ele>6.8000001907349</ele>
        <time>2022-06-30T09:12:59.000Z</time>
      </trkpt>
      <trkpt lat="47.3248" lon="-2.45704">
        <ele>6.4000000953674</ele>
        <time>2022-06-30T09:13:00.000Z</time>
      </trkpt>
      <trkpt lat="47.32455" lon="-2.45662">
        <ele>6.4000000953674</ele>
        <time>2022-06-30T09:13:06.000Z</time>
      </trkpt>
      <trkpt lat="47.32431" lon="-2.45627">
        <ele>6.4000000953674</ele>
        <time>2022-06-30T09:13:12.000Z</time>
      </trkpt>
      <trkpt lat="47.32414" lon="-2.45592">
        <ele>6.4000000953674</ele>
        <time>2022-06-30T09:13:18.000Z</time>
      </trkpt>
      <trkpt lat="47.32407" lon="-2.45572">
        <ele>6.4000000953674</ele>
        <time>2022-06-30T09:13:23.000Z</time>
      </trkpt>
      <trkpt lat="47.32403" lon="-2.45562">
        <ele>6.4000000953674</ele>
        <time>2022-06-30T09:13:27.000Z</time>
      </trkpt>
      <trkpt lat="47.32401" lon="-2.45559">
        <ele>6.4000000953674</ele>
        <time>2022-06-30T09:13:29.000Z</time>
      </trkpt>
      <trkpt lat="47.32398" lon="-2.45557">
        <ele>6.4000000953674</ele>
        <time>2022-06-30T09:13:32.000Z</time>
      </trkpt>
      <trkpt lat="47.32396" lon="-2.45554">
        <ele>6.4000000953674</ele>
        <time>2022-06-30T09:13:34.000Z</time>
      </trkpt>
      <trkpt lat="47.32396" lon="-2.45551">
        <ele>6.4000000953674</ele>
        <time>2022-06-30T09:13:35.000Z</time>
      </trkpt>
      <trkpt lat="47.32395" lon="-2.45546">
        <ele>6.4000000953674</ele>
        <time>2022-06-30T09:13:38.000Z</time>
      </trkpt>
      <trkpt lat="47.32385" lon="-2.45534">
        <ele>6.4000000953674</ele>
        <time>2022-06-30T09:13:44.000Z</time>
      </trkpt>
      <trkpt lat="47.32378" lon="-2.45516">
        <ele>6.4000000953674</ele>
        <time>2022-06-30T09:13:48.000Z</time>
      </trkpt>
      <trkpt lat="47.32374" lon="-2.45511">
        <ele>6.4000000953674</ele>
        <time>2022-06-30T09:13:49.000Z</time>
      </trkpt>
      <trkpt lat="47.32348" lon="-2.45473">
        <ele>6.4000000953674</ele>
        <time>2022-06-30T09:13:56.000Z</time>
      </trkpt>
      <trkpt lat="47.32326" lon="-2.45439">
        <ele>6.4000000953674</ele>
        <time>2022-06-30T09:14:02.000Z</time>
      </trkpt>
      <trkpt lat="47.3232" lon="-2.45428">
        <ele>6.4000000953674</ele>
        <time>2022-06-30T09:14:04.000Z</time>
      </trkpt>
      <trkpt lat="47.32309" lon="-2.45413">
        <ele>6.4000000953674</ele>
        <time>2022-06-30T09:14:07.000Z</time>
      </trkpt>
      <trkpt lat="47.32308" lon="-2.45401">
        <ele>6.4000000953674</ele>
        <time>2022-06-30T09:14:09.000Z</time>
      </trkpt>
      <trkpt lat="47.32315" lon="-2.45389">
        <ele>6.4000000953674</ele>
        <time>2022-06-30T09:14:12.000Z</time>
      </trkpt>
      <trkpt lat="47.32319" lon="-2.45373">
        <ele>6.4000000953674</ele>
        <time>2022-06-30T09:14:15.000Z</time>
      </trkpt>
      <trkpt lat="47.32317" lon="-2.45357">
        <ele>6.4000000953674</ele>
        <time>2022-06-30T09:14:18.000Z</time>
      </trkpt>
      <trkpt lat="47.32316" lon="-2.45352">
        <ele>6.8000001907349</ele>
        <time>2022-06-30T09:14:19.000Z</time>
      </trkpt>
      <trkpt lat="47.32316" lon="-2.45346">
        <ele>7.1999998092651</ele>
        <time>2022-06-30T09:14:20.000Z</time>
      </trkpt>
      <trkpt lat="47.32316" lon="-2.4534">
        <ele>7.8000001907349</ele>
        <time>2022-06-30T09:14:21.000Z</time>
      </trkpt>
      <trkpt lat="47.32315" lon="-2.45334">
        <ele>8.1999998092651</ele>
        <time>2022-06-30T09:14:22.000Z</time>
      </trkpt>
      <trkpt lat="47.32315" lon="-2.45328">
        <ele>8.6000003814697</ele>
        <time>2022-06-30T09:14:23.000Z</time>
      </trkpt>
      <trkpt lat="47.32314" lon="-2.45305">
        <ele>9</ele>
        <time>2022-06-30T09:14:27.000Z</time>
      </trkpt>
      <trkpt lat="47.32313" lon="-2.45298">
        <ele>9.3999996185303</ele>
        <time>2022-06-30T09:14:28.000Z</time>
      </trkpt>
      <trkpt lat="47.32311" lon="-2.45292">
        <ele>9.8000001907349</ele>
        <time>2022-06-30T09:14:29.000Z</time>
      </trkpt>
      <trkpt lat="47.3231" lon="-2.45286">
        <ele>10.199999809265</ele>
        <time>2022-06-30T09:14:30.000Z</time>
      </trkpt>
      <trkpt lat="47.32308" lon="-2.4528">
        <ele>10.800000190735</ele>
        <time>2022-06-30T09:14:31.000Z</time>
      </trkpt>
      <trkpt lat="47.32306" lon="-2.45273">
        <ele>10.800000190735</ele>
        <time>2022-06-30T09:14:32.000Z</time>
      </trkpt>
      <trkpt lat="47.32294" lon="-2.45236">
        <ele>10.199999809265</ele>
        <time>2022-06-30T09:14:37.000Z</time>
      </trkpt>
      <trkpt lat="47.32291" lon="-2.45227">
        <ele>9.8000001907349</ele>
        <time>2022-06-30T09:14:38.000Z</time>
      </trkpt>
      <trkpt lat="47.32287" lon="-2.45218">
        <ele>9.3999996185303</ele>
        <time>2022-06-30T09:14:39.000Z</time>
      </trkpt>
      <trkpt lat="47.32283" lon="-2.4521">
        <ele>9</ele>
        <time>2022-06-30T09:14:40.000Z</time>
      </trkpt>
      <trkpt lat="47.32279" lon="-2.45202">
        <ele>8.6000003814697</ele>
        <time>2022-06-30T09:14:41.000Z</time>
      </trkpt>
      <trkpt lat="47.32275" lon="-2.45194">
        <ele>8.6000003814697</ele>
        <time>2022-06-30T09:14:42.000Z</time>
      </trkpt>
      <trkpt lat="47.32266" lon="-2.45172">
        <ele>8.6000003814697</ele>
        <time>2022-06-30T09:14:45.000Z</time>
      </trkpt>
      <trkpt lat="47.32265" lon="-2.45166">
        <ele>8.6000003814697</ele>
        <time>2022-06-30T09:14:46.000Z</time>
      </trkpt>
      <trkpt lat="47.32257" lon="-2.45137">
        <ele>9</ele>
        <time>2022-06-30T09:14:51.000Z</time>
      </trkpt>
      <trkpt lat="47.32255" lon="-2.45131">
        <ele>9.6000003814697</ele>
        <time>2022-06-30T09:14:52.000Z</time>
      </trkpt>
      <trkpt lat="47.32253" lon="-2.45126">
        <ele>10</ele>
        <time>2022-06-30T09:14:53.000Z</time>
      </trkpt>
      <trkpt lat="47.32251" lon="-2.45119">
        <ele>10.39999961853</ele>
        <time>2022-06-30T09:14:54.000Z</time>
      </trkpt>
      <trkpt lat="47.32249" lon="-2.45113">
        <ele>10.800000190735</ele>
        <time>2022-06-30T09:14:55.000Z</time>
      </trkpt>
      <trkpt lat="47.32233" lon="-2.45074">
        <ele>10.800000190735</ele>
        <time>2022-06-30T09:15:02.000Z</time>
      </trkpt>
      <trkpt lat="47.32225" lon="-2.45058">
        <ele>11.199999809265</ele>
        <time>2022-06-30T09:15:05.000Z</time>
      </trkpt>
      <trkpt lat="47.32223" lon="-2.45052">
        <ele>11.60000038147</ele>
        <time>2022-06-30T09:15:06.000Z</time>
      </trkpt>
      <trkpt lat="47.3222" lon="-2.45046">
        <ele>12</ele>
        <time>2022-06-30T09:15:07.000Z</time>
      </trkpt>
      <trkpt lat="47.32217" lon="-2.4504">
        <ele>12.39999961853</ele>
        <time>2022-06-30T09:15:08.000Z</time>
      </trkpt>
      <trkpt lat="47.32214" lon="-2.45033">
        <ele>13</ele>
        <time>2022-06-30T09:15:09.000Z</time>
      </trkpt>
      <trkpt lat="47.32212" lon="-2.45028">
        <ele>13</ele>
        <time>2022-06-30T09:15:10.000Z</time>
      </trkpt>
      <trkpt lat="47.32201" lon="-2.45005">
        <ele>13</ele>
        <time>2022-06-30T09:15:14.000Z</time>
      </trkpt>
      <trkpt lat="47.32189" lon="-2.44982">
        <ele>13</ele>
        <time>2022-06-30T09:15:18.000Z</time>
      </trkpt>
      <trkpt lat="47.3218" lon="-2.44971">
        <ele>13</ele>
        <time>2022-06-30T09:15:20.000Z</time>
      </trkpt>
      <trkpt lat="47.32169" lon="-2.44961">
        <ele>13</ele>
        <time>2022-06-30T09:15:22.000Z</time>
      </trkpt>
      <trkpt lat="47.32151" lon="-2.44947">
        <ele>12.39999961853</ele>
        <time>2022-06-30T09:15:25.000Z</time>
      </trkpt>
      <trkpt lat="47.32145" lon="-2.44942">
        <ele>12</ele>
        <time>2022-06-30T09:15:26.000Z</time>
      </trkpt>
      <trkpt lat="47.3214" lon="-2.44936">
        <ele>11.60000038147</ele>
        <time>2022-06-30T09:15:27.000Z</time>
      </trkpt>
      <trkpt lat="47.32134" lon="-2.4493">
        <ele>11.199999809265</ele>
        <time>2022-06-30T09:15:28.000Z</time>
      </trkpt>
      <trkpt lat="47.3213" lon="-2.44923">
        <ele>10.800000190735</ele>
        <time>2022-06-30T09:15:29.000Z</time>
      </trkpt>
      <trkpt lat="47.32125" lon="-2.44915">
        <ele>10.800000190735</ele>
        <time>2022-06-30T09:15:30.000Z</time>
      </trkpt>
      <trkpt lat="47.32117" lon="-2.44898">
        <ele>10.800000190735</ele>
        <time>2022-06-30T09:15:32.000Z</time>
      </trkpt>
      <trkpt lat="47.32105" lon="-2.44872">
        <ele>10.800000190735</ele>
        <time>2022-06-30T09:15:35.000Z</time>
      </trkpt>
      <trkpt lat="47.32098" lon="-2.44855">
        <ele>10.39999961853</ele>
        <time>2022-06-30T09:15:37.000Z</time>
      </trkpt>
      <trkpt lat="47.32095" lon="-2.44846">
        <ele>10</ele>
        <time>2022-06-30T09:15:38.000Z</time>
      </trkpt>
      <trkpt lat="47.32091" lon="-2.44837">
        <ele>9.6000003814697</ele>
        <time>2022-06-30T09:15:39.000Z</time>
      </trkpt>
      <trkpt lat="47.32088" lon="-2.44829">
        <ele>9.1999998092651</ele>
        <time>2022-06-30T09:15:40.000Z</time>
      </trkpt>
      <trkpt lat="47.32085" lon="-2.44821">
        <ele>8.8000001907349</ele>
        <time>2022-06-30T09:15:41.000Z</time>
      </trkpt>
      <trkpt lat="47.32081" lon="-2.44813">
        <ele>8.8000001907349</ele>
        <time>2022-06-30T09:15:42.000Z</time>
      </trkpt>
      <trkpt lat="47.32059" lon="-2.44767">
        <ele>8.8000001907349</ele>
        <time>2022-06-30T09:15:48.000Z</time>
      </trkpt>
      <trkpt lat="47.32037" lon="-2.4473">
        <ele>8.8000001907349</ele>
        <time>2022-06-30T09:15:53.000Z</time>
      </trkpt>
      <trkpt lat="47.32028" lon="-2.44717">
        <ele>8.8000001907349</ele>
        <time>2022-06-30T09:15:55.000Z</time>
      </trkpt>
      <trkpt lat="47.31992" lon="-2.44664">
        <ele>8.8000001907349</ele>
        <time>2022-06-30T09:16:03.000Z</time>
      </trkpt>
      <trkpt lat="47.31977" lon="-2.44648">
        <ele>8.3999996185303</ele>
        <time>2022-06-30T09:16:06.000Z</time>
      </trkpt>
      <trkpt lat="47.31973" lon="-2.44642">
        <ele>8</ele>
        <time>2022-06-30T09:16:07.000Z</time>
      </trkpt>
      <trkpt lat="47.31968" lon="-2.44637">
        <ele>7.5999999046326</ele>
        <time>2022-06-30T09:16:08.000Z</time>
      </trkpt>
      <trkpt lat="47.31963" lon="-2.44631">
        <ele>7.1999998092651</ele>
        <time>2022-06-30T09:16:09.000Z</time>
      </trkpt>
      <trkpt lat="47.31958" lon="-2.44626">
        <ele>6.8000001907349</ele>
        <time>2022-06-30T09:16:10.000Z</time>
      </trkpt>
      <trkpt lat="47.31953" lon="-2.4462">
        <ele>6.8000001907349</ele>
        <time>2022-06-30T09:16:11.000Z</time>
      </trkpt>
      <trkpt lat="47.31914" lon="-2.44575">
        <ele>6.8000001907349</ele>
        <time>2022-06-30T09:16:19.000Z</time>
      </trkpt>
      <trkpt lat="47.31908" lon="-2.44564">
        <ele>6.8000001907349</ele>
        <time>2022-06-30T09:16:21.000Z</time>
      </trkpt>
      <trkpt lat="47.31906" lon="-2.44552">
        <ele>6.8000001907349</ele>
        <time>2022-06-30T09:16:23.000Z</time>
      </trkpt>
      <trkpt lat="47.31912" lon="-2.44532">
        <ele>6.8000001907349</ele>
        <time>2022-06-30T09:16:26.000Z</time>
      </trkpt>
      <trkpt lat="47.31918" lon="-2.44519">
        <ele>6.8000001907349</ele>
        <time>2022-06-30T09:16:28.000Z</time>
      </trkpt>
      <trkpt lat="47.31929" lon="-2.44491">
        <ele>6.8000001907349</ele>
        <time>2022-06-30T09:16:32.000Z</time>
      </trkpt>
      <trkpt lat="47.31958" lon="-2.44419">
        <ele>6.8000001907349</ele>
        <time>2022-06-30T09:16:41.000Z</time>
      </trkpt>
      <trkpt lat="47.31961" lon="-2.44411">
        <ele>6.8000001907349</ele>
        <time>2022-06-30T09:16:42.000Z</time>
      </trkpt>
      <trkpt lat="47.31978" lon="-2.44365">
        <ele>6.8000001907349</ele>
        <time>2022-06-30T09:16:48.000Z</time>
      </trkpt>
      <trkpt lat="47.32002" lon="-2.44334">
        <ele>6.8000001907349</ele>
        <time>2022-06-30T09:16:54.000Z</time>
      </trkpt>
      <trkpt lat="47.32023" lon="-2.44302">
        <ele>6.8000001907349</ele>
        <time>2022-06-30T09:17:00.000Z</time>
      </trkpt>
      <trkpt lat="47.32032" lon="-2.44288">
        <ele>7.5999999046326</ele>
        <time>2022-06-30T09:17:03.000Z</time>
      </trkpt>
      <trkpt lat="47.32034" lon="-2.44283">
        <ele>8</ele>
        <time>2022-06-30T09:17:04.000Z</time>
      </trkpt>
      <trkpt lat="47.32037" lon="-2.44278">
        <ele>8.6000003814697</ele>
        <time>2022-06-30T09:17:05.000Z</time>
      </trkpt>
      <trkpt lat="47.3204" lon="-2.44274">
        <ele>9</ele>
        <time>2022-06-30T09:17:06.000Z</time>
      </trkpt>
      <trkpt lat="47.32043" lon="-2.44269">
        <ele>9</ele>
        <time>2022-06-30T09:17:07.000Z</time>
      </trkpt>
      <trkpt lat="47.32046" lon="-2.44265">
        <ele>9</ele>
        <time>2022-06-30T09:17:08.000Z</time>
      </trkpt>
      <trkpt lat="47.32049" lon="-2.4426">
        <ele>9.3999996185303</ele>
        <time>2022-06-30T09:17:09.000Z</time>
      </trkpt>
      <trkpt lat="47.32052" lon="-2.44256">
        <ele>9.8000001907349</ele>
        <time>2022-06-30T09:17:10.000Z</time>
      </trkpt>
      <trkpt lat="47.32055" lon="-2.44251">
        <ele>10.199999809265</ele>
        <time>2022-06-30T09:17:11.000Z</time>
      </trkpt>
      <trkpt lat="47.32058" lon="-2.44247">
        <ele>10.60000038147</ele>
        <time>2022-06-30T09:17:12.000Z</time>
      </trkpt>
      <trkpt lat="47.3206" lon="-2.44243">
        <ele>11</ele>
        <time>2022-06-30T09:17:13.000Z</time>
      </trkpt>
      <trkpt lat="47.32072" lon="-2.44228">
        <ele>11.39999961853</ele>
        <time>2022-06-30T09:17:17.000Z</time>
      </trkpt>
      <trkpt lat="47.32075" lon="-2.44224">
        <ele>12</ele>
        <time>2022-06-30T09:17:18.000Z</time>
      </trkpt>
      <trkpt lat="47.32077" lon="-2.4422">
        <ele>12.39999961853</ele>
        <time>2022-06-30T09:17:19.000Z</time>
      </trkpt>
      <trkpt lat="47.3208" lon="-2.44217">
        <ele>12.800000190735</ele>
        <time>2022-06-30T09:17:20.000Z</time>
      </trkpt>
      <trkpt lat="47.32083" lon="-2.44213">
        <ele>13.199999809265</ele>
        <time>2022-06-30T09:17:21.000Z</time>
      </trkpt>
      <trkpt lat="47.32094" lon="-2.44199">
        <ele>13.800000190735</ele>
        <time>2022-06-30T09:17:25.000Z</time>
      </trkpt>
      <trkpt lat="47.32097" lon="-2.44195">
        <ele>14.199999809265</ele>
        <time>2022-06-30T09:17:26.000Z</time>
      </trkpt>
      <trkpt lat="47.32099" lon="-2.44192">
        <ele>14.60000038147</ele>
        <time>2022-06-30T09:17:27.000Z</time>
      </trkpt>
      <trkpt lat="47.32102" lon="-2.44189">
        <ele>15.39999961853</ele>
        <time>2022-06-30T09:17:28.000Z</time>
      </trkpt>
      <trkpt lat="47.32115" lon="-2.44173">
        <ele>15.800000190735</ele>
        <time>2022-06-30T09:17:33.000Z</time>
      </trkpt>
      <trkpt lat="47.32118" lon="-2.44169">
        <ele>16.200000762939</ele>
        <time>2022-06-30T09:17:34.000Z</time>
      </trkpt>
      <trkpt lat="47.3212" lon="-2.44166">
        <ele>16.60000038147</ele>
        <time>2022-06-30T09:17:35.000Z</time>
      </trkpt>
      <trkpt lat="47.32123" lon="-2.44163">
        <ele>17</ele>
        <time>2022-06-30T09:17:36.000Z</time>
      </trkpt>
      <trkpt lat="47.32125" lon="-2.44161">
        <ele>17.39999961853</ele>
        <time>2022-06-30T09:17:37.000Z</time>
      </trkpt>
      <trkpt lat="47.32136" lon="-2.44147">
        <ele>18</ele>
        <time>2022-06-30T09:17:42.000Z</time>
      </trkpt>
      <trkpt lat="47.32138" lon="-2.44144">
        <ele>18.39999961853</ele>
        <time>2022-06-30T09:17:43.000Z</time>
      </trkpt>
      <trkpt lat="47.3214" lon="-2.44141">
        <ele>18.799999237061</ele>
        <time>2022-06-30T09:17:44.000Z</time>
      </trkpt>
      <trkpt lat="47.32142" lon="-2.44138">
        <ele>19.39999961853</ele>
        <time>2022-06-30T09:17:45.000Z</time>
      </trkpt>
      <trkpt lat="47.32144" lon="-2.44135">
        <ele>19.799999237061</ele>
        <time>2022-06-30T09:17:46.000Z</time>
      </trkpt>
      <trkpt lat="47.32151" lon="-2.44128">
        <ele>19.799999237061</ele>
        <time>2022-06-30T09:17:49.000Z</time>
      </trkpt>
      <trkpt lat="47.32153" lon="-2.44126">
        <ele>20.200000762939</ele>
        <time>2022-06-30T09:17:50.000Z</time>
      </trkpt>
      <trkpt lat="47.32156" lon="-2.44123">
        <ele>20.60000038147</ele>
        <time>2022-06-30T09:17:51.000Z</time>
      </trkpt>
      <trkpt lat="47.32158" lon="-2.44121">
        <ele>21</ele>
        <time>2022-06-30T09:17:52.000Z</time>
      </trkpt>
      <trkpt lat="47.3216" lon="-2.44118">
        <ele>21.799999237061</ele>
        <time>2022-06-30T09:17:53.000Z</time>
      </trkpt>
      <trkpt lat="47.32164" lon="-2.44114">
        <ele>21.799999237061</ele>
        <time>2022-06-30T09:17:55.000Z</time>
      </trkpt>
      <trkpt lat="47.32176" lon="-2.441">
        <ele>22.200000762939</ele>
        <time>2022-06-30T09:18:00.000Z</time>
      </trkpt>
      <trkpt lat="47.32178" lon="-2.44098">
        <ele>22.60000038147</ele>
        <time>2022-06-30T09:18:01.000Z</time>
      </trkpt>
      <trkpt lat="47.3218" lon="-2.44096">
        <ele>23</ele>
        <time>2022-06-30T09:18:02.000Z</time>
      </trkpt>
      <trkpt lat="47.32182" lon="-2.44093">
        <ele>23.39999961853</ele>
        <time>2022-06-30T09:18:03.000Z</time>
      </trkpt>
      <trkpt lat="47.32185" lon="-2.4409">
        <ele>23.799999237061</ele>
        <time>2022-06-30T09:18:04.000Z</time>
      </trkpt>
      <trkpt lat="47.32196" lon="-2.44078">
        <ele>23.799999237061</ele>
        <time>2022-06-30T09:18:09.000Z</time>
      </trkpt>
      <trkpt lat="47.32205" lon="-2.4407">
        <ele>24.39999961853</ele>
        <time>2022-06-30T09:18:13.000Z</time>
      </trkpt>
      <trkpt lat="47.32207" lon="-2.44069">
        <ele>24.799999237061</ele>
        <time>2022-06-30T09:18:14.000Z</time>
      </trkpt>
      <trkpt lat="47.32209" lon="-2.44067">
        <ele>25.200000762939</ele>
        <time>2022-06-30T09:18:15.000Z</time>
      </trkpt>
      <trkpt lat="47.32211" lon="-2.44064">
        <ele>25.60000038147</ele>
        <time>2022-06-30T09:18:16.000Z</time>
      </trkpt>
      <trkpt lat="47.32213" lon="-2.44062">
        <ele>26.200000762939</ele>
        <time>2022-06-30T09:18:17.000Z</time>
      </trkpt>
      <trkpt lat="47.32223" lon="-2.4405">
        <ele>26.200000762939</ele>
        <time>2022-06-30T09:18:23.000Z</time>
      </trkpt>
      <trkpt lat="47.32223" lon="-2.44048">
        <ele>26.60000038147</ele>
        <time>2022-06-30T09:18:24.000Z</time>
      </trkpt>
      <trkpt lat="47.32223" lon="-2.44045">
        <ele>27</ele>
        <time>2022-06-30T09:18:25.000Z</time>
      </trkpt>
      <trkpt lat="47.32222" lon="-2.44043">
        <ele>27.39999961853</ele>
        <time>2022-06-30T09:18:26.000Z</time>
      </trkpt>
      <trkpt lat="47.32221" lon="-2.4404">
        <ele>27.799999237061</ele>
        <time>2022-06-30T09:18:27.000Z</time>
      </trkpt>
      <trkpt lat="47.3222" lon="-2.44038">
        <ele>28.200000762939</ele>
        <time>2022-06-30T09:18:28.000Z</time>
      </trkpt>
      <trkpt lat="47.32218" lon="-2.44033">
        <ele>28.200000762939</ele>
        <time>2022-06-30T09:18:32.000Z</time>
      </trkpt>
      <trkpt lat="47.32216" lon="-2.44032">
        <ele>28.200000762939</ele>
        <time>2022-06-30T09:19:00.000Z</time>
      </trkpt>
      <trkpt lat="47.32207" lon="-2.44019">
        <ele>28.200000762939</ele>
        <time>2022-06-30T09:19:05.000Z</time>
      </trkpt>
      <trkpt lat="47.32201" lon="-2.44014">
        <ele>28.200000762939</ele>
        <time>2022-06-30T09:19:07.000Z</time>
      </trkpt>
      <trkpt lat="47.32189" lon="-2.43999">
        <ele>28.200000762939</ele>
        <time>2022-06-30T09:19:11.000Z</time>
      </trkpt>
      <trkpt lat="47.3218" lon="-2.43985">
        <ele>28.200000762939</ele>
        <time>2022-06-30T09:19:14.000Z</time>
      </trkpt>
      <trkpt lat="47.32158" lon="-2.43954">
        <ele>27.799999237061</ele>
        <time>2022-06-30T09:19:20.000Z</time>
      </trkpt>
      <trkpt lat="47.32154" lon="-2.43948">
        <ele>27.39999961853</ele>
        <time>2022-06-30T09:19:21.000Z</time>
      </trkpt>
      <trkpt lat="47.32149" lon="-2.43941">
        <ele>26.799999237061</ele>
        <time>2022-06-30T09:19:22.000Z</time>
      </trkpt>
      <trkpt lat="47.32145" lon="-2.43934">
        <ele>26.39999961853</ele>
        <time>2022-06-30T09:19:23.000Z</time>
      </trkpt>
      <trkpt lat="47.3214" lon="-2.43927">
        <ele>26</ele>
        <time>2022-06-30T09:19:24.000Z</time>
      </trkpt>
      <trkpt lat="47.32135" lon="-2.43921">
        <ele>26</ele>
        <time>2022-06-30T09:19:25.000Z</time>
      </trkpt>
      <trkpt lat="47.32123" lon="-2.43908">
        <ele>25.60000038147</ele>
        <time>2022-06-30T09:19:27.000Z</time>
      </trkpt>
      <trkpt lat="47.32117" lon="-2.43904">
        <ele>25</ele>
        <time>2022-06-30T09:19:28.000Z</time>
      </trkpt>
      <trkpt lat="47.3211" lon="-2.439">
        <ele>24.60000038147</ele>
        <time>2022-06-30T09:19:29.000Z</time>
      </trkpt>
      <trkpt lat="47.32103" lon="-2.43898">
        <ele>24</ele>
        <time>2022-06-30T09:19:30.000Z</time>
      </trkpt>
      <trkpt lat="47.32095" lon="-2.43895">
        <ele>23.200000762939</ele>
        <time>2022-06-30T09:19:31.000Z</time>
      </trkpt>
      <trkpt lat="47.32088" lon="-2.43891">
        <ele>22.799999237061</ele>
        <time>2022-06-30T09:19:32.000Z</time>
      </trkpt>
      <trkpt lat="47.32082" lon="-2.43885">
        <ele>22.200000762939</ele>
        <time>2022-06-30T09:19:33.000Z</time>
      </trkpt>
      <trkpt lat="47.32076" lon="-2.43878">
        <ele>21.799999237061</ele>
        <time>2022-06-30T09:19:34.000Z</time>
      </trkpt>
      <trkpt lat="47.32071" lon="-2.4387">
        <ele>21.39999961853</ele>
        <time>2022-06-30T09:19:35.000Z</time>
      </trkpt>
      <trkpt lat="47.32063" lon="-2.43853">
        <ele>21.39999961853</ele>
        <time>2022-06-30T09:19:37.000Z</time>
      </trkpt>
      <trkpt lat="47.32059" lon="-2.43845">
        <ele>21.39999961853</ele>
        <time>2022-06-30T09:19:38.000Z</time>
      </trkpt>
      <trkpt lat="47.32035" lon="-2.43801">
        <ele>21</ele>
        <time>2022-06-30T09:19:44.000Z</time>
      </trkpt>
      <trkpt lat="47.32031" lon="-2.43797">
        <ele>20.60000038147</ele>
        <time>2022-06-30T09:19:45.000Z</time>
      </trkpt>
      <trkpt lat="47.32026" lon="-2.43798">
        <ele>20</ele>
        <time>2022-06-30T09:19:46.000Z</time>
      </trkpt>
      <trkpt lat="47.3202" lon="-2.43801">
        <ele>19.60000038147</ele>
        <time>2022-06-30T09:19:47.000Z</time>
      </trkpt>
      <trkpt lat="47.32015" lon="-2.43806">
        <ele>19.200000762939</ele>
        <time>2022-06-30T09:19:48.000Z</time>
      </trkpt>
      <trkpt lat="47.32009" lon="-2.43812">
        <ele>18.799999237061</ele>
        <time>2022-06-30T09:19:49.000Z</time>
      </trkpt>
      <trkpt lat="47.32003" lon="-2.43819">
        <ele>18.200000762939</ele>
        <time>2022-06-30T09:19:50.000Z</time>
      </trkpt>
      <trkpt lat="47.31998" lon="-2.43826">
        <ele>17.799999237061</ele>
        <time>2022-06-30T09:19:51.000Z</time>
      </trkpt>
      <trkpt lat="47.31992" lon="-2.4383">
        <ele>17.200000762939</ele>
        <time>2022-06-30T09:19:52.000Z</time>
      </trkpt>
      <trkpt lat="47.31985" lon="-2.43833">
        <ele>16.60000038147</ele>
        <time>2022-06-30T09:19:53.000Z</time>
      </trkpt>
      <trkpt lat="47.31978" lon="-2.43832">
        <ele>16</ele>
        <time>2022-06-30T09:19:54.000Z</time>
      </trkpt>
      <trkpt lat="47.31972" lon="-2.43829">
        <ele>14.800000190735</ele>
        <time>2022-06-30T09:19:55.000Z</time>
      </trkpt>
      <trkpt lat="47.31967" lon="-2.43823">
        <ele>14.199999809265</ele>
        <time>2022-06-30T09:19:56.000Z</time>
      </trkpt>
      <trkpt lat="47.31963" lon="-2.43816">
        <ele>14.199999809265</ele>
        <time>2022-06-30T09:19:57.000Z</time>
      </trkpt>
      <trkpt lat="47.31955" lon="-2.43799">
        <ele>13.800000190735</ele>
        <time>2022-06-30T09:19:59.000Z</time>
      </trkpt>
      <trkpt lat="47.3195" lon="-2.4379">
        <ele>13.39999961853</ele>
        <time>2022-06-30T09:20:00.000Z</time>
      </trkpt>
      <trkpt lat="47.31946" lon="-2.43781">
        <ele>12.800000190735</ele>
        <time>2022-06-30T09:20:01.000Z</time>
      </trkpt>
      <trkpt lat="47.31943" lon="-2.43772">
        <ele>12.39999961853</ele>
        <time>2022-06-30T09:20:02.000Z</time>
      </trkpt>
      <trkpt lat="47.31939" lon="-2.43762">
        <ele>12</ele>
        <time>2022-06-30T09:20:03.000Z</time>
      </trkpt>
      <trkpt lat="47.31917" lon="-2.43702">
        <ele>12</ele>
        <time>2022-06-30T09:20:09.000Z</time>
      </trkpt>
      <trkpt lat="47.31913" lon="-2.43692">
        <ele>12</ele>
        <time>2022-06-30T09:20:10.000Z</time>
      </trkpt>
      <trkpt lat="47.31902" lon="-2.43666">
        <ele>12</ele>
        <time>2022-06-30T09:20:13.000Z</time>
      </trkpt>
      <trkpt lat="47.31898" lon="-2.43658">
        <ele>12</ele>
        <time>2022-06-30T09:20:14.000Z</time>
      </trkpt>
      <trkpt lat="47.3189" lon="-2.43643">
        <ele>11.60000038147</ele>
        <time>2022-06-30T09:20:16.000Z</time>
      </trkpt>
      <trkpt lat="47.31889" lon="-2.43635">
        <ele>11.199999809265</ele>
        <time>2022-06-30T09:20:17.000Z</time>
      </trkpt>
      <trkpt lat="47.31889" lon="-2.43627">
        <ele>10.800000190735</ele>
        <time>2022-06-30T09:20:18.000Z</time>
      </trkpt>
      <trkpt lat="47.31891" lon="-2.4362">
        <ele>10.39999961853</ele>
        <time>2022-06-30T09:20:19.000Z</time>
      </trkpt>
      <trkpt lat="47.31895" lon="-2.43616">
        <ele>10</ele>
        <time>2022-06-30T09:20:20.000Z</time>
      </trkpt>
      <trkpt lat="47.31898" lon="-2.43612">
        <ele>10</ele>
        <time>2022-06-30T09:20:21.000Z</time>
      </trkpt>
      <trkpt lat="47.31902" lon="-2.43609">
        <ele>10</ele>
        <time>2022-06-30T09:20:22.000Z</time>
      </trkpt>
      <trkpt lat="47.31906" lon="-2.43604">
        <ele>10</ele>
        <time>2022-06-30T09:20:23.000Z</time>
      </trkpt>
      <trkpt lat="47.31914" lon="-2.43596">
        <ele>10.39999961853</ele>
        <time>2022-06-30T09:20:25.000Z</time>
      </trkpt>
      <trkpt lat="47.31918" lon="-2.43592">
        <ele>10.800000190735</ele>
        <time>2022-06-30T09:20:26.000Z</time>
      </trkpt>
      <trkpt lat="47.31922" lon="-2.43588">
        <ele>11.199999809265</ele>
        <time>2022-06-30T09:20:27.000Z</time>
      </trkpt>
      <trkpt lat="47.31925" lon="-2.43581">
        <ele>11.800000190735</ele>
        <time>2022-06-30T09:20:28.000Z</time>
      </trkpt>
      <trkpt lat="47.31926" lon="-2.43575">
        <ele>12.199999809265</ele>
        <time>2022-06-30T09:20:29.000Z</time>
      </trkpt>
      <trkpt lat="47.31928" lon="-2.43567">
        <ele>12.199999809265</ele>
        <time>2022-06-30T09:20:30.000Z</time>
      </trkpt>
      <trkpt lat="47.31929" lon="-2.4356">
        <ele>12.199999809265</ele>
        <time>2022-06-30T09:20:31.000Z</time>
      </trkpt>
      <trkpt lat="47.31928" lon="-2.43553">
        <ele>12.199999809265</ele>
        <time>2022-06-30T09:20:32.000Z</time>
      </trkpt>
      <trkpt lat="47.31928" lon="-2.43539">
        <ele>12.60000038147</ele>
        <time>2022-06-30T09:20:34.000Z</time>
      </trkpt>
      <trkpt lat="47.31927" lon="-2.43532">
        <ele>13</ele>
        <time>2022-06-30T09:20:35.000Z</time>
      </trkpt>
      <trkpt lat="47.31927" lon="-2.43524">
        <ele>13.60000038147</ele>
        <time>2022-06-30T09:20:36.000Z</time>
      </trkpt>
      <trkpt lat="47.31926" lon="-2.43517">
        <ele>14</ele>
        <time>2022-06-30T09:20:37.000Z</time>
      </trkpt>
      <trkpt lat="47.31926" lon="-2.43509">
        <ele>14.39999961853</ele>
        <time>2022-06-30T09:20:38.000Z</time>
      </trkpt>
      <trkpt lat="47.31927" lon="-2.43494">
        <ele>14.39999961853</ele>
        <time>2022-06-30T09:20:40.000Z</time>
      </trkpt>
      <trkpt lat="47.31932" lon="-2.43472">
        <ele>14.39999961853</ele>
        <time>2022-06-30T09:20:44.000Z</time>
      </trkpt>
      <trkpt lat="47.31938" lon="-2.43453">
        <ele>14.800000190735</ele>
        <time>2022-06-30T09:20:47.000Z</time>
      </trkpt>
      <trkpt lat="47.3194" lon="-2.43446">
        <ele>15.39999961853</ele>
        <time>2022-06-30T09:20:48.000Z</time>
      </trkpt>
      <trkpt lat="47.31941" lon="-2.4344">
        <ele>15.800000190735</ele>
        <time>2022-06-30T09:20:49.000Z</time>
      </trkpt>
      <trkpt lat="47.31943" lon="-2.43433">
        <ele>16.200000762939</ele>
        <time>2022-06-30T09:20:50.000Z</time>
      </trkpt>
      <trkpt lat="47.31946" lon="-2.43426">
        <ele>16.60000038147</ele>
        <time>2022-06-30T09:20:51.000Z</time>
      </trkpt>
      <trkpt lat="47.31951" lon="-2.43414">
        <ele>16.60000038147</ele>
        <time>2022-06-30T09:20:53.000Z</time>
      </trkpt>
      <trkpt lat="47.31957" lon="-2.43396">
        <ele>17</ele>
        <time>2022-06-30T09:20:56.000Z</time>
      </trkpt>
      <trkpt lat="47.3196" lon="-2.43391">
        <ele>17.39999961853</ele>
        <time>2022-06-30T09:20:57.000Z</time>
      </trkpt>
      <trkpt lat="47.31962" lon="-2.43385">
        <ele>17.799999237061</ele>
        <time>2022-06-30T09:20:58.000Z</time>
      </trkpt>
      <trkpt lat="47.31963" lon="-2.43378">
        <ele>18.200000762939</ele>
        <time>2022-06-30T09:20:59.000Z</time>
      </trkpt>
      <trkpt lat="47.31965" lon="-2.43372">
        <ele>18.60000038147</ele>
        <time>2022-06-30T09:21:00.000Z</time>
      </trkpt>
      <trkpt lat="47.3197" lon="-2.43353">
        <ele>18.60000038147</ele>
        <time>2022-06-30T09:21:03.000Z</time>
      </trkpt>
      <trkpt lat="47.31972" lon="-2.43342">
        <ele>18.60000038147</ele>
        <time>2022-06-30T09:21:05.000Z</time>
      </trkpt>
      <trkpt lat="47.31974" lon="-2.43336">
        <ele>19</ele>
        <time>2022-06-30T09:21:06.000Z</time>
      </trkpt>
      <trkpt lat="47.31975" lon="-2.4333">
        <ele>19.39999961853</ele>
        <time>2022-06-30T09:21:07.000Z</time>
      </trkpt>
      <trkpt lat="47.31976" lon="-2.43325">
        <ele>19.799999237061</ele>
        <time>2022-06-30T09:21:08.000Z</time>
      </trkpt>
      <trkpt lat="47.31976" lon="-2.4332">
        <ele>20.39999961853</ele>
        <time>2022-06-30T09:21:09.000Z</time>
      </trkpt>
      <trkpt lat="47.31977" lon="-2.43314">
        <ele>20.799999237061</ele>
        <time>2022-06-30T09:21:10.000Z</time>
      </trkpt>
      <trkpt lat="47.31977" lon="-2.43309">
        <ele>20.799999237061</ele>
        <time>2022-06-30T09:21:11.000Z</time>
      </trkpt>
      <trkpt lat="47.31977" lon="-2.43282">
        <ele>20.799999237061</ele>
        <time>2022-06-30T09:21:16.000Z</time>
      </trkpt>
      <trkpt lat="47.31979" lon="-2.43278">
        <ele>20.799999237061</ele>
        <time>2022-06-30T09:21:17.000Z</time>
      </trkpt>
      <trkpt lat="47.31984" lon="-2.43273">
        <ele>20.799999237061</ele>
        <time>2022-06-30T09:21:19.000Z</time>
      </trkpt>
      <trkpt lat="47.31994" lon="-2.43266">
        <ele>21.200000762939</ele>
        <time>2022-06-30T09:21:22.000Z</time>
      </trkpt>
      <trkpt lat="47.31998" lon="-2.43264">
        <ele>21.60000038147</ele>
        <time>2022-06-30T09:21:23.000Z</time>
      </trkpt>
      <trkpt lat="47.32001" lon="-2.43261">
        <ele>22</ele>
        <time>2022-06-30T09:21:24.000Z</time>
      </trkpt>
      <trkpt lat="47.32004" lon="-2.43258">
        <ele>22.60000038147</ele>
        <time>2022-06-30T09:21:25.000Z</time>
      </trkpt>
      <trkpt lat="47.32008" lon="-2.43255">
        <ele>23</ele>
        <time>2022-06-30T09:21:26.000Z</time>
      </trkpt>
      <trkpt lat="47.32024" lon="-2.43244">
        <ele>23</ele>
        <time>2022-06-30T09:21:31.000Z</time>
      </trkpt>
      <trkpt lat="47.32026" lon="-2.43242">
        <ele>23.39999961853</ele>
        <time>2022-06-30T09:21:32.000Z</time>
      </trkpt>
      <trkpt lat="47.32029" lon="-2.43239">
        <ele>23.799999237061</ele>
        <time>2022-06-30T09:21:33.000Z</time>
      </trkpt>
      <trkpt lat="47.32032" lon="-2.43237">
        <ele>24.200000762939</ele>
        <time>2022-06-30T09:21:34.000Z</time>
      </trkpt>
      <trkpt lat="47.32036" lon="-2.43235">
        <ele>25</ele>
        <time>2022-06-30T09:21:35.000Z</time>
      </trkpt>
      <trkpt lat="47.32041" lon="-2.43229">
        <ele>25</ele>
        <time>2022-06-30T09:21:37.000Z</time>
      </trkpt>
      <trkpt lat="47.32042" lon="-2.43215">
        <ele>25</ele>
        <time>2022-06-30T09:21:40.000Z</time>
      </trkpt>
      <trkpt lat="47.32041" lon="-2.43209">
        <ele>25</ele>
        <time>2022-06-30T09:21:41.000Z</time>
      </trkpt>
      <trkpt lat="47.32031" lon="-2.43168">
        <ele>25</ele>
        <time>2022-06-30T09:21:47.000Z</time>
      </trkpt>
      <trkpt lat="47.32024" lon="-2.43137">
        <ele>25</ele>
        <time>2022-06-30T09:21:52.000Z</time>
      </trkpt>
      <trkpt lat="47.32023" lon="-2.4313">
        <ele>25</ele>
        <time>2022-06-30T09:21:53.000Z</time>
      </trkpt>
      <trkpt lat="47.32019" lon="-2.43112">
        <ele>25.39999961853</ele>
        <time>2022-06-30T09:21:56.000Z</time>
      </trkpt>
      <trkpt lat="47.32017" lon="-2.43106">
        <ele>25.799999237061</ele>
        <time>2022-06-30T09:21:57.000Z</time>
      </trkpt>
      <trkpt lat="47.32015" lon="-2.43101">
        <ele>26.200000762939</ele>
        <time>2022-06-30T09:21:58.000Z</time>
      </trkpt>
      <trkpt lat="47.32014" lon="-2.43095">
        <ele>26.60000038147</ele>
        <time>2022-06-30T09:21:59.000Z</time>
      </trkpt>
      <trkpt lat="47.32012" lon="-2.43089">
        <ele>27</ele>
        <time>2022-06-30T09:22:00.000Z</time>
      </trkpt>
      <trkpt lat="47.32011" lon="-2.43082">
        <ele>27</ele>
        <time>2022-06-30T09:22:01.000Z</time>
      </trkpt>
      <trkpt lat="47.32003" lon="-2.43046">
        <ele>27.39999961853</ele>
        <time>2022-06-30T09:22:07.000Z</time>
      </trkpt>
      <trkpt lat="47.32002" lon="-2.4304">
        <ele>28</ele>
        <time>2022-06-30T09:22:08.000Z</time>
      </trkpt>
      <trkpt lat="47.32001" lon="-2.43033">
        <ele>28.39999961853</ele>
        <time>2022-06-30T09:22:09.000Z</time>
      </trkpt>
      <trkpt lat="47.32" lon="-2.43027">
        <ele>28.799999237061</ele>
        <time>2022-06-30T09:22:10.000Z</time>
      </trkpt>
      <trkpt lat="47.31999" lon="-2.43021">
        <ele>29.200000762939</ele>
        <time>2022-06-30T09:22:11.000Z</time>
      </trkpt>
      <trkpt lat="47.31997" lon="-2.42991">
        <ele>29.60000038147</ele>
        <time>2022-06-30T09:22:16.000Z</time>
      </trkpt>
      <trkpt lat="47.31997" lon="-2.42984">
        <ele>30</ele>
        <time>2022-06-30T09:22:17.000Z</time>
      </trkpt>
      <trkpt lat="47.31997" lon="-2.42978">
        <ele>30.39999961853</ele>
        <time>2022-06-30T09:22:18.000Z</time>
      </trkpt>
      <trkpt lat="47.31997" lon="-2.42972">
        <ele>30.799999237061</ele>
        <time>2022-06-30T09:22:19.000Z</time>
      </trkpt>
      <trkpt lat="47.31997" lon="-2.42967">
        <ele>31.200000762939</ele>
        <time>2022-06-30T09:22:20.000Z</time>
      </trkpt>
      <trkpt lat="47.31997" lon="-2.42948">
        <ele>31.200000762939</ele>
        <time>2022-06-30T09:22:23.000Z</time>
      </trkpt>
      <trkpt lat="47.32001" lon="-2.42904">
        <ele>31.200000762939</ele>
        <time>2022-06-30T09:22:29.000Z</time>
      </trkpt>
      <trkpt lat="47.32005" lon="-2.42855">
        <ele>31.200000762939</ele>
        <time>2022-06-30T09:22:35.000Z</time>
      </trkpt>
      <trkpt lat="47.32009" lon="-2.42846">
        <ele>31.200000762939</ele>
        <time>2022-06-30T09:22:38.000Z</time>
      </trkpt>
      <trkpt lat="47.32018" lon="-2.4283">
        <ele>31.200000762939</ele>
        <time>2022-06-30T09:22:43.000Z</time>
      </trkpt>
      <trkpt lat="47.32024" lon="-2.42814">
        <ele>31.200000762939</ele>
        <time>2022-06-30T09:22:46.000Z</time>
      </trkpt>
      <trkpt lat="47.3203" lon="-2.42804">
        <ele>31.200000762939</ele>
        <time>2022-06-30T09:22:48.000Z</time>
      </trkpt>
      <trkpt lat="47.32041" lon="-2.42797">
        <ele>31.200000762939</ele>
        <time>2022-06-30T09:22:51.000Z</time>
      </trkpt>
      <trkpt lat="47.32045" lon="-2.42794">
        <ele>31.200000762939</ele>
        <time>2022-06-30T09:22:52.000Z</time>
      </trkpt>
      <trkpt lat="47.32066" lon="-2.42782">
        <ele>31.200000762939</ele>
        <time>2022-06-30T09:22:58.000Z</time>
      </trkpt>
      <trkpt lat="47.32089" lon="-2.42774">
        <ele>31.200000762939</ele>
        <time>2022-06-30T09:23:05.000Z</time>
      </trkpt>
      <trkpt lat="47.32106" lon="-2.42764">
        <ele>31.60000038147</ele>
        <time>2022-06-30T09:23:11.000Z</time>
      </trkpt>
      <trkpt lat="47.32109" lon="-2.42762">
        <ele>32</ele>
        <time>2022-06-30T09:23:12.000Z</time>
      </trkpt>
      <trkpt lat="47.32112" lon="-2.4276">
        <ele>32.400001525879</ele>
        <time>2022-06-30T09:23:13.000Z</time>
      </trkpt>
      <trkpt lat="47.32114" lon="-2.42757">
        <ele>33.200000762939</ele>
        <time>2022-06-30T09:23:14.000Z</time>
      </trkpt>
      <trkpt lat="47.32127" lon="-2.42745">
        <ele>33.200000762939</ele>
        <time>2022-06-30T09:23:20.000Z</time>
      </trkpt>
      <trkpt lat="47.32139" lon="-2.42731">
        <ele>33.200000762939</ele>
        <time>2022-06-30T09:23:27.000Z</time>
      </trkpt>
      <trkpt lat="47.32141" lon="-2.42725">
        <ele>33.799999237061</ele>
        <time>2022-06-30T09:23:29.000Z</time>
      </trkpt>
      <trkpt lat="47.32145" lon="-2.42718">
        <ele>34.599998474121</ele>
        <time>2022-06-30T09:23:30.000Z</time>
      </trkpt>
      <trkpt lat="47.32147" lon="-2.42714">
        <ele>35</ele>
        <time>2022-06-30T09:23:32.000Z</time>
      </trkpt>
      <trkpt lat="47.32149" lon="-2.42711">
        <ele>35.400001525879</ele>
        <time>2022-06-30T09:23:33.000Z</time>
      </trkpt>
      <trkpt lat="47.32167" lon="-2.42689">
        <ele>35.400001525879</ele>
        <time>2022-06-30T09:23:39.000Z</time>
      </trkpt>
      <trkpt lat="47.32178" lon="-2.42673">
        <ele>35.799999237061</ele>
        <time>2022-06-30T09:23:43.000Z</time>
      </trkpt>
      <trkpt lat="47.32181" lon="-2.42669">
        <ele>36.200000762939</ele>
        <time>2022-06-30T09:23:44.000Z</time>
      </trkpt>
      <trkpt lat="47.32184" lon="-2.42665">
        <ele>36.599998474121</ele>
        <time>2022-06-30T09:23:45.000Z</time>
      </trkpt>
      <trkpt lat="47.32186" lon="-2.42661">
        <ele>37</ele>
        <time>2022-06-30T09:23:46.000Z</time>
      </trkpt>
      <trkpt lat="47.32189" lon="-2.42657">
        <ele>37.599998474121</ele>
        <time>2022-06-30T09:23:47.000Z</time>
      </trkpt>
      <trkpt lat="47.32207" lon="-2.42631">
        <ele>38</ele>
        <time>2022-06-30T09:23:53.000Z</time>
      </trkpt>
      <trkpt lat="47.3221" lon="-2.42626">
        <ele>38.400001525879</ele>
        <time>2022-06-30T09:23:54.000Z</time>
      </trkpt>
      <trkpt lat="47.32213" lon="-2.42622">
        <ele>38.799999237061</ele>
        <time>2022-06-30T09:23:55.000Z</time>
      </trkpt>
      <trkpt lat="47.32217" lon="-2.42617">
        <ele>39.200000762939</ele>
        <time>2022-06-30T09:23:56.000Z</time>
      </trkpt>
      <trkpt lat="47.3222" lon="-2.42613">
        <ele>39.599998474121</ele>
        <time>2022-06-30T09:23:57.000Z</time>
      </trkpt>
      <trkpt lat="47.32231" lon="-2.42595">
        <ele>39.599998474121</ele>
        <time>2022-06-30T09:24:01.000Z</time>
      </trkpt>
      <trkpt lat="47.32237" lon="-2.42586">
        <ele>40.400001525879</ele>
        <time>2022-06-30T09:24:03.000Z</time>
      </trkpt>
      <trkpt lat="47.32239" lon="-2.42582">
        <ele>41</ele>
        <time>2022-06-30T09:24:04.000Z</time>
      </trkpt>
      <trkpt lat="47.32242" lon="-2.42577">
        <ele>41.400001525879</ele>
        <time>2022-06-30T09:24:05.000Z</time>
      </trkpt>
      <trkpt lat="47.32245" lon="-2.42573">
        <ele>41.799999237061</ele>
        <time>2022-06-30T09:24:06.000Z</time>
      </trkpt>
      <trkpt lat="47.32248" lon="-2.42569">
        <ele>41.799999237061</ele>
        <time>2022-06-30T09:24:07.000Z</time>
      </trkpt>
      <trkpt lat="47.32258" lon="-2.42547">
        <ele>42.200000762939</ele>
        <time>2022-06-30T09:24:12.000Z</time>
      </trkpt>
      <trkpt lat="47.3226" lon="-2.42543">
        <ele>42.599998474121</ele>
        <time>2022-06-30T09:24:13.000Z</time>
      </trkpt>
      <trkpt lat="47.32262" lon="-2.42538">
        <ele>43</ele>
        <time>2022-06-30T09:24:14.000Z</time>
      </trkpt>
      <trkpt lat="47.32264" lon="-2.42534">
        <ele>43.400001525879</ele>
        <time>2022-06-30T09:24:15.000Z</time>
      </trkpt>
      <trkpt lat="47.32266" lon="-2.42529">
        <ele>43.799999237061</ele>
        <time>2022-06-30T09:24:16.000Z</time>
      </trkpt>
      <trkpt lat="47.32277" lon="-2.42509">
        <ele>44.200000762939</ele>
        <time>2022-06-30T09:24:21.000Z</time>
      </trkpt>
      <trkpt lat="47.32279" lon="-2.42504">
        <ele>44.599998474121</ele>
        <time>2022-06-30T09:24:22.000Z</time>
      </trkpt>
      <trkpt lat="47.32281" lon="-2.425">
        <ele>45.200000762939</ele>
        <time>2022-06-30T09:24:23.000Z</time>
      </trkpt>
      <trkpt lat="47.32283" lon="-2.42496">
        <ele>45.599998474121</ele>
        <time>2022-06-30T09:24:24.000Z</time>
      </trkpt>
      <trkpt lat="47.32285" lon="-2.42492">
        <ele>46</ele>
        <time>2022-06-30T09:24:25.000Z</time>
      </trkpt>
      <trkpt lat="47.32293" lon="-2.42474">
        <ele>46</ele>
        <time>2022-06-30T09:24:29.000Z</time>
      </trkpt>
      <trkpt lat="47.32294" lon="-2.4247">
        <ele>46.400001525879</ele>
        <time>2022-06-30T09:24:30.000Z</time>
      </trkpt>
      <trkpt lat="47.32296" lon="-2.42465">
        <ele>46.799999237061</ele>
        <time>2022-06-30T09:24:31.000Z</time>
      </trkpt>
      <trkpt lat="47.32297" lon="-2.4246">
        <ele>47.200000762939</ele>
        <time>2022-06-30T09:24:32.000Z</time>
      </trkpt>
      <trkpt lat="47.32298" lon="-2.42456">
        <ele>47.599998474121</ele>
        <time>2022-06-30T09:24:33.000Z</time>
      </trkpt>
      <trkpt lat="47.323" lon="-2.42452">
        <ele>48</ele>
        <time>2022-06-30T09:24:34.000Z</time>
      </trkpt>
      <trkpt lat="47.32306" lon="-2.42438">
        <ele>48</ele>
        <time>2022-06-30T09:24:37.000Z</time>
      </trkpt>
      <trkpt lat="47.32318" lon="-2.42414">
        <ele>48</ele>
        <time>2022-06-30T09:24:43.000Z</time>
      </trkpt>
      <trkpt lat="47.32323" lon="-2.42387">
        <ele>48</ele>
        <time>2022-06-30T09:24:48.000Z</time>
      </trkpt>
      <trkpt lat="47.3232" lon="-2.4234">
        <ele>48.400001525879</ele>
        <time>2022-06-30T09:24:56.000Z</time>
      </trkpt>
      <trkpt lat="47.32319" lon="-2.42334">
        <ele>49</ele>
        <time>2022-06-30T09:24:57.000Z</time>
      </trkpt>
      <trkpt lat="47.32318" lon="-2.42328">
        <ele>49.400001525879</ele>
        <time>2022-06-30T09:24:58.000Z</time>
      </trkpt>
      <trkpt lat="47.32318" lon="-2.42322">
        <ele>49.799999237061</ele>
        <time>2022-06-30T09:24:59.000Z</time>
      </trkpt>
      <trkpt lat="47.32317" lon="-2.42317">
        <ele>50.200000762939</ele>
        <time>2022-06-30T09:25:00.000Z</time>
      </trkpt>
      <trkpt lat="47.32314" lon="-2.423">
        <ele>50.200000762939</ele>
        <time>2022-06-30T09:25:03.000Z</time>
      </trkpt>
      <trkpt lat="47.32319" lon="-2.42285">
        <ele>50.200000762939</ele>
        <time>2022-06-30T09:25:06.000Z</time>
      </trkpt>
      <trkpt lat="47.32322" lon="-2.4228">
        <ele>50.200000762939</ele>
        <time>2022-06-30T09:25:07.000Z</time>
      </trkpt>
      <trkpt lat="47.32344" lon="-2.42246">
        <ele>50.200000762939</ele>
        <time>2022-06-30T09:25:14.000Z</time>
      </trkpt>
      <trkpt lat="47.32348" lon="-2.42241">
        <ele>50.200000762939</ele>
        <time>2022-06-30T09:25:15.000Z</time>
      </trkpt>
      <trkpt lat="47.32362" lon="-2.4222">
        <ele>50.200000762939</ele>
        <time>2022-06-30T09:25:19.000Z</time>
      </trkpt>
      <trkpt lat="47.32366" lon="-2.42215">
        <ele>50.200000762939</ele>
        <time>2022-06-30T09:25:20.000Z</time>
      </trkpt>
      <trkpt lat="47.32382" lon="-2.42195">
        <ele>50.599998474121</ele>
        <time>2022-06-30T09:25:24.000Z</time>
      </trkpt>
      <trkpt lat="47.32386" lon="-2.42191">
        <ele>51</ele>
        <time>2022-06-30T09:25:25.000Z</time>
      </trkpt>
      <trkpt lat="47.3239" lon="-2.42187">
        <ele>51.400001525879</ele>
        <time>2022-06-30T09:25:26.000Z</time>
      </trkpt>
      <trkpt lat="47.32394" lon="-2.42183">
        <ele>51.799999237061</ele>
        <time>2022-06-30T09:25:27.000Z</time>
      </trkpt>
      <trkpt lat="47.32398" lon="-2.42179">
        <ele>52.200000762939</ele>
        <time>2022-06-30T09:25:28.000Z</time>
      </trkpt>
      <trkpt lat="47.32406" lon="-2.4217">
        <ele>52.200000762939</ele>
        <time>2022-06-30T09:25:30.000Z</time>
      </trkpt>
      <trkpt lat="47.32414" lon="-2.4216">
        <ele>52.200000762939</ele>
        <time>2022-06-30T09:25:32.000Z</time>
      </trkpt>
      <trkpt lat="47.32427" lon="-2.42142">
        <ele>52.200000762939</ele>
        <time>2022-06-30T09:25:36.000Z</time>
      </trkpt>
      <trkpt lat="47.32433" lon="-2.42133">
        <ele>52.200000762939</ele>
        <time>2022-06-30T09:25:38.000Z</time>
      </trkpt>
      <trkpt lat="47.32443" lon="-2.42112">
        <ele>52.200000762939</ele>
        <time>2022-06-30T09:25:43.000Z</time>
      </trkpt>
      <trkpt lat="47.32441" lon="-2.42108">
        <ele>52.200000762939</ele>
        <time>2022-06-30T09:25:44.000Z</time>
      </trkpt>
      <trkpt lat="47.32432" lon="-2.42098">
        <ele>52.200000762939</ele>
        <time>2022-06-30T09:25:47.000Z</time>
      </trkpt>
      <trkpt lat="47.32428" lon="-2.42094">
        <ele>52.200000762939</ele>
        <time>2022-06-30T09:25:48.000Z</time>
      </trkpt>
      <trkpt lat="47.32406" lon="-2.42068">
        <ele>52.200000762939</ele>
        <time>2022-06-30T09:25:53.000Z</time>
      </trkpt>
      <trkpt lat="47.32359" lon="-2.42018">
        <ele>52.200000762939</ele>
        <time>2022-06-30T09:26:02.000Z</time>
      </trkpt>
      <trkpt lat="47.3233" lon="-2.4199">
        <ele>51.799999237061</ele>
        <time>2022-06-30T09:26:07.000Z</time>
      </trkpt>
      <trkpt lat="47.32324" lon="-2.41985">
        <ele>51.400001525879</ele>
        <time>2022-06-30T09:26:08.000Z</time>
      </trkpt>
      <trkpt lat="47.32318" lon="-2.41981">
        <ele>51</ele>
        <time>2022-06-30T09:26:09.000Z</time>
      </trkpt>
      <trkpt lat="47.32312" lon="-2.41976">
        <ele>50.400001525879</ele>
        <time>2022-06-30T09:26:10.000Z</time>
      </trkpt>
      <trkpt lat="47.32307" lon="-2.41971">
        <ele>50</ele>
        <time>2022-06-30T09:26:11.000Z</time>
      </trkpt>
      <trkpt lat="47.32294" lon="-2.41956">
        <ele>50</ele>
        <time>2022-06-30T09:26:14.000Z</time>
      </trkpt>
      <trkpt lat="47.32292" lon="-2.41948">
        <ele>50</ele>
        <time>2022-06-30T09:26:16.000Z</time>
      </trkpt>
      <trkpt lat="47.32293" lon="-2.41945">
        <ele>50</ele>
        <time>2022-06-30T09:26:17.000Z</time>
      </trkpt>
      <trkpt lat="47.32291" lon="-2.41935">
        <ele>49.599998474121</ele>
        <time>2022-06-30T09:26:20.000Z</time>
      </trkpt>
      <trkpt lat="47.3229" lon="-2.41932">
        <ele>49.200000762939</ele>
        <time>2022-06-30T09:26:21.000Z</time>
      </trkpt>
      <trkpt lat="47.32288" lon="-2.41927">
        <ele>48.799999237061</ele>
        <time>2022-06-30T09:26:22.000Z</time>
      </trkpt>
      <trkpt lat="47.32285" lon="-2.41923">
        <ele>48.400001525879</ele>
        <time>2022-06-30T09:26:23.000Z</time>
      </trkpt>
      <trkpt lat="47.32283" lon="-2.4192">
        <ele>48</ele>
        <time>2022-06-30T09:26:24.000Z</time>
      </trkpt>
      <trkpt lat="47.3228" lon="-2.41916">
        <ele>48</ele>
        <time>2022-06-30T09:26:25.000Z</time>
      </trkpt>
      <trkpt lat="47.32275" lon="-2.41907">
        <ele>48</ele>
        <time>2022-06-30T09:26:27.000Z</time>
      </trkpt>
      <trkpt lat="47.32263" lon="-2.41889">
        <ele>48</ele>
        <time>2022-06-30T09:26:30.000Z</time>
      </trkpt>
      <trkpt lat="47.3226" lon="-2.41883">
        <ele>48</ele>
        <time>2022-06-30T09:26:31.000Z</time>
      </trkpt>
      <trkpt lat="47.32252" lon="-2.41865">
        <ele>48</ele>
        <time>2022-06-30T09:26:34.000Z</time>
      </trkpt>
      <trkpt lat="47.32252" lon="-2.41846">
        <ele>48</ele>
        <time>2022-06-30T09:26:37.000Z</time>
      </trkpt>
      <trkpt lat="47.32258" lon="-2.41832">
        <ele>48</ele>
        <time>2022-06-30T09:26:39.000Z</time>
      </trkpt>
      <trkpt lat="47.32264" lon="-2.41818">
        <ele>48</ele>
        <time>2022-06-30T09:26:41.000Z</time>
      </trkpt>
      <trkpt lat="47.32282" lon="-2.41781">
        <ele>48</ele>
        <time>2022-06-30T09:26:47.000Z</time>
      </trkpt>
      <trkpt lat="47.32283" lon="-2.4176">
        <ele>48</ele>
        <time>2022-06-30T09:26:51.000Z</time>
      </trkpt>
      <trkpt lat="47.32287" lon="-2.41739">
        <ele>48</ele>
        <time>2022-06-30T09:26:56.000Z</time>
      </trkpt>
      <trkpt lat="47.32296" lon="-2.41721">
        <ele>48</ele>
        <time>2022-06-30T09:27:01.000Z</time>
      </trkpt>
      <trkpt lat="47.32298" lon="-2.41716">
        <ele>48</ele>
        <time>2022-06-30T09:27:05.000Z</time>
      </trkpt>
      <trkpt lat="47.32299" lon="-2.41709">
        <ele>48</ele>
        <time>2022-06-30T09:27:13.000Z</time>
      </trkpt>
      <trkpt lat="47.323" lon="-2.41689">
        <ele>48.400001525879</ele>
        <time>2022-06-30T09:27:18.000Z</time>
      </trkpt>
      <trkpt lat="47.323" lon="-2.41684">
        <ele>48.799999237061</ele>
        <time>2022-06-30T09:27:19.000Z</time>
      </trkpt>
      <trkpt lat="47.323" lon="-2.4168">
        <ele>49.799999237061</ele>
        <time>2022-06-30T09:27:20.000Z</time>
      </trkpt>
      <trkpt lat="47.323" lon="-2.41676">
        <ele>50.200000762939</ele>
        <time>2022-06-30T09:27:21.000Z</time>
      </trkpt>
      <trkpt lat="47.323" lon="-2.41664">
        <ele>50.200000762939</ele>
        <time>2022-06-30T09:27:24.000Z</time>
      </trkpt>
      <trkpt lat="47.32304" lon="-2.41635">
        <ele>50.200000762939</ele>
        <time>2022-06-30T09:27:30.000Z</time>
      </trkpt>
      <trkpt lat="47.32314" lon="-2.41611">
        <ele>50.200000762939</ele>
        <time>2022-06-30T09:27:34.000Z</time>
      </trkpt>
      <trkpt lat="47.32315" lon="-2.41605">
        <ele>50.200000762939</ele>
        <time>2022-06-30T09:27:35.000Z</time>
      </trkpt>
      <trkpt lat="47.32325" lon="-2.41569">
        <ele>50.200000762939</ele>
        <time>2022-06-30T09:27:41.000Z</time>
      </trkpt>
      <trkpt lat="47.32328" lon="-2.41564">
        <ele>50.200000762939</ele>
        <time>2022-06-30T09:27:42.000Z</time>
      </trkpt>
      <trkpt lat="47.32338" lon="-2.41552">
        <ele>50.200000762939</ele>
        <time>2022-06-30T09:27:45.000Z</time>
      </trkpt>
      <trkpt lat="47.32342" lon="-2.41549">
        <ele>50.200000762939</ele>
        <time>2022-06-30T09:27:46.000Z</time>
      </trkpt>
      <trkpt lat="47.32366" lon="-2.41544">
        <ele>50.200000762939</ele>
        <time>2022-06-30T09:27:51.000Z</time>
      </trkpt>
      <trkpt lat="47.32389" lon="-2.41554">
        <ele>50.200000762939</ele>
        <time>2022-06-30T09:27:56.000Z</time>
      </trkpt>
      <trkpt lat="47.32392" lon="-2.41557">
        <ele>50.200000762939</ele>
        <time>2022-06-30T09:27:57.000Z</time>
      </trkpt>
      <trkpt lat="47.32405" lon="-2.41564">
        <ele>50.200000762939</ele>
        <time>2022-06-30T09:28:00.000Z</time>
      </trkpt>
      <trkpt lat="47.3242" lon="-2.41565">
        <ele>50.200000762939</ele>
        <time>2022-06-30T09:28:03.000Z</time>
      </trkpt>
      <trkpt lat="47.32425" lon="-2.41565">
        <ele>50.200000762939</ele>
        <time>2022-06-30T09:28:04.000Z</time>
      </trkpt>
      <trkpt lat="47.32455" lon="-2.41568">
        <ele>50.200000762939</ele>
        <time>2022-06-30T09:28:10.000Z</time>
      </trkpt>
      <trkpt lat="47.32465" lon="-2.41572">
        <ele>50.200000762939</ele>
        <time>2022-06-30T09:28:12.000Z</time>
      </trkpt>
      <trkpt lat="47.32483" lon="-2.4158">
        <ele>50.200000762939</ele>
        <time>2022-06-30T09:28:16.000Z</time>
      </trkpt>
      <trkpt lat="47.32497" lon="-2.41586">
        <ele>50.200000762939</ele>
        <time>2022-06-30T09:28:19.000Z</time>
      </trkpt>
      <trkpt lat="47.32507" lon="-2.41587">
        <ele>50.599998474121</ele>
        <time>2022-06-30T09:28:21.000Z</time>
      </trkpt>
      <trkpt lat="47.32512" lon="-2.41587">
        <ele>51</ele>
        <time>2022-06-30T09:28:22.000Z</time>
      </trkpt>
      <trkpt lat="47.32517" lon="-2.41586">
        <ele>51.400001525879</ele>
        <time>2022-06-30T09:28:23.000Z</time>
      </trkpt>
      <trkpt lat="47.32522" lon="-2.41584">
        <ele>51.799999237061</ele>
        <time>2022-06-30T09:28:24.000Z</time>
      </trkpt>
      <trkpt lat="47.32527" lon="-2.41582">
        <ele>52.200000762939</ele>
        <time>2022-06-30T09:28:25.000Z</time>
      </trkpt>
      <trkpt lat="47.32531" lon="-2.41581">
        <ele>52.200000762939</ele>
        <time>2022-06-30T09:28:26.000Z</time>
      </trkpt>
      <trkpt lat="47.32536" lon="-2.41579">
        <ele>52.200000762939</ele>
        <time>2022-06-30T09:28:27.000Z</time>
      </trkpt>
      <trkpt lat="47.32545" lon="-2.41576">
        <ele>52.200000762939</ele>
        <time>2022-06-30T09:28:29.000Z</time>
      </trkpt>
      <trkpt lat="47.3256" lon="-2.41579">
        <ele>52.200000762939</ele>
        <time>2022-06-30T09:28:32.000Z</time>
      </trkpt>
      <trkpt lat="47.32579" lon="-2.41596">
        <ele>52.200000762939</ele>
        <time>2022-06-30T09:28:36.000Z</time>
      </trkpt>
      <trkpt lat="47.32584" lon="-2.41601">
        <ele>52.200000762939</ele>
        <time>2022-06-30T09:28:37.000Z</time>
      </trkpt>
      <trkpt lat="47.32589" lon="-2.41605">
        <ele>52.200000762939</ele>
        <time>2022-06-30T09:28:38.000Z</time>
      </trkpt>
      <trkpt lat="47.32605" lon="-2.41604">
        <ele>52.200000762939</ele>
        <time>2022-06-30T09:28:41.000Z</time>
      </trkpt>
      <trkpt lat="47.3261" lon="-2.41603">
        <ele>52.200000762939</ele>
        <time>2022-06-30T09:28:42.000Z</time>
      </trkpt>
      <trkpt lat="47.3262" lon="-2.41602">
        <ele>52.200000762939</ele>
        <time>2022-06-30T09:28:44.000Z</time>
      </trkpt>
      <trkpt lat="47.32631" lon="-2.41606">
        <ele>52.200000762939</ele>
        <time>2022-06-30T09:28:46.000Z</time>
      </trkpt>
      <trkpt lat="47.32661" lon="-2.41616">
        <ele>51.799999237061</ele>
        <time>2022-06-30T09:28:51.000Z</time>
      </trkpt>
      <trkpt lat="47.32667" lon="-2.41618">
        <ele>51.400001525879</ele>
        <time>2022-06-30T09:28:52.000Z</time>
      </trkpt>
      <trkpt lat="47.32673" lon="-2.4162">
        <ele>51</ele>
        <time>2022-06-30T09:28:53.000Z</time>
      </trkpt>
      <trkpt lat="47.32678" lon="-2.41622">
        <ele>50.599998474121</ele>
        <time>2022-06-30T09:28:54.000Z</time>
      </trkpt>
      <trkpt lat="47.32684" lon="-2.41624">
        <ele>50.200000762939</ele>
        <time>2022-06-30T09:28:55.000Z</time>
      </trkpt>
      <trkpt lat="47.32687" lon="-2.41623">
        <ele>50.200000762939</ele>
        <time>2022-06-30T09:28:56.000Z</time>
      </trkpt>
      <trkpt lat="47.3269" lon="-2.41621">
        <ele>50.200000762939</ele>
        <time>2022-06-30T09:28:57.000Z</time>
      </trkpt>
      <trkpt lat="47.32698" lon="-2.41605">
        <ele>50.200000762939</ele>
        <time>2022-06-30T09:29:01.000Z</time>
      </trkpt>
      <trkpt lat="47.32701" lon="-2.41592">
        <ele>49.799999237061</ele>
        <time>2022-06-30T09:29:04.000Z</time>
      </trkpt>
      <trkpt lat="47.32703" lon="-2.4159">
        <ele>49.200000762939</ele>
        <time>2022-06-30T09:29:05.000Z</time>
      </trkpt>
      <trkpt lat="47.32706" lon="-2.41585">
        <ele>48.799999237061</ele>
        <time>2022-06-30T09:29:06.000Z</time>
      </trkpt>
      <trkpt lat="47.32707" lon="-2.41581">
        <ele>48.400001525879</ele>
        <time>2022-06-30T09:29:07.000Z</time>
      </trkpt>
      <trkpt lat="47.32706" lon="-2.41576">
        <ele>48</ele>
        <time>2022-06-30T09:29:08.000Z</time>
      </trkpt>
      <trkpt lat="47.32704" lon="-2.41576">
        <ele>48</ele>
        <time>2022-06-30T09:29:09.000Z</time>
      </trkpt>
      <trkpt lat="47.32703" lon="-2.41562">
        <ele>48</ele>
        <time>2022-06-30T09:29:13.000Z</time>
      </trkpt>
      <trkpt lat="47.32698" lon="-2.41536">
        <ele>48</ele>
        <time>2022-06-30T09:29:18.000Z</time>
      </trkpt>
      <trkpt lat="47.32685" lon="-2.41531">
        <ele>48</ele>
        <time>2022-06-30T09:29:22.000Z</time>
      </trkpt>
      <trkpt lat="47.32667" lon="-2.41529">
        <ele>48</ele>
        <time>2022-06-30T09:29:28.000Z</time>
      </trkpt>
      <trkpt lat="47.32644" lon="-2.41526">
        <ele>48.400001525879</ele>
        <time>2022-06-30T09:29:34.000Z</time>
      </trkpt>
      <trkpt lat="47.3264" lon="-2.41526">
        <ele>48.799999237061</ele>
        <time>2022-06-30T09:29:35.000Z</time>
      </trkpt>
      <trkpt lat="47.32637" lon="-2.41526">
        <ele>49.200000762939</ele>
        <time>2022-06-30T09:29:36.000Z</time>
      </trkpt>
      <trkpt lat="47.32633" lon="-2.41526">
        <ele>49.799999237061</ele>
        <time>2022-06-30T09:29:37.000Z</time>
      </trkpt>
      <trkpt lat="47.3263" lon="-2.41525">
        <ele>50.200000762939</ele>
        <time>2022-06-30T09:29:38.000Z</time>
      </trkpt>
      <trkpt lat="47.32624" lon="-2.41524">
        <ele>50.200000762939</ele>
        <time>2022-06-30T09:29:40.000Z</time>
      </trkpt>
      <trkpt lat="47.32607" lon="-2.4152">
        <ele>50.200000762939</ele>
        <time>2022-06-30T09:29:46.000Z</time>
      </trkpt>
      <trkpt lat="47.32584" lon="-2.41514">
        <ele>50.200000762939</ele>
        <time>2022-06-30T09:29:52.000Z</time>
      </trkpt>
      <trkpt lat="47.32575" lon="-2.41498">
        <ele>50.200000762939</ele>
        <time>2022-06-30T09:29:56.000Z</time>
      </trkpt>
      <trkpt lat="47.32574" lon="-2.41492">
        <ele>50.200000762939</ele>
        <time>2022-06-30T09:29:57.000Z</time>
      </trkpt>
      <trkpt lat="47.32573" lon="-2.41486">
        <ele>50.200000762939</ele>
        <time>2022-06-30T09:29:58.000Z</time>
      </trkpt>
      <trkpt lat="47.32572" lon="-2.41474">
        <ele>50.200000762939</ele>
        <time>2022-06-30T09:30:00.000Z</time>
      </trkpt>
      <trkpt lat="47.32571" lon="-2.41467">
        <ele>50.599998474121</ele>
        <time>2022-06-30T09:30:01.000Z</time>
      </trkpt>
      <trkpt lat="47.3257" lon="-2.41461">
        <ele>51</ele>
        <time>2022-06-30T09:30:02.000Z</time>
      </trkpt>
      <trkpt lat="47.32567" lon="-2.41456">
        <ele>51.400001525879</ele>
        <time>2022-06-30T09:30:03.000Z</time>
      </trkpt>
      <trkpt lat="47.32564" lon="-2.41451">
        <ele>51.799999237061</ele>
        <time>2022-06-30T09:30:04.000Z</time>
      </trkpt>
      <trkpt lat="47.32562" lon="-2.41446">
        <ele>52.200000762939</ele>
        <time>2022-06-30T09:30:05.000Z</time>
      </trkpt>
      <trkpt lat="47.32559" lon="-2.4144">
        <ele>52.200000762939</ele>
        <time>2022-06-30T09:30:06.000Z</time>
      </trkpt>
      <trkpt lat="47.3254" lon="-2.41405">
        <ele>52.200000762939</ele>
        <time>2022-06-30T09:30:12.000Z</time>
      </trkpt>
      <trkpt lat="47.32505" lon="-2.41337">
        <ele>52.200000762939</ele>
        <time>2022-06-30T09:30:23.000Z</time>
      </trkpt>
      <trkpt lat="47.32478" lon="-2.41287">
        <ele>52.200000762939</ele>
        <time>2022-06-30T09:30:31.000Z</time>
      </trkpt>
      <trkpt lat="47.32456" lon="-2.41243">
        <ele>52.599998474121</ele>
        <time>2022-06-30T09:30:38.000Z</time>
      </trkpt>
      <trkpt lat="47.32453" lon="-2.41237">
        <ele>53</ele>
        <time>2022-06-30T09:30:39.000Z</time>
      </trkpt>
      <trkpt lat="47.3245" lon="-2.41232">
        <ele>53.400001525879</ele>
        <time>2022-06-30T09:30:40.000Z</time>
      </trkpt>
      <trkpt lat="47.32447" lon="-2.41226">
        <ele>53.799999237061</ele>
        <time>2022-06-30T09:30:41.000Z</time>
      </trkpt>
      <trkpt lat="47.32444" lon="-2.41221">
        <ele>54.200000762939</ele>
        <time>2022-06-30T09:30:42.000Z</time>
      </trkpt>
      <trkpt lat="47.32428" lon="-2.41189">
        <ele>54.200000762939</ele>
        <time>2022-06-30T09:30:48.000Z</time>
      </trkpt>
      <trkpt lat="47.32423" lon="-2.4118">
        <ele>54.200000762939</ele>
        <time>2022-06-30T09:30:52.000Z</time>
      </trkpt>
      <trkpt lat="47.32422" lon="-2.41179">
        <ele>54.200000762939</ele>
        <time>2022-06-30T09:30:53.000Z</time>
      </trkpt>
      <trkpt lat="47.32415" lon="-2.41172">
        <ele>54.200000762939</ele>
        <time>2022-06-30T09:30:56.000Z</time>
      </trkpt>
      <trkpt lat="47.32413" lon="-2.41166">
        <ele>54.200000762939</ele>
        <time>2022-06-30T09:30:57.000Z</time>
      </trkpt>
      <trkpt lat="47.32409" lon="-2.41149">
        <ele>54.200000762939</ele>
        <time>2022-06-30T09:31:00.000Z</time>
      </trkpt>
      <trkpt lat="47.32406" lon="-2.41144">
        <ele>54.200000762939</ele>
        <time>2022-06-30T09:31:01.000Z</time>
      </trkpt>
      <trkpt lat="47.32396" lon="-2.41128">
        <ele>54.200000762939</ele>
        <time>2022-06-30T09:31:04.000Z</time>
      </trkpt>
      <trkpt lat="47.32376" lon="-2.41087">
        <ele>54.200000762939</ele>
        <time>2022-06-30T09:31:11.000Z</time>
      </trkpt>
      <trkpt lat="47.32371" lon="-2.41076">
        <ele>54.200000762939</ele>
        <time>2022-06-30T09:31:13.000Z</time>
      </trkpt>
      <trkpt lat="47.32366" lon="-2.41066">
        <ele>54.200000762939</ele>
        <time>2022-06-30T09:31:15.000Z</time>
      </trkpt>
      <trkpt lat="47.32351" lon="-2.41046">
        <ele>54.200000762939</ele>
        <time>2022-06-30T09:31:19.000Z</time>
      </trkpt>
      <trkpt lat="47.32338" lon="-2.41021">
        <ele>54.200000762939</ele>
        <time>2022-06-30T09:31:23.000Z</time>
      </trkpt>
      <trkpt lat="47.32326" lon="-2.41001">
        <ele>54.200000762939</ele>
        <time>2022-06-30T09:31:26.000Z</time>
      </trkpt>
      <trkpt lat="47.32299" lon="-2.40948">
        <ele>54.200000762939</ele>
        <time>2022-06-30T09:31:33.000Z</time>
      </trkpt>
      <trkpt lat="47.32264" lon="-2.40884">
        <ele>54.200000762939</ele>
        <time>2022-06-30T09:31:41.000Z</time>
      </trkpt>
      <trkpt lat="47.3226" lon="-2.40877">
        <ele>53.799999237061</ele>
        <time>2022-06-30T09:31:42.000Z</time>
      </trkpt>
      <trkpt lat="47.32256" lon="-2.4087">
        <ele>53.400001525879</ele>
        <time>2022-06-30T09:31:43.000Z</time>
      </trkpt>
      <trkpt lat="47.32251" lon="-2.40862">
        <ele>52.799999237061</ele>
        <time>2022-06-30T09:31:44.000Z</time>
      </trkpt>
      <trkpt lat="47.32247" lon="-2.40855">
        <ele>52.400001525879</ele>
        <time>2022-06-30T09:31:45.000Z</time>
      </trkpt>
      <trkpt lat="47.32243" lon="-2.40848">
        <ele>52</ele>
        <time>2022-06-30T09:31:46.000Z</time>
      </trkpt>
      <trkpt lat="47.32226" lon="-2.4082">
        <ele>52</ele>
        <time>2022-06-30T09:31:51.000Z</time>
      </trkpt>
      <trkpt lat="47.3222" lon="-2.40814">
        <ele>52</ele>
        <time>2022-06-30T09:31:54.000Z</time>
      </trkpt>
      <trkpt lat="47.32219" lon="-2.40813">
        <ele>52</ele>
        <time>2022-06-30T09:31:55.000Z</time>
      </trkpt>
      <trkpt lat="47.32213" lon="-2.40805">
        <ele>52</ele>
        <time>2022-06-30T09:31:59.000Z</time>
      </trkpt>
      <trkpt lat="47.32204" lon="-2.40789">
        <ele>52</ele>
        <time>2022-06-30T09:32:03.000Z</time>
      </trkpt>
      <trkpt lat="47.32193" lon="-2.40772">
        <ele>52</ele>
        <time>2022-06-30T09:32:07.000Z</time>
      </trkpt>
      <trkpt lat="47.32189" lon="-2.40766">
        <ele>52</ele>
        <time>2022-06-30T09:32:08.000Z</time>
      </trkpt>
      <trkpt lat="47.3217" lon="-2.40741">
        <ele>52</ele>
        <time>2022-06-30T09:32:13.000Z</time>
      </trkpt>
      <trkpt lat="47.32127" lon="-2.40689">
        <ele>52</ele>
        <time>2022-06-30T09:32:22.000Z</time>
      </trkpt>
      <trkpt lat="47.32085" lon="-2.40643">
        <ele>52</ele>
        <time>2022-06-30T09:32:30.000Z</time>
      </trkpt>
      <trkpt lat="47.32079" lon="-2.40637">
        <ele>51.599998474121</ele>
        <time>2022-06-30T09:32:31.000Z</time>
      </trkpt>
      <trkpt lat="47.32073" lon="-2.40632">
        <ele>51.200000762939</ele>
        <time>2022-06-30T09:32:32.000Z</time>
      </trkpt>
      <trkpt lat="47.32068" lon="-2.40627">
        <ele>50.799999237061</ele>
        <time>2022-06-30T09:32:33.000Z</time>
      </trkpt>
      <trkpt lat="47.32062" lon="-2.40622">
        <ele>50.400001525879</ele>
        <time>2022-06-30T09:32:34.000Z</time>
      </trkpt>
      <trkpt lat="47.32056" lon="-2.40617">
        <ele>50</ele>
        <time>2022-06-30T09:32:35.000Z</time>
      </trkpt>
      <trkpt lat="47.32039" lon="-2.40601">
        <ele>50</ele>
        <time>2022-06-30T09:32:38.000Z</time>
      </trkpt>
      <trkpt lat="47.31991" lon="-2.40562">
        <ele>50</ele>
        <time>2022-06-30T09:32:46.000Z</time>
      </trkpt>
      <trkpt lat="47.31979" lon="-2.40554">
        <ele>49.599998474121</ele>
        <time>2022-06-30T09:32:48.000Z</time>
      </trkpt>
      <trkpt lat="47.31973" lon="-2.4055">
        <ele>49</ele>
        <time>2022-06-30T09:32:49.000Z</time>
      </trkpt>
      <trkpt lat="47.31967" lon="-2.40545">
        <ele>48.599998474121</ele>
        <time>2022-06-30T09:32:50.000Z</time>
      </trkpt>
      <trkpt lat="47.31961" lon="-2.40541">
        <ele>48.200000762939</ele>
        <time>2022-06-30T09:32:51.000Z</time>
      </trkpt>
      <trkpt lat="47.31956" lon="-2.40537">
        <ele>47.799999237061</ele>
        <time>2022-06-30T09:32:52.000Z</time>
      </trkpt>
      <trkpt lat="47.31921" lon="-2.40512">
        <ele>47.799999237061</ele>
        <time>2022-06-30T09:32:58.000Z</time>
      </trkpt>
      <trkpt lat="47.31879" lon="-2.40476">
        <ele>47.799999237061</ele>
        <time>2022-06-30T09:33:05.000Z</time>
      </trkpt>
      <trkpt lat="47.31861" lon="-2.40461">
        <ele>47.200000762939</ele>
        <time>2022-06-30T09:33:08.000Z</time>
      </trkpt>
      <trkpt lat="47.31855" lon="-2.40457">
        <ele>46.799999237061</ele>
        <time>2022-06-30T09:33:09.000Z</time>
      </trkpt>
      <trkpt lat="47.31848" lon="-2.40452">
        <ele>46.400001525879</ele>
        <time>2022-06-30T09:33:10.000Z</time>
      </trkpt>
      <trkpt lat="47.31842" lon="-2.40448">
        <ele>45.799999237061</ele>
        <time>2022-06-30T09:33:11.000Z</time>
      </trkpt>
      <trkpt lat="47.31836" lon="-2.40444">
        <ele>45.400001525879</ele>
        <time>2022-06-30T09:33:12.000Z</time>
      </trkpt>
      <trkpt lat="47.31786" lon="-2.40411">
        <ele>45.400001525879</ele>
        <time>2022-06-30T09:33:19.000Z</time>
      </trkpt>
      <trkpt lat="47.31743" lon="-2.40377">
        <ele>45.400001525879</ele>
        <time>2022-06-30T09:33:26.000Z</time>
      </trkpt>
      <trkpt lat="47.31737" lon="-2.40371">
        <ele>45</ele>
        <time>2022-06-30T09:33:27.000Z</time>
      </trkpt>
      <trkpt lat="47.3173" lon="-2.40367">
        <ele>44.599998474121</ele>
        <time>2022-06-30T09:33:28.000Z</time>
      </trkpt>
      <trkpt lat="47.31724" lon="-2.40363">
        <ele>44</ele>
        <time>2022-06-30T09:33:29.000Z</time>
      </trkpt>
      <trkpt lat="47.31718" lon="-2.40359">
        <ele>43.200000762939</ele>
        <time>2022-06-30T09:33:30.000Z</time>
      </trkpt>
      <trkpt lat="47.31707" lon="-2.40349">
        <ele>43.200000762939</ele>
        <time>2022-06-30T09:33:32.000Z</time>
      </trkpt>
      <trkpt lat="47.317" lon="-2.40345">
        <ele>43.200000762939</ele>
        <time>2022-06-30T09:33:33.000Z</time>
      </trkpt>
      <trkpt lat="47.31686" lon="-2.40334">
        <ele>43.200000762939</ele>
        <time>2022-06-30T09:33:36.000Z</time>
      </trkpt>
      <trkpt lat="47.31683" lon="-2.4033">
        <ele>43.200000762939</ele>
        <time>2022-06-30T09:33:38.000Z</time>
      </trkpt>
      <trkpt lat="47.31683" lon="-2.40327">
        <ele>43.200000762939</ele>
        <time>2022-06-30T09:33:39.000Z</time>
      </trkpt>
      <trkpt lat="47.31692" lon="-2.40309">
        <ele>43.200000762939</ele>
        <time>2022-06-30T09:33:43.000Z</time>
      </trkpt>
      <trkpt lat="47.31711" lon="-2.40277">
        <ele>43.200000762939</ele>
        <time>2022-06-30T09:33:49.000Z</time>
      </trkpt>
      <trkpt lat="47.31727" lon="-2.40252">
        <ele>43.200000762939</ele>
        <time>2022-06-30T09:33:53.000Z</time>
      </trkpt>
      <trkpt lat="47.31733" lon="-2.4024">
        <ele>43.200000762939</ele>
        <time>2022-06-30T09:33:55.000Z</time>
      </trkpt>
      <trkpt lat="47.31759" lon="-2.40194">
        <ele>43.200000762939</ele>
        <time>2022-06-30T09:34:02.000Z</time>
      </trkpt>
      <trkpt lat="47.31789" lon="-2.40149">
        <ele>43.200000762939</ele>
        <time>2022-06-30T09:34:10.000Z</time>
      </trkpt>
      <trkpt lat="47.31817" lon="-2.40106">
        <ele>43.200000762939</ele>
        <time>2022-06-30T09:34:17.000Z</time>
      </trkpt>
      <trkpt lat="47.31841" lon="-2.40067">
        <ele>43.200000762939</ele>
        <time>2022-06-30T09:34:24.000Z</time>
      </trkpt>
      <trkpt lat="47.31871" lon="-2.40026">
        <ele>43.200000762939</ele>
        <time>2022-06-30T09:34:31.000Z</time>
      </trkpt>
      <trkpt lat="47.31897" lon="-2.3999">
        <ele>43.200000762939</ele>
        <time>2022-06-30T09:34:38.000Z</time>
      </trkpt>
      <trkpt lat="47.31924" lon="-2.39958">
        <ele>43.200000762939</ele>
        <time>2022-06-30T09:34:45.000Z</time>
      </trkpt>
      <trkpt lat="47.31957" lon="-2.39931">
        <ele>43.200000762939</ele>
        <time>2022-06-30T09:34:51.000Z</time>
      </trkpt>
      <trkpt lat="47.31993" lon="-2.39898">
        <ele>43.200000762939</ele>
        <time>2022-06-30T09:34:58.000Z</time>
      </trkpt>
      <trkpt lat="47.31997" lon="-2.39894">
        <ele>43.599998474121</ele>
        <time>2022-06-30T09:34:59.000Z</time>
      </trkpt>
      <trkpt lat="47.32002" lon="-2.3989">
        <ele>44</ele>
        <time>2022-06-30T09:35:00.000Z</time>
      </trkpt>
      <trkpt lat="47.32006" lon="-2.39886">
        <ele>44.400001525879</ele>
        <time>2022-06-30T09:35:01.000Z</time>
      </trkpt>
      <trkpt lat="47.3201" lon="-2.39883">
        <ele>44.799999237061</ele>
        <time>2022-06-30T09:35:02.000Z</time>
      </trkpt>
      <trkpt lat="47.32014" lon="-2.3988">
        <ele>45.200000762939</ele>
        <time>2022-06-30T09:35:03.000Z</time>
      </trkpt>
      <trkpt lat="47.32019" lon="-2.39877">
        <ele>45.200000762939</ele>
        <time>2022-06-30T09:35:04.000Z</time>
      </trkpt>
      <trkpt lat="47.32036" lon="-2.39861">
        <ele>45.200000762939</ele>
        <time>2022-06-30T09:35:08.000Z</time>
      </trkpt>
      <trkpt lat="47.3204" lon="-2.39857">
        <ele>45.200000762939</ele>
        <time>2022-06-30T09:35:09.000Z</time>
      </trkpt>
      <trkpt lat="47.32057" lon="-2.39842">
        <ele>45.599998474121</ele>
        <time>2022-06-30T09:35:13.000Z</time>
      </trkpt>
      <trkpt lat="47.32061" lon="-2.39838">
        <ele>46</ele>
        <time>2022-06-30T09:35:14.000Z</time>
      </trkpt>
      <trkpt lat="47.32065" lon="-2.39835">
        <ele>46.400001525879</ele>
        <time>2022-06-30T09:35:15.000Z</time>
      </trkpt>
      <trkpt lat="47.3207" lon="-2.39832">
        <ele>46.799999237061</ele>
        <time>2022-06-30T09:35:16.000Z</time>
      </trkpt>
      <trkpt lat="47.32075" lon="-2.39828">
        <ele>47.200000762939</ele>
        <time>2022-06-30T09:35:17.000Z</time>
      </trkpt>
      <trkpt lat="47.32078" lon="-2.39814">
        <ele>47.200000762939</ele>
        <time>2022-06-30T09:35:19.000Z</time>
      </trkpt>
      <trkpt lat="47.32077" lon="-2.39793">
        <ele>47.200000762939</ele>
        <time>2022-06-30T09:35:22.000Z</time>
      </trkpt>
      <trkpt lat="47.32076" lon="-2.39787">
        <ele>47.200000762939</ele>
        <time>2022-06-30T09:35:23.000Z</time>
      </trkpt>
      <trkpt lat="47.3207" lon="-2.39751">
        <ele>47.200000762939</ele>
        <time>2022-06-30T09:35:29.000Z</time>
      </trkpt>
      <trkpt lat="47.32066" lon="-2.39737">
        <ele>47.200000762939</ele>
        <time>2022-06-30T09:35:31.000Z</time>
      </trkpt>
      <trkpt lat="47.32059" lon="-2.39718">
        <ele>47.200000762939</ele>
        <time>2022-06-30T09:35:34.000Z</time>
      </trkpt>
      <trkpt lat="47.32057" lon="-2.39712">
        <ele>47.200000762939</ele>
        <time>2022-06-30T09:35:35.000Z</time>
      </trkpt>
      <trkpt lat="47.32055" lon="-2.39706">
        <ele>47.200000762939</ele>
        <time>2022-06-30T09:35:36.000Z</time>
      </trkpt>
      <trkpt lat="47.32047" lon="-2.39675">
        <ele>47.200000762939</ele>
        <time>2022-06-30T09:35:40.000Z</time>
      </trkpt>
      <trkpt lat="47.32031" lon="-2.39611">
        <ele>47.200000762939</ele>
        <time>2022-06-30T09:35:47.000Z</time>
      </trkpt>
      <trkpt lat="47.32021" lon="-2.39563">
        <ele>46.799999237061</ele>
        <time>2022-06-30T09:35:52.000Z</time>
      </trkpt>
      <trkpt lat="47.32019" lon="-2.39553">
        <ele>46.400001525879</ele>
        <time>2022-06-30T09:35:53.000Z</time>
      </trkpt>
      <trkpt lat="47.32016" lon="-2.39543">
        <ele>46</ele>
        <time>2022-06-30T09:35:54.000Z</time>
      </trkpt>
      <trkpt lat="47.32014" lon="-2.39533">
        <ele>45.599998474121</ele>
        <time>2022-06-30T09:35:55.000Z</time>
      </trkpt>
      <trkpt lat="47.32013" lon="-2.39523">
        <ele>45.200000762939</ele>
        <time>2022-06-30T09:35:56.000Z</time>
      </trkpt>
      <trkpt lat="47.32006" lon="-2.39487">
        <ele>45.200000762939</ele>
        <time>2022-06-30T09:36:00.000Z</time>
      </trkpt>
      <trkpt lat="47.31993" lon="-2.39424">
        <ele>44.799999237061</ele>
        <time>2022-06-30T09:36:07.000Z</time>
      </trkpt>
      <trkpt lat="47.31991" lon="-2.39415">
        <ele>44.400001525879</ele>
        <time>2022-06-30T09:36:08.000Z</time>
      </trkpt>
      <trkpt lat="47.3199" lon="-2.39406">
        <ele>44</ele>
        <time>2022-06-30T09:36:09.000Z</time>
      </trkpt>
      <trkpt lat="47.31988" lon="-2.39397">
        <ele>43.599998474121</ele>
        <time>2022-06-30T09:36:10.000Z</time>
      </trkpt>
      <trkpt lat="47.31986" lon="-2.39388">
        <ele>43</ele>
        <time>2022-06-30T09:36:11.000Z</time>
      </trkpt>
      <trkpt lat="47.31978" lon="-2.39354">
        <ele>43</ele>
        <time>2022-06-30T09:36:15.000Z</time>
      </trkpt>
      <trkpt lat="47.31965" lon="-2.39309">
        <ele>43</ele>
        <time>2022-06-30T09:36:20.000Z</time>
      </trkpt>
      <trkpt lat="47.31952" lon="-2.39257">
        <ele>43</ele>
        <time>2022-06-30T09:36:26.000Z</time>
      </trkpt>
      <trkpt lat="47.31939" lon="-2.39211">
        <ele>42.599998474121</ele>
        <time>2022-06-30T09:36:31.000Z</time>
      </trkpt>
      <trkpt lat="47.31937" lon="-2.39202">
        <ele>42.200000762939</ele>
        <time>2022-06-30T09:36:32.000Z</time>
      </trkpt>
      <trkpt lat="47.31934" lon="-2.39194">
        <ele>41.799999237061</ele>
        <time>2022-06-30T09:36:33.000Z</time>
      </trkpt>
      <trkpt lat="47.31932" lon="-2.39186">
        <ele>41.400001525879</ele>
        <time>2022-06-30T09:36:34.000Z</time>
      </trkpt>
      <trkpt lat="47.31929" lon="-2.39177">
        <ele>41</ele>
        <time>2022-06-30T09:36:35.000Z</time>
      </trkpt>
      <trkpt lat="47.31911" lon="-2.39117">
        <ele>41</ele>
        <time>2022-06-30T09:36:42.000Z</time>
      </trkpt>
      <trkpt lat="47.31893" lon="-2.39058">
        <ele>41</ele>
        <time>2022-06-30T09:36:49.000Z</time>
      </trkpt>
      <trkpt lat="47.31872" lon="-2.38991">
        <ele>41</ele>
        <time>2022-06-30T09:36:57.000Z</time>
      </trkpt>
      <trkpt lat="47.3187" lon="-2.38983">
        <ele>40.599998474121</ele>
        <time>2022-06-30T09:36:58.000Z</time>
      </trkpt>
      <trkpt lat="47.31866" lon="-2.38974">
        <ele>40.200000762939</ele>
        <time>2022-06-30T09:36:59.000Z</time>
      </trkpt>
      <trkpt lat="47.31863" lon="-2.38966">
        <ele>39.799999237061</ele>
        <time>2022-06-30T09:37:00.000Z</time>
      </trkpt>
      <trkpt lat="47.3186" lon="-2.38958">
        <ele>39.200000762939</ele>
        <time>2022-06-30T09:37:01.000Z</time>
      </trkpt>
      <trkpt lat="47.31857" lon="-2.3895">
        <ele>38.799999237061</ele>
        <time>2022-06-30T09:37:02.000Z</time>
      </trkpt>
      <trkpt lat="47.31854" lon="-2.38943">
        <ele>38.799999237061</ele>
        <time>2022-06-30T09:37:03.000Z</time>
      </trkpt>
      <trkpt lat="47.31845" lon="-2.38909">
        <ele>38.799999237061</ele>
        <time>2022-06-30T09:37:07.000Z</time>
      </trkpt>
      <trkpt lat="47.31842" lon="-2.38893">
        <ele>38.799999237061</ele>
        <time>2022-06-30T09:37:09.000Z</time>
      </trkpt>
      <trkpt lat="47.31825" lon="-2.38817">
        <ele>38.799999237061</ele>
        <time>2022-06-30T09:37:18.000Z</time>
      </trkpt>
      <trkpt lat="47.31824" lon="-2.38808">
        <ele>38.799999237061</ele>
        <time>2022-06-30T09:37:19.000Z</time>
      </trkpt>
      <trkpt lat="47.31822" lon="-2.38772">
        <ele>38.799999237061</ele>
        <time>2022-06-30T09:37:23.000Z</time>
      </trkpt>
      <trkpt lat="47.31821" lon="-2.387">
        <ele>38.799999237061</ele>
        <time>2022-06-30T09:37:31.000Z</time>
      </trkpt>
      <trkpt lat="47.31817" lon="-2.38648">
        <ele>39.200000762939</ele>
        <time>2022-06-30T09:37:37.000Z</time>
      </trkpt>
      <trkpt lat="47.31816" lon="-2.38639">
        <ele>39.599998474121</ele>
        <time>2022-06-30T09:37:38.000Z</time>
      </trkpt>
      <trkpt lat="47.31815" lon="-2.3863">
        <ele>40.200000762939</ele>
        <time>2022-06-30T09:37:39.000Z</time>
      </trkpt>
      <trkpt lat="47.31814" lon="-2.38622">
        <ele>40.599998474121</ele>
        <time>2022-06-30T09:37:40.000Z</time>
      </trkpt>
      <trkpt lat="47.31814" lon="-2.38614">
        <ele>41</ele>
        <time>2022-06-30T09:37:41.000Z</time>
      </trkpt>
      <trkpt lat="47.31811" lon="-2.38555">
        <ele>41</ele>
        <time>2022-06-30T09:37:48.000Z</time>
      </trkpt>
      <trkpt lat="47.3181" lon="-2.38503">
        <ele>41</ele>
        <time>2022-06-30T09:37:54.000Z</time>
      </trkpt>
      <trkpt lat="47.31811" lon="-2.38427">
        <ele>41</ele>
        <time>2022-06-30T09:38:02.000Z</time>
      </trkpt>
      <trkpt lat="47.3181" lon="-2.3836">
        <ele>40.599998474121</ele>
        <time>2022-06-30T09:38:09.000Z</time>
      </trkpt>
      <trkpt lat="47.3181" lon="-2.3835">
        <ele>40</ele>
        <time>2022-06-30T09:38:10.000Z</time>
      </trkpt>
      <trkpt lat="47.3181" lon="-2.3834">
        <ele>39.599998474121</ele>
        <time>2022-06-30T09:38:11.000Z</time>
      </trkpt>
      <trkpt lat="47.3181" lon="-2.3833">
        <ele>39.200000762939</ele>
        <time>2022-06-30T09:38:12.000Z</time>
      </trkpt>
      <trkpt lat="47.3181" lon="-2.38319">
        <ele>38.799999237061</ele>
        <time>2022-06-30T09:38:13.000Z</time>
      </trkpt>
      <trkpt lat="47.31809" lon="-2.38277">
        <ele>38.799999237061</ele>
        <time>2022-06-30T09:38:17.000Z</time>
      </trkpt>
      <trkpt lat="47.31809" lon="-2.38256">
        <ele>38.400001525879</ele>
        <time>2022-06-30T09:38:19.000Z</time>
      </trkpt>
      <trkpt lat="47.31809" lon="-2.38245">
        <ele>37.799999237061</ele>
        <time>2022-06-30T09:38:20.000Z</time>
      </trkpt>
      <trkpt lat="47.31808" lon="-2.38234">
        <ele>37.400001525879</ele>
        <time>2022-06-30T09:38:21.000Z</time>
      </trkpt>
      <trkpt lat="47.31807" lon="-2.38222">
        <ele>37</ele>
        <time>2022-06-30T09:38:22.000Z</time>
      </trkpt>
      <trkpt lat="47.31807" lon="-2.38211">
        <ele>36.599998474121</ele>
        <time>2022-06-30T09:38:23.000Z</time>
      </trkpt>
      <trkpt lat="47.31806" lon="-2.38199">
        <ele>36.599998474121</ele>
        <time>2022-06-30T09:38:24.000Z</time>
      </trkpt>
      <trkpt lat="47.31804" lon="-2.38165">
        <ele>36.200000762939</ele>
        <time>2022-06-30T09:38:27.000Z</time>
      </trkpt>
      <trkpt lat="47.31803" lon="-2.38155">
        <ele>35.799999237061</ele>
        <time>2022-06-30T09:38:28.000Z</time>
      </trkpt>
      <trkpt lat="47.31803" lon="-2.38144">
        <ele>35.400001525879</ele>
        <time>2022-06-30T09:38:29.000Z</time>
      </trkpt>
      <trkpt lat="47.31803" lon="-2.38134">
        <ele>34.799999237061</ele>
        <time>2022-06-30T09:38:30.000Z</time>
      </trkpt>
      <trkpt lat="47.31802" lon="-2.38123">
        <ele>34.400001525879</ele>
        <time>2022-06-30T09:38:31.000Z</time>
      </trkpt>
      <trkpt lat="47.31798" lon="-2.38044">
        <ele>34.400001525879</ele>
        <time>2022-06-30T09:38:39.000Z</time>
      </trkpt>
      <trkpt lat="47.31795" lon="-2.37997">
        <ele>34.400001525879</ele>
        <time>2022-06-30T09:38:44.000Z</time>
      </trkpt>
      <trkpt lat="47.31795" lon="-2.37988">
        <ele>34.400001525879</ele>
        <time>2022-06-30T09:38:45.000Z</time>
      </trkpt>
      <trkpt lat="47.31796" lon="-2.37929">
        <ele>34.400001525879</ele>
        <time>2022-06-30T09:38:52.000Z</time>
      </trkpt>
      <trkpt lat="47.31802" lon="-2.37876">
        <ele>34.400001525879</ele>
        <time>2022-06-30T09:38:58.000Z</time>
      </trkpt>
      <trkpt lat="47.31805" lon="-2.3785">
        <ele>34.799999237061</ele>
        <time>2022-06-30T09:39:01.000Z</time>
      </trkpt>
      <trkpt lat="47.31806" lon="-2.37841">
        <ele>35.200000762939</ele>
        <time>2022-06-30T09:39:02.000Z</time>
      </trkpt>
      <trkpt lat="47.31807" lon="-2.37833">
        <ele>35.599998474121</ele>
        <time>2022-06-30T09:39:03.000Z</time>
      </trkpt>
      <trkpt lat="47.31808" lon="-2.37825">
        <ele>36</ele>
        <time>2022-06-30T09:39:04.000Z</time>
      </trkpt>
      <trkpt lat="47.31809" lon="-2.37816">
        <ele>36.400001525879</ele>
        <time>2022-06-30T09:39:05.000Z</time>
      </trkpt>
      <trkpt lat="47.31814" lon="-2.37759">
        <ele>36.400001525879</ele>
        <time>2022-06-30T09:39:12.000Z</time>
      </trkpt>
      <trkpt lat="47.31815" lon="-2.37751">
        <ele>37</ele>
        <time>2022-06-30T09:39:13.000Z</time>
      </trkpt>
      <trkpt lat="47.31816" lon="-2.37743">
        <ele>37.799999237061</ele>
        <time>2022-06-30T09:39:14.000Z</time>
      </trkpt>
      <trkpt lat="47.31816" lon="-2.37735">
        <ele>38.200000762939</ele>
        <time>2022-06-30T09:39:15.000Z</time>
      </trkpt>
      <trkpt lat="47.31817" lon="-2.37727">
        <ele>38.599998474121</ele>
        <time>2022-06-30T09:39:16.000Z</time>
      </trkpt>
      <trkpt lat="47.31818" lon="-2.37712">
        <ele>38.599998474121</ele>
        <time>2022-06-30T09:39:18.000Z</time>
      </trkpt>
      <trkpt lat="47.31825" lon="-2.37665">
        <ele>38.599998474121</ele>
        <time>2022-06-30T09:39:25.000Z</time>
      </trkpt>
      <trkpt lat="47.31824" lon="-2.37654">
        <ele>38.599998474121</ele>
        <time>2022-06-30T09:39:27.000Z</time>
      </trkpt>
      <trkpt lat="47.31821" lon="-2.3765">
        <ele>38.599998474121</ele>
        <time>2022-06-30T09:39:28.000Z</time>
      </trkpt>
      <trkpt lat="47.31812" lon="-2.37649">
        <ele>38.599998474121</ele>
        <time>2022-06-30T09:39:31.000Z</time>
      </trkpt>
      <trkpt lat="47.31805" lon="-2.37652">
        <ele>38.599998474121</ele>
        <time>2022-06-30T09:39:34.000Z</time>
      </trkpt>
      <trkpt lat="47.31794" lon="-2.3766">
        <ele>38.599998474121</ele>
        <time>2022-06-30T09:39:38.000Z</time>
      </trkpt>
      <trkpt lat="47.31769" lon="-2.37686">
        <ele>38.599998474121</ele>
        <time>2022-06-30T09:39:45.000Z</time>
      </trkpt>
      <trkpt lat="47.31746" lon="-2.37706">
        <ele>38.599998474121</ele>
        <time>2022-06-30T09:39:51.000Z</time>
      </trkpt>
      <trkpt lat="47.31741" lon="-2.37708">
        <ele>38.599998474121</ele>
        <time>2022-06-30T09:39:52.000Z</time>
      </trkpt>
      <trkpt lat="47.31727" lon="-2.37713">
        <ele>38.599998474121</ele>
        <time>2022-06-30T09:39:55.000Z</time>
      </trkpt>
      <trkpt lat="47.31714" lon="-2.37715">
        <ele>38.599998474121</ele>
        <time>2022-06-30T09:39:58.000Z</time>
      </trkpt>
      <trkpt lat="47.3171" lon="-2.37715">
        <ele>38.599998474121</ele>
        <time>2022-06-30T09:39:59.000Z</time>
      </trkpt>
      <trkpt lat="47.31697" lon="-2.37711">
        <ele>38.599998474121</ele>
        <time>2022-06-30T09:40:02.000Z</time>
      </trkpt>
      <trkpt lat="47.31693" lon="-2.37709">
        <ele>38.599998474121</ele>
        <time>2022-06-30T09:40:03.000Z</time>
      </trkpt>
      <trkpt lat="47.31685" lon="-2.37705">
        <ele>38.599998474121</ele>
        <time>2022-06-30T09:40:05.000Z</time>
      </trkpt>
      <trkpt lat="47.31681" lon="-2.37702">
        <ele>38.599998474121</ele>
        <time>2022-06-30T09:40:06.000Z</time>
      </trkpt>
      <trkpt lat="47.31669" lon="-2.37688">
        <ele>38.599998474121</ele>
        <time>2022-06-30T09:40:10.000Z</time>
      </trkpt>
      <trkpt lat="47.31656" lon="-2.37671">
        <ele>38.599998474121</ele>
        <time>2022-06-30T09:40:15.000Z</time>
      </trkpt>
      <trkpt lat="47.31636" lon="-2.37656">
        <ele>38.599998474121</ele>
        <time>2022-06-30T09:40:21.000Z</time>
      </trkpt>
      <trkpt lat="47.31615" lon="-2.3764">
        <ele>38.599998474121</ele>
        <time>2022-06-30T09:40:26.000Z</time>
      </trkpt>
      <trkpt lat="47.31613" lon="-2.37635">
        <ele>38.599998474121</ele>
        <time>2022-06-30T09:40:27.000Z</time>
      </trkpt>
      <trkpt lat="47.31611" lon="-2.37614">
        <ele>38.599998474121</ele>
        <time>2022-06-30T09:40:30.000Z</time>
      </trkpt>
      <trkpt lat="47.31611" lon="-2.37606">
        <ele>38.599998474121</ele>
        <time>2022-06-30T09:40:31.000Z</time>
      </trkpt>
      <trkpt lat="47.31615" lon="-2.37559">
        <ele>39</ele>
        <time>2022-06-30T09:40:37.000Z</time>
      </trkpt>
      <trkpt lat="47.31617" lon="-2.37552">
        <ele>39.400001525879</ele>
        <time>2022-06-30T09:40:38.000Z</time>
      </trkpt>
      <trkpt lat="47.31619" lon="-2.37544">
        <ele>39.799999237061</ele>
        <time>2022-06-30T09:40:39.000Z</time>
      </trkpt>
      <trkpt lat="47.31621" lon="-2.37537">
        <ele>40.200000762939</ele>
        <time>2022-06-30T09:40:40.000Z</time>
      </trkpt>
      <trkpt lat="47.31624" lon="-2.3753">
        <ele>40.599998474121</ele>
        <time>2022-06-30T09:40:41.000Z</time>
      </trkpt>
      <trkpt lat="47.31627" lon="-2.37523">
        <ele>40.599998474121</ele>
        <time>2022-06-30T09:40:42.000Z</time>
      </trkpt>
      <trkpt lat="47.31634" lon="-2.375">
        <ele>40.599998474121</ele>
        <time>2022-06-30T09:40:45.000Z</time>
      </trkpt>
      <trkpt lat="47.31636" lon="-2.37483">
        <ele>40.599998474121</ele>
        <time>2022-06-30T09:40:47.000Z</time>
      </trkpt>
      <trkpt lat="47.31636" lon="-2.37458">
        <ele>40.599998474121</ele>
        <time>2022-06-30T09:40:50.000Z</time>
      </trkpt>
      <trkpt lat="47.31635" lon="-2.37434">
        <ele>40.599998474121</ele>
        <time>2022-06-30T09:40:53.000Z</time>
      </trkpt>
      <trkpt lat="47.31633" lon="-2.37393">
        <ele>40.599998474121</ele>
        <time>2022-06-30T09:40:58.000Z</time>
      </trkpt>
      <trkpt lat="47.31632" lon="-2.37385">
        <ele>40.599998474121</ele>
        <time>2022-06-30T09:40:59.000Z</time>
      </trkpt>
      <trkpt lat="47.31622" lon="-2.37338">
        <ele>40.599998474121</ele>
        <time>2022-06-30T09:41:05.000Z</time>
      </trkpt>
      <trkpt lat="47.31619" lon="-2.37305">
        <ele>40.599998474121</ele>
        <time>2022-06-30T09:41:09.000Z</time>
      </trkpt>
      <trkpt lat="47.31622" lon="-2.37289">
        <ele>41</ele>
        <time>2022-06-30T09:41:11.000Z</time>
      </trkpt>
      <trkpt lat="47.31624" lon="-2.37282">
        <ele>41.400001525879</ele>
        <time>2022-06-30T09:41:12.000Z</time>
      </trkpt>
      <trkpt lat="47.31628" lon="-2.37276">
        <ele>41.799999237061</ele>
        <time>2022-06-30T09:41:13.000Z</time>
      </trkpt>
      <trkpt lat="47.31633" lon="-2.37271">
        <ele>42.200000762939</ele>
        <time>2022-06-30T09:41:14.000Z</time>
      </trkpt>
      <trkpt lat="47.31638" lon="-2.37266">
        <ele>42.599998474121</ele>
        <time>2022-06-30T09:41:15.000Z</time>
      </trkpt>
      <trkpt lat="47.31653" lon="-2.37254">
        <ele>42.599998474121</ele>
        <time>2022-06-30T09:41:18.000Z</time>
      </trkpt>
      <trkpt lat="47.31658" lon="-2.37251">
        <ele>42.599998474121</ele>
        <time>2022-06-30T09:41:19.000Z</time>
      </trkpt>
      <trkpt lat="47.31683" lon="-2.37226">
        <ele>42.599998474121</ele>
        <time>2022-06-30T09:41:24.000Z</time>
      </trkpt>
      <trkpt lat="47.3169" lon="-2.37201">
        <ele>42.599998474121</ele>
        <time>2022-06-30T09:41:27.000Z</time>
      </trkpt>
      <trkpt lat="47.31689" lon="-2.37184">
        <ele>42.599998474121</ele>
        <time>2022-06-30T09:41:29.000Z</time>
      </trkpt>
      <trkpt lat="47.31686" lon="-2.37167">
        <ele>42.599998474121</ele>
        <time>2022-06-30T09:41:31.000Z</time>
      </trkpt>
      <trkpt lat="47.31672" lon="-2.37135">
        <ele>42.599998474121</ele>
        <time>2022-06-30T09:41:36.000Z</time>
      </trkpt>
      <trkpt lat="47.31646" lon="-2.37083">
        <ele>42.599998474121</ele>
        <time>2022-06-30T09:41:43.000Z</time>
      </trkpt>
      <trkpt lat="47.31618" lon="-2.37025">
        <ele>42.599998474121</ele>
        <time>2022-06-30T09:41:50.000Z</time>
      </trkpt>
      <trkpt lat="47.31602" lon="-2.36968">
        <ele>42.599998474121</ele>
        <time>2022-06-30T09:41:56.000Z</time>
      </trkpt>
      <trkpt lat="47.31589" lon="-2.3693">
        <ele>42.200000762939</ele>
        <time>2022-06-30T09:42:00.000Z</time>
      </trkpt>
      <trkpt lat="47.31586" lon="-2.36922">
        <ele>41.799999237061</ele>
        <time>2022-06-30T09:42:01.000Z</time>
      </trkpt>
      <trkpt lat="47.31583" lon="-2.36913">
        <ele>41.400001525879</ele>
        <time>2022-06-30T09:42:02.000Z</time>
      </trkpt>
      <trkpt lat="47.3158" lon="-2.36902">
        <ele>41</ele>
        <time>2022-06-30T09:42:03.000Z</time>
      </trkpt>
      <trkpt lat="47.31577" lon="-2.36892">
        <ele>40.599998474121</ele>
        <time>2022-06-30T09:42:04.000Z</time>
      </trkpt>
      <trkpt lat="47.31571" lon="-2.36869">
        <ele>40</ele>
        <time>2022-06-30T09:42:06.000Z</time>
      </trkpt>
      <trkpt lat="47.31568" lon="-2.36858">
        <ele>39.599998474121</ele>
        <time>2022-06-30T09:42:07.000Z</time>
      </trkpt>
      <trkpt lat="47.31564" lon="-2.36847">
        <ele>39</ele>
        <time>2022-06-30T09:42:08.000Z</time>
      </trkpt>
      <trkpt lat="47.31561" lon="-2.36836">
        <ele>38.599998474121</ele>
        <time>2022-06-30T09:42:09.000Z</time>
      </trkpt>
      <trkpt lat="47.31558" lon="-2.36825">
        <ele>38</ele>
        <time>2022-06-30T09:42:10.000Z</time>
      </trkpt>
      <trkpt lat="47.31552" lon="-2.36804">
        <ele>37.599998474121</ele>
        <time>2022-06-30T09:42:12.000Z</time>
      </trkpt>
      <trkpt lat="47.31549" lon="-2.36793">
        <ele>37.200000762939</ele>
        <time>2022-06-30T09:42:13.000Z</time>
      </trkpt>
      <trkpt lat="47.31546" lon="-2.36781">
        <ele>36.799999237061</ele>
        <time>2022-06-30T09:42:14.000Z</time>
      </trkpt>
      <trkpt lat="47.31544" lon="-2.3677">
        <ele>36.400001525879</ele>
        <time>2022-06-30T09:42:15.000Z</time>
      </trkpt>
      <trkpt lat="47.31541" lon="-2.36758">
        <ele>35.799999237061</ele>
        <time>2022-06-30T09:42:16.000Z</time>
      </trkpt>
      <trkpt lat="47.31538" lon="-2.36746">
        <ele>35.799999237061</ele>
        <time>2022-06-30T09:42:17.000Z</time>
      </trkpt>
      <trkpt lat="47.3153" lon="-2.36713">
        <ele>35.400001525879</ele>
        <time>2022-06-30T09:42:20.000Z</time>
      </trkpt>
      <trkpt lat="47.31527" lon="-2.36702">
        <ele>35</ele>
        <time>2022-06-30T09:42:21.000Z</time>
      </trkpt>
      <trkpt lat="47.31525" lon="-2.36692">
        <ele>34.599998474121</ele>
        <time>2022-06-30T09:42:22.000Z</time>
      </trkpt>
      <trkpt lat="47.31523" lon="-2.36682">
        <ele>34</ele>
        <time>2022-06-30T09:42:23.000Z</time>
      </trkpt>
      <trkpt lat="47.3152" lon="-2.36672">
        <ele>33.599998474121</ele>
        <time>2022-06-30T09:42:24.000Z</time>
      </trkpt>
      <trkpt lat="47.31513" lon="-2.36642">
        <ele>33.200000762939</ele>
        <time>2022-06-30T09:42:27.000Z</time>
      </trkpt>
      <trkpt lat="47.31511" lon="-2.36633">
        <ele>32.599998474121</ele>
        <time>2022-06-30T09:42:28.000Z</time>
      </trkpt>
      <trkpt lat="47.31508" lon="-2.36623">
        <ele>32.200000762939</ele>
        <time>2022-06-30T09:42:29.000Z</time>
      </trkpt>
      <trkpt lat="47.31506" lon="-2.36614">
        <ele>31.39999961853</ele>
        <time>2022-06-30T09:42:30.000Z</time>
      </trkpt>
      <trkpt lat="47.31504" lon="-2.36605">
        <ele>31.39999961853</ele>
        <time>2022-06-30T09:42:31.000Z</time>
      </trkpt>
      <trkpt lat="47.31502" lon="-2.36597">
        <ele>31.39999961853</ele>
        <time>2022-06-30T09:42:32.000Z</time>
      </trkpt>
      <trkpt lat="47.31502" lon="-2.3658">
        <ele>31.39999961853</ele>
        <time>2022-06-30T09:42:34.000Z</time>
      </trkpt>
      <trkpt lat="47.31503" lon="-2.36557">
        <ele>31.39999961853</ele>
        <time>2022-06-30T09:42:37.000Z</time>
      </trkpt>
      <trkpt lat="47.31502" lon="-2.36551">
        <ele>31.39999961853</ele>
        <time>2022-06-30T09:42:38.000Z</time>
      </trkpt>
      <trkpt lat="47.31502" lon="-2.36531">
        <ele>31.39999961853</ele>
        <time>2022-06-30T09:42:41.000Z</time>
      </trkpt>
      <trkpt lat="47.31502" lon="-2.36517">
        <ele>31.39999961853</ele>
        <time>2022-06-30T09:42:43.000Z</time>
      </trkpt>
      <trkpt lat="47.31501" lon="-2.36497">
        <ele>31.39999961853</ele>
        <time>2022-06-30T09:42:46.000Z</time>
      </trkpt>
      <trkpt lat="47.31501" lon="-2.36483">
        <ele>31.39999961853</ele>
        <time>2022-06-30T09:42:48.000Z</time>
      </trkpt>
      <trkpt lat="47.31496" lon="-2.36441">
        <ele>31.39999961853</ele>
        <time>2022-06-30T09:42:54.000Z</time>
      </trkpt>
      <trkpt lat="47.31493" lon="-2.36408">
        <ele>31.799999237061</ele>
        <time>2022-06-30T09:42:59.000Z</time>
      </trkpt>
      <trkpt lat="47.31493" lon="-2.36403">
        <ele>32.200000762939</ele>
        <time>2022-06-30T09:43:00.000Z</time>
      </trkpt>
      <trkpt lat="47.31492" lon="-2.36397">
        <ele>32.599998474121</ele>
        <time>2022-06-30T09:43:01.000Z</time>
      </trkpt>
      <trkpt lat="47.31492" lon="-2.36392">
        <ele>33</ele>
        <time>2022-06-30T09:43:02.000Z</time>
      </trkpt>
      <trkpt lat="47.31492" lon="-2.36386">
        <ele>33.400001525879</ele>
        <time>2022-06-30T09:43:03.000Z</time>
      </trkpt>
      <trkpt lat="47.31491" lon="-2.36362">
        <ele>33.799999237061</ele>
        <time>2022-06-30T09:43:07.000Z</time>
      </trkpt>
      <trkpt lat="47.31491" lon="-2.36355">
        <ele>34.400001525879</ele>
        <time>2022-06-30T09:43:08.000Z</time>
      </trkpt>
      <trkpt lat="47.31492" lon="-2.36348">
        <ele>34.799999237061</ele>
        <time>2022-06-30T09:43:09.000Z</time>
      </trkpt>
      <trkpt lat="47.31492" lon="-2.36341">
        <ele>35.200000762939</ele>
        <time>2022-06-30T09:43:10.000Z</time>
      </trkpt>
      <trkpt lat="47.31492" lon="-2.36334">
        <ele>35.599998474121</ele>
        <time>2022-06-30T09:43:11.000Z</time>
      </trkpt>
      <trkpt lat="47.31492" lon="-2.36322">
        <ele>35.599998474121</ele>
        <time>2022-06-30T09:43:13.000Z</time>
      </trkpt>
      <trkpt lat="47.31491" lon="-2.36315">
        <ele>35.599998474121</ele>
        <time>2022-06-30T09:43:14.000Z</time>
      </trkpt>
      <trkpt lat="47.31485" lon="-2.36286">
        <ele>35.599998474121</ele>
        <time>2022-06-30T09:43:19.000Z</time>
      </trkpt>
      <trkpt lat="47.31484" lon="-2.3628">
        <ele>35.599998474121</ele>
        <time>2022-06-30T09:43:20.000Z</time>
      </trkpt>
      <trkpt lat="47.31479" lon="-2.36258">
        <ele>36</ele>
        <time>2022-06-30T09:43:24.000Z</time>
      </trkpt>
      <trkpt lat="47.31478" lon="-2.36251">
        <ele>36.400001525879</ele>
        <time>2022-06-30T09:43:25.000Z</time>
      </trkpt>
      <trkpt lat="47.31477" lon="-2.36245">
        <ele>36.799999237061</ele>
        <time>2022-06-30T09:43:26.000Z</time>
      </trkpt>
      <trkpt lat="47.31476" lon="-2.3624">
        <ele>37.200000762939</ele>
        <time>2022-06-30T09:43:27.000Z</time>
      </trkpt>
      <trkpt lat="47.31475" lon="-2.36234">
        <ele>37.599998474121</ele>
        <time>2022-06-30T09:43:28.000Z</time>
      </trkpt>
      <trkpt lat="47.31471" lon="-2.36213">
        <ele>37.599998474121</ele>
        <time>2022-06-30T09:43:32.000Z</time>
      </trkpt>
      <trkpt lat="47.31462" lon="-2.36173">
        <ele>37.599998474121</ele>
        <time>2022-06-30T09:43:39.000Z</time>
      </trkpt>
      <trkpt lat="47.31459" lon="-2.36162">
        <ele>37.599998474121</ele>
        <time>2022-06-30T09:43:41.000Z</time>
      </trkpt>
      <trkpt lat="47.31453" lon="-2.36139">
        <ele>37.599998474121</ele>
        <time>2022-06-30T09:43:45.000Z</time>
      </trkpt>
      <trkpt lat="47.31442" lon="-2.36102">
        <ele>37.599998474121</ele>
        <time>2022-06-30T09:43:51.000Z</time>
      </trkpt>
      <trkpt lat="47.3144" lon="-2.36096">
        <ele>37.599998474121</ele>
        <time>2022-06-30T09:43:52.000Z</time>
      </trkpt>
      <trkpt lat="47.31432" lon="-2.3607">
        <ele>37.599998474121</ele>
        <time>2022-06-30T09:43:56.000Z</time>
      </trkpt>
      <trkpt lat="47.31428" lon="-2.36055">
        <ele>37.599998474121</ele>
        <time>2022-06-30T09:43:58.000Z</time>
      </trkpt>
      <trkpt lat="47.31418" lon="-2.36026">
        <ele>37.599998474121</ele>
        <time>2022-06-30T09:44:02.000Z</time>
      </trkpt>
      <trkpt lat="47.31415" lon="-2.3602">
        <ele>37.599998474121</ele>
        <time>2022-06-30T09:44:03.000Z</time>
      </trkpt>
      <trkpt lat="47.31396" lon="-2.35979">
        <ele>37.200000762939</ele>
        <time>2022-06-30T09:44:09.000Z</time>
      </trkpt>
      <trkpt lat="47.31393" lon="-2.35971">
        <ele>36.799999237061</ele>
        <time>2022-06-30T09:44:10.000Z</time>
      </trkpt>
      <trkpt lat="47.31389" lon="-2.35963">
        <ele>36.400001525879</ele>
        <time>2022-06-30T09:44:11.000Z</time>
      </trkpt>
      <trkpt lat="47.31384" lon="-2.35955">
        <ele>36</ele>
        <time>2022-06-30T09:44:12.000Z</time>
      </trkpt>
      <trkpt lat="47.31381" lon="-2.35947">
        <ele>35.599998474121</ele>
        <time>2022-06-30T09:44:13.000Z</time>
      </trkpt>
      <trkpt lat="47.31377" lon="-2.3594">
        <ele>35.599998474121</ele>
        <time>2022-06-30T09:44:14.000Z</time>
      </trkpt>
      <trkpt lat="47.31358" lon="-2.35898">
        <ele>35.599998474121</ele>
        <time>2022-06-30T09:44:20.000Z</time>
      </trkpt>
      <trkpt lat="47.31346" lon="-2.35866">
        <ele>35.599998474121</ele>
        <time>2022-06-30T09:44:25.000Z</time>
      </trkpt>
      <trkpt lat="47.31345" lon="-2.35858">
        <ele>35.599998474121</ele>
        <time>2022-06-30T09:44:26.000Z</time>
      </trkpt>
      <trkpt lat="47.31338" lon="-2.35812">
        <ele>35.599998474121</ele>
        <time>2022-06-30T09:44:32.000Z</time>
      </trkpt>
      <trkpt lat="47.31337" lon="-2.35804">
        <ele>36</ele>
        <time>2022-06-30T09:44:33.000Z</time>
      </trkpt>
      <trkpt lat="47.31336" lon="-2.35795">
        <ele>36.400001525879</ele>
        <time>2022-06-30T09:44:34.000Z</time>
      </trkpt>
      <trkpt lat="47.31336" lon="-2.35787">
        <ele>36.799999237061</ele>
        <time>2022-06-30T09:44:35.000Z</time>
      </trkpt>
      <trkpt lat="47.31335" lon="-2.35779">
        <ele>37.200000762939</ele>
        <time>2022-06-30T09:44:36.000Z</time>
      </trkpt>
      <trkpt lat="47.31334" lon="-2.35771">
        <ele>37.799999237061</ele>
        <time>2022-06-30T09:44:37.000Z</time>
      </trkpt>
      <trkpt lat="47.31333" lon="-2.35748">
        <ele>37.799999237061</ele>
        <time>2022-06-30T09:44:40.000Z</time>
      </trkpt>
      <trkpt lat="47.31333" lon="-2.357">
        <ele>37.799999237061</ele>
        <time>2022-06-30T09:44:46.000Z</time>
      </trkpt>
      <trkpt lat="47.31331" lon="-2.35654">
        <ele>37.799999237061</ele>
        <time>2022-06-30T09:44:52.000Z</time>
      </trkpt>
      <trkpt lat="47.3133" lon="-2.35639">
        <ele>37.799999237061</ele>
        <time>2022-06-30T09:44:54.000Z</time>
      </trkpt>
      <trkpt lat="47.3133" lon="-2.35612">
        <ele>37.799999237061</ele>
        <time>2022-06-30T09:44:57.000Z</time>
      </trkpt>
      <trkpt lat="47.3133" lon="-2.35557">
        <ele>37.799999237061</ele>
        <time>2022-06-30T09:45:03.000Z</time>
      </trkpt>
      <trkpt lat="47.31333" lon="-2.35505">
        <ele>37.799999237061</ele>
        <time>2022-06-30T09:45:09.000Z</time>
      </trkpt>
      <trkpt lat="47.31333" lon="-2.35441">
        <ele>37.799999237061</ele>
        <time>2022-06-30T09:45:16.000Z</time>
      </trkpt>
      <trkpt lat="47.31334" lon="-2.35425">
        <ele>37.799999237061</ele>
        <time>2022-06-30T09:45:18.000Z</time>
      </trkpt>
      <trkpt lat="47.31336" lon="-2.35361">
        <ele>37.799999237061</ele>
        <time>2022-06-30T09:45:25.000Z</time>
      </trkpt>
      <trkpt lat="47.31337" lon="-2.35299">
        <ele>37.799999237061</ele>
        <time>2022-06-30T09:45:31.000Z</time>
      </trkpt>
      <trkpt lat="47.31336" lon="-2.35237">
        <ele>37.799999237061</ele>
        <time>2022-06-30T09:45:37.000Z</time>
      </trkpt>
      <trkpt lat="47.31341" lon="-2.35162">
        <ele>37.799999237061</ele>
        <time>2022-06-30T09:45:44.000Z</time>
      </trkpt>
      <trkpt lat="47.31344" lon="-2.35091">
        <ele>37.799999237061</ele>
        <time>2022-06-30T09:45:51.000Z</time>
      </trkpt>
      <trkpt lat="47.31343" lon="-2.35021">
        <ele>37.200000762939</ele>
        <time>2022-06-30T09:45:58.000Z</time>
      </trkpt>
      <trkpt lat="47.31343" lon="-2.35013">
        <ele>36.799999237061</ele>
        <time>2022-06-30T09:45:59.000Z</time>
      </trkpt>
      <trkpt lat="47.31342" lon="-2.35004">
        <ele>36.400001525879</ele>
        <time>2022-06-30T09:46:00.000Z</time>
      </trkpt>
      <trkpt lat="47.31341" lon="-2.34995">
        <ele>36</ele>
        <time>2022-06-30T09:46:01.000Z</time>
      </trkpt>
      <trkpt lat="47.31339" lon="-2.34986">
        <ele>35.599998474121</ele>
        <time>2022-06-30T09:46:02.000Z</time>
      </trkpt>
      <trkpt lat="47.31336" lon="-2.34969">
        <ele>35.599998474121</ele>
        <time>2022-06-30T09:46:04.000Z</time>
      </trkpt>
      <trkpt lat="47.31334" lon="-2.34961">
        <ele>35.599998474121</ele>
        <time>2022-06-30T09:46:05.000Z</time>
      </trkpt>
      <trkpt lat="47.31325" lon="-2.34928">
        <ele>35.599998474121</ele>
        <time>2022-06-30T09:46:09.000Z</time>
      </trkpt>
      <trkpt lat="47.31312" lon="-2.34881">
        <ele>35.599998474121</ele>
        <time>2022-06-30T09:46:15.000Z</time>
      </trkpt>
      <trkpt lat="47.31306" lon="-2.34858">
        <ele>35.599998474121</ele>
        <time>2022-06-30T09:46:18.000Z</time>
      </trkpt>
      <trkpt lat="47.31302" lon="-2.34835">
        <ele>35.599998474121</ele>
        <time>2022-06-30T09:46:21.000Z</time>
      </trkpt>
      <trkpt lat="47.31291" lon="-2.34789">
        <ele>35.599998474121</ele>
        <time>2022-06-30T09:46:28.000Z</time>
      </trkpt>
      <trkpt lat="47.31282" lon="-2.34735">
        <ele>35.599998474121</ele>
        <time>2022-06-30T09:46:36.000Z</time>
      </trkpt>
      <trkpt lat="47.31278" lon="-2.347">
        <ele>35.599998474121</ele>
        <time>2022-06-30T09:46:42.000Z</time>
      </trkpt>
      <trkpt lat="47.3128" lon="-2.34689">
        <ele>35.599998474121</ele>
        <time>2022-06-30T09:46:44.000Z</time>
      </trkpt>
      <trkpt lat="47.31285" lon="-2.34675">
        <ele>35.599998474121</ele>
        <time>2022-06-30T09:46:46.000Z</time>
      </trkpt>
      <trkpt lat="47.31292" lon="-2.34654">
        <ele>35.599998474121</ele>
        <time>2022-06-30T09:46:49.000Z</time>
      </trkpt>
      <trkpt lat="47.31292" lon="-2.34638">
        <ele>35.599998474121</ele>
        <time>2022-06-30T09:46:51.000Z</time>
      </trkpt>
      <trkpt lat="47.31289" lon="-2.34591">
        <ele>35.599998474121</ele>
        <time>2022-06-30T09:46:56.000Z</time>
      </trkpt>
      <trkpt lat="47.31287" lon="-2.34571">
        <ele>35.200000762939</ele>
        <time>2022-06-30T09:46:58.000Z</time>
      </trkpt>
      <trkpt lat="47.31286" lon="-2.3456">
        <ele>34.799999237061</ele>
        <time>2022-06-30T09:46:59.000Z</time>
      </trkpt>
      <trkpt lat="47.31285" lon="-2.3455">
        <ele>33.799999237061</ele>
        <time>2022-06-30T09:47:00.000Z</time>
      </trkpt>
      <trkpt lat="47.31283" lon="-2.3454">
        <ele>33.400001525879</ele>
        <time>2022-06-30T09:47:01.000Z</time>
      </trkpt>
      <trkpt lat="47.3128" lon="-2.34519">
        <ele>33.400001525879</ele>
        <time>2022-06-30T09:47:03.000Z</time>
      </trkpt>
      <trkpt lat="47.31277" lon="-2.3448">
        <ele>33</ele>
        <time>2022-06-30T09:47:07.000Z</time>
      </trkpt>
      <trkpt lat="47.31276" lon="-2.34471">
        <ele>32.599998474121</ele>
        <time>2022-06-30T09:47:08.000Z</time>
      </trkpt>
      <trkpt lat="47.31275" lon="-2.3446">
        <ele>32.200000762939</ele>
        <time>2022-06-30T09:47:09.000Z</time>
      </trkpt>
      <trkpt lat="47.31273" lon="-2.3445">
        <ele>31.60000038147</ele>
        <time>2022-06-30T09:47:10.000Z</time>
      </trkpt>
      <trkpt lat="47.31272" lon="-2.34439">
        <ele>31.200000762939</ele>
        <time>2022-06-30T09:47:11.000Z</time>
      </trkpt>
      <trkpt lat="47.31267" lon="-2.34397">
        <ele>30.799999237061</ele>
        <time>2022-06-30T09:47:15.000Z</time>
      </trkpt>
      <trkpt lat="47.31266" lon="-2.34387">
        <ele>30.39999961853</ele>
        <time>2022-06-30T09:47:16.000Z</time>
      </trkpt>
      <trkpt lat="47.31263" lon="-2.34376">
        <ele>30</ele>
        <time>2022-06-30T09:47:17.000Z</time>
      </trkpt>
      <trkpt lat="47.3126" lon="-2.34366">
        <ele>29.39999961853</ele>
        <time>2022-06-30T09:47:18.000Z</time>
      </trkpt>
      <trkpt lat="47.31257" lon="-2.34357">
        <ele>29</ele>
        <time>2022-06-30T09:47:19.000Z</time>
      </trkpt>
      <trkpt lat="47.31252" lon="-2.34348">
        <ele>29</ele>
        <time>2022-06-30T09:47:20.000Z</time>
      </trkpt>
      <trkpt lat="47.31237" lon="-2.34327">
        <ele>28.60000038147</ele>
        <time>2022-06-30T09:47:23.000Z</time>
      </trkpt>
      <trkpt lat="47.31232" lon="-2.34321">
        <ele>28.200000762939</ele>
        <time>2022-06-30T09:47:24.000Z</time>
      </trkpt>
      <trkpt lat="47.31227" lon="-2.34316">
        <ele>27.39999961853</ele>
        <time>2022-06-30T09:47:25.000Z</time>
      </trkpt>
      <trkpt lat="47.31221" lon="-2.34311">
        <ele>27</ele>
        <time>2022-06-30T09:47:26.000Z</time>
      </trkpt>
      <trkpt lat="47.31209" lon="-2.34301">
        <ele>27</ele>
        <time>2022-06-30T09:47:28.000Z</time>
      </trkpt>
      <trkpt lat="47.31199" lon="-2.34288">
        <ele>27</ele>
        <time>2022-06-30T09:47:30.000Z</time>
      </trkpt>
      <trkpt lat="47.31189" lon="-2.34273">
        <ele>27</ele>
        <time>2022-06-30T09:47:32.000Z</time>
      </trkpt>
      <trkpt lat="47.31176" lon="-2.34253">
        <ele>27</ele>
        <time>2022-06-30T09:47:35.000Z</time>
      </trkpt>
      <trkpt lat="47.31148" lon="-2.34212">
        <ele>27</ele>
        <time>2022-06-30T09:47:42.000Z</time>
      </trkpt>
      <trkpt lat="47.31128" lon="-2.34178">
        <ele>27</ele>
        <time>2022-06-30T09:47:48.000Z</time>
      </trkpt>
      <trkpt lat="47.31121" lon="-2.34167">
        <ele>27.799999237061</ele>
        <time>2022-06-30T09:47:50.000Z</time>
      </trkpt>
      <trkpt lat="47.31118" lon="-2.34161">
        <ele>28.200000762939</ele>
        <time>2022-06-30T09:47:51.000Z</time>
      </trkpt>
      <trkpt lat="47.31115" lon="-2.34156">
        <ele>28.60000038147</ele>
        <time>2022-06-30T09:47:52.000Z</time>
      </trkpt>
      <trkpt lat="47.31111" lon="-2.34151">
        <ele>29</ele>
        <time>2022-06-30T09:47:53.000Z</time>
      </trkpt>
      <trkpt lat="47.31108" lon="-2.34145">
        <ele>29</ele>
        <time>2022-06-30T09:47:54.000Z</time>
      </trkpt>
      <trkpt lat="47.31102" lon="-2.34133">
        <ele>29</ele>
        <time>2022-06-30T09:47:56.000Z</time>
      </trkpt>
      <trkpt lat="47.31096" lon="-2.34121">
        <ele>29.60000038147</ele>
        <time>2022-06-30T09:47:58.000Z</time>
      </trkpt>
      <trkpt lat="47.31093" lon="-2.34116">
        <ele>30</ele>
        <time>2022-06-30T09:47:59.000Z</time>
      </trkpt>
      <trkpt lat="47.3109" lon="-2.3411">
        <ele>30.39999961853</ele>
        <time>2022-06-30T09:48:00.000Z</time>
      </trkpt>
      <trkpt lat="47.31087" lon="-2.34105">
        <ele>30.799999237061</ele>
        <time>2022-06-30T09:48:01.000Z</time>
      </trkpt>
      <trkpt lat="47.31084" lon="-2.34098">
        <ele>31.200000762939</ele>
        <time>2022-06-30T09:48:02.000Z</time>
      </trkpt>
      <trkpt lat="47.31081" lon="-2.34092">
        <ele>31.200000762939</ele>
        <time>2022-06-30T09:48:03.000Z</time>
      </trkpt>
      <trkpt lat="47.31074" lon="-2.34073">
        <ele>31.60000038147</ele>
        <time>2022-06-30T09:48:06.000Z</time>
      </trkpt>
      <trkpt lat="47.31072" lon="-2.34066">
        <ele>32</ele>
        <time>2022-06-30T09:48:07.000Z</time>
      </trkpt>
      <trkpt lat="47.3107" lon="-2.34059">
        <ele>32.599998474121</ele>
        <time>2022-06-30T09:48:08.000Z</time>
      </trkpt>
      <trkpt lat="47.31069" lon="-2.34051">
        <ele>33</ele>
        <time>2022-06-30T09:48:09.000Z</time>
      </trkpt>
      <trkpt lat="47.31067" lon="-2.34044">
        <ele>33.400001525879</ele>
        <time>2022-06-30T09:48:10.000Z</time>
      </trkpt>
      <trkpt lat="47.31063" lon="-2.33998">
        <ele>33.400001525879</ele>
        <time>2022-06-30T09:48:16.000Z</time>
      </trkpt>
      <trkpt lat="47.31061" lon="-2.33955">
        <ele>33.400001525879</ele>
        <time>2022-06-30T09:48:22.000Z</time>
      </trkpt>
      <trkpt lat="47.31049" lon="-2.33945">
        <ele>33.400001525879</ele>
        <time>2022-06-30T09:48:25.000Z</time>
      </trkpt>
      <trkpt lat="47.3104" lon="-2.33946">
        <ele>33.400001525879</ele>
        <time>2022-06-30T09:48:27.000Z</time>
      </trkpt>
      <trkpt lat="47.3103" lon="-2.33948">
        <ele>33.799999237061</ele>
        <time>2022-06-30T09:48:29.000Z</time>
      </trkpt>
      <trkpt lat="47.31025" lon="-2.33949">
        <ele>34.200000762939</ele>
        <time>2022-06-30T09:48:30.000Z</time>
      </trkpt>
      <trkpt lat="47.3102" lon="-2.3395">
        <ele>34.799999237061</ele>
        <time>2022-06-30T09:48:31.000Z</time>
      </trkpt>
      <trkpt lat="47.31015" lon="-2.3395">
        <ele>35.200000762939</ele>
        <time>2022-06-30T09:48:32.000Z</time>
      </trkpt>
      <trkpt lat="47.3101" lon="-2.33951">
        <ele>35.599998474121</ele>
        <time>2022-06-30T09:48:33.000Z</time>
      </trkpt>
      <trkpt lat="47.31" lon="-2.33952">
        <ele>35.599998474121</ele>
        <time>2022-06-30T09:48:35.000Z</time>
      </trkpt>
      <trkpt lat="47.30972" lon="-2.33953">
        <ele>35.599998474121</ele>
        <time>2022-06-30T09:48:41.000Z</time>
      </trkpt>
      <trkpt lat="47.30963" lon="-2.33952">
        <ele>35.599998474121</ele>
        <time>2022-06-30T09:48:43.000Z</time>
      </trkpt>
      <trkpt lat="47.3095" lon="-2.33949">
        <ele>35.599998474121</ele>
        <time>2022-06-30T09:48:46.000Z</time>
      </trkpt>
      <trkpt lat="47.30925" lon="-2.33944">
        <ele>36</ele>
        <time>2022-06-30T09:48:51.000Z</time>
      </trkpt>
      <trkpt lat="47.3092" lon="-2.33943">
        <ele>36.400001525879</ele>
        <time>2022-06-30T09:48:52.000Z</time>
      </trkpt>
      <trkpt lat="47.30914" lon="-2.33943">
        <ele>36.799999237061</ele>
        <time>2022-06-30T09:48:53.000Z</time>
      </trkpt>
      <trkpt lat="47.30909" lon="-2.33943">
        <ele>37.200000762939</ele>
        <time>2022-06-30T09:48:54.000Z</time>
      </trkpt>
      <trkpt lat="47.30903" lon="-2.33943">
        <ele>37.799999237061</ele>
        <time>2022-06-30T09:48:55.000Z</time>
      </trkpt>
      <trkpt lat="47.3087" lon="-2.33947">
        <ele>37.799999237061</ele>
        <time>2022-06-30T09:49:01.000Z</time>
      </trkpt>
      <trkpt lat="47.3083" lon="-2.33954">
        <ele>37.799999237061</ele>
        <time>2022-06-30T09:49:08.000Z</time>
      </trkpt>
      <trkpt lat="47.30796" lon="-2.33964">
        <ele>37.799999237061</ele>
        <time>2022-06-30T09:49:14.000Z</time>
      </trkpt>
      <trkpt lat="47.30755" lon="-2.33975">
        <ele>37.799999237061</ele>
        <time>2022-06-30T09:49:21.000Z</time>
      </trkpt>
      <trkpt lat="47.30712" lon="-2.33988">
        <ele>37.799999237061</ele>
        <time>2022-06-30T09:49:29.000Z</time>
      </trkpt>
      <trkpt lat="47.30691" lon="-2.33989">
        <ele>37.400001525879</ele>
        <time>2022-06-30T09:49:33.000Z</time>
      </trkpt>
      <trkpt lat="47.30686" lon="-2.3399">
        <ele>37</ele>
        <time>2022-06-30T09:49:34.000Z</time>
      </trkpt>
      <trkpt lat="47.30681" lon="-2.3399">
        <ele>36.400001525879</ele>
        <time>2022-06-30T09:49:35.000Z</time>
      </trkpt>
      <trkpt lat="47.30677" lon="-2.33991">
        <ele>36</ele>
        <time>2022-06-30T09:49:36.000Z</time>
      </trkpt>
      <trkpt lat="47.30673" lon="-2.33991">
        <ele>35.599998474121</ele>
        <time>2022-06-30T09:49:37.000Z</time>
      </trkpt>
      <trkpt lat="47.30668" lon="-2.33992">
        <ele>35.599998474121</ele>
        <time>2022-06-30T09:49:38.000Z</time>
      </trkpt>
      <trkpt lat="47.30654" lon="-2.33991">
        <ele>35.599998474121</ele>
        <time>2022-06-30T09:49:41.000Z</time>
      </trkpt>
      <trkpt lat="47.30636" lon="-2.3398">
        <ele>35.599998474121</ele>
        <time>2022-06-30T09:49:45.000Z</time>
      </trkpt>
      <trkpt lat="47.30632" lon="-2.33976">
        <ele>35.599998474121</ele>
        <time>2022-06-30T09:49:46.000Z</time>
      </trkpt>
      <trkpt lat="47.30615" lon="-2.33958">
        <ele>35.599998474121</ele>
        <time>2022-06-30T09:49:50.000Z</time>
      </trkpt>
      <trkpt lat="47.30602" lon="-2.3394">
        <ele>35.599998474121</ele>
        <time>2022-06-30T09:49:54.000Z</time>
      </trkpt>
      <trkpt lat="47.306" lon="-2.33934">
        <ele>35.599998474121</ele>
        <time>2022-06-30T09:49:55.000Z</time>
      </trkpt>
      <trkpt lat="47.30598" lon="-2.33927">
        <ele>35.599998474121</ele>
        <time>2022-06-30T09:49:56.000Z</time>
      </trkpt>
      <trkpt lat="47.30595" lon="-2.33904">
        <ele>35.599998474121</ele>
        <time>2022-06-30T09:49:59.000Z</time>
      </trkpt>
      <trkpt lat="47.30595" lon="-2.33897">
        <ele>35.599998474121</ele>
        <time>2022-06-30T09:50:00.000Z</time>
      </trkpt>
      <trkpt lat="47.30598" lon="-2.3388">
        <ele>35.599998474121</ele>
        <time>2022-06-30T09:50:03.000Z</time>
      </trkpt>
      <trkpt lat="47.30597" lon="-2.33851">
        <ele>35.599998474121</ele>
        <time>2022-06-30T09:50:09.000Z</time>
      </trkpt>
      <trkpt lat="47.30589" lon="-2.33818">
        <ele>35.599998474121</ele>
        <time>2022-06-30T09:50:15.000Z</time>
      </trkpt>
      <trkpt lat="47.3058" lon="-2.33786">
        <ele>35.599998474121</ele>
        <time>2022-06-30T09:50:19.000Z</time>
      </trkpt>
      <trkpt lat="47.30577" lon="-2.33769">
        <ele>35.599998474121</ele>
        <time>2022-06-30T09:50:21.000Z</time>
      </trkpt>
      <trkpt lat="47.30568" lon="-2.33727">
        <ele>35.599998474121</ele>
        <time>2022-06-30T09:50:27.000Z</time>
      </trkpt>
      <trkpt lat="47.30567" lon="-2.3372">
        <ele>35.599998474121</ele>
        <time>2022-06-30T09:50:28.000Z</time>
      </trkpt>
      <trkpt lat="47.30558" lon="-2.33674">
        <ele>35.599998474121</ele>
        <time>2022-06-30T09:50:34.000Z</time>
      </trkpt>
      <trkpt lat="47.30555" lon="-2.33659">
        <ele>35.200000762939</ele>
        <time>2022-06-30T09:50:36.000Z</time>
      </trkpt>
      <trkpt lat="47.30553" lon="-2.33653">
        <ele>34.799999237061</ele>
        <time>2022-06-30T09:50:37.000Z</time>
      </trkpt>
      <trkpt lat="47.3055" lon="-2.33649">
        <ele>34.400001525879</ele>
        <time>2022-06-30T09:50:38.000Z</time>
      </trkpt>
      <trkpt lat="47.30546" lon="-2.33649">
        <ele>34</ele>
        <time>2022-06-30T09:50:39.000Z</time>
      </trkpt>
      <trkpt lat="47.30541" lon="-2.33649">
        <ele>33.400001525879</ele>
        <time>2022-06-30T09:50:40.000Z</time>
      </trkpt>
      <trkpt lat="47.30536" lon="-2.3365">
        <ele>33.400001525879</ele>
        <time>2022-06-30T09:50:41.000Z</time>
      </trkpt>
      <trkpt lat="47.30531" lon="-2.33651">
        <ele>33.400001525879</ele>
        <time>2022-06-30T09:50:42.000Z</time>
      </trkpt>
      <trkpt lat="47.30509" lon="-2.33653">
        <ele>33.400001525879</ele>
        <time>2022-06-30T09:50:46.000Z</time>
      </trkpt>
      <trkpt lat="47.30503" lon="-2.33654">
        <ele>33.400001525879</ele>
        <time>2022-06-30T09:50:47.000Z</time>
      </trkpt>
      <trkpt lat="47.30486" lon="-2.33659">
        <ele>33.400001525879</ele>
        <time>2022-06-30T09:50:50.000Z</time>
      </trkpt>
      <trkpt lat="47.30481" lon="-2.33662">
        <ele>33.400001525879</ele>
        <time>2022-06-30T09:50:51.000Z</time>
      </trkpt>
      <trkpt lat="47.30467" lon="-2.33668">
        <ele>33.400001525879</ele>
        <time>2022-06-30T09:50:54.000Z</time>
      </trkpt>
      <trkpt lat="47.30458" lon="-2.33671">
        <ele>33.400001525879</ele>
        <time>2022-06-30T09:50:56.000Z</time>
      </trkpt>
      <trkpt lat="47.30439" lon="-2.3368">
        <ele>33.400001525879</ele>
        <time>2022-06-30T09:51:00.000Z</time>
      </trkpt>
      <trkpt lat="47.30429" lon="-2.33683">
        <ele>33.400001525879</ele>
        <time>2022-06-30T09:51:02.000Z</time>
      </trkpt>
      <trkpt lat="47.30424" lon="-2.33686">
        <ele>33.400001525879</ele>
        <time>2022-06-30T09:51:03.000Z</time>
      </trkpt>
      <trkpt lat="47.30415" lon="-2.33698">
        <ele>33.400001525879</ele>
        <time>2022-06-30T09:51:06.000Z</time>
      </trkpt>
      <trkpt lat="47.30409" lon="-2.3371">
        <ele>33.400001525879</ele>
        <time>2022-06-30T09:51:08.000Z</time>
      </trkpt>
      <trkpt lat="47.30406" lon="-2.33715">
        <ele>33.400001525879</ele>
        <time>2022-06-30T09:51:09.000Z</time>
      </trkpt>
      <trkpt lat="47.30401" lon="-2.33723">
        <ele>33.400001525879</ele>
        <time>2022-06-30T09:51:11.000Z</time>
      </trkpt>
      <trkpt lat="47.30389" lon="-2.33741">
        <ele>33.400001525879</ele>
        <time>2022-06-30T09:51:15.000Z</time>
      </trkpt>
      <trkpt lat="47.30381" lon="-2.33752">
        <ele>33.400001525879</ele>
        <time>2022-06-30T09:51:17.000Z</time>
      </trkpt>
      <trkpt lat="47.30354" lon="-2.33784">
        <ele>33.400001525879</ele>
        <time>2022-06-30T09:51:24.000Z</time>
      </trkpt>
      <trkpt lat="47.30344" lon="-2.33797">
        <ele>33.799999237061</ele>
        <time>2022-06-30T09:51:27.000Z</time>
      </trkpt>
      <trkpt lat="47.30341" lon="-2.33801">
        <ele>34.400001525879</ele>
        <time>2022-06-30T09:51:28.000Z</time>
      </trkpt>
      <trkpt lat="47.30337" lon="-2.33805">
        <ele>34.799999237061</ele>
        <time>2022-06-30T09:51:29.000Z</time>
      </trkpt>
      <trkpt lat="47.30334" lon="-2.33809">
        <ele>35.200000762939</ele>
        <time>2022-06-30T09:51:30.000Z</time>
      </trkpt>
      <trkpt lat="47.3033" lon="-2.33812">
        <ele>35.599998474121</ele>
        <time>2022-06-30T09:51:31.000Z</time>
      </trkpt>
      <trkpt lat="47.30326" lon="-2.33816">
        <ele>35.599998474121</ele>
        <time>2022-06-30T09:51:32.000Z</time>
      </trkpt>
      <trkpt lat="47.30303" lon="-2.33831">
        <ele>35.599998474121</ele>
        <time>2022-06-30T09:51:36.000Z</time>
      </trkpt>
      <trkpt lat="47.30282" lon="-2.33846">
        <ele>35.599998474121</ele>
        <time>2022-06-30T09:51:40.000Z</time>
      </trkpt>
      <trkpt lat="47.30272" lon="-2.33854">
        <ele>35.599998474121</ele>
        <time>2022-06-30T09:51:42.000Z</time>
      </trkpt>
      <trkpt lat="47.30245" lon="-2.33875">
        <ele>35.599998474121</ele>
        <time>2022-06-30T09:51:47.000Z</time>
      </trkpt>
      <trkpt lat="47.3023" lon="-2.33885">
        <ele>35.599998474121</ele>
        <time>2022-06-30T09:51:50.000Z</time>
      </trkpt>
      <trkpt lat="47.3022" lon="-2.33892">
        <ele>35.599998474121</ele>
        <time>2022-06-30T09:51:52.000Z</time>
      </trkpt>
      <trkpt lat="47.3019" lon="-2.33922">
        <ele>35.200000762939</ele>
        <time>2022-06-30T09:51:58.000Z</time>
      </trkpt>
      <trkpt lat="47.30186" lon="-2.33927">
        <ele>34.599998474121</ele>
        <time>2022-06-30T09:51:59.000Z</time>
      </trkpt>
      <trkpt lat="47.30181" lon="-2.33933">
        <ele>34.200000762939</ele>
        <time>2022-06-30T09:52:00.000Z</time>
      </trkpt>
      <trkpt lat="47.30176" lon="-2.33938">
        <ele>33.799999237061</ele>
        <time>2022-06-30T09:52:01.000Z</time>
      </trkpt>
      <trkpt lat="47.30171" lon="-2.33942">
        <ele>33.400001525879</ele>
        <time>2022-06-30T09:52:02.000Z</time>
      </trkpt>
      <trkpt lat="47.3016" lon="-2.3395">
        <ele>33.400001525879</ele>
        <time>2022-06-30T09:52:04.000Z</time>
      </trkpt>
      <trkpt lat="47.30155" lon="-2.33954">
        <ele>33.400001525879</ele>
        <time>2022-06-30T09:52:05.000Z</time>
      </trkpt>
      <trkpt lat="47.30132" lon="-2.33974">
        <ele>33.400001525879</ele>
        <time>2022-06-30T09:52:09.000Z</time>
      </trkpt>
      <trkpt lat="47.3011" lon="-2.34004">
        <ele>33</ele>
        <time>2022-06-30T09:52:13.000Z</time>
      </trkpt>
      <trkpt lat="47.30104" lon="-2.34011">
        <ele>32.599998474121</ele>
        <time>2022-06-30T09:52:14.000Z</time>
      </trkpt>
      <trkpt lat="47.30099" lon="-2.34018">
        <ele>32.200000762939</ele>
        <time>2022-06-30T09:52:15.000Z</time>
      </trkpt>
      <trkpt lat="47.30093" lon="-2.34024">
        <ele>31.799999237061</ele>
        <time>2022-06-30T09:52:16.000Z</time>
      </trkpt>
      <trkpt lat="47.30088" lon="-2.34031">
        <ele>31.39999961853</ele>
        <time>2022-06-30T09:52:17.000Z</time>
      </trkpt>
      <trkpt lat="47.30068" lon="-2.34058">
        <ele>31.39999961853</ele>
        <time>2022-06-30T09:52:21.000Z</time>
      </trkpt>
      <trkpt lat="47.30042" lon="-2.34093">
        <ele>31.39999961853</ele>
        <time>2022-06-30T09:52:27.000Z</time>
      </trkpt>
      <trkpt lat="47.30015" lon="-2.34129">
        <ele>31.39999961853</ele>
        <time>2022-06-30T09:52:33.000Z</time>
      </trkpt>
      <trkpt lat="47.29979" lon="-2.34174">
        <ele>31.39999961853</ele>
        <time>2022-06-30T09:52:41.000Z</time>
      </trkpt>
      <trkpt lat="47.29949" lon="-2.34213">
        <ele>31.39999961853</ele>
        <time>2022-06-30T09:52:48.000Z</time>
      </trkpt>
      <trkpt lat="47.2992" lon="-2.34253">
        <ele>31.39999961853</ele>
        <time>2022-06-30T09:52:55.000Z</time>
      </trkpt>
      <trkpt lat="47.29917" lon="-2.3426">
        <ele>31.39999961853</ele>
        <time>2022-06-30T09:52:56.000Z</time>
      </trkpt>
      <trkpt lat="47.29917" lon="-2.34284">
        <ele>31.39999961853</ele>
        <time>2022-06-30T09:52:59.000Z</time>
      </trkpt>
      <trkpt lat="47.2992" lon="-2.343">
        <ele>31.39999961853</ele>
        <time>2022-06-30T09:53:01.000Z</time>
      </trkpt>
      <trkpt lat="47.29926" lon="-2.34334">
        <ele>31.39999961853</ele>
        <time>2022-06-30T09:53:06.000Z</time>
      </trkpt>
      <trkpt lat="47.29933" lon="-2.344">
        <ele>31.39999961853</ele>
        <time>2022-06-30T09:53:14.000Z</time>
      </trkpt>
      <trkpt lat="47.29941" lon="-2.34455">
        <ele>31.39999961853</ele>
        <time>2022-06-30T09:53:21.000Z</time>
      </trkpt>
      <trkpt lat="47.29946" lon="-2.34503">
        <ele>31.799999237061</ele>
        <time>2022-06-30T09:53:27.000Z</time>
      </trkpt>
      <trkpt lat="47.29947" lon="-2.34511">
        <ele>32.200000762939</ele>
        <time>2022-06-30T09:53:28.000Z</time>
      </trkpt>
      <trkpt lat="47.29948" lon="-2.3452">
        <ele>32.599998474121</ele>
        <time>2022-06-30T09:53:29.000Z</time>
      </trkpt>
      <trkpt lat="47.29949" lon="-2.34528">
        <ele>33</ele>
        <time>2022-06-30T09:53:30.000Z</time>
      </trkpt>
      <trkpt lat="47.2995" lon="-2.34537">
        <ele>33.400001525879</ele>
        <time>2022-06-30T09:53:31.000Z</time>
      </trkpt>
      <trkpt lat="47.29956" lon="-2.34588">
        <ele>33.400001525879</ele>
        <time>2022-06-30T09:53:37.000Z</time>
      </trkpt>
      <trkpt lat="47.29966" lon="-2.34672">
        <ele>33.400001525879</ele>
        <time>2022-06-30T09:53:46.000Z</time>
      </trkpt>
      <trkpt lat="47.29968" lon="-2.34681">
        <ele>33.400001525879</ele>
        <time>2022-06-30T09:53:47.000Z</time>
      </trkpt>
      <trkpt lat="47.2997" lon="-2.34698">
        <ele>33</ele>
        <time>2022-06-30T09:53:49.000Z</time>
      </trkpt>
      <trkpt lat="47.29971" lon="-2.34706">
        <ele>32.599998474121</ele>
        <time>2022-06-30T09:53:50.000Z</time>
      </trkpt>
      <trkpt lat="47.29972" lon="-2.34714">
        <ele>32.200000762939</ele>
        <time>2022-06-30T09:53:51.000Z</time>
      </trkpt>
      <trkpt lat="47.29973" lon="-2.34722">
        <ele>31.799999237061</ele>
        <time>2022-06-30T09:53:52.000Z</time>
      </trkpt>
      <trkpt lat="47.29974" lon="-2.3473">
        <ele>31.200000762939</ele>
        <time>2022-06-30T09:53:53.000Z</time>
      </trkpt>
      <trkpt lat="47.29979" lon="-2.34793">
        <ele>31.200000762939</ele>
        <time>2022-06-30T09:54:01.000Z</time>
      </trkpt>
      <trkpt lat="47.29979" lon="-2.34814">
        <ele>31.200000762939</ele>
        <time>2022-06-30T09:54:04.000Z</time>
      </trkpt>
      <trkpt lat="47.29976" lon="-2.34819">
        <ele>31.200000762939</ele>
        <time>2022-06-30T09:54:05.000Z</time>
      </trkpt>
      <trkpt lat="47.29972" lon="-2.34822">
        <ele>31.799999237061</ele>
        <time>2022-06-30T09:54:06.000Z</time>
      </trkpt>
      <trkpt lat="47.29967" lon="-2.34824">
        <ele>32.200000762939</ele>
        <time>2022-06-30T09:54:07.000Z</time>
      </trkpt>
      <trkpt lat="47.29962" lon="-2.34825">
        <ele>32.599998474121</ele>
        <time>2022-06-30T09:54:08.000Z</time>
      </trkpt>
      <trkpt lat="47.29956" lon="-2.34825">
        <ele>33</ele>
        <time>2022-06-30T09:54:09.000Z</time>
      </trkpt>
      <trkpt lat="47.2995" lon="-2.34826">
        <ele>33.400001525879</ele>
        <time>2022-06-30T09:54:10.000Z</time>
      </trkpt>
      <trkpt lat="47.29926" lon="-2.3483">
        <ele>33.400001525879</ele>
        <time>2022-06-30T09:54:14.000Z</time>
      </trkpt>
      <trkpt lat="47.29883" lon="-2.34836">
        <ele>33.400001525879</ele>
        <time>2022-06-30T09:54:21.000Z</time>
      </trkpt>
      <trkpt lat="47.2987" lon="-2.34838">
        <ele>33</ele>
        <time>2022-06-30T09:54:23.000Z</time>
      </trkpt>
      <trkpt lat="47.29864" lon="-2.34839">
        <ele>32.599998474121</ele>
        <time>2022-06-30T09:54:24.000Z</time>
      </trkpt>
      <trkpt lat="47.29857" lon="-2.34841">
        <ele>31.799999237061</ele>
        <time>2022-06-30T09:54:25.000Z</time>
      </trkpt>
      <trkpt lat="47.29851" lon="-2.34843">
        <ele>31.39999961853</ele>
        <time>2022-06-30T09:54:26.000Z</time>
      </trkpt>
      <trkpt lat="47.29845" lon="-2.34844">
        <ele>31.39999961853</ele>
        <time>2022-06-30T09:54:27.000Z</time>
      </trkpt>
      <trkpt lat="47.29793" lon="-2.34858">
        <ele>31.39999961853</ele>
        <time>2022-06-30T09:54:35.000Z</time>
      </trkpt>
      <trkpt lat="47.29781" lon="-2.34861">
        <ele>31</ele>
        <time>2022-06-30T09:54:37.000Z</time>
      </trkpt>
      <trkpt lat="47.29774" lon="-2.34863">
        <ele>30.39999961853</ele>
        <time>2022-06-30T09:54:38.000Z</time>
      </trkpt>
      <trkpt lat="47.29768" lon="-2.34866">
        <ele>30</ele>
        <time>2022-06-30T09:54:39.000Z</time>
      </trkpt>
      <trkpt lat="47.29762" lon="-2.34867">
        <ele>29.60000038147</ele>
        <time>2022-06-30T09:54:40.000Z</time>
      </trkpt>
      <trkpt lat="47.29756" lon="-2.34869">
        <ele>29.200000762939</ele>
        <time>2022-06-30T09:54:41.000Z</time>
      </trkpt>
      <trkpt lat="47.29708" lon="-2.34891">
        <ele>29.200000762939</ele>
        <time>2022-06-30T09:54:49.000Z</time>
      </trkpt>
      <trkpt lat="47.29697" lon="-2.34896">
        <ele>29.200000762939</ele>
        <time>2022-06-30T09:54:51.000Z</time>
      </trkpt>
      <trkpt lat="47.29679" lon="-2.34895">
        <ele>29.200000762939</ele>
        <time>2022-06-30T09:54:54.000Z</time>
      </trkpt>
      <trkpt lat="47.29659" lon="-2.34877">
        <ele>29.200000762939</ele>
        <time>2022-06-30T09:54:58.000Z</time>
      </trkpt>
      <trkpt lat="47.29633" lon="-2.34846">
        <ele>29.200000762939</ele>
        <time>2022-06-30T09:55:04.000Z</time>
      </trkpt>
      <trkpt lat="47.29628" lon="-2.34842">
        <ele>29.200000762939</ele>
        <time>2022-06-30T09:55:05.000Z</time>
      </trkpt>
      <trkpt lat="47.29616" lon="-2.34841">
        <ele>29.200000762939</ele>
        <time>2022-06-30T09:55:08.000Z</time>
      </trkpt>
      <trkpt lat="47.29603" lon="-2.34856">
        <ele>29.200000762939</ele>
        <time>2022-06-30T09:55:12.000Z</time>
      </trkpt>
      <trkpt lat="47.29582" lon="-2.34891">
        <ele>29.200000762939</ele>
        <time>2022-06-30T09:55:18.000Z</time>
      </trkpt>
      <trkpt lat="47.29557" lon="-2.34924">
        <ele>29.200000762939</ele>
        <time>2022-06-30T09:55:23.000Z</time>
      </trkpt>
      <trkpt lat="47.29526" lon="-2.34963">
        <ele>29.200000762939</ele>
        <time>2022-06-30T09:55:28.000Z</time>
      </trkpt>
      <trkpt lat="47.29515" lon="-2.3498">
        <ele>29.200000762939</ele>
        <time>2022-06-30T09:55:30.000Z</time>
      </trkpt>
      <trkpt lat="47.29507" lon="-2.34998">
        <ele>29.200000762939</ele>
        <time>2022-06-30T09:55:32.000Z</time>
      </trkpt>
      <trkpt lat="47.29491" lon="-2.35039">
        <ele>29.200000762939</ele>
        <time>2022-06-30T09:55:37.000Z</time>
      </trkpt>
      <trkpt lat="47.29487" lon="-2.35052">
        <ele>29.60000038147</ele>
        <time>2022-06-30T09:55:39.000Z</time>
      </trkpt>
      <trkpt lat="47.29486" lon="-2.35059">
        <ele>30</ele>
        <time>2022-06-30T09:55:40.000Z</time>
      </trkpt>
      <trkpt lat="47.29483" lon="-2.35065">
        <ele>30.39999961853</ele>
        <time>2022-06-30T09:55:41.000Z</time>
      </trkpt>
      <trkpt lat="47.29481" lon="-2.35072">
        <ele>31</ele>
        <time>2022-06-30T09:55:42.000Z</time>
      </trkpt>
      <trkpt lat="47.29478" lon="-2.35078">
        <ele>31.39999961853</ele>
        <time>2022-06-30T09:55:43.000Z</time>
      </trkpt>
      <trkpt lat="47.29471" lon="-2.35097">
        <ele>31.39999961853</ele>
        <time>2022-06-30T09:55:46.000Z</time>
      </trkpt>
      <trkpt lat="47.29458" lon="-2.35137">
        <ele>31.39999961853</ele>
        <time>2022-06-30T09:55:52.000Z</time>
      </trkpt>
      <trkpt lat="47.29443" lon="-2.35175">
        <ele>31.39999961853</ele>
        <time>2022-06-30T09:55:58.000Z</time>
      </trkpt>
      <trkpt lat="47.2942" lon="-2.35225">
        <ele>31.39999961853</ele>
        <time>2022-06-30T09:56:05.000Z</time>
      </trkpt>
      <trkpt lat="47.29395" lon="-2.35266">
        <ele>31.39999961853</ele>
        <time>2022-06-30T09:56:12.000Z</time>
      </trkpt>
      <trkpt lat="47.29391" lon="-2.35272">
        <ele>31.39999961853</ele>
        <time>2022-06-30T09:56:13.000Z</time>
      </trkpt>
      <trkpt lat="47.29382" lon="-2.35283">
        <ele>31.799999237061</ele>
        <time>2022-06-30T09:56:15.000Z</time>
      </trkpt>
      <trkpt lat="47.29378" lon="-2.35289">
        <ele>32.200000762939</ele>
        <time>2022-06-30T09:56:16.000Z</time>
      </trkpt>
      <trkpt lat="47.29373" lon="-2.35295">
        <ele>32.599998474121</ele>
        <time>2022-06-30T09:56:17.000Z</time>
      </trkpt>
      <trkpt lat="47.29368" lon="-2.353">
        <ele>33</ele>
        <time>2022-06-30T09:56:18.000Z</time>
      </trkpt>
      <trkpt lat="47.29364" lon="-2.35306">
        <ele>33.400001525879</ele>
        <time>2022-06-30T09:56:19.000Z</time>
      </trkpt>
      <trkpt lat="47.2936" lon="-2.35312">
        <ele>33.400001525879</ele>
        <time>2022-06-30T09:56:20.000Z</time>
      </trkpt>
      <trkpt lat="47.29324" lon="-2.35352">
        <ele>33.400001525879</ele>
        <time>2022-06-30T09:56:28.000Z</time>
      </trkpt>
      <trkpt lat="47.29301" lon="-2.35377">
        <ele>33.400001525879</ele>
        <time>2022-06-30T09:56:33.000Z</time>
      </trkpt>
      <trkpt lat="47.29291" lon="-2.35386">
        <ele>33.799999237061</ele>
        <time>2022-06-30T09:56:35.000Z</time>
      </trkpt>
      <trkpt lat="47.29286" lon="-2.3539">
        <ele>34.400001525879</ele>
        <time>2022-06-30T09:56:36.000Z</time>
      </trkpt>
      <trkpt lat="47.29281" lon="-2.35394">
        <ele>34.799999237061</ele>
        <time>2022-06-30T09:56:37.000Z</time>
      </trkpt>
      <trkpt lat="47.29277" lon="-2.35398">
        <ele>35.200000762939</ele>
        <time>2022-06-30T09:56:38.000Z</time>
      </trkpt>
      <trkpt lat="47.29272" lon="-2.35402">
        <ele>35.599998474121</ele>
        <time>2022-06-30T09:56:39.000Z</time>
      </trkpt>
      <trkpt lat="47.29267" lon="-2.35405">
        <ele>35.599998474121</ele>
        <time>2022-06-30T09:56:40.000Z</time>
      </trkpt>
      <trkpt lat="47.29234" lon="-2.35422">
        <ele>35.599998474121</ele>
        <time>2022-06-30T09:56:46.000Z</time>
      </trkpt>
      <trkpt lat="47.29192" lon="-2.35439">
        <ele>35.599998474121</ele>
        <time>2022-06-30T09:56:54.000Z</time>
      </trkpt>
      <trkpt lat="47.29156" lon="-2.35453">
        <ele>35.599998474121</ele>
        <time>2022-06-30T09:57:01.000Z</time>
      </trkpt>
      <trkpt lat="47.29123" lon="-2.35465">
        <ele>35.599998474121</ele>
        <time>2022-06-30T09:57:08.000Z</time>
      </trkpt>
      <trkpt lat="47.29115" lon="-2.35468">
        <ele>35.599998474121</ele>
        <time>2022-06-30T09:57:12.000Z</time>
      </trkpt>
      <trkpt lat="47.29101" lon="-2.3547">
        <ele>35.599998474121</ele>
        <time>2022-06-30T09:57:16.000Z</time>
      </trkpt>
      <trkpt lat="47.29097" lon="-2.35469">
        <ele>35.599998474121</ele>
        <time>2022-06-30T09:57:17.000Z</time>
      </trkpt>
      <trkpt lat="47.29091" lon="-2.35461">
        <ele>35.599998474121</ele>
        <time>2022-06-30T09:57:19.000Z</time>
      </trkpt>
      <trkpt lat="47.29089" lon="-2.35449">
        <ele>35.599998474121</ele>
        <time>2022-06-30T09:57:21.000Z</time>
      </trkpt>
      <trkpt lat="47.29086" lon="-2.35447">
        <ele>35.599998474121</ele>
        <time>2022-06-30T09:57:22.000Z</time>
      </trkpt>
      <trkpt lat="47.29076" lon="-2.35455">
        <ele>35.599998474121</ele>
        <time>2022-06-30T09:57:25.000Z</time>
      </trkpt>
      <trkpt lat="47.29073" lon="-2.35459">
        <ele>35.599998474121</ele>
        <time>2022-06-30T09:57:26.000Z</time>
      </trkpt>
      <trkpt lat="47.29057" lon="-2.35485">
        <ele>35.599998474121</ele>
        <time>2022-06-30T09:57:31.000Z</time>
      </trkpt>
      <trkpt lat="47.2904" lon="-2.35512">
        <ele>35.599998474121</ele>
        <time>2022-06-30T09:57:36.000Z</time>
      </trkpt>
      <trkpt lat="47.29038" lon="-2.35526">
        <ele>35.599998474121</ele>
        <time>2022-06-30T09:57:38.000Z</time>
      </trkpt>
      <trkpt lat="47.29044" lon="-2.35545">
        <ele>35.599998474121</ele>
        <time>2022-06-30T09:57:41.000Z</time>
      </trkpt>
      <trkpt lat="47.29047" lon="-2.35551">
        <ele>35.599998474121</ele>
        <time>2022-06-30T09:57:42.000Z</time>
      </trkpt>
      <trkpt lat="47.29064" lon="-2.35596">
        <ele>35.599998474121</ele>
        <time>2022-06-30T09:57:49.000Z</time>
      </trkpt>
      <trkpt lat="47.29076" lon="-2.35623">
        <ele>35.599998474121</ele>
        <time>2022-06-30T09:57:54.000Z</time>
      </trkpt>
      <trkpt lat="47.29083" lon="-2.35632">
        <ele>35.599998474121</ele>
        <time>2022-06-30T09:57:56.000Z</time>
      </trkpt>
      <trkpt lat="47.29083" lon="-2.35642">
        <ele>35.599998474121</ele>
        <time>2022-06-30T09:57:58.000Z</time>
      </trkpt>
      <trkpt lat="47.2908" lon="-2.35645">
        <ele>35.599998474121</ele>
        <time>2022-06-30T09:57:59.000Z</time>
      </trkpt>
      <trkpt lat="47.29068" lon="-2.35654">
        <ele>35.599998474121</ele>
        <time>2022-06-30T09:58:02.000Z</time>
      </trkpt>
      <trkpt lat="47.29064" lon="-2.35658">
        <ele>35.599998474121</ele>
        <time>2022-06-30T09:58:03.000Z</time>
      </trkpt>
      <trkpt lat="47.29035" lon="-2.35688">
        <ele>35.599998474121</ele>
        <time>2022-06-30T09:58:10.000Z</time>
      </trkpt>
      <trkpt lat="47.2902" lon="-2.35698">
        <ele>35.599998474121</ele>
        <time>2022-06-30T09:58:13.000Z</time>
      </trkpt>
      <trkpt lat="47.29009" lon="-2.35701">
        <ele>35.599998474121</ele>
        <time>2022-06-30T09:58:15.000Z</time>
      </trkpt>
      <trkpt lat="47.28988" lon="-2.35691">
        <ele>35.599998474121</ele>
        <time>2022-06-30T09:58:19.000Z</time>
      </trkpt>
      <trkpt lat="47.28972" lon="-2.35668">
        <ele>35.599998474121</ele>
        <time>2022-06-30T09:58:23.000Z</time>
      </trkpt>
      <trkpt lat="47.28952" lon="-2.35619">
        <ele>35.599998474121</ele>
        <time>2022-06-30T09:58:30.000Z</time>
      </trkpt>
      <trkpt lat="47.28936" lon="-2.35585">
        <ele>35.599998474121</ele>
        <time>2022-06-30T09:58:35.000Z</time>
      </trkpt>
      <trkpt lat="47.28932" lon="-2.3558">
        <ele>35.599998474121</ele>
        <time>2022-06-30T09:58:36.000Z</time>
      </trkpt>
      <trkpt lat="47.28917" lon="-2.35571">
        <ele>35.599998474121</ele>
        <time>2022-06-30T09:58:39.000Z</time>
      </trkpt>
      <trkpt lat="47.28901" lon="-2.35579">
        <ele>35.599998474121</ele>
        <time>2022-06-30T09:58:42.000Z</time>
      </trkpt>
      <trkpt lat="47.28891" lon="-2.35588">
        <ele>35.599998474121</ele>
        <time>2022-06-30T09:58:44.000Z</time>
      </trkpt>
      <trkpt lat="47.28878" lon="-2.35603">
        <ele>35.599998474121</ele>
        <time>2022-06-30T09:58:47.000Z</time>
      </trkpt>
      <trkpt lat="47.28854" lon="-2.35633">
        <ele>35.599998474121</ele>
        <time>2022-06-30T09:58:53.000Z</time>
      </trkpt>
      <trkpt lat="47.28827" lon="-2.35662">
        <ele>35.599998474121</ele>
        <time>2022-06-30T09:58:59.000Z</time>
      </trkpt>
      <trkpt lat="47.28807" lon="-2.35694">
        <ele>35.599998474121</ele>
        <time>2022-06-30T09:59:04.000Z</time>
      </trkpt>
      <trkpt lat="47.2878" lon="-2.35747">
        <ele>35.599998474121</ele>
        <time>2022-06-30T09:59:12.000Z</time>
      </trkpt>
      <trkpt lat="47.28751" lon="-2.358">
        <ele>35.599998474121</ele>
        <time>2022-06-30T09:59:20.000Z</time>
      </trkpt>
      <trkpt lat="47.28721" lon="-2.35854">
        <ele>35.599998474121</ele>
        <time>2022-06-30T09:59:28.000Z</time>
      </trkpt>
      <trkpt lat="47.28693" lon="-2.35899">
        <ele>35.599998474121</ele>
        <time>2022-06-30T09:59:35.000Z</time>
      </trkpt>
      <trkpt lat="47.2868" lon="-2.35916">
        <ele>35.599998474121</ele>
        <time>2022-06-30T09:59:38.000Z</time>
      </trkpt>
      <trkpt lat="47.28671" lon="-2.35915">
        <ele>35.599998474121</ele>
        <time>2022-06-30T09:59:40.000Z</time>
      </trkpt>
      <trkpt lat="47.28665" lon="-2.35902">
        <ele>35.599998474121</ele>
        <time>2022-06-30T09:59:42.000Z</time>
      </trkpt>
      <trkpt lat="47.28663" lon="-2.35895">
        <ele>35.200000762939</ele>
        <time>2022-06-30T09:59:43.000Z</time>
      </trkpt>
      <trkpt lat="47.28662" lon="-2.35887">
        <ele>34.799999237061</ele>
        <time>2022-06-30T09:59:44.000Z</time>
      </trkpt>
      <trkpt lat="47.28659" lon="-2.35879">
        <ele>34.400001525879</ele>
        <time>2022-06-30T09:59:45.000Z</time>
      </trkpt>
      <trkpt lat="47.28657" lon="-2.35871">
        <ele>34</ele>
        <time>2022-06-30T09:59:46.000Z</time>
      </trkpt>
      <trkpt lat="47.28654" lon="-2.35864">
        <ele>33.599998474121</ele>
        <time>2022-06-30T09:59:47.000Z</time>
      </trkpt>
      <trkpt lat="47.28648" lon="-2.35849">
        <ele>33.599998474121</ele>
        <time>2022-06-30T09:59:49.000Z</time>
      </trkpt>
      <trkpt lat="47.28641" lon="-2.35832">
        <ele>33.599998474121</ele>
        <time>2022-06-30T09:59:52.000Z</time>
      </trkpt>
      <trkpt lat="47.2864" lon="-2.35821">
        <ele>33.599998474121</ele>
        <time>2022-06-30T09:59:54.000Z</time>
      </trkpt>
      <trkpt lat="47.28638" lon="-2.35797">
        <ele>33.200000762939</ele>
        <time>2022-06-30T09:59:59.000Z</time>
      </trkpt>
      <trkpt lat="47.28637" lon="-2.35792">
        <ele>32.599998474121</ele>
        <time>2022-06-30T10:00:00.000Z</time>
      </trkpt>
      <trkpt lat="47.28636" lon="-2.35787">
        <ele>32.200000762939</ele>
        <time>2022-06-30T10:00:01.000Z</time>
      </trkpt>
      <trkpt lat="47.28634" lon="-2.35783">
        <ele>31.799999237061</ele>
        <time>2022-06-30T10:00:02.000Z</time>
      </trkpt>
      <trkpt lat="47.28633" lon="-2.35778">
        <ele>31.39999961853</ele>
        <time>2022-06-30T10:00:03.000Z</time>
      </trkpt>
      <trkpt lat="47.28632" lon="-2.35777">
        <ele>31.39999961853</ele>
        <time>2022-06-30T10:00:04.000Z</time>
      </trkpt>
      <trkpt lat="47.28632" lon="-2.35777">
        <ele>31.39999961853</ele>
        <time>2022-06-30T10:00:05.000Z</time>
      </trkpt>
      <trkpt lat="47.28632" lon="-2.35777">
        <ele>31.39999961853</ele>
        <time>2022-06-30T10:00:06.000Z</time>
      </trkpt>
      <trkpt lat="47.28631" lon="-2.35774">
        <ele>31.39999961853</ele>
        <time>2022-06-30T10:00:40.000Z</time>
      </trkpt>
      <trkpt lat="47.2863" lon="-2.35768">
        <ele>31.39999961853</ele>
        <time>2022-06-30T10:00:42.000Z</time>
      </trkpt>
      <trkpt lat="47.28626" lon="-2.35753">
        <ele>31.39999961853</ele>
        <time>2022-06-30T10:00:45.000Z</time>
      </trkpt>
      <trkpt lat="47.28624" lon="-2.35748">
        <ele>31.39999961853</ele>
        <time>2022-06-30T10:00:46.000Z</time>
      </trkpt>
      <trkpt lat="47.28618" lon="-2.35741">
        <ele>31.39999961853</ele>
        <time>2022-06-30T10:00:48.000Z</time>
      </trkpt>
      <trkpt lat="47.28616" lon="-2.35741">
        <ele>31.39999961853</ele>
        <time>2022-06-30T10:00:49.000Z</time>
      </trkpt>
      <trkpt lat="47.28609" lon="-2.35748">
        <ele>31.39999961853</ele>
        <time>2022-06-30T10:00:52.000Z</time>
      </trkpt>
      <trkpt lat="47.28606" lon="-2.3575">
        <ele>31.39999961853</ele>
        <time>2022-06-30T10:00:53.000Z</time>
      </trkpt>
      <trkpt lat="47.28598" lon="-2.35768">
        <ele>31.39999961853</ele>
        <time>2022-06-30T10:00:57.000Z</time>
      </trkpt>
      <trkpt lat="47.28582" lon="-2.358">
        <ele>31.39999961853</ele>
        <time>2022-06-30T10:01:03.000Z</time>
      </trkpt>
      <trkpt lat="47.2858" lon="-2.35804">
        <ele>31.39999961853</ele>
        <time>2022-06-30T10:01:04.000Z</time>
      </trkpt>
      <trkpt lat="47.28574" lon="-2.35813">
        <ele>31.39999961853</ele>
        <time>2022-06-30T10:01:06.000Z</time>
      </trkpt>
      <trkpt lat="47.28565" lon="-2.3582">
        <ele>31.39999961853</ele>
        <time>2022-06-30T10:01:09.000Z</time>
      </trkpt>
      <trkpt lat="47.28558" lon="-2.35826">
        <ele>31.39999961853</ele>
        <time>2022-06-30T10:01:12.000Z</time>
      </trkpt>
      <trkpt lat="47.28556" lon="-2.35826">
        <ele>31.39999961853</ele>
        <time>2022-06-30T10:01:13.000Z</time>
      </trkpt>
      <trkpt lat="47.28555" lon="-2.35824">
        <ele>31.39999961853</ele>
        <time>2022-06-30T10:01:16.000Z</time>
      </trkpt>
      <trkpt lat="47.28555" lon="-2.35819">
        <ele>31.39999961853</ele>
        <time>2022-06-30T10:01:22.000Z</time>
      </trkpt>
      <trkpt lat="47.28553" lon="-2.35799">
        <ele>31.39999961853</ele>
        <time>2022-06-30T10:01:28.000Z</time>
      </trkpt>
      <trkpt lat="47.28542" lon="-2.35751">
        <ele>31.39999961853</ele>
        <time>2022-06-30T10:01:35.000Z</time>
      </trkpt>
      <trkpt lat="47.28519" lon="-2.35707">
        <ele>31.39999961853</ele>
        <time>2022-06-30T10:01:43.000Z</time>
      </trkpt>
      <trkpt lat="47.28501" lon="-2.35673">
        <ele>31.39999961853</ele>
        <time>2022-06-30T10:01:50.000Z</time>
      </trkpt>
      <trkpt lat="47.28473" lon="-2.3564">
        <ele>31.39999961853</ele>
        <time>2022-06-30T10:01:58.000Z</time>
      </trkpt>
      <trkpt lat="47.28457" lon="-2.35625">
        <ele>31.39999961853</ele>
        <time>2022-06-30T10:02:03.000Z</time>
      </trkpt>
      <trkpt lat="47.28438" lon="-2.35602">
        <ele>31.39999961853</ele>
        <time>2022-06-30T10:02:09.000Z</time>
      </trkpt>
      <trkpt lat="47.28426" lon="-2.35573">
        <ele>31.39999961853</ele>
        <time>2022-06-30T10:02:14.000Z</time>
      </trkpt>
      <trkpt lat="47.28414" lon="-2.35553">
        <ele>31.39999961853</ele>
        <time>2022-06-30T10:02:17.000Z</time>
      </trkpt>
      <trkpt lat="47.28409" lon="-2.35547">
        <ele>31.39999961853</ele>
        <time>2022-06-30T10:02:18.000Z</time>
      </trkpt>
      <trkpt lat="47.284" lon="-2.35526">
        <ele>31.39999961853</ele>
        <time>2022-06-30T10:02:22.000Z</time>
      </trkpt>
      <trkpt lat="47.28401" lon="-2.35488">
        <ele>31.39999961853</ele>
        <time>2022-06-30T10:02:27.000Z</time>
      </trkpt>
      <trkpt lat="47.28401" lon="-2.35446">
        <ele>31.39999961853</ele>
        <time>2022-06-30T10:02:34.000Z</time>
      </trkpt>
      <trkpt lat="47.28401" lon="-2.35435">
        <ele>31.799999237061</ele>
        <time>2022-06-30T10:02:36.000Z</time>
      </trkpt>
      <trkpt lat="47.28401" lon="-2.35431">
        <ele>32.200000762939</ele>
        <time>2022-06-30T10:02:37.000Z</time>
      </trkpt>
      <trkpt lat="47.28399" lon="-2.35427">
        <ele>32.799999237061</ele>
        <time>2022-06-30T10:02:38.000Z</time>
      </trkpt>
      <trkpt lat="47.28396" lon="-2.35424">
        <ele>33.599998474121</ele>
        <time>2022-06-30T10:02:39.000Z</time>
      </trkpt>
      <trkpt lat="47.2838" lon="-2.35404">
        <ele>33.599998474121</ele>
        <time>2022-06-30T10:02:44.000Z</time>
      </trkpt>
      <trkpt lat="47.28371" lon="-2.35389">
        <ele>33</ele>
        <time>2022-06-30T10:02:47.000Z</time>
      </trkpt>
      <trkpt lat="47.28368" lon="-2.35384">
        <ele>32.400001525879</ele>
        <time>2022-06-30T10:02:48.000Z</time>
      </trkpt>
      <trkpt lat="47.28366" lon="-2.35379">
        <ele>31.799999237061</ele>
        <time>2022-06-30T10:02:49.000Z</time>
      </trkpt>
      <trkpt lat="47.28365" lon="-2.35373">
        <ele>31.200000762939</ele>
        <time>2022-06-30T10:02:50.000Z</time>
      </trkpt>
      <trkpt lat="47.28363" lon="-2.35369">
        <ele>30.39999961853</ele>
        <time>2022-06-30T10:02:51.000Z</time>
      </trkpt>
      <trkpt lat="47.28362" lon="-2.35366">
        <ele>29.60000038147</ele>
        <time>2022-06-30T10:02:52.000Z</time>
      </trkpt>
      <trkpt lat="47.2836" lon="-2.35364">
        <ele>28.799999237061</ele>
        <time>2022-06-30T10:02:53.000Z</time>
      </trkpt>
      <trkpt lat="47.28358" lon="-2.35361">
        <ele>28</ele>
        <time>2022-06-30T10:02:54.000Z</time>
      </trkpt>
      <trkpt lat="47.28356" lon="-2.35354">
        <ele>27.60000038147</ele>
        <time>2022-06-30T10:02:56.000Z</time>
      </trkpt>
      <trkpt lat="47.28355" lon="-2.35346">
        <ele>27.200000762939</ele>
        <time>2022-06-30T10:02:57.000Z</time>
      </trkpt>
      <trkpt lat="47.28355" lon="-2.3534">
        <ele>26.799999237061</ele>
        <time>2022-06-30T10:02:58.000Z</time>
      </trkpt>
      <trkpt lat="47.28354" lon="-2.35336">
        <ele>26.200000762939</ele>
        <time>2022-06-30T10:02:59.000Z</time>
      </trkpt>
      <trkpt lat="47.28352" lon="-2.35334">
        <ele>25.799999237061</ele>
        <time>2022-06-30T10:03:00.000Z</time>
      </trkpt>
      <trkpt lat="47.28347" lon="-2.35337">
        <ele>25.799999237061</ele>
        <time>2022-06-30T10:03:02.000Z</time>
      </trkpt>
      <trkpt lat="47.28335" lon="-2.35344">
        <ele>25.799999237061</ele>
        <time>2022-06-30T10:03:06.000Z</time>
      </trkpt>
      <trkpt lat="47.28331" lon="-2.35347">
        <ele>25.799999237061</ele>
        <time>2022-06-30T10:03:07.000Z</time>
      </trkpt>
      <trkpt lat="47.28304" lon="-2.35365">
        <ele>25.799999237061</ele>
        <time>2022-06-30T10:03:14.000Z</time>
      </trkpt>
      <trkpt lat="47.28296" lon="-2.3537">
        <ele>25.799999237061</ele>
        <time>2022-06-30T10:03:16.000Z</time>
      </trkpt>
      <trkpt lat="47.28286" lon="-2.35379">
        <ele>25.799999237061</ele>
        <time>2022-06-30T10:03:19.000Z</time>
      </trkpt>
      <trkpt lat="47.2828" lon="-2.35399">
        <ele>25.799999237061</ele>
        <time>2022-06-30T10:03:23.000Z</time>
      </trkpt>
      <trkpt lat="47.28269" lon="-2.35405">
        <ele>25.799999237061</ele>
        <time>2022-06-30T10:03:26.000Z</time>
      </trkpt>
      <trkpt lat="47.28261" lon="-2.35406">
        <ele>25.799999237061</ele>
        <time>2022-06-30T10:03:28.000Z</time>
      </trkpt>
      <trkpt lat="47.28257" lon="-2.35405">
        <ele>25.39999961853</ele>
        <time>2022-06-30T10:03:29.000Z</time>
      </trkpt>
      <trkpt lat="47.28253" lon="-2.35404">
        <ele>25</ele>
        <time>2022-06-30T10:03:30.000Z</time>
      </trkpt>
      <trkpt lat="47.28248" lon="-2.35403">
        <ele>24.60000038147</ele>
        <time>2022-06-30T10:03:31.000Z</time>
      </trkpt>
      <trkpt lat="47.28245" lon="-2.35405">
        <ele>24.200000762939</ele>
        <time>2022-06-30T10:03:32.000Z</time>
      </trkpt>
      <trkpt lat="47.28242" lon="-2.35406">
        <ele>23.799999237061</ele>
        <time>2022-06-30T10:03:33.000Z</time>
      </trkpt>
      <trkpt lat="47.28239" lon="-2.35409">
        <ele>23.799999237061</ele>
        <time>2022-06-30T10:03:34.000Z</time>
      </trkpt>
      <trkpt lat="47.28227" lon="-2.35416">
        <ele>23.799999237061</ele>
        <time>2022-06-30T10:03:37.000Z</time>
      </trkpt>
      <trkpt lat="47.28218" lon="-2.35423">
        <ele>23.799999237061</ele>
        <time>2022-06-30T10:03:39.000Z</time>
      </trkpt>
      <trkpt lat="47.28196" lon="-2.35438">
        <ele>23.799999237061</ele>
        <time>2022-06-30T10:03:44.000Z</time>
      </trkpt>
      <trkpt lat="47.28187" lon="-2.35444">
        <ele>23.799999237061</ele>
        <time>2022-06-30T10:03:46.000Z</time>
      </trkpt>
      <trkpt lat="47.28154" lon="-2.35456">
        <ele>23.799999237061</ele>
        <time>2022-06-30T10:03:52.000Z</time>
      </trkpt>
      <trkpt lat="47.28149" lon="-2.35459">
        <ele>23.799999237061</ele>
        <time>2022-06-30T10:03:53.000Z</time>
      </trkpt>
      <trkpt lat="47.28129" lon="-2.35465">
        <ele>23.799999237061</ele>
        <time>2022-06-30T10:03:57.000Z</time>
      </trkpt>
      <trkpt lat="47.28123" lon="-2.35467">
        <ele>23.39999961853</ele>
        <time>2022-06-30T10:03:58.000Z</time>
      </trkpt>
      <trkpt lat="47.28118" lon="-2.35469">
        <ele>22.799999237061</ele>
        <time>2022-06-30T10:03:59.000Z</time>
      </trkpt>
      <trkpt lat="47.28113" lon="-2.35471">
        <ele>22.39999961853</ele>
        <time>2022-06-30T10:04:00.000Z</time>
      </trkpt>
      <trkpt lat="47.28107" lon="-2.35473">
        <ele>22</ele>
        <time>2022-06-30T10:04:01.000Z</time>
      </trkpt>
      <trkpt lat="47.28102" lon="-2.35474">
        <ele>21.60000038147</ele>
        <time>2022-06-30T10:04:02.000Z</time>
      </trkpt>
      <trkpt lat="47.28085" lon="-2.3548">
        <ele>21.60000038147</ele>
        <time>2022-06-30T10:04:05.000Z</time>
      </trkpt>
      <trkpt lat="47.2808" lon="-2.35481">
        <ele>21.60000038147</ele>
        <time>2022-06-30T10:04:06.000Z</time>
      </trkpt>
      <trkpt lat="47.28075" lon="-2.35484">
        <ele>21.60000038147</ele>
        <time>2022-06-30T10:04:08.000Z</time>
      </trkpt>
      <trkpt lat="47.28075" lon="-2.35494">
        <ele>21.200000762939</ele>
        <time>2022-06-30T10:04:10.000Z</time>
      </trkpt>
      <trkpt lat="47.28075" lon="-2.355">
        <ele>20.799999237061</ele>
        <time>2022-06-30T10:04:11.000Z</time>
      </trkpt>
      <trkpt lat="47.28075" lon="-2.35504">
        <ele>20.39999961853</ele>
        <time>2022-06-30T10:04:12.000Z</time>
      </trkpt>
      <trkpt lat="47.28076" lon="-2.35509">
        <ele>20</ele>
        <time>2022-06-30T10:04:13.000Z</time>
      </trkpt>
      <trkpt lat="47.28076" lon="-2.35513">
        <ele>19.39999961853</ele>
        <time>2022-06-30T10:04:14.000Z</time>
      </trkpt>
      <trkpt lat="47.28077" lon="-2.3552">
        <ele>19.39999961853</ele>
        <time>2022-06-30T10:04:16.000Z</time>
      </trkpt>
      <trkpt lat="47.28078" lon="-2.3553">
        <ele>20</ele>
        <time>2022-06-30T10:04:19.000Z</time>
      </trkpt>
      <trkpt lat="47.28079" lon="-2.35533">
        <ele>20.39999961853</ele>
        <time>2022-06-30T10:04:20.000Z</time>
      </trkpt>
      <trkpt lat="47.28079" lon="-2.35535">
        <ele>20.799999237061</ele>
        <time>2022-06-30T10:04:21.000Z</time>
      </trkpt>
      <trkpt lat="47.28079" lon="-2.35537">
        <ele>21.200000762939</ele>
        <time>2022-06-30T10:04:22.000Z</time>
      </trkpt>
      <trkpt lat="47.28078" lon="-2.35541">
        <ele>21.60000038147</ele>
        <time>2022-06-30T10:04:23.000Z</time>
      </trkpt>
      <trkpt lat="47.28077" lon="-2.35543">
        <ele>21.60000038147</ele>
        <time>2022-06-30T10:04:24.000Z</time>
      </trkpt>
      <trkpt lat="47.28075" lon="-2.35555">
        <ele>21.60000038147</ele>
        <time>2022-06-30T10:04:27.000Z</time>
      </trkpt>
      <trkpt lat="47.28074" lon="-2.35581">
        <ele>21.60000038147</ele>
        <time>2022-06-30T10:04:33.000Z</time>
      </trkpt>
      <trkpt lat="47.28079" lon="-2.35589">
        <ele>21.60000038147</ele>
        <time>2022-06-30T10:04:37.000Z</time>
      </trkpt>
      <trkpt lat="47.28081" lon="-2.35597">
        <ele>21.60000038147</ele>
        <time>2022-06-30T10:04:42.000Z</time>
      </trkpt>
      <trkpt lat="47.28086" lon="-2.35604">
        <ele>21.60000038147</ele>
        <time>2022-06-30T10:04:46.000Z</time>
      </trkpt>
      <trkpt lat="47.28089" lon="-2.35607">
        <ele>21.60000038147</ele>
        <time>2022-06-30T10:04:48.000Z</time>
      </trkpt>
      <trkpt lat="47.28091" lon="-2.35608">
        <ele>21.60000038147</ele>
        <time>2022-06-30T10:04:50.000Z</time>
      </trkpt>
      <trkpt lat="47.28093" lon="-2.35608">
        <ele>21.60000038147</ele>
        <time>2022-06-30T10:04:53.000Z</time>
      </trkpt>
      <trkpt lat="47.28093" lon="-2.35608">
        <ele>21.60000038147</ele>
        <time>2022-06-30T10:04:54.000Z</time>
      </trkpt>
      <trkpt lat="47.2809" lon="-2.35614">
        <ele>21.60000038147</ele>
        <time>2022-06-30T10:19:15.000Z</time>
      </trkpt>
      <trkpt lat="47.28086" lon="-2.35611">
        <ele>21.60000038147</ele>
        <time>2022-06-30T10:19:17.000Z</time>
      </trkpt>
      <trkpt lat="47.28077" lon="-2.35599">
        <ele>21.60000038147</ele>
        <time>2022-06-30T10:19:23.000Z</time>
      </trkpt>
      <trkpt lat="47.28069" lon="-2.35588">
        <ele>21.60000038147</ele>
        <time>2022-06-30T10:19:30.000Z</time>
      </trkpt>
      <trkpt lat="47.28067" lon="-2.35584">
        <ele>21.60000038147</ele>
        <time>2022-06-30T10:19:32.000Z</time>
      </trkpt>
      <trkpt lat="47.28058" lon="-2.35578">
        <ele>21.60000038147</ele>
        <time>2022-06-30T10:19:35.000Z</time>
      </trkpt>
      <trkpt lat="47.28036" lon="-2.35572">
        <ele>21.60000038147</ele>
        <time>2022-06-30T10:19:40.000Z</time>
      </trkpt>
      <trkpt lat="47.28029" lon="-2.35564">
        <ele>21.60000038147</ele>
        <time>2022-06-30T10:19:42.000Z</time>
      </trkpt>
      <trkpt lat="47.28023" lon="-2.35556">
        <ele>21.60000038147</ele>
        <time>2022-06-30T10:19:44.000Z</time>
      </trkpt>
      <trkpt lat="47.28019" lon="-2.35554">
        <ele>21.60000038147</ele>
        <time>2022-06-30T10:19:45.000Z</time>
      </trkpt>
      <trkpt lat="47.2801" lon="-2.35555">
        <ele>21.60000038147</ele>
        <time>2022-06-30T10:19:47.000Z</time>
      </trkpt>
      <trkpt lat="47.28002" lon="-2.35558">
        <ele>21.60000038147</ele>
        <time>2022-06-30T10:19:49.000Z</time>
      </trkpt>
      <trkpt lat="47.27984" lon="-2.35565">
        <ele>21.60000038147</ele>
        <time>2022-06-30T10:19:53.000Z</time>
      </trkpt>
      <trkpt lat="47.27964" lon="-2.35573">
        <ele>21.60000038147</ele>
        <time>2022-06-30T10:19:57.000Z</time>
      </trkpt>
      <trkpt lat="47.27954" lon="-2.35576">
        <ele>21.60000038147</ele>
        <time>2022-06-30T10:19:59.000Z</time>
      </trkpt>
      <trkpt lat="47.27922" lon="-2.35587">
        <ele>21.60000038147</ele>
        <time>2022-06-30T10:20:05.000Z</time>
      </trkpt>
      <trkpt lat="47.27917" lon="-2.35588">
        <ele>21.200000762939</ele>
        <time>2022-06-30T10:20:06.000Z</time>
      </trkpt>
      <trkpt lat="47.27911" lon="-2.35589">
        <ele>20.799999237061</ele>
        <time>2022-06-30T10:20:07.000Z</time>
      </trkpt>
      <trkpt lat="47.27905" lon="-2.3559">
        <ele>20.39999961853</ele>
        <time>2022-06-30T10:20:08.000Z</time>
      </trkpt>
      <trkpt lat="47.27899" lon="-2.35592">
        <ele>20</ele>
        <time>2022-06-30T10:20:09.000Z</time>
      </trkpt>
      <trkpt lat="47.27893" lon="-2.35593">
        <ele>19.60000038147</ele>
        <time>2022-06-30T10:20:10.000Z</time>
      </trkpt>
      <trkpt lat="47.27881" lon="-2.35595">
        <ele>19.60000038147</ele>
        <time>2022-06-30T10:20:12.000Z</time>
      </trkpt>
      <trkpt lat="47.27841" lon="-2.35607">
        <ele>19.60000038147</ele>
        <time>2022-06-30T10:20:18.000Z</time>
      </trkpt>
      <trkpt lat="47.27835" lon="-2.35609">
        <ele>19.200000762939</ele>
        <time>2022-06-30T10:20:19.000Z</time>
      </trkpt>
      <trkpt lat="47.27828" lon="-2.35611">
        <ele>18.799999237061</ele>
        <time>2022-06-30T10:20:20.000Z</time>
      </trkpt>
      <trkpt lat="47.27822" lon="-2.35612">
        <ele>18.200000762939</ele>
        <time>2022-06-30T10:20:21.000Z</time>
      </trkpt>
      <trkpt lat="47.27815" lon="-2.35614">
        <ele>17.39999961853</ele>
        <time>2022-06-30T10:20:22.000Z</time>
      </trkpt>
      <trkpt lat="47.27809" lon="-2.35616">
        <ele>17.39999961853</ele>
        <time>2022-06-30T10:20:23.000Z</time>
      </trkpt>
      <trkpt lat="47.27779" lon="-2.35631">
        <ele>17</ele>
        <time>2022-06-30T10:20:28.000Z</time>
      </trkpt>
      <trkpt lat="47.27773" lon="-2.35635">
        <ele>16.60000038147</ele>
        <time>2022-06-30T10:20:29.000Z</time>
      </trkpt>
      <trkpt lat="47.27768" lon="-2.3564">
        <ele>16.200000762939</ele>
        <time>2022-06-30T10:20:30.000Z</time>
      </trkpt>
      <trkpt lat="47.27763" lon="-2.35645">
        <ele>15.800000190735</ele>
        <time>2022-06-30T10:20:31.000Z</time>
      </trkpt>
      <trkpt lat="47.27757" lon="-2.35651">
        <ele>15.199999809265</ele>
        <time>2022-06-30T10:20:32.000Z</time>
      </trkpt>
      <trkpt lat="47.27748" lon="-2.35663">
        <ele>15.199999809265</ele>
        <time>2022-06-30T10:20:34.000Z</time>
      </trkpt>
      <trkpt lat="47.27719" lon="-2.35705">
        <ele>15.199999809265</ele>
        <time>2022-06-30T10:20:40.000Z</time>
      </trkpt>
      <trkpt lat="47.27703" lon="-2.35722">
        <ele>14.800000190735</ele>
        <time>2022-06-30T10:20:43.000Z</time>
      </trkpt>
      <trkpt lat="47.27697" lon="-2.35727">
        <ele>14.39999961853</ele>
        <time>2022-06-30T10:20:44.000Z</time>
      </trkpt>
      <trkpt lat="47.27691" lon="-2.35732">
        <ele>14</ele>
        <time>2022-06-30T10:20:45.000Z</time>
      </trkpt>
      <trkpt lat="47.27686" lon="-2.35738">
        <ele>13.60000038147</ele>
        <time>2022-06-30T10:20:46.000Z</time>
      </trkpt>
      <trkpt lat="47.27681" lon="-2.35743">
        <ele>13.199999809265</ele>
        <time>2022-06-30T10:20:47.000Z</time>
      </trkpt>
      <trkpt lat="47.27672" lon="-2.35743">
        <ele>13.199999809265</ele>
        <time>2022-06-30T10:20:49.000Z</time>
      </trkpt>
      <trkpt lat="47.2766" lon="-2.35729">
        <ele>13.199999809265</ele>
        <time>2022-06-30T10:20:52.000Z</time>
      </trkpt>
      <trkpt lat="47.27651" lon="-2.3572">
        <ele>12.800000190735</ele>
        <time>2022-06-30T10:20:54.000Z</time>
      </trkpt>
      <trkpt lat="47.27645" lon="-2.35717">
        <ele>12.39999961853</ele>
        <time>2022-06-30T10:20:55.000Z</time>
      </trkpt>
      <trkpt lat="47.2764" lon="-2.35715">
        <ele>12</ele>
        <time>2022-06-30T10:20:56.000Z</time>
      </trkpt>
      <trkpt lat="47.27634" lon="-2.35713">
        <ele>11.60000038147</ele>
        <time>2022-06-30T10:20:57.000Z</time>
      </trkpt>
      <trkpt lat="47.27628" lon="-2.35711">
        <ele>11.199999809265</ele>
        <time>2022-06-30T10:20:58.000Z</time>
      </trkpt>
      <trkpt lat="47.27617" lon="-2.35709">
        <ele>11.199999809265</ele>
        <time>2022-06-30T10:21:00.000Z</time>
      </trkpt>
      <trkpt lat="47.27613" lon="-2.35709">
        <ele>11.199999809265</ele>
        <time>2022-06-30T10:21:01.000Z</time>
      </trkpt>
      <trkpt lat="47.27597" lon="-2.35706">
        <ele>11.199999809265</ele>
        <time>2022-06-30T10:21:06.000Z</time>
      </trkpt>
      <trkpt lat="47.27587" lon="-2.35704">
        <ele>11.199999809265</ele>
        <time>2022-06-30T10:21:12.000Z</time>
      </trkpt>
      <trkpt lat="47.27582" lon="-2.35702">
        <ele>10.800000190735</ele>
        <time>2022-06-30T10:21:14.000Z</time>
      </trkpt>
      <trkpt lat="47.2758" lon="-2.35702">
        <ele>10.39999961853</ele>
        <time>2022-06-30T10:21:15.000Z</time>
      </trkpt>
      <trkpt lat="47.27578" lon="-2.35701">
        <ele>10</ele>
        <time>2022-06-30T10:21:16.000Z</time>
      </trkpt>
      <trkpt lat="47.27577" lon="-2.35701">
        <ele>9.6000003814697</ele>
        <time>2022-06-30T10:21:17.000Z</time>
      </trkpt>
      <trkpt lat="47.27575" lon="-2.35701">
        <ele>9.1999998092651</ele>
        <time>2022-06-30T10:21:18.000Z</time>
      </trkpt>
      <trkpt lat="47.27572" lon="-2.357">
        <ele>9.1999998092651</ele>
        <time>2022-06-30T10:21:19.000Z</time>
      </trkpt>
      <trkpt lat="47.27567" lon="-2.35697">
        <ele>9.1999998092651</ele>
        <time>2022-06-30T10:21:21.000Z</time>
      </trkpt>
      <trkpt lat="47.27563" lon="-2.35696">
        <ele>9.1999998092651</ele>
        <time>2022-06-30T10:21:22.000Z</time>
      </trkpt>
      <trkpt lat="47.27558" lon="-2.35695">
        <ele>9.1999998092651</ele>
        <time>2022-06-30T10:21:23.000Z</time>
      </trkpt>
      <trkpt lat="47.27527" lon="-2.35688">
        <ele>9.1999998092651</ele>
        <time>2022-06-30T10:21:29.000Z</time>
      </trkpt>
      <trkpt lat="47.27491" lon="-2.35678">
        <ele>9.1999998092651</ele>
        <time>2022-06-30T10:21:35.000Z</time>
      </trkpt>
      <trkpt lat="47.27485" lon="-2.35677">
        <ele>9.1999998092651</ele>
        <time>2022-06-30T10:21:36.000Z</time>
      </trkpt>
      <trkpt lat="47.27473" lon="-2.35675">
        <ele>8.6000003814697</ele>
        <time>2022-06-30T10:21:38.000Z</time>
      </trkpt>
      <trkpt lat="47.27467" lon="-2.35675">
        <ele>8.1999998092651</ele>
        <time>2022-06-30T10:21:39.000Z</time>
      </trkpt>
      <trkpt lat="47.27461" lon="-2.35674">
        <ele>7.8000001907349</ele>
        <time>2022-06-30T10:21:40.000Z</time>
      </trkpt>
      <trkpt lat="47.27454" lon="-2.35672">
        <ele>7.4000000953674</ele>
        <time>2022-06-30T10:21:41.000Z</time>
      </trkpt>
      <trkpt lat="47.27448" lon="-2.3567">
        <ele>7</ele>
        <time>2022-06-30T10:21:42.000Z</time>
      </trkpt>
      <trkpt lat="47.27436" lon="-2.35666">
        <ele>7</ele>
        <time>2022-06-30T10:21:44.000Z</time>
      </trkpt>
      <trkpt lat="47.27431" lon="-2.35664">
        <ele>7</ele>
        <time>2022-06-30T10:21:45.000Z</time>
      </trkpt>
      <trkpt lat="47.27415" lon="-2.35664">
        <ele>7</ele>
        <time>2022-06-30T10:21:48.000Z</time>
      </trkpt>
      <trkpt lat="47.2741" lon="-2.35666">
        <ele>7</ele>
        <time>2022-06-30T10:21:49.000Z</time>
      </trkpt>
      <trkpt lat="47.27389" lon="-2.35679">
        <ele>7</ele>
        <time>2022-06-30T10:21:53.000Z</time>
      </trkpt>
      <trkpt lat="47.27352" lon="-2.35704">
        <ele>7</ele>
        <time>2022-06-30T10:22:00.000Z</time>
      </trkpt>
      <trkpt lat="47.27323" lon="-2.35733">
        <ele>7</ele>
        <time>2022-06-30T10:22:07.000Z</time>
      </trkpt>
      <trkpt lat="47.27309" lon="-2.35738">
        <ele>7</ele>
        <time>2022-06-30T10:22:11.000Z</time>
      </trkpt>
      <trkpt lat="47.27307" lon="-2.3572">
        <ele>7</ele>
        <time>2022-06-30T10:22:14.000Z</time>
      </trkpt>
      <trkpt lat="47.27301" lon="-2.35701">
        <ele>7</ele>
        <time>2022-06-30T10:22:17.000Z</time>
      </trkpt>
      <trkpt lat="47.27295" lon="-2.35689">
        <ele>7</ele>
        <time>2022-06-30T10:22:19.000Z</time>
      </trkpt>
      <trkpt lat="47.2728" lon="-2.35652">
        <ele>7</ele>
        <time>2022-06-30T10:22:25.000Z</time>
      </trkpt>
      <trkpt lat="47.27252" lon="-2.35587">
        <ele>7</ele>
        <time>2022-06-30T10:22:35.000Z</time>
      </trkpt>
      <trkpt lat="47.27246" lon="-2.35575">
        <ele>7</ele>
        <time>2022-06-30T10:22:37.000Z</time>
      </trkpt>
      <trkpt lat="47.27232" lon="-2.35543">
        <ele>7</ele>
        <time>2022-06-30T10:22:42.000Z</time>
      </trkpt>
      <trkpt lat="47.27207" lon="-2.35488">
        <ele>7</ele>
        <time>2022-06-30T10:22:50.000Z</time>
      </trkpt>
      <trkpt lat="47.27187" lon="-2.35451">
        <ele>7</ele>
        <time>2022-06-30T10:22:56.000Z</time>
      </trkpt>
      <trkpt lat="47.27156" lon="-2.3539">
        <ele>7</ele>
        <time>2022-06-30T10:23:05.000Z</time>
      </trkpt>
      <trkpt lat="47.27122" lon="-2.35329">
        <ele>7</ele>
        <time>2022-06-30T10:23:14.000Z</time>
      </trkpt>
      <trkpt lat="47.27084" lon="-2.35273">
        <ele>7</ele>
        <time>2022-06-30T10:23:23.000Z</time>
      </trkpt>
      <trkpt lat="47.2705" lon="-2.35221">
        <ele>7</ele>
        <time>2022-06-30T10:23:31.000Z</time>
      </trkpt>
      <trkpt lat="47.27013" lon="-2.35162">
        <ele>7</ele>
        <time>2022-06-30T10:23:40.000Z</time>
      </trkpt>
      <trkpt lat="47.26982" lon="-2.35115">
        <ele>7</ele>
        <time>2022-06-30T10:23:47.000Z</time>
      </trkpt>
      <trkpt lat="47.26948" lon="-2.35063">
        <ele>7</ele>
        <time>2022-06-30T10:23:55.000Z</time>
      </trkpt>
      <trkpt lat="47.2693" lon="-2.35041">
        <ele>7</ele>
        <time>2022-06-30T10:23:59.000Z</time>
      </trkpt>
      <trkpt lat="47.2692" lon="-2.35033">
        <ele>7</ele>
        <time>2022-06-30T10:24:01.000Z</time>
      </trkpt>
      <trkpt lat="47.26915" lon="-2.35028">
        <ele>7</ele>
        <time>2022-06-30T10:24:02.000Z</time>
      </trkpt>
      <trkpt lat="47.26902" lon="-2.3501">
        <ele>7</ele>
        <time>2022-06-30T10:24:05.000Z</time>
      </trkpt>
      <trkpt lat="47.26872" lon="-2.34963">
        <ele>7</ele>
        <time>2022-06-30T10:24:12.000Z</time>
      </trkpt>
      <trkpt lat="47.26832" lon="-2.34902">
        <ele>7</ele>
        <time>2022-06-30T10:24:21.000Z</time>
      </trkpt>
      <trkpt lat="47.26828" lon="-2.34896">
        <ele>7</ele>
        <time>2022-06-30T10:24:22.000Z</time>
      </trkpt>
      <trkpt lat="47.26796" lon="-2.3485">
        <ele>7</ele>
        <time>2022-06-30T10:24:29.000Z</time>
      </trkpt>
      <trkpt lat="47.26782" lon="-2.3483">
        <ele>7</ele>
        <time>2022-06-30T10:24:32.000Z</time>
      </trkpt>
      <trkpt lat="47.26739" lon="-2.34774">
        <ele>7</ele>
        <time>2022-06-30T10:24:41.000Z</time>
      </trkpt>
      <trkpt lat="47.267" lon="-2.34726">
        <ele>7</ele>
        <time>2022-06-30T10:24:49.000Z</time>
      </trkpt>
      <trkpt lat="47.26667" lon="-2.34685">
        <ele>7</ele>
        <time>2022-06-30T10:24:56.000Z</time>
      </trkpt>
      <trkpt lat="47.26625" lon="-2.34633">
        <ele>7</ele>
        <time>2022-06-30T10:25:05.000Z</time>
      </trkpt>
      <trkpt lat="47.26581" lon="-2.34582">
        <ele>7</ele>
        <time>2022-06-30T10:25:14.000Z</time>
      </trkpt>
      <trkpt lat="47.26547" lon="-2.34545">
        <ele>7</ele>
        <time>2022-06-30T10:25:22.000Z</time>
      </trkpt>
      <trkpt lat="47.26503" lon="-2.34508">
        <ele>7</ele>
        <time>2022-06-30T10:25:30.000Z</time>
      </trkpt>
      <trkpt lat="47.26458" lon="-2.34476">
        <ele>7</ele>
        <time>2022-06-30T10:25:38.000Z</time>
      </trkpt>
      <trkpt lat="47.26412" lon="-2.34444">
        <ele>7</ele>
        <time>2022-06-30T10:25:46.000Z</time>
      </trkpt>
      <trkpt lat="47.2637" lon="-2.34408">
        <ele>7</ele>
        <time>2022-06-30T10:25:54.000Z</time>
      </trkpt>
      <trkpt lat="47.26337" lon="-2.34381">
        <ele>7</ele>
        <time>2022-06-30T10:26:00.000Z</time>
      </trkpt>
      <trkpt lat="47.26331" lon="-2.3438">
        <ele>7</ele>
        <time>2022-06-30T10:26:01.000Z</time>
      </trkpt>
      <trkpt lat="47.26317" lon="-2.34362">
        <ele>7</ele>
        <time>2022-06-30T10:26:04.000Z</time>
      </trkpt>
      <trkpt lat="47.26312" lon="-2.34355">
        <ele>7</ele>
        <time>2022-06-30T10:26:05.000Z</time>
      </trkpt>
      <trkpt lat="47.26307" lon="-2.34349">
        <ele>7</ele>
        <time>2022-06-30T10:26:06.000Z</time>
      </trkpt>
      <trkpt lat="47.26291" lon="-2.34332">
        <ele>7</ele>
        <time>2022-06-30T10:26:09.000Z</time>
      </trkpt>
      <trkpt lat="47.26262" lon="-2.34303">
        <ele>7</ele>
        <time>2022-06-30T10:26:15.000Z</time>
      </trkpt>
      <trkpt lat="47.26222" lon="-2.34261">
        <ele>7</ele>
        <time>2022-06-30T10:26:23.000Z</time>
      </trkpt>
      <trkpt lat="47.26179" lon="-2.34217">
        <ele>7</ele>
        <time>2022-06-30T10:26:32.000Z</time>
      </trkpt>
      <trkpt lat="47.2614" lon="-2.34184">
        <ele>7</ele>
        <time>2022-06-30T10:26:40.000Z</time>
      </trkpt>
      <trkpt lat="47.26121" lon="-2.34167">
        <ele>7</ele>
        <time>2022-06-30T10:26:44.000Z</time>
      </trkpt>
      <trkpt lat="47.26116" lon="-2.34163">
        <ele>7</ele>
        <time>2022-06-30T10:26:45.000Z</time>
      </trkpt>
      <trkpt lat="47.261" lon="-2.34153">
        <ele>7</ele>
        <time>2022-06-30T10:26:48.000Z</time>
      </trkpt>
      <trkpt lat="47.26056" lon="-2.34131">
        <ele>7</ele>
        <time>2022-06-30T10:26:56.000Z</time>
      </trkpt>
      <trkpt lat="47.26021" lon="-2.34114">
        <ele>7</ele>
        <time>2022-06-30T10:27:03.000Z</time>
      </trkpt>
      <trkpt lat="47.25982" lon="-2.34095">
        <ele>7</ele>
        <time>2022-06-30T10:27:11.000Z</time>
      </trkpt>
      <trkpt lat="47.25948" lon="-2.3408">
        <ele>7</ele>
        <time>2022-06-30T10:27:18.000Z</time>
      </trkpt>
      <trkpt lat="47.25932" lon="-2.34076">
        <ele>7</ele>
        <time>2022-06-30T10:27:23.000Z</time>
      </trkpt>
      <trkpt lat="47.25918" lon="-2.34072">
        <ele>7</ele>
        <time>2022-06-30T10:27:28.000Z</time>
      </trkpt>
      <trkpt lat="47.25909" lon="-2.34068">
        <ele>7</ele>
        <time>2022-06-30T10:27:30.000Z</time>
      </trkpt>
      <trkpt lat="47.25904" lon="-2.34056">
        <ele>7</ele>
        <time>2022-06-30T10:27:32.000Z</time>
      </trkpt>
      <trkpt lat="47.25904" lon="-2.34032">
        <ele>7</ele>
        <time>2022-06-30T10:27:35.000Z</time>
      </trkpt>
      <trkpt lat="47.25909" lon="-2.34017">
        <ele>7</ele>
        <time>2022-06-30T10:27:37.000Z</time>
      </trkpt>
      <trkpt lat="47.25911" lon="-2.3401">
        <ele>7</ele>
        <time>2022-06-30T10:27:38.000Z</time>
      </trkpt>
      <trkpt lat="47.25913" lon="-2.33993">
        <ele>7</ele>
        <time>2022-06-30T10:27:40.000Z</time>
      </trkpt>
      <trkpt lat="47.25923" lon="-2.33963">
        <ele>6.5999999046326</ele>
        <time>2022-06-30T10:27:44.000Z</time>
      </trkpt>
      <trkpt lat="47.25926" lon="-2.33955">
        <ele>6.1999998092651</ele>
        <time>2022-06-30T10:27:45.000Z</time>
      </trkpt>
      <trkpt lat="47.25929" lon="-2.33948">
        <ele>5.8000001907349</ele>
        <time>2022-06-30T10:27:46.000Z</time>
      </trkpt>
      <trkpt lat="47.25932" lon="-2.33941">
        <ele>5.4000000953674</ele>
        <time>2022-06-30T10:27:47.000Z</time>
      </trkpt>
      <trkpt lat="47.25936" lon="-2.33935">
        <ele>5</ele>
        <time>2022-06-30T10:27:48.000Z</time>
      </trkpt>
      <trkpt lat="47.25944" lon="-2.33923">
        <ele>5</ele>
        <time>2022-06-30T10:27:50.000Z</time>
      </trkpt>
      <trkpt lat="47.2595" lon="-2.33903">
        <ele>5</ele>
        <time>2022-06-30T10:27:53.000Z</time>
      </trkpt>
      <trkpt lat="47.25962" lon="-2.33885">
        <ele>5</ele>
        <time>2022-06-30T10:27:57.000Z</time>
      </trkpt>
      <trkpt lat="47.25966" lon="-2.33885">
        <ele>5</ele>
        <time>2022-06-30T10:28:00.000Z</time>
      </trkpt>
      <trkpt lat="47.25968" lon="-2.33886">
        <ele>5</ele>
        <time>2022-06-30T10:28:01.000Z</time>
      </trkpt>
      <trkpt lat="47.25975" lon="-2.33886">
        <ele>5</ele>
        <time>2022-06-30T10:28:03.000Z</time>
      </trkpt>
      <trkpt lat="47.25977" lon="-2.33882">
        <ele>5</ele>
        <time>2022-06-30T10:28:04.000Z</time>
      </trkpt>
      <trkpt lat="47.25984" lon="-2.33862">
        <ele>5</ele>
        <time>2022-06-30T10:28:08.000Z</time>
      </trkpt>
      <trkpt lat="47.25986" lon="-2.33856">
        <ele>5</ele>
        <time>2022-06-30T10:28:09.000Z</time>
      </trkpt>
      <trkpt lat="47.26002" lon="-2.33812">
        <ele>5</ele>
        <time>2022-06-30T10:28:15.000Z</time>
      </trkpt>
      <trkpt lat="47.26023" lon="-2.33751">
        <ele>5</ele>
        <time>2022-06-30T10:28:23.000Z</time>
      </trkpt>
      <trkpt lat="47.26039" lon="-2.33707">
        <ele>5</ele>
        <time>2022-06-30T10:28:29.000Z</time>
      </trkpt>
      <trkpt lat="47.26045" lon="-2.33695">
        <ele>5</ele>
        <time>2022-06-30T10:28:32.000Z</time>
      </trkpt>
      <trkpt lat="47.26047" lon="-2.33691">
        <ele>5</ele>
        <time>2022-06-30T10:28:33.000Z</time>
      </trkpt>
      <trkpt lat="47.26057" lon="-2.33663">
        <ele>5</ele>
        <time>2022-06-30T10:28:38.000Z</time>
      </trkpt>
      <trkpt lat="47.26072" lon="-2.3362">
        <ele>5</ele>
        <time>2022-06-30T10:28:44.000Z</time>
      </trkpt>
      <trkpt lat="47.26089" lon="-2.33573">
        <ele>5</ele>
        <time>2022-06-30T10:28:51.000Z</time>
      </trkpt>
      <trkpt lat="47.26102" lon="-2.3353">
        <ele>5</ele>
        <time>2022-06-30T10:28:58.000Z</time>
      </trkpt>
      <trkpt lat="47.26106" lon="-2.33516">
        <ele>5</ele>
        <time>2022-06-30T10:29:00.000Z</time>
      </trkpt>
      <trkpt lat="47.26114" lon="-2.33494">
        <ele>5</ele>
        <time>2022-06-30T10:29:03.000Z</time>
      </trkpt>
      <trkpt lat="47.26131" lon="-2.33448">
        <ele>5</ele>
        <time>2022-06-30T10:29:10.000Z</time>
      </trkpt>
      <trkpt lat="47.26135" lon="-2.3343">
        <ele>5</ele>
        <time>2022-06-30T10:29:14.000Z</time>
      </trkpt>
      <trkpt lat="47.26134" lon="-2.33424">
        <ele>5</ele>
        <time>2022-06-30T10:29:15.000Z</time>
      </trkpt>
      <trkpt lat="47.26129" lon="-2.33415">
        <ele>5</ele>
        <time>2022-06-30T10:29:17.000Z</time>
      </trkpt>
      <trkpt lat="47.2612" lon="-2.33406">
        <ele>5</ele>
        <time>2022-06-30T10:29:19.000Z</time>
      </trkpt>
      <trkpt lat="47.26108" lon="-2.3339">
        <ele>5</ele>
        <time>2022-06-30T10:29:22.000Z</time>
      </trkpt>
      <trkpt lat="47.26082" lon="-2.33361">
        <ele>5</ele>
        <time>2022-06-30T10:29:28.000Z</time>
      </trkpt>
      <trkpt lat="47.26078" lon="-2.33356">
        <ele>5</ele>
        <time>2022-06-30T10:29:29.000Z</time>
      </trkpt>
      <trkpt lat="47.2607" lon="-2.33334">
        <ele>5</ele>
        <time>2022-06-30T10:29:32.000Z</time>
      </trkpt>
      <trkpt lat="47.26045" lon="-2.3326">
        <ele>5</ele>
        <time>2022-06-30T10:29:41.000Z</time>
      </trkpt>
      <trkpt lat="47.26022" lon="-2.33195">
        <ele>5</ele>
        <time>2022-06-30T10:29:49.000Z</time>
      </trkpt>
      <trkpt lat="47.26002" lon="-2.33136">
        <ele>5</ele>
        <time>2022-06-30T10:29:56.000Z</time>
      </trkpt>
      <trkpt lat="47.25992" lon="-2.33104">
        <ele>5</ele>
        <time>2022-06-30T10:30:00.000Z</time>
      </trkpt>
      <trkpt lat="47.25988" lon="-2.33086">
        <ele>5</ele>
        <time>2022-06-30T10:30:02.000Z</time>
      </trkpt>
      <trkpt lat="47.25978" lon="-2.33065">
        <ele>5</ele>
        <time>2022-06-30T10:30:05.000Z</time>
      </trkpt>
      <trkpt lat="47.25974" lon="-2.33058">
        <ele>5</ele>
        <time>2022-06-30T10:30:06.000Z</time>
      </trkpt>
      <trkpt lat="47.25963" lon="-2.33026">
        <ele>5</ele>
        <time>2022-06-30T10:30:10.000Z</time>
      </trkpt>
      <trkpt lat="47.25943" lon="-2.32968">
        <ele>5</ele>
        <time>2022-06-30T10:30:17.000Z</time>
      </trkpt>
      <trkpt lat="47.25922" lon="-2.32907">
        <ele>5</ele>
        <time>2022-06-30T10:30:24.000Z</time>
      </trkpt>
      <trkpt lat="47.25918" lon="-2.32899">
        <ele>5</ele>
        <time>2022-06-30T10:30:25.000Z</time>
      </trkpt>
      <trkpt lat="47.25912" lon="-2.32882">
        <ele>5</ele>
        <time>2022-06-30T10:30:27.000Z</time>
      </trkpt>
      <trkpt lat="47.25906" lon="-2.32865">
        <ele>5</ele>
        <time>2022-06-30T10:30:29.000Z</time>
      </trkpt>
      <trkpt lat="47.25882" lon="-2.32799">
        <ele>5</ele>
        <time>2022-06-30T10:30:37.000Z</time>
      </trkpt>
      <trkpt lat="47.25865" lon="-2.32742">
        <ele>5</ele>
        <time>2022-06-30T10:30:44.000Z</time>
      </trkpt>
      <trkpt lat="47.25865" lon="-2.32734">
        <ele>5</ele>
        <time>2022-06-30T10:30:45.000Z</time>
      </trkpt>
      <trkpt lat="47.2586" lon="-2.32706">
        <ele>5</ele>
        <time>2022-06-30T10:30:49.000Z</time>
      </trkpt>
      <trkpt lat="47.25857" lon="-2.32699">
        <ele>5</ele>
        <time>2022-06-30T10:30:50.000Z</time>
      </trkpt>
      <trkpt lat="47.25854" lon="-2.32694">
        <ele>5</ele>
        <time>2022-06-30T10:30:51.000Z</time>
      </trkpt>
      <trkpt lat="47.25848" lon="-2.32685">
        <ele>5</ele>
        <time>2022-06-30T10:30:53.000Z</time>
      </trkpt>
      <trkpt lat="47.25842" lon="-2.32662">
        <ele>5</ele>
        <time>2022-06-30T10:30:56.000Z</time>
      </trkpt>
      <trkpt lat="47.25826" lon="-2.32601">
        <ele>5</ele>
        <time>2022-06-30T10:31:03.000Z</time>
      </trkpt>
      <trkpt lat="47.25809" lon="-2.32528">
        <ele>5</ele>
        <time>2022-06-30T10:31:11.000Z</time>
      </trkpt>
      <trkpt lat="47.25799" lon="-2.32482">
        <ele>5</ele>
        <time>2022-06-30T10:31:17.000Z</time>
      </trkpt>
      <trkpt lat="47.25801" lon="-2.32472">
        <ele>5</ele>
        <time>2022-06-30T10:31:19.000Z</time>
      </trkpt>
      <trkpt lat="47.25804" lon="-2.32468">
        <ele>5</ele>
        <time>2022-06-30T10:31:20.000Z</time>
      </trkpt>
      <trkpt lat="47.25812" lon="-2.32454">
        <ele>5</ele>
        <time>2022-06-30T10:31:24.000Z</time>
      </trkpt>
      <trkpt lat="47.25823" lon="-2.32461">
        <ele>5</ele>
        <time>2022-06-30T10:31:27.000Z</time>
      </trkpt>
      <trkpt lat="47.25836" lon="-2.3247">
        <ele>5</ele>
        <time>2022-06-30T10:31:30.000Z</time>
      </trkpt>
      <trkpt lat="47.25841" lon="-2.32473">
        <ele>5</ele>
        <time>2022-06-30T10:31:31.000Z</time>
      </trkpt>
      <trkpt lat="47.25846" lon="-2.32474">
        <ele>5</ele>
        <time>2022-06-30T10:31:32.000Z</time>
      </trkpt>
      <trkpt lat="47.25866" lon="-2.32474">
        <ele>5</ele>
        <time>2022-06-30T10:31:36.000Z</time>
      </trkpt>
      <trkpt lat="47.25871" lon="-2.32474">
        <ele>5</ele>
        <time>2022-06-30T10:31:37.000Z</time>
      </trkpt>
      <trkpt lat="47.25891" lon="-2.32465">
        <ele>5</ele>
        <time>2022-06-30T10:31:41.000Z</time>
      </trkpt>
      <trkpt lat="47.25895" lon="-2.32461">
        <ele>5</ele>
        <time>2022-06-30T10:31:42.000Z</time>
      </trkpt>
      <trkpt lat="47.25907" lon="-2.32451">
        <ele>5</ele>
        <time>2022-06-30T10:31:45.000Z</time>
      </trkpt>
      <trkpt lat="47.25914" lon="-2.32442">
        <ele>5</ele>
        <time>2022-06-30T10:31:47.000Z</time>
      </trkpt>
      <trkpt lat="47.25921" lon="-2.32432">
        <ele>5</ele>
        <time>2022-06-30T10:31:49.000Z</time>
      </trkpt>
      <trkpt lat="47.25927" lon="-2.32427">
        <ele>5</ele>
        <time>2022-06-30T10:31:50.000Z</time>
      </trkpt>
      <trkpt lat="47.25935" lon="-2.32417">
        <ele>5</ele>
        <time>2022-06-30T10:31:52.000Z</time>
      </trkpt>
      <trkpt lat="47.25967" lon="-2.32377">
        <ele>5</ele>
        <time>2022-06-30T10:31:59.000Z</time>
      </trkpt>
      <trkpt lat="47.26003" lon="-2.3233">
        <ele>5</ele>
        <time>2022-06-30T10:32:07.000Z</time>
      </trkpt>
      <trkpt lat="47.26029" lon="-2.32298">
        <ele>5</ele>
        <time>2022-06-30T10:32:13.000Z</time>
      </trkpt>
      <trkpt lat="47.26061" lon="-2.32261">
        <ele>5</ele>
        <time>2022-06-30T10:32:20.000Z</time>
      </trkpt>
      <trkpt lat="47.26082" lon="-2.32235">
        <ele>5</ele>
        <time>2022-06-30T10:32:25.000Z</time>
      </trkpt>
      <trkpt lat="47.26104" lon="-2.32202">
        <ele>5</ele>
        <time>2022-06-30T10:32:30.000Z</time>
      </trkpt>
      <trkpt lat="47.26107" lon="-2.32195">
        <ele>5</ele>
        <time>2022-06-30T10:32:31.000Z</time>
      </trkpt>
      <trkpt lat="47.26125" lon="-2.32151">
        <ele>5</ele>
        <time>2022-06-30T10:32:37.000Z</time>
      </trkpt>
      <trkpt lat="47.2614" lon="-2.32101">
        <ele>5</ele>
        <time>2022-06-30T10:32:44.000Z</time>
      </trkpt>
      <trkpt lat="47.26155" lon="-2.32049">
        <ele>5</ele>
        <time>2022-06-30T10:32:51.000Z</time>
      </trkpt>
      <trkpt lat="47.26159" lon="-2.32034">
        <ele>5</ele>
        <time>2022-06-30T10:32:53.000Z</time>
      </trkpt>
      <trkpt lat="47.26169" lon="-2.3202">
        <ele>5</ele>
        <time>2022-06-30T10:32:56.000Z</time>
      </trkpt>
      <trkpt lat="47.26181" lon="-2.32022">
        <ele>5</ele>
        <time>2022-06-30T10:32:59.000Z</time>
      </trkpt>
      <trkpt lat="47.26188" lon="-2.32023">
        <ele>5</ele>
        <time>2022-06-30T10:33:02.000Z</time>
      </trkpt>
      <trkpt lat="47.2619" lon="-2.32023">
        <ele>5</ele>
        <time>2022-06-30T10:33:03.000Z</time>
      </trkpt>
      <trkpt lat="47.26196" lon="-2.3202">
        <ele>5</ele>
        <time>2022-06-30T10:33:07.000Z</time>
      </trkpt>
      <trkpt lat="47.26197" lon="-2.32017">
        <ele>5</ele>
        <time>2022-06-30T10:33:08.000Z</time>
      </trkpt>
      <trkpt lat="47.26202" lon="-2.32002">
        <ele>5</ele>
        <time>2022-06-30T10:33:13.000Z</time>
      </trkpt>
      <trkpt lat="47.26204" lon="-2.32">
        <ele>5</ele>
        <time>2022-06-30T10:33:14.000Z</time>
      </trkpt>
      <trkpt lat="47.26211" lon="-2.31992">
        <ele>5</ele>
        <time>2022-06-30T10:33:17.000Z</time>
      </trkpt>
      <trkpt lat="47.26216" lon="-2.31984">
        <ele>5</ele>
        <time>2022-06-30T10:33:19.000Z</time>
      </trkpt>
      <trkpt lat="47.26235" lon="-2.31966">
        <ele>5</ele>
        <time>2022-06-30T10:33:24.000Z</time>
      </trkpt>
      <trkpt lat="47.26243" lon="-2.31957">
        <ele>5</ele>
        <time>2022-06-30T10:33:26.000Z</time>
      </trkpt>
      <trkpt lat="47.26249" lon="-2.31949">
        <ele>5</ele>
        <time>2022-06-30T10:33:28.000Z</time>
      </trkpt>
      <trkpt lat="47.26261" lon="-2.31927">
        <ele>5</ele>
        <time>2022-06-30T10:33:34.000Z</time>
      </trkpt>
      <trkpt lat="47.26278" lon="-2.31904">
        <ele>5</ele>
        <time>2022-06-30T10:33:39.000Z</time>
      </trkpt>
      <trkpt lat="47.26295" lon="-2.3188">
        <ele>5</ele>
        <time>2022-06-30T10:33:45.000Z</time>
      </trkpt>
      <trkpt lat="47.26296" lon="-2.31874">
        <ele>5</ele>
        <time>2022-06-30T10:33:46.000Z</time>
      </trkpt>
      <trkpt lat="47.263" lon="-2.31841">
        <ele>5</ele>
        <time>2022-06-30T10:33:51.000Z</time>
      </trkpt>
      <trkpt lat="47.26302" lon="-2.31809">
        <ele>5</ele>
        <time>2022-06-30T10:33:56.000Z</time>
      </trkpt>
      <trkpt lat="47.26302" lon="-2.31766">
        <ele>5</ele>
        <time>2022-06-30T10:34:02.000Z</time>
      </trkpt>
      <trkpt lat="47.263" lon="-2.31726">
        <ele>5</ele>
        <time>2022-06-30T10:34:08.000Z</time>
      </trkpt>
      <trkpt lat="47.26303" lon="-2.3172">
        <ele>5</ele>
        <time>2022-06-30T10:34:09.000Z</time>
      </trkpt>
      <trkpt lat="47.26316" lon="-2.3171">
        <ele>5</ele>
        <time>2022-06-30T10:34:13.000Z</time>
      </trkpt>
      <trkpt lat="47.26333" lon="-2.31699">
        <ele>5</ele>
        <time>2022-06-30T10:34:18.000Z</time>
      </trkpt>
      <trkpt lat="47.26334" lon="-2.31695">
        <ele>5</ele>
        <time>2022-06-30T10:34:19.000Z</time>
      </trkpt>
      <trkpt lat="47.26341" lon="-2.31685">
        <ele>5</ele>
        <time>2022-06-30T10:34:22.000Z</time>
      </trkpt>
      <trkpt lat="47.26343" lon="-2.31684">
        <ele>5.4000000953674</ele>
        <time>2022-06-30T10:34:23.000Z</time>
      </trkpt>
      <trkpt lat="47.26347" lon="-2.31684">
        <ele>5.8000001907349</ele>
        <time>2022-06-30T10:34:24.000Z</time>
      </trkpt>
      <trkpt lat="47.2635" lon="-2.31682">
        <ele>6.1999998092651</ele>
        <time>2022-06-30T10:34:25.000Z</time>
      </trkpt>
      <trkpt lat="47.26353" lon="-2.3168">
        <ele>6.5999999046326</ele>
        <time>2022-06-30T10:34:26.000Z</time>
      </trkpt>
      <trkpt lat="47.26356" lon="-2.31679">
        <ele>7</ele>
        <time>2022-06-30T10:34:27.000Z</time>
      </trkpt>
      <trkpt lat="47.26376" lon="-2.31671">
        <ele>7</ele>
        <time>2022-06-30T10:34:33.000Z</time>
      </trkpt>
      <trkpt lat="47.26389" lon="-2.31664">
        <ele>7.4000000953674</ele>
        <time>2022-06-30T10:34:37.000Z</time>
      </trkpt>
      <trkpt lat="47.26391" lon="-2.31663">
        <ele>7.8000001907349</ele>
        <time>2022-06-30T10:34:38.000Z</time>
      </trkpt>
      <trkpt lat="47.26394" lon="-2.31662">
        <ele>8.1999998092651</ele>
        <time>2022-06-30T10:34:39.000Z</time>
      </trkpt>
      <trkpt lat="47.26396" lon="-2.31661">
        <ele>8.6000003814697</ele>
        <time>2022-06-30T10:34:40.000Z</time>
      </trkpt>
      <trkpt lat="47.26399" lon="-2.3166">
        <ele>9</ele>
        <time>2022-06-30T10:34:41.000Z</time>
      </trkpt>
      <trkpt lat="47.26411" lon="-2.31649">
        <ele>9</ele>
        <time>2022-06-30T10:34:46.000Z</time>
      </trkpt>
      <trkpt lat="47.26412" lon="-2.31645">
        <ele>9</ele>
        <time>2022-06-30T10:34:47.000Z</time>
      </trkpt>
      <trkpt lat="47.26412" lon="-2.31636">
        <ele>9</ele>
        <time>2022-06-30T10:34:49.000Z</time>
      </trkpt>
      <trkpt lat="47.26411" lon="-2.31602">
        <ele>9</ele>
        <time>2022-06-30T10:34:55.000Z</time>
      </trkpt>
      <trkpt lat="47.26411" lon="-2.31576">
        <ele>9</ele>
        <time>2022-06-30T10:35:00.000Z</time>
      </trkpt>
      <trkpt lat="47.26412" lon="-2.31553">
        <ele>9</ele>
        <time>2022-06-30T10:35:06.000Z</time>
      </trkpt>
      <trkpt lat="47.26417" lon="-2.31551">
        <ele>9</ele>
        <time>2022-06-30T10:35:09.000Z</time>
      </trkpt>
      <trkpt lat="47.26418" lon="-2.31552">
        <ele>9</ele>
        <time>2022-06-30T10:35:10.000Z</time>
      </trkpt>
      <trkpt lat="47.26418" lon="-2.31552">
        <ele>9</ele>
        <time>2022-06-30T10:35:11.000Z</time>
      </trkpt>
    </trkseg>
  </trk>
</gpx>